<?xml version="1.0" encoding="UTF-8" standalone="no" ?>
<gpx xmlns="http://www.topografix.com/GPX/1/1" xmlns:xsi="http://www.w3.org/2001/XMLSchema-instance" xsi:schemaLocation="http://www.topografix.com/GPX/1/1 http://www.topografix.com/GPX/1/1/gpx.xsd" version="1.1" creator="VisuGPX - https://www.visugpx.com">
  <metadata>
    <name>lundi 2015 04 13</name>
    <desc><![CDATA[rando du lundi]]></desc>
  </metadata>
  <trk>
    <name><![CDATA[2 Place du Châtelet]]></name>
    <desc><![CDATA[]]></desc>
    <trkseg>
      <trkpt lat="48.85753" lon="2.34739">
        <ele>100</ele>
        <time>2015-04-13T18:20:14.351Z</time>
      </trkpt>
      <trkpt lat="48.85761" lon="2.34744">
        <ele>98.5</ele>
        <time>2015-04-13T18:20:21.758Z</time>
      </trkpt>
      <trkpt lat="48.85763" lon="2.34747">
        <ele>98.1</ele>
        <time>2015-04-13T18:20:23.765Z</time>
      </trkpt>
      <trkpt lat="48.85769" lon="2.34757">
        <ele>95.2</ele>
        <time>2015-04-13T18:20:30.799Z</time>
      </trkpt>
      <trkpt lat="48.8577" lon="2.34758">
        <ele>95</ele>
        <time>2015-04-13T18:20:31.830Z</time>
      </trkpt>
      <trkpt lat="48.8577" lon="2.3476">
        <ele>94.7</ele>
        <time>2015-04-13T18:20:33.883Z</time>
      </trkpt>
      <trkpt lat="48.85771" lon="2.3476">
        <ele>94.5</ele>
        <time>2015-04-13T18:20:34.845Z</time>
      </trkpt>
      <trkpt lat="48.8577" lon="2.3476">
        <ele>94.2</ele>
        <time>2015-04-13T18:20:40.805Z</time>
      </trkpt>
      <trkpt lat="48.85772" lon="2.34762">
        <ele>93.2</ele>
        <time>2015-04-13T18:20:41.790Z</time>
      </trkpt>
      <trkpt lat="48.85778" lon="2.34767">
        <ele>92.9</ele>
        <time>2015-04-13T18:20:46.787Z</time>
      </trkpt>
      <trkpt lat="48.8578" lon="2.34768">
        <ele>92.9</ele>
        <time>2015-04-13T18:20:47.914Z</time>
      </trkpt>
      <trkpt lat="48.85787" lon="2.3477">
        <ele>92.9</ele>
        <time>2015-04-13T18:20:52.855Z</time>
      </trkpt>
      <trkpt lat="48.85789" lon="2.34772">
        <ele>92.9</ele>
        <time>2015-04-13T18:20:53.763Z</time>
      </trkpt>
      <trkpt lat="48.85792" lon="2.34779">
        <ele>92.7</ele>
        <time>2015-04-13T18:20:55.847Z</time>
      </trkpt>
      <trkpt lat="48.85795" lon="2.34781">
        <ele>92.6</ele>
        <time>2015-04-13T18:20:56.793Z</time>
      </trkpt>
      <trkpt lat="48.85801" lon="2.34785">
        <ele>92.4</ele>
        <time>2015-04-13T18:20:58.813Z</time>
      </trkpt>
      <trkpt lat="48.85805" lon="2.34788">
        <ele>92.3</ele>
        <time>2015-04-13T18:20:59.822Z</time>
      </trkpt>
      <trkpt lat="48.85812" lon="2.34792">
        <ele>92.1</ele>
        <time>2015-04-13T18:21:01.914Z</time>
      </trkpt>
      <trkpt lat="48.85815" lon="2.34795">
        <ele>92.1</ele>
        <time>2015-04-13T18:21:02.781Z</time>
      </trkpt>
      <trkpt lat="48.85821" lon="2.34799">
        <ele>92.1</ele>
        <time>2015-04-13T18:21:04.808Z</time>
      </trkpt>
      <trkpt lat="48.85824" lon="2.34801">
        <ele>92.1</ele>
        <time>2015-04-13T18:21:05.838Z</time>
      </trkpt>
      <trkpt lat="48.85832" lon="2.34803">
        <ele>92.1</ele>
        <time>2015-04-13T18:21:07.777Z</time>
      </trkpt>
      <trkpt lat="48.85835" lon="2.34804">
        <ele>92.3</ele>
        <time>2015-04-13T18:21:08.810Z</time>
      </trkpt>
      <trkpt lat="48.85843" lon="2.34807">
        <ele>92.4</ele>
        <time>2015-04-13T18:21:11.877Z</time>
      </trkpt>
      <trkpt lat="48.85845" lon="2.34807">
        <ele>92.4</ele>
        <time>2015-04-13T18:21:12.788Z</time>
      </trkpt>
      <trkpt lat="48.85845" lon="2.34809">
        <ele>92</ele>
        <time>2015-04-13T18:21:20.777Z</time>
      </trkpt>
      <trkpt lat="48.85845" lon="2.3481">
        <ele>91.6</ele>
        <time>2015-04-13T18:21:21.771Z</time>
      </trkpt>
      <trkpt lat="48.85845" lon="2.34811">
        <ele>91.7</ele>
        <time>2015-04-13T18:21:22.801Z</time>
      </trkpt>
      <trkpt lat="48.85838" lon="2.3481">
        <ele>91.8</ele>
        <time>2015-04-13T18:21:26.799Z</time>
      </trkpt>
      <trkpt lat="48.85836" lon="2.34811">
        <ele>92</ele>
        <time>2015-04-13T18:21:27.792Z</time>
      </trkpt>
      <trkpt lat="48.85827" lon="2.34812">
        <ele>91.2</ele>
        <time>2015-04-13T18:21:31.817Z</time>
      </trkpt>
      <trkpt lat="48.85825" lon="2.34812">
        <ele>91</ele>
        <time>2015-04-13T18:21:32.871Z</time>
      </trkpt>
      <trkpt lat="48.85819" lon="2.34815">
        <ele>90.3</ele>
        <time>2015-04-13T18:21:41.854Z</time>
      </trkpt>
      <trkpt lat="48.8582" lon="2.34815">
        <ele>90.1</ele>
        <time>2015-04-13T18:21:42.875Z</time>
      </trkpt>
      <trkpt lat="48.8582" lon="2.34816">
        <ele>90</ele>
        <time>2015-04-13T18:21:55.801Z</time>
      </trkpt>
      <trkpt lat="48.85822" lon="2.34817">
        <ele>88.8</ele>
        <time>2015-04-13T18:21:56.809Z</time>
      </trkpt>
      <trkpt lat="48.85831" lon="2.34821">
        <ele>88.4</ele>
        <time>2015-04-13T18:22:02.754Z</time>
      </trkpt>
      <trkpt lat="48.85833" lon="2.34822">
        <ele>88.2</ele>
        <time>2015-04-13T18:22:03.799Z</time>
      </trkpt>
      <trkpt lat="48.85842" lon="2.34824">
        <ele>88</ele>
        <time>2015-04-13T18:22:07.859Z</time>
      </trkpt>
      <trkpt lat="48.85844" lon="2.34825">
        <ele>88</ele>
        <time>2015-04-13T18:22:08.779Z</time>
      </trkpt>
      <trkpt lat="48.85851" lon="2.34828">
        <ele>88</ele>
        <time>2015-04-13T18:22:11.782Z</time>
      </trkpt>
      <trkpt lat="48.85855" lon="2.3483">
        <ele>88</ele>
        <time>2015-04-13T18:22:12.817Z</time>
      </trkpt>
      <trkpt lat="48.85862" lon="2.34833">
        <ele>87.9</ele>
        <time>2015-04-13T18:22:14.827Z</time>
      </trkpt>
      <trkpt lat="48.85864" lon="2.34835">
        <ele>88</ele>
        <time>2015-04-13T18:22:15.832Z</time>
      </trkpt>
      <trkpt lat="48.85871" lon="2.34839">
        <ele>87.9</ele>
        <time>2015-04-13T18:22:18.795Z</time>
      </trkpt>
      <trkpt lat="48.85874" lon="2.34841">
        <ele>87.7</ele>
        <time>2015-04-13T18:22:19.798Z</time>
      </trkpt>
      <trkpt lat="48.85882" lon="2.34847">
        <ele>87.2</ele>
        <time>2015-04-13T18:22:23.794Z</time>
      </trkpt>
      <trkpt lat="48.85883" lon="2.34849">
        <ele>87.2</ele>
        <time>2015-04-13T18:22:24.808Z</time>
      </trkpt>
      <trkpt lat="48.8589" lon="2.34852">
        <ele>87.5</ele>
        <time>2015-04-13T18:22:27.864Z</time>
      </trkpt>
      <trkpt lat="48.85893" lon="2.34853">
        <ele>87.6</ele>
        <time>2015-04-13T18:22:28.856Z</time>
      </trkpt>
      <trkpt lat="48.85898" lon="2.3486">
        <ele>87.6</ele>
        <time>2015-04-13T18:22:31.787Z</time>
      </trkpt>
      <trkpt lat="48.859" lon="2.34862">
        <ele>87.6</ele>
        <time>2015-04-13T18:22:32.811Z</time>
      </trkpt>
      <trkpt lat="48.85907" lon="2.34867">
        <ele>87.6</ele>
        <time>2015-04-13T18:22:34.773Z</time>
      </trkpt>
      <trkpt lat="48.85911" lon="2.3487">
        <ele>87.6</ele>
        <time>2015-04-13T18:22:35.867Z</time>
      </trkpt>
      <trkpt lat="48.85918" lon="2.34876">
        <ele>87.6</ele>
        <time>2015-04-13T18:22:37.810Z</time>
      </trkpt>
      <trkpt lat="48.85922" lon="2.34879">
        <ele>87.5</ele>
        <time>2015-04-13T18:22:38.937Z</time>
      </trkpt>
      <trkpt lat="48.85927" lon="2.34882">
        <ele>87.6</ele>
        <time>2015-04-13T18:22:39.816Z</time>
      </trkpt>
      <trkpt lat="48.85931" lon="2.34884">
        <ele>87.6</ele>
        <time>2015-04-13T18:22:40.822Z</time>
      </trkpt>
      <trkpt lat="48.85936" lon="2.34885">
        <ele>87.7</ele>
        <time>2015-04-13T18:22:41.838Z</time>
      </trkpt>
      <trkpt lat="48.85941" lon="2.34886">
        <ele>87.7</ele>
        <time>2015-04-13T18:22:42.861Z</time>
      </trkpt>
      <trkpt lat="48.85946" lon="2.34889">
        <ele>87.7</ele>
        <time>2015-04-13T18:22:43.770Z</time>
      </trkpt>
      <trkpt lat="48.8595" lon="2.34892">
        <ele>87.7</ele>
        <time>2015-04-13T18:22:44.792Z</time>
      </trkpt>
      <trkpt lat="48.85957" lon="2.34898">
        <ele>87.9</ele>
        <time>2015-04-13T18:22:46.804Z</time>
      </trkpt>
      <trkpt lat="48.85959" lon="2.34901">
        <ele>88</ele>
        <time>2015-04-13T18:22:47.832Z</time>
      </trkpt>
      <trkpt lat="48.85967" lon="2.34906">
        <ele>88.2</ele>
        <time>2015-04-13T18:22:49.845Z</time>
      </trkpt>
      <trkpt lat="48.85971" lon="2.34909">
        <ele>88.3</ele>
        <time>2015-04-13T18:22:50.846Z</time>
      </trkpt>
      <trkpt lat="48.85979" lon="2.34914">
        <ele>88.5</ele>
        <time>2015-04-13T18:22:52.867Z</time>
      </trkpt>
      <trkpt lat="48.85981" lon="2.34917">
        <ele>88.6</ele>
        <time>2015-04-13T18:22:53.835Z</time>
      </trkpt>
      <trkpt lat="48.85985" lon="2.34921">
        <ele>88.7</ele>
        <time>2015-04-13T18:22:54.855Z</time>
      </trkpt>
      <trkpt lat="48.85989" lon="2.34924">
        <ele>88.8</ele>
        <time>2015-04-13T18:22:55.777Z</time>
      </trkpt>
      <trkpt lat="48.85994" lon="2.34926">
        <ele>88.9</ele>
        <time>2015-04-13T18:22:56.787Z</time>
      </trkpt>
      <trkpt lat="48.85999" lon="2.34929">
        <ele>88.9</ele>
        <time>2015-04-13T18:22:57.801Z</time>
      </trkpt>
      <trkpt lat="48.86004" lon="2.34932">
        <ele>89</ele>
        <time>2015-04-13T18:22:58.813Z</time>
      </trkpt>
      <trkpt lat="48.86008" lon="2.34934">
        <ele>89</ele>
        <time>2015-04-13T18:22:59.817Z</time>
      </trkpt>
      <trkpt lat="48.86014" lon="2.3494">
        <ele>89.3</ele>
        <time>2015-04-13T18:23:01.851Z</time>
      </trkpt>
      <trkpt lat="48.86019" lon="2.34944">
        <ele>89.2</ele>
        <time>2015-04-13T18:23:02.740Z</time>
      </trkpt>
      <trkpt lat="48.86024" lon="2.34948">
        <ele>89.3</ele>
        <time>2015-04-13T18:23:03.765Z</time>
      </trkpt>
      <trkpt lat="48.8603" lon="2.34951">
        <ele>89.3</ele>
        <time>2015-04-13T18:23:04.784Z</time>
      </trkpt>
      <trkpt lat="48.86034" lon="2.34954">
        <ele>89.2</ele>
        <time>2015-04-13T18:23:05.801Z</time>
      </trkpt>
      <trkpt lat="48.86039" lon="2.34957">
        <ele>89.2</ele>
        <time>2015-04-13T18:23:06.816Z</time>
      </trkpt>
      <trkpt lat="48.86043" lon="2.3496">
        <ele>89.2</ele>
        <time>2015-04-13T18:23:07.845Z</time>
      </trkpt>
      <trkpt lat="48.86049" lon="2.34963">
        <ele>89.2</ele>
        <time>2015-04-13T18:23:08.843Z</time>
      </trkpt>
      <trkpt lat="48.86055" lon="2.34966">
        <ele>89.4</ele>
        <time>2015-04-13T18:23:09.810Z</time>
      </trkpt>
      <trkpt lat="48.8606" lon="2.34969">
        <ele>89.5</ele>
        <time>2015-04-13T18:23:10.814Z</time>
      </trkpt>
      <trkpt lat="48.86066" lon="2.34971">
        <ele>89.6</ele>
        <time>2015-04-13T18:23:11.813Z</time>
      </trkpt>
      <trkpt lat="48.86071" lon="2.34974">
        <ele>89.6</ele>
        <time>2015-04-13T18:23:12.826Z</time>
      </trkpt>
      <trkpt lat="48.86076" lon="2.34976">
        <ele>89.7</ele>
        <time>2015-04-13T18:23:14.515Z</time>
      </trkpt>
      <trkpt lat="48.86081" lon="2.34978">
        <ele>89.7</ele>
        <time>2015-04-13T18:23:14.840Z</time>
      </trkpt>
      <trkpt lat="48.86088" lon="2.34982">
        <ele>89.9</ele>
        <time>2015-04-13T18:23:16.865Z</time>
      </trkpt>
      <trkpt lat="48.86092" lon="2.34983">
        <ele>90.3</ele>
        <time>2015-04-13T18:23:17.815Z</time>
      </trkpt>
      <trkpt lat="48.861" lon="2.34985">
        <ele>90.7</ele>
        <time>2015-04-13T18:23:20.814Z</time>
      </trkpt>
      <trkpt lat="48.86101" lon="2.34986">
        <ele>90.9</ele>
        <time>2015-04-13T18:23:21.867Z</time>
      </trkpt>
      <trkpt lat="48.8611" lon="2.34987">
        <ele>90.6</ele>
        <time>2015-04-13T18:23:25.854Z</time>
      </trkpt>
      <trkpt lat="48.86112" lon="2.34988">
        <ele>90.7</ele>
        <time>2015-04-13T18:23:26.866Z</time>
      </trkpt>
      <trkpt lat="48.86113" lon="2.34988">
        <ele>91</ele>
        <time>2015-04-13T18:23:27.876Z</time>
      </trkpt>
      <trkpt lat="48.86116" lon="2.34989">
        <ele>91.7</ele>
        <time>2015-04-13T18:23:28.818Z</time>
      </trkpt>
      <trkpt lat="48.86125" lon="2.34991">
        <ele>93</ele>
        <time>2015-04-13T18:23:32.271Z</time>
      </trkpt>
      <trkpt lat="48.86127" lon="2.34992">
        <ele>93.3</ele>
        <time>2015-04-13T18:23:32.777Z</time>
      </trkpt>
      <trkpt lat="48.86134" lon="2.34996">
        <ele>93.4</ele>
        <time>2015-04-13T18:23:35.816Z</time>
      </trkpt>
      <trkpt lat="48.86136" lon="2.34997">
        <ele>93.3</ele>
        <time>2015-04-13T18:23:36.821Z</time>
      </trkpt>
      <trkpt lat="48.86141" lon="2.35">
        <ele>93.2</ele>
        <time>2015-04-13T18:23:37.853Z</time>
      </trkpt>
      <trkpt lat="48.86147" lon="2.35003">
        <ele>93.2</ele>
        <time>2015-04-13T18:23:38.846Z</time>
      </trkpt>
      <trkpt lat="48.86153" lon="2.35007">
        <ele>93.2</ele>
        <time>2015-04-13T18:23:39.800Z</time>
      </trkpt>
      <trkpt lat="48.86156" lon="2.35009">
        <ele>93.2</ele>
        <time>2015-04-13T18:23:40.805Z</time>
      </trkpt>
      <trkpt lat="48.86162" lon="2.35014">
        <ele>93.3</ele>
        <time>2015-04-13T18:23:42.845Z</time>
      </trkpt>
      <trkpt lat="48.86164" lon="2.35016">
        <ele>93.3</ele>
        <time>2015-04-13T18:23:43.852Z</time>
      </trkpt>
      <trkpt lat="48.86172" lon="2.35021">
        <ele>93.4</ele>
        <time>2015-04-13T18:23:46.807Z</time>
      </trkpt>
      <trkpt lat="48.86176" lon="2.35022">
        <ele>93.4</ele>
        <time>2015-04-13T18:23:47.813Z</time>
      </trkpt>
      <trkpt lat="48.86184" lon="2.35026">
        <ele>93.4</ele>
        <time>2015-04-13T18:23:49.740Z</time>
      </trkpt>
      <trkpt lat="48.86188" lon="2.35028">
        <ele>93.5</ele>
        <time>2015-04-13T18:23:50.796Z</time>
      </trkpt>
      <trkpt lat="48.86192" lon="2.35033">
        <ele>93.7</ele>
        <time>2015-04-13T18:23:52.842Z</time>
      </trkpt>
      <trkpt lat="48.86195" lon="2.35036">
        <ele>93.7</ele>
        <time>2015-04-13T18:23:53.878Z</time>
      </trkpt>
      <trkpt lat="48.862" lon="2.35039">
        <ele>93.8</ele>
        <time>2015-04-13T18:23:54.811Z</time>
      </trkpt>
      <trkpt lat="48.86206" lon="2.35043">
        <ele>93.9</ele>
        <time>2015-04-13T18:23:55.812Z</time>
      </trkpt>
      <trkpt lat="48.86211" lon="2.35047">
        <ele>94</ele>
        <time>2015-04-13T18:23:56.911Z</time>
      </trkpt>
      <trkpt lat="48.86218" lon="2.3505">
        <ele>94.1</ele>
        <time>2015-04-13T18:23:57.828Z</time>
      </trkpt>
      <trkpt lat="48.86225" lon="2.35056">
        <ele>94.2</ele>
        <time>2015-04-13T18:23:59.835Z</time>
      </trkpt>
      <trkpt lat="48.8623" lon="2.35059">
        <ele>94.3</ele>
        <time>2015-04-13T18:24:00.847Z</time>
      </trkpt>
      <trkpt lat="48.86234" lon="2.35062">
        <ele>94.3</ele>
        <time>2015-04-13T18:24:02.170Z</time>
      </trkpt>
      <trkpt lat="48.86238" lon="2.35065">
        <ele>94.3</ele>
        <time>2015-04-13T18:24:02.776Z</time>
      </trkpt>
      <trkpt lat="48.86246" lon="2.3507">
        <ele>94.4</ele>
        <time>2015-04-13T18:24:04.743Z</time>
      </trkpt>
      <trkpt lat="48.86249" lon="2.35073">
        <ele>94.5</ele>
        <time>2015-04-13T18:24:05.748Z</time>
      </trkpt>
      <trkpt lat="48.86253" lon="2.35076">
        <ele>94.6</ele>
        <time>2015-04-13T18:24:06.858Z</time>
      </trkpt>
      <trkpt lat="48.86258" lon="2.35078">
        <ele>94.6</ele>
        <time>2015-04-13T18:24:07.780Z</time>
      </trkpt>
      <trkpt lat="48.86263" lon="2.35081">
        <ele>94.7</ele>
        <time>2015-04-13T18:24:08.801Z</time>
      </trkpt>
      <trkpt lat="48.86268" lon="2.35084">
        <ele>94.9</ele>
        <time>2015-04-13T18:24:09.796Z</time>
      </trkpt>
      <trkpt lat="48.86271" lon="2.35087">
        <ele>95.1</ele>
        <time>2015-04-13T18:24:10.816Z</time>
      </trkpt>
      <trkpt lat="48.86277" lon="2.35089">
        <ele>95.5</ele>
        <time>2015-04-13T18:24:11.813Z</time>
      </trkpt>
      <trkpt lat="48.86282" lon="2.35091">
        <ele>95.6</ele>
        <time>2015-04-13T18:24:12.846Z</time>
      </trkpt>
      <trkpt lat="48.86289" lon="2.35094">
        <ele>95.7</ele>
        <time>2015-04-13T18:24:13.855Z</time>
      </trkpt>
      <trkpt lat="48.86296" lon="2.35097">
        <ele>95.9</ele>
        <time>2015-04-13T18:24:14.779Z</time>
      </trkpt>
      <trkpt lat="48.86302" lon="2.351">
        <ele>96</ele>
        <time>2015-04-13T18:24:15.869Z</time>
      </trkpt>
      <trkpt lat="48.86306" lon="2.35103">
        <ele>96.1</ele>
        <time>2015-04-13T18:24:15.927Z</time>
      </trkpt>
      <trkpt lat="48.86311" lon="2.35105">
        <ele>96.3</ele>
        <time>2015-04-13T18:24:17.813Z</time>
      </trkpt>
      <trkpt lat="48.86316" lon="2.35109">
        <ele>96.4</ele>
        <time>2015-04-13T18:24:19.830Z</time>
      </trkpt>
      <trkpt lat="48.8632" lon="2.35111">
        <ele>96.6</ele>
        <time>2015-04-13T18:24:20.861Z</time>
      </trkpt>
      <trkpt lat="48.86333" lon="2.35117">
        <ele>96.7</ele>
        <time>2015-04-13T18:24:21.749Z</time>
      </trkpt>
      <trkpt lat="48.86342" lon="2.35119">
        <ele>96.6</ele>
        <time>2015-04-13T18:24:22.790Z</time>
      </trkpt>
      <trkpt lat="48.86352" lon="2.35122">
        <ele>96.5</ele>
        <time>2015-04-13T18:24:23.815Z</time>
      </trkpt>
      <trkpt lat="48.86369" lon="2.35125">
        <ele>96.2</ele>
        <time>2015-04-13T18:24:24.832Z</time>
      </trkpt>
      <trkpt lat="48.86369" lon="2.35125">
        <ele>96.2</ele>
        <time>2015-04-13T18:24:24.588Z</time>
      </trkpt>
      <trkpt lat="48.8638" lon="2.35128">
        <ele>96.1</ele>
        <time>2015-04-13T18:24:25.808Z</time>
      </trkpt>
      <trkpt lat="48.86391" lon="2.35131">
        <ele>96.1</ele>
        <time>2015-04-13T18:24:26.814Z</time>
      </trkpt>
      <trkpt lat="48.864" lon="2.35135">
        <ele>96.3</ele>
        <time>2015-04-13T18:24:27.832Z</time>
      </trkpt>
      <trkpt lat="48.86407" lon="2.35137">
        <ele>96.6</ele>
        <time>2015-04-13T18:24:28.759Z</time>
      </trkpt>
      <trkpt lat="48.86416" lon="2.3514">
        <ele>97</ele>
        <time>2015-04-13T18:24:29.764Z</time>
      </trkpt>
      <trkpt lat="48.86425" lon="2.35144">
        <ele>96.9</ele>
        <time>2015-04-13T18:24:31.827Z</time>
      </trkpt>
      <trkpt lat="48.86429" lon="2.35147">
        <ele>97.2</ele>
        <time>2015-04-13T18:24:32.775Z</time>
      </trkpt>
      <trkpt lat="48.86435" lon="2.35153">
        <ele>97.7</ele>
        <time>2015-04-13T18:24:34.801Z</time>
      </trkpt>
      <trkpt lat="48.86438" lon="2.35156">
        <ele>98.2</ele>
        <time>2015-04-13T18:24:35.821Z</time>
      </trkpt>
      <trkpt lat="48.86445" lon="2.35161">
        <ele>98.4</ele>
        <time>2015-04-13T18:24:37.861Z</time>
      </trkpt>
      <trkpt lat="48.8645" lon="2.35162">
        <ele>98.3</ele>
        <time>2015-04-13T18:24:38.876Z</time>
      </trkpt>
      <trkpt lat="48.86456" lon="2.35165">
        <ele>98.3</ele>
        <time>2015-04-13T18:24:39.818Z</time>
      </trkpt>
      <trkpt lat="48.86461" lon="2.35168">
        <ele>98.5</ele>
        <time>2015-04-13T18:24:40.836Z</time>
      </trkpt>
      <trkpt lat="48.86467" lon="2.35171">
        <ele>98.4</ele>
        <time>2015-04-13T18:24:41.818Z</time>
      </trkpt>
      <trkpt lat="48.86473" lon="2.35174">
        <ele>98.6</ele>
        <time>2015-04-13T18:24:42.791Z</time>
      </trkpt>
      <trkpt lat="48.86478" lon="2.35177">
        <ele>98.8</ele>
        <time>2015-04-13T18:24:43.842Z</time>
      </trkpt>
      <trkpt lat="48.86484" lon="2.35181">
        <ele>99.2</ele>
        <time>2015-04-13T18:24:44.860Z</time>
      </trkpt>
      <trkpt lat="48.86488" lon="2.35184">
        <ele>99.3</ele>
        <time>2015-04-13T18:24:45.798Z</time>
      </trkpt>
      <trkpt lat="48.86494" lon="2.35189">
        <ele>98.7</ele>
        <time>2015-04-13T18:24:47.788Z</time>
      </trkpt>
      <trkpt lat="48.86498" lon="2.3519">
        <ele>98.6</ele>
        <time>2015-04-13T18:24:48.804Z</time>
      </trkpt>
      <trkpt lat="48.86503" lon="2.35193">
        <ele>98.5</ele>
        <time>2015-04-13T18:24:49.853Z</time>
      </trkpt>
      <trkpt lat="48.8651" lon="2.35197">
        <ele>98.5</ele>
        <time>2015-04-13T18:24:51.791Z</time>
      </trkpt>
      <trkpt lat="48.86514" lon="2.352">
        <ele>98.5</ele>
        <time>2015-04-13T18:24:52.826Z</time>
      </trkpt>
      <trkpt lat="48.86521" lon="2.35204">
        <ele>98.3</ele>
        <time>2015-04-13T18:24:54.863Z</time>
      </trkpt>
      <trkpt lat="48.86525" lon="2.35206">
        <ele>98.3</ele>
        <time>2015-04-13T18:24:55.869Z</time>
      </trkpt>
      <trkpt lat="48.86528" lon="2.35208">
        <ele>98.3</ele>
        <time>2015-04-13T18:24:56.857Z</time>
      </trkpt>
      <trkpt lat="48.86535" lon="2.3521">
        <ele>98.3</ele>
        <time>2015-04-13T18:24:57.851Z</time>
      </trkpt>
      <trkpt lat="48.86542" lon="2.35213">
        <ele>98</ele>
        <time>2015-04-13T18:24:58.835Z</time>
      </trkpt>
      <trkpt lat="48.86544" lon="2.35214">
        <ele>97.9</ele>
        <time>2015-04-13T18:24:59.820Z</time>
      </trkpt>
      <trkpt lat="48.86552" lon="2.35218">
        <ele>98.1</ele>
        <time>2015-04-13T18:25:03.835Z</time>
      </trkpt>
      <trkpt lat="48.86554" lon="2.3522">
        <ele>98.1</ele>
        <time>2015-04-13T18:25:04.831Z</time>
      </trkpt>
      <trkpt lat="48.86558" lon="2.35231">
        <ele>96.5</ele>
        <time>2015-04-13T18:25:08.938Z</time>
      </trkpt>
      <trkpt lat="48.8656" lon="2.35234">
        <ele>96.7</ele>
        <time>2015-04-13T18:25:09.841Z</time>
      </trkpt>
      <trkpt lat="48.86568" lon="2.35239">
        <ele>96.6</ele>
        <time>2015-04-13T18:25:11.829Z</time>
      </trkpt>
      <trkpt lat="48.86572" lon="2.35241">
        <ele>96.5</ele>
        <time>2015-04-13T18:25:12.843Z</time>
      </trkpt>
      <trkpt lat="48.86578" lon="2.35244">
        <ele>96.6</ele>
        <time>2015-04-13T18:25:13.843Z</time>
      </trkpt>
      <trkpt lat="48.86585" lon="2.35247">
        <ele>96.7</ele>
        <time>2015-04-13T18:25:14.858Z</time>
      </trkpt>
      <trkpt lat="48.8659" lon="2.3525">
        <ele>97</ele>
        <time>2015-04-13T18:25:15.827Z</time>
      </trkpt>
      <trkpt lat="48.86596" lon="2.35254">
        <ele>97.1</ele>
        <time>2015-04-13T18:25:16.800Z</time>
      </trkpt>
      <trkpt lat="48.86601" lon="2.35257">
        <ele>97</ele>
        <time>2015-04-13T18:25:17.813Z</time>
      </trkpt>
      <trkpt lat="48.86606" lon="2.3526">
        <ele>97</ele>
        <time>2015-04-13T18:25:18.836Z</time>
      </trkpt>
      <trkpt lat="48.8661" lon="2.35263">
        <ele>96.8</ele>
        <time>2015-04-13T18:25:19.842Z</time>
      </trkpt>
      <trkpt lat="48.86619" lon="2.35267">
        <ele>96.6</ele>
        <time>2015-04-13T18:25:20.871Z</time>
      </trkpt>
      <trkpt lat="48.86634" lon="2.35273">
        <ele>96.3</ele>
        <time>2015-04-13T18:25:21.839Z</time>
      </trkpt>
      <trkpt lat="48.86649" lon="2.35278">
        <ele>96.3</ele>
        <time>2015-04-13T18:25:22.788Z</time>
      </trkpt>
      <trkpt lat="48.86664" lon="2.35285">
        <ele>96.1</ele>
        <time>2015-04-13T18:25:23.811Z</time>
      </trkpt>
      <trkpt lat="48.86677" lon="2.3529">
        <ele>96.1</ele>
        <time>2015-04-13T18:25:24.826Z</time>
      </trkpt>
      <trkpt lat="48.86688" lon="2.35295">
        <ele>96.2</ele>
        <time>2015-04-13T18:25:25.830Z</time>
      </trkpt>
      <trkpt lat="48.86698" lon="2.35299">
        <ele>96.5</ele>
        <time>2015-04-13T18:25:26.843Z</time>
      </trkpt>
      <trkpt lat="48.86705" lon="2.35302">
        <ele>96.7</ele>
        <time>2015-04-13T18:25:27.857Z</time>
      </trkpt>
      <trkpt lat="48.86712" lon="2.35305">
        <ele>97</ele>
        <time>2015-04-13T18:25:28.799Z</time>
      </trkpt>
      <trkpt lat="48.86718" lon="2.35307">
        <ele>97.4</ele>
        <time>2015-04-13T18:25:29.780Z</time>
      </trkpt>
      <trkpt lat="48.86725" lon="2.3531">
        <ele>97.8</ele>
        <time>2015-04-13T18:25:30.837Z</time>
      </trkpt>
      <trkpt lat="48.86733" lon="2.35314">
        <ele>98.2</ele>
        <time>2015-04-13T18:25:32.842Z</time>
      </trkpt>
      <trkpt lat="48.86737" lon="2.35316">
        <ele>98.3</ele>
        <time>2015-04-13T18:25:33.773Z</time>
      </trkpt>
      <trkpt lat="48.86742" lon="2.35318">
        <ele>98.4</ele>
        <time>2015-04-13T18:25:34.769Z</time>
      </trkpt>
      <trkpt lat="48.86746" lon="2.3532">
        <ele>98.5</ele>
        <time>2015-04-13T18:25:35.861Z</time>
      </trkpt>
      <trkpt lat="48.86754" lon="2.35325">
        <ele>98.5</ele>
        <time>2015-04-13T18:25:38.861Z</time>
      </trkpt>
      <trkpt lat="48.86757" lon="2.35327">
        <ele>98.5</ele>
        <time>2015-04-13T18:25:39.807Z</time>
      </trkpt>
      <trkpt lat="48.86764" lon="2.35329">
        <ele>98.8</ele>
        <time>2015-04-13T18:25:41.800Z</time>
      </trkpt>
      <trkpt lat="48.86767" lon="2.35331">
        <ele>98.9</ele>
        <time>2015-04-13T18:25:42.870Z</time>
      </trkpt>
      <trkpt lat="48.86772" lon="2.35336">
        <ele>99</ele>
        <time>2015-04-13T18:25:44.755Z</time>
      </trkpt>
      <trkpt lat="48.86774" lon="2.35339">
        <ele>99</ele>
        <time>2015-04-13T18:25:45.793Z</time>
      </trkpt>
      <trkpt lat="48.86781" lon="2.35345">
        <ele>99</ele>
        <time>2015-04-13T18:25:47.765Z</time>
      </trkpt>
      <trkpt lat="48.86785" lon="2.35348">
        <ele>99.1</ele>
        <time>2015-04-13T18:25:48.901Z</time>
      </trkpt>
      <trkpt lat="48.86792" lon="2.35353">
        <ele>99.1</ele>
        <time>2015-04-13T18:25:50.778Z</time>
      </trkpt>
      <trkpt lat="48.86795" lon="2.35356">
        <ele>99.1</ele>
        <time>2015-04-13T18:25:51.799Z</time>
      </trkpt>
      <trkpt lat="48.86802" lon="2.35361">
        <ele>99.2</ele>
        <time>2015-04-13T18:25:53.770Z</time>
      </trkpt>
      <trkpt lat="48.86805" lon="2.35363">
        <ele>99.2</ele>
        <time>2015-04-13T18:25:54.800Z</time>
      </trkpt>
      <trkpt lat="48.86813" lon="2.35369">
        <ele>99.4</ele>
        <time>2015-04-13T18:25:57.912Z</time>
      </trkpt>
      <trkpt lat="48.86817" lon="2.35371">
        <ele>99.3</ele>
        <time>2015-04-13T18:25:58.792Z</time>
      </trkpt>
      <trkpt lat="48.86824" lon="2.35376">
        <ele>99.5</ele>
        <time>2015-04-13T18:26:01.856Z</time>
      </trkpt>
      <trkpt lat="48.86827" lon="2.35378">
        <ele>99.5</ele>
        <time>2015-04-13T18:26:02.742Z</time>
      </trkpt>
      <trkpt lat="48.86832" lon="2.35382">
        <ele>99.8</ele>
        <time>2015-04-13T18:26:04.805Z</time>
      </trkpt>
      <trkpt lat="48.86837" lon="2.35385">
        <ele>99.8</ele>
        <time>2015-04-13T18:26:05.816Z</time>
      </trkpt>
      <trkpt lat="48.86844" lon="2.35387">
        <ele>99.8</ele>
        <time>2015-04-13T18:26:06.871Z</time>
      </trkpt>
      <trkpt lat="48.86849" lon="2.35389">
        <ele>99.8</ele>
        <time>2015-04-13T18:26:07.760Z</time>
      </trkpt>
      <trkpt lat="48.86855" lon="2.35391">
        <ele>100</ele>
        <time>2015-04-13T18:26:08.776Z</time>
      </trkpt>
      <trkpt lat="48.86858" lon="2.35392">
        <ele>100.1</ele>
        <time>2015-04-13T18:26:09.786Z</time>
      </trkpt>
      <trkpt lat="48.86866" lon="2.35399">
        <ele>101.2</ele>
        <time>2015-04-13T18:26:12.806Z</time>
      </trkpt>
      <trkpt lat="48.86866" lon="2.35402">
        <ele>101.6</ele>
        <time>2015-04-13T18:26:13.826Z</time>
      </trkpt>
      <trkpt lat="48.8687" lon="2.35414">
        <ele>99.6</ele>
        <time>2015-04-13T18:26:20.796Z</time>
      </trkpt>
      <trkpt lat="48.8687" lon="2.35414">
        <ele>99.5</ele>
        <time>2015-04-13T18:26:21.848Z</time>
      </trkpt>
      <trkpt lat="48.8687" lon="2.35415">
        <ele>99.6</ele>
        <time>2015-04-13T18:26:22.860Z</time>
      </trkpt>
      <trkpt lat="48.86876" lon="2.35422">
        <ele>99.5</ele>
        <time>2015-04-13T18:26:26.742Z</time>
      </trkpt>
      <trkpt lat="48.86879" lon="2.35425">
        <ele>99.6</ele>
        <time>2015-04-13T18:26:27.796Z</time>
      </trkpt>
      <trkpt lat="48.86883" lon="2.35427">
        <ele>99.7</ele>
        <time>2015-04-13T18:26:28.775Z</time>
      </trkpt>
      <trkpt lat="48.86889" lon="2.3543">
        <ele>99.6</ele>
        <time>2015-04-13T18:26:29.776Z</time>
      </trkpt>
      <trkpt lat="48.86898" lon="2.35433">
        <ele>99.8</ele>
        <time>2015-04-13T18:26:31.827Z</time>
      </trkpt>
      <trkpt lat="48.86901" lon="2.35435">
        <ele>99.8</ele>
        <time>2015-04-13T18:26:32.750Z</time>
      </trkpt>
      <trkpt lat="48.86909" lon="2.3544">
        <ele>100</ele>
        <time>2015-04-13T18:26:34.793Z</time>
      </trkpt>
      <trkpt lat="48.86914" lon="2.35443">
        <ele>100.1</ele>
        <time>2015-04-13T18:26:35.796Z</time>
      </trkpt>
      <trkpt lat="48.8692" lon="2.35446">
        <ele>100.2</ele>
        <time>2015-04-13T18:26:36.810Z</time>
      </trkpt>
      <trkpt lat="48.86925" lon="2.35449">
        <ele>100.1</ele>
        <time>2015-04-13T18:26:37.829Z</time>
      </trkpt>
      <trkpt lat="48.8693" lon="2.35452">
        <ele>100.1</ele>
        <time>2015-04-13T18:26:38.736Z</time>
      </trkpt>
      <trkpt lat="48.86935" lon="2.35454">
        <ele>100.2</ele>
        <time>2015-04-13T18:26:39.814Z</time>
      </trkpt>
      <trkpt lat="48.8694" lon="2.35456">
        <ele>100.3</ele>
        <time>2015-04-13T18:26:40.788Z</time>
      </trkpt>
      <trkpt lat="48.86944" lon="2.35459">
        <ele>100.3</ele>
        <time>2015-04-13T18:26:41.806Z</time>
      </trkpt>
      <trkpt lat="48.86953" lon="2.35461">
        <ele>100.3</ele>
        <time>2015-04-13T18:26:43.831Z</time>
      </trkpt>
      <trkpt lat="48.86956" lon="2.35462">
        <ele>100.5</ele>
        <time>2015-04-13T18:26:44.830Z</time>
      </trkpt>
      <trkpt lat="48.86961" lon="2.35464">
        <ele>100.7</ele>
        <time>2015-04-13T18:26:45.849Z</time>
      </trkpt>
      <trkpt lat="48.86967" lon="2.35467">
        <ele>100.8</ele>
        <time>2015-04-13T18:26:46.851Z</time>
      </trkpt>
      <trkpt lat="48.86973" lon="2.35468">
        <ele>100.8</ele>
        <time>2015-04-13T18:26:47.764Z</time>
      </trkpt>
      <trkpt lat="48.86979" lon="2.35471">
        <ele>100.8</ele>
        <time>2015-04-13T18:26:48.775Z</time>
      </trkpt>
      <trkpt lat="48.86985" lon="2.35474">
        <ele>100.9</ele>
        <time>2015-04-13T18:26:49.808Z</time>
      </trkpt>
      <trkpt lat="48.86991" lon="2.35476">
        <ele>101</ele>
        <time>2015-04-13T18:26:50.824Z</time>
      </trkpt>
      <trkpt lat="48.86996" lon="2.35479">
        <ele>101.2</ele>
        <time>2015-04-13T18:26:51.843Z</time>
      </trkpt>
      <trkpt lat="48.87004" lon="2.35482">
        <ele>101.5</ele>
        <time>2015-04-13T18:26:52.850Z</time>
      </trkpt>
      <trkpt lat="48.87009" lon="2.35486">
        <ele>101.6</ele>
        <time>2015-04-13T18:26:53.777Z</time>
      </trkpt>
      <trkpt lat="48.87015" lon="2.3549">
        <ele>101.8</ele>
        <time>2015-04-13T18:26:54.814Z</time>
      </trkpt>
      <trkpt lat="48.87021" lon="2.35493">
        <ele>102.1</ele>
        <time>2015-04-13T18:26:55.807Z</time>
      </trkpt>
      <trkpt lat="48.87027" lon="2.35495">
        <ele>102.2</ele>
        <time>2015-04-13T18:26:56.817Z</time>
      </trkpt>
      <trkpt lat="48.87033" lon="2.35498">
        <ele>102.4</ele>
        <time>2015-04-13T18:26:57.840Z</time>
      </trkpt>
      <trkpt lat="48.87039" lon="2.35502">
        <ele>102.6</ele>
        <time>2015-04-13T18:26:58.856Z</time>
      </trkpt>
      <trkpt lat="48.87045" lon="2.35505">
        <ele>102.6</ele>
        <time>2015-04-13T18:26:59.753Z</time>
      </trkpt>
      <trkpt lat="48.87052" lon="2.35507">
        <ele>102.5</ele>
        <time>2015-04-13T18:27:00.857Z</time>
      </trkpt>
      <trkpt lat="48.87057" lon="2.3551">
        <ele>102.6</ele>
        <time>2015-04-13T18:27:01.770Z</time>
      </trkpt>
      <trkpt lat="48.87062" lon="2.35513">
        <ele>102.5</ele>
        <time>2015-04-13T18:27:02.758Z</time>
      </trkpt>
      <trkpt lat="48.87069" lon="2.35515">
        <ele>102.3</ele>
        <time>2015-04-13T18:27:03.800Z</time>
      </trkpt>
      <trkpt lat="48.87074" lon="2.35518">
        <ele>102.2</ele>
        <time>2015-04-13T18:27:04.825Z</time>
      </trkpt>
      <trkpt lat="48.87079" lon="2.35521">
        <ele>102.3</ele>
        <time>2015-04-13T18:27:05.846Z</time>
      </trkpt>
      <trkpt lat="48.87087" lon="2.35522">
        <ele>102.2</ele>
        <time>2015-04-13T18:27:07.005Z</time>
      </trkpt>
      <trkpt lat="48.87094" lon="2.35525">
        <ele>102.1</ele>
        <time>2015-04-13T18:27:07.826Z</time>
      </trkpt>
      <trkpt lat="48.871" lon="2.35528">
        <ele>102.1</ele>
        <time>2015-04-13T18:27:08.835Z</time>
      </trkpt>
      <trkpt lat="48.87106" lon="2.35531">
        <ele>102.1</ele>
        <time>2015-04-13T18:27:09.734Z</time>
      </trkpt>
      <trkpt lat="48.87112" lon="2.35534">
        <ele>102.1</ele>
        <time>2015-04-13T18:27:10.756Z</time>
      </trkpt>
      <trkpt lat="48.87119" lon="2.35536">
        <ele>102.1</ele>
        <time>2015-04-13T18:27:11.756Z</time>
      </trkpt>
      <trkpt lat="48.87124" lon="2.35539">
        <ele>102.1</ele>
        <time>2015-04-13T18:27:12.801Z</time>
      </trkpt>
      <trkpt lat="48.87128" lon="2.35542">
        <ele>102.1</ele>
        <time>2015-04-13T18:27:13.817Z</time>
      </trkpt>
      <trkpt lat="48.87133" lon="2.35545">
        <ele>102</ele>
        <time>2015-04-13T18:27:14.819Z</time>
      </trkpt>
      <trkpt lat="48.87138" lon="2.35548">
        <ele>101.9</ele>
        <time>2015-04-13T18:27:15.820Z</time>
      </trkpt>
      <trkpt lat="48.87144" lon="2.3555">
        <ele>101.8</ele>
        <time>2015-04-13T18:27:16.823Z</time>
      </trkpt>
      <trkpt lat="48.8715" lon="2.35552">
        <ele>101.7</ele>
        <time>2015-04-13T18:27:17.850Z</time>
      </trkpt>
      <trkpt lat="48.87155" lon="2.35555">
        <ele>101.5</ele>
        <time>2015-04-13T18:27:18.837Z</time>
      </trkpt>
      <trkpt lat="48.8716" lon="2.35558">
        <ele>101.4</ele>
        <time>2015-04-13T18:27:19.754Z</time>
      </trkpt>
      <trkpt lat="48.8717" lon="2.35563">
        <ele>101.2</ele>
        <time>2015-04-13T18:27:20.760Z</time>
      </trkpt>
      <trkpt lat="48.87179" lon="2.35568">
        <ele>101</ele>
        <time>2015-04-13T18:27:21.771Z</time>
      </trkpt>
      <trkpt lat="48.87189" lon="2.35573">
        <ele>101</ele>
        <time>2015-04-13T18:27:22.778Z</time>
      </trkpt>
      <trkpt lat="48.87197" lon="2.35577">
        <ele>100.8</ele>
        <time>2015-04-13T18:27:23.795Z</time>
      </trkpt>
      <trkpt lat="48.87205" lon="2.35581">
        <ele>100.9</ele>
        <time>2015-04-13T18:27:24.855Z</time>
      </trkpt>
      <trkpt lat="48.87213" lon="2.35584">
        <ele>100.7</ele>
        <time>2015-04-13T18:27:25.745Z</time>
      </trkpt>
      <trkpt lat="48.87222" lon="2.35587">
        <ele>100.5</ele>
        <time>2015-04-13T18:27:26.754Z</time>
      </trkpt>
      <trkpt lat="48.8723" lon="2.35591">
        <ele>100.4</ele>
        <time>2015-04-13T18:27:27.758Z</time>
      </trkpt>
      <trkpt lat="48.87238" lon="2.35595">
        <ele>100.5</ele>
        <time>2015-04-13T18:27:28.768Z</time>
      </trkpt>
      <trkpt lat="48.87246" lon="2.35597">
        <ele>100.3</ele>
        <time>2015-04-13T18:27:29.778Z</time>
      </trkpt>
      <trkpt lat="48.87253" lon="2.356">
        <ele>100.3</ele>
        <time>2015-04-13T18:27:30.786Z</time>
      </trkpt>
      <trkpt lat="48.87258" lon="2.35604">
        <ele>100.4</ele>
        <time>2015-04-13T18:27:31.598Z</time>
      </trkpt>
      <trkpt lat="48.87263" lon="2.35607">
        <ele>100.6</ele>
        <time>2015-04-13T18:27:32.852Z</time>
      </trkpt>
      <trkpt lat="48.87268" lon="2.3561">
        <ele>100.7</ele>
        <time>2015-04-13T18:27:33.744Z</time>
      </trkpt>
      <trkpt lat="48.87272" lon="2.35612">
        <ele>101</ele>
        <time>2015-04-13T18:27:34.746Z</time>
      </trkpt>
      <trkpt lat="48.87278" lon="2.35619">
        <ele>101.6</ele>
        <time>2015-04-13T18:27:36.767Z</time>
      </trkpt>
      <trkpt lat="48.8728" lon="2.35621">
        <ele>101.9</ele>
        <time>2015-04-13T18:27:37.778Z</time>
      </trkpt>
      <trkpt lat="48.87288" lon="2.35627">
        <ele>102.1</ele>
        <time>2015-04-13T18:27:40.756Z</time>
      </trkpt>
      <trkpt lat="48.87292" lon="2.3563">
        <ele>102.3</ele>
        <time>2015-04-13T18:27:41.767Z</time>
      </trkpt>
      <trkpt lat="48.873" lon="2.35635">
        <ele>102.5</ele>
        <time>2015-04-13T18:27:43.815Z</time>
      </trkpt>
      <trkpt lat="48.87303" lon="2.35637">
        <ele>102.6</ele>
        <time>2015-04-13T18:27:44.826Z</time>
      </trkpt>
      <trkpt lat="48.87307" lon="2.3564">
        <ele>102.8</ele>
        <time>2015-04-13T18:27:45.839Z</time>
      </trkpt>
      <trkpt lat="48.87312" lon="2.35643">
        <ele>103</ele>
        <time>2015-04-13T18:27:46.854Z</time>
      </trkpt>
      <trkpt lat="48.87317" lon="2.35647">
        <ele>103.4</ele>
        <time>2015-04-13T18:27:47.771Z</time>
      </trkpt>
      <trkpt lat="48.87321" lon="2.35652">
        <ele>103.7</ele>
        <time>2015-04-13T18:27:48.773Z</time>
      </trkpt>
      <trkpt lat="48.87326" lon="2.35655">
        <ele>104</ele>
        <time>2015-04-13T18:27:49.782Z</time>
      </trkpt>
      <trkpt lat="48.87336" lon="2.3566">
        <ele>103.7</ele>
        <time>2015-04-13T18:27:50.778Z</time>
      </trkpt>
      <trkpt lat="48.87345" lon="2.35664">
        <ele>103.7</ele>
        <time>2015-04-13T18:27:51.787Z</time>
      </trkpt>
      <trkpt lat="48.87349" lon="2.35666">
        <ele>103.8</ele>
        <time>2015-04-13T18:27:52.811Z</time>
      </trkpt>
      <trkpt lat="48.87354" lon="2.35668">
        <ele>104</ele>
        <time>2015-04-13T18:27:53.821Z</time>
      </trkpt>
      <trkpt lat="48.87358" lon="2.35671">
        <ele>104.2</ele>
        <time>2015-04-13T18:27:54.830Z</time>
      </trkpt>
      <trkpt lat="48.87363" lon="2.35673">
        <ele>104.4</ele>
        <time>2015-04-13T18:27:55.763Z</time>
      </trkpt>
      <trkpt lat="48.87367" lon="2.35675">
        <ele>104.4</ele>
        <time>2015-04-13T18:27:56.207Z</time>
      </trkpt>
      <trkpt lat="48.87375" lon="2.35678">
        <ele>104.4</ele>
        <time>2015-04-13T18:27:57.811Z</time>
      </trkpt>
      <trkpt lat="48.87375" lon="2.35678">
        <ele>104.4</ele>
        <time>2015-04-13T18:27:58.544Z</time>
      </trkpt>
      <trkpt lat="48.87384" lon="2.35681">
        <ele>104.6</ele>
        <time>2015-04-13T18:27:58.748Z</time>
      </trkpt>
      <trkpt lat="48.87393" lon="2.35685">
        <ele>104.6</ele>
        <time>2015-04-13T18:27:59.759Z</time>
      </trkpt>
      <trkpt lat="48.87401" lon="2.35688">
        <ele>104.6</ele>
        <time>2015-04-13T18:28:00.802Z</time>
      </trkpt>
      <trkpt lat="48.87409" lon="2.35691">
        <ele>104.4</ele>
        <time>2015-04-13T18:28:01.815Z</time>
      </trkpt>
      <trkpt lat="48.87417" lon="2.35695">
        <ele>104.4</ele>
        <time>2015-04-13T18:28:03.652Z</time>
      </trkpt>
      <trkpt lat="48.87423" lon="2.357">
        <ele>104.3</ele>
        <time>2015-04-13T18:28:03.778Z</time>
      </trkpt>
      <trkpt lat="48.87431" lon="2.35705">
        <ele>104</ele>
        <time>2015-04-13T18:28:04.844Z</time>
      </trkpt>
      <trkpt lat="48.87434" lon="2.35708">
        <ele>103.8</ele>
        <time>2015-04-13T18:28:05.846Z</time>
      </trkpt>
      <trkpt lat="48.87441" lon="2.35709">
        <ele>103.6</ele>
        <time>2015-04-13T18:28:06.856Z</time>
      </trkpt>
      <trkpt lat="48.87446" lon="2.3571">
        <ele>103.8</ele>
        <time>2015-04-13T18:28:07.792Z</time>
      </trkpt>
      <trkpt lat="48.87451" lon="2.35711">
        <ele>103.9</ele>
        <time>2015-04-13T18:28:08.815Z</time>
      </trkpt>
      <trkpt lat="48.87456" lon="2.35712">
        <ele>103.9</ele>
        <time>2015-04-13T18:28:09.821Z</time>
      </trkpt>
      <trkpt lat="48.87463" lon="2.35714">
        <ele>104</ele>
        <time>2015-04-13T18:28:11.858Z</time>
      </trkpt>
      <trkpt lat="48.87468" lon="2.35716">
        <ele>104</ele>
        <time>2015-04-13T18:28:12.901Z</time>
      </trkpt>
      <trkpt lat="48.87476" lon="2.35719">
        <ele>103.8</ele>
        <time>2015-04-13T18:28:16.782Z</time>
      </trkpt>
      <trkpt lat="48.87477" lon="2.35719">
        <ele>104.1</ele>
        <time>2015-04-13T18:28:17.836Z</time>
      </trkpt>
      <trkpt lat="48.87478" lon="2.35732">
        <ele>106.9</ele>
        <time>2015-04-13T18:28:26.825Z</time>
      </trkpt>
      <trkpt lat="48.8748" lon="2.35734">
        <ele>107.2</ele>
        <time>2015-04-13T18:28:27.815Z</time>
      </trkpt>
      <trkpt lat="48.87485" lon="2.35738">
        <ele>107.7</ele>
        <time>2015-04-13T18:28:29.855Z</time>
      </trkpt>
      <trkpt lat="48.87489" lon="2.35739">
        <ele>108.1</ele>
        <time>2015-04-13T18:28:30.865Z</time>
      </trkpt>
      <trkpt lat="48.87497" lon="2.35744">
        <ele>109.5</ele>
        <time>2015-04-13T18:28:32.798Z</time>
      </trkpt>
      <trkpt lat="48.87502" lon="2.35747">
        <ele>109.8</ele>
        <time>2015-04-13T18:28:33.776Z</time>
      </trkpt>
      <trkpt lat="48.87506" lon="2.3575">
        <ele>110.1</ele>
        <time>2015-04-13T18:28:34.795Z</time>
      </trkpt>
      <trkpt lat="48.8751" lon="2.35754">
        <ele>110.6</ele>
        <time>2015-04-13T18:28:35.899Z</time>
      </trkpt>
      <trkpt lat="48.87514" lon="2.35757">
        <ele>110.9</ele>
        <time>2015-04-13T18:28:36.899Z</time>
      </trkpt>
      <trkpt lat="48.87519" lon="2.35759">
        <ele>111.4</ele>
        <time>2015-04-13T18:28:37.835Z</time>
      </trkpt>
      <trkpt lat="48.87524" lon="2.35761">
        <ele>112</ele>
        <time>2015-04-13T18:28:38.840Z</time>
      </trkpt>
      <trkpt lat="48.87529" lon="2.35762">
        <ele>112.8</ele>
        <time>2015-04-13T18:28:39.840Z</time>
      </trkpt>
      <trkpt lat="48.87536" lon="2.35764">
        <ele>113.2</ele>
        <time>2015-04-13T18:28:41.240Z</time>
      </trkpt>
      <trkpt lat="48.87543" lon="2.35765">
        <ele>113.5</ele>
        <time>2015-04-13T18:28:41.862Z</time>
      </trkpt>
      <trkpt lat="48.87552" lon="2.35767">
        <ele>113.9</ele>
        <time>2015-04-13T18:28:42.854Z</time>
      </trkpt>
      <trkpt lat="48.8756" lon="2.35769">
        <ele>114.5</ele>
        <time>2015-04-13T18:28:43.894Z</time>
      </trkpt>
      <trkpt lat="48.87569" lon="2.35772">
        <ele>115</ele>
        <time>2015-04-13T18:28:44.866Z</time>
      </trkpt>
      <trkpt lat="48.87579" lon="2.35774">
        <ele>115.6</ele>
        <time>2015-04-13T18:28:45.827Z</time>
      </trkpt>
      <trkpt lat="48.87579" lon="2.35774">
        <ele>115.6</ele>
        <time>2015-04-13T18:28:46.283Z</time>
      </trkpt>
      <trkpt lat="48.87592" lon="2.35775">
        <ele>118.4</ele>
        <time>2015-04-13T18:28:46.839Z</time>
      </trkpt>
      <trkpt lat="48.87603" lon="2.35777">
        <ele>119.2</ele>
        <time>2015-04-13T18:28:47.826Z</time>
      </trkpt>
      <trkpt lat="48.87612" lon="2.35779">
        <ele>119.7</ele>
        <time>2015-04-13T18:28:48.843Z</time>
      </trkpt>
      <trkpt lat="48.87623" lon="2.35782">
        <ele>120</ele>
        <time>2015-04-13T18:28:49.853Z</time>
      </trkpt>
      <trkpt lat="48.87632" lon="2.35785">
        <ele>119.9</ele>
        <time>2015-04-13T18:28:50.824Z</time>
      </trkpt>
      <trkpt lat="48.87641" lon="2.35788">
        <ele>119.7</ele>
        <time>2015-04-13T18:28:51.821Z</time>
      </trkpt>
      <trkpt lat="48.87648" lon="2.3579">
        <ele>119.6</ele>
        <time>2015-04-13T18:28:52.866Z</time>
      </trkpt>
      <trkpt lat="48.87654" lon="2.35799">
        <ele>118.5</ele>
        <time>2015-04-13T18:28:55.885Z</time>
      </trkpt>
      <trkpt lat="48.87651" lon="2.35803">
        <ele>117</ele>
        <time>2015-04-13T18:28:56.868Z</time>
      </trkpt>
      <trkpt lat="48.87647" lon="2.35807">
        <ele>115.2</ele>
        <time>2015-04-13T18:28:57.834Z</time>
      </trkpt>
      <trkpt lat="48.87642" lon="2.3581">
        <ele>111.8</ele>
        <time>2015-04-13T18:28:58.847Z</time>
      </trkpt>
      <trkpt lat="48.87637" lon="2.35814">
        <ele>108.6</ele>
        <time>2015-04-13T18:29:00.864Z</time>
      </trkpt>
      <trkpt lat="48.87633" lon="2.35816">
        <ele>105.8</ele>
        <time>2015-04-13T18:29:01.894Z</time>
      </trkpt>
      <trkpt lat="48.87626" lon="2.35824">
        <ele>104.4</ele>
        <time>2015-04-13T18:29:07.816Z</time>
      </trkpt>
      <trkpt lat="48.87624" lon="2.35826">
        <ele>105.3</ele>
        <time>2015-04-13T18:29:08.823Z</time>
      </trkpt>
      <trkpt lat="48.87617" lon="2.35832">
        <ele>103.7</ele>
        <time>2015-04-13T18:29:16.800Z</time>
      </trkpt>
      <trkpt lat="48.87616" lon="2.35833">
        <ele>103.6</ele>
        <time>2015-04-13T18:29:17.772Z</time>
      </trkpt>
      <trkpt lat="48.87611" lon="2.35839">
        <ele>104.1</ele>
        <time>2015-04-13T18:29:23.863Z</time>
      </trkpt>
      <trkpt lat="48.87609" lon="2.3584">
        <ele>104.4</ele>
        <time>2015-04-13T18:29:24.864Z</time>
      </trkpt>
      <trkpt lat="48.87608" lon="2.35841">
        <ele>104.6</ele>
        <time>2015-04-13T18:29:37.901Z</time>
      </trkpt>
      <trkpt lat="48.87611" lon="2.35845">
        <ele>103.7</ele>
        <time>2015-04-13T18:29:38.749Z</time>
      </trkpt>
      <trkpt lat="48.87612" lon="2.35847">
        <ele>103.6</ele>
        <time>2015-04-13T18:29:40.766Z</time>
      </trkpt>
      <trkpt lat="48.87612" lon="2.35847">
        <ele>103.7</ele>
        <time>2015-04-13T18:29:41.794Z</time>
      </trkpt>
      <trkpt lat="48.87612" lon="2.35848">
        <ele>103.9</ele>
        <time>2015-04-13T18:29:56.804Z</time>
      </trkpt>
      <trkpt lat="48.87605" lon="2.35851">
        <ele>105.4</ele>
        <time>2015-04-13T18:29:57.917Z</time>
      </trkpt>
      <trkpt lat="48.87603" lon="2.3586">
        <ele>104</ele>
        <time>2015-04-13T18:30:00.823Z</time>
      </trkpt>
      <trkpt lat="48.87603" lon="2.35865">
        <ele>103.6</ele>
        <time>2015-04-13T18:30:01.846Z</time>
      </trkpt>
      <trkpt lat="48.87604" lon="2.35875">
        <ele>102.3</ele>
        <time>2015-04-13T18:30:03.769Z</time>
      </trkpt>
      <trkpt lat="48.87602" lon="2.35881">
        <ele>102</ele>
        <time>2015-04-13T18:30:04.784Z</time>
      </trkpt>
      <trkpt lat="48.87601" lon="2.35893">
        <ele>101.1</ele>
        <time>2015-04-13T18:30:06.814Z</time>
      </trkpt>
      <trkpt lat="48.87601" lon="2.359">
        <ele>100.8</ele>
        <time>2015-04-13T18:30:07.826Z</time>
      </trkpt>
      <trkpt lat="48.87599" lon="2.35908">
        <ele>100.5</ele>
        <time>2015-04-13T18:30:08.859Z</time>
      </trkpt>
      <trkpt lat="48.87598" lon="2.35915">
        <ele>100.1</ele>
        <time>2015-04-13T18:30:09.753Z</time>
      </trkpt>
      <trkpt lat="48.87597" lon="2.35922">
        <ele>99.8</ele>
        <time>2015-04-13T18:30:10.759Z</time>
      </trkpt>
      <trkpt lat="48.87595" lon="2.35929">
        <ele>99.4</ele>
        <time>2015-04-13T18:30:11.782Z</time>
      </trkpt>
      <trkpt lat="48.87593" lon="2.35936">
        <ele>99.1</ele>
        <time>2015-04-13T18:30:12.804Z</time>
      </trkpt>
      <trkpt lat="48.87592" lon="2.35943">
        <ele>98.5</ele>
        <time>2015-04-13T18:30:13.814Z</time>
      </trkpt>
      <trkpt lat="48.87592" lon="2.35957">
        <ele>97.3</ele>
        <time>2015-04-13T18:30:15.841Z</time>
      </trkpt>
      <trkpt lat="48.87592" lon="2.35964">
        <ele>97.1</ele>
        <time>2015-04-13T18:30:16.859Z</time>
      </trkpt>
      <trkpt lat="48.87592" lon="2.35974">
        <ele>96.3</ele>
        <time>2015-04-13T18:30:18.828Z</time>
      </trkpt>
      <trkpt lat="48.87591" lon="2.35979">
        <ele>95.9</ele>
        <time>2015-04-13T18:30:19.842Z</time>
      </trkpt>
      <trkpt lat="48.87589" lon="2.3599">
        <ele>95</ele>
        <time>2015-04-13T18:30:21.794Z</time>
      </trkpt>
      <trkpt lat="48.87588" lon="2.35995">
        <ele>94.5</ele>
        <time>2015-04-13T18:30:22.820Z</time>
      </trkpt>
      <trkpt lat="48.87586" lon="2.36008">
        <ele>94.1</ele>
        <time>2015-04-13T18:30:25.796Z</time>
      </trkpt>
      <trkpt lat="48.87585" lon="2.3601">
        <ele>94.4</ele>
        <time>2015-04-13T18:30:26.768Z</time>
      </trkpt>
      <trkpt lat="48.87584" lon="2.36011">
        <ele>94.4</ele>
        <time>2015-04-13T18:30:27.768Z</time>
      </trkpt>
      <trkpt lat="48.87584" lon="2.36012">
        <ele>94.7</ele>
        <time>2015-04-13T18:30:28.802Z</time>
      </trkpt>
      <trkpt lat="48.87585" lon="2.36013">
        <ele>95</ele>
        <time>2015-04-13T18:30:29.828Z</time>
      </trkpt>
      <trkpt lat="48.87587" lon="2.36024">
        <ele>95.2</ele>
        <time>2015-04-13T18:30:34.813Z</time>
      </trkpt>
      <trkpt lat="48.87588" lon="2.36029">
        <ele>95.1</ele>
        <time>2015-04-13T18:30:35.834Z</time>
      </trkpt>
      <trkpt lat="48.87591" lon="2.36038">
        <ele>95.1</ele>
        <time>2015-04-13T18:30:37.949Z</time>
      </trkpt>
      <trkpt lat="48.87591" lon="2.36042">
        <ele>95.1</ele>
        <time>2015-04-13T18:30:38.765Z</time>
      </trkpt>
      <trkpt lat="48.87595" lon="2.36051">
        <ele>95.3</ele>
        <time>2015-04-13T18:30:40.823Z</time>
      </trkpt>
      <trkpt lat="48.87597" lon="2.36054">
        <ele>95.4</ele>
        <time>2015-04-13T18:30:41.843Z</time>
      </trkpt>
      <trkpt lat="48.87604" lon="2.36058">
        <ele>95.7</ele>
        <time>2015-04-13T18:30:43.824Z</time>
      </trkpt>
      <trkpt lat="48.87609" lon="2.3606">
        <ele>96</ele>
        <time>2015-04-13T18:30:44.837Z</time>
      </trkpt>
      <trkpt lat="48.87614" lon="2.36063">
        <ele>96.3</ele>
        <time>2015-04-13T18:30:45.743Z</time>
      </trkpt>
      <trkpt lat="48.87618" lon="2.36065">
        <ele>96.5</ele>
        <time>2015-04-13T18:30:46.789Z</time>
      </trkpt>
      <trkpt lat="48.87623" lon="2.36068">
        <ele>96.6</ele>
        <time>2015-04-13T18:30:47.829Z</time>
      </trkpt>
      <trkpt lat="48.87628" lon="2.36071">
        <ele>96.7</ele>
        <time>2015-04-13T18:30:48.953Z</time>
      </trkpt>
      <trkpt lat="48.87632" lon="2.36075">
        <ele>96.9</ele>
        <time>2015-04-13T18:30:49.784Z</time>
      </trkpt>
      <trkpt lat="48.87637" lon="2.36078">
        <ele>96.9</ele>
        <time>2015-04-13T18:30:50.775Z</time>
      </trkpt>
      <trkpt lat="48.87641" lon="2.36081">
        <ele>97</ele>
        <time>2015-04-13T18:30:51.796Z</time>
      </trkpt>
      <trkpt lat="48.87646" lon="2.36084">
        <ele>97.1</ele>
        <time>2015-04-13T18:30:52.801Z</time>
      </trkpt>
      <trkpt lat="48.8765" lon="2.36087">
        <ele>97.3</ele>
        <time>2015-04-13T18:30:53.830Z</time>
      </trkpt>
      <trkpt lat="48.87655" lon="2.3609">
        <ele>97.4</ele>
        <time>2015-04-13T18:30:54.844Z</time>
      </trkpt>
      <trkpt lat="48.87661" lon="2.36093">
        <ele>97.5</ele>
        <time>2015-04-13T18:30:55.864Z</time>
      </trkpt>
      <trkpt lat="48.87667" lon="2.36095">
        <ele>97.5</ele>
        <time>2015-04-13T18:30:56.752Z</time>
      </trkpt>
      <trkpt lat="48.87672" lon="2.36097">
        <ele>97.6</ele>
        <time>2015-04-13T18:30:57.793Z</time>
      </trkpt>
      <trkpt lat="48.87676" lon="2.361">
        <ele>97.7</ele>
        <time>2015-04-13T18:30:58.813Z</time>
      </trkpt>
      <trkpt lat="48.87684" lon="2.36105">
        <ele>97.9</ele>
        <time>2015-04-13T18:31:00.820Z</time>
      </trkpt>
      <trkpt lat="48.87688" lon="2.36107">
        <ele>97.9</ele>
        <time>2015-04-13T18:31:01.821Z</time>
      </trkpt>
      <trkpt lat="48.87692" lon="2.3611">
        <ele>97.9</ele>
        <time>2015-04-13T18:31:02.790Z</time>
      </trkpt>
      <trkpt lat="48.87697" lon="2.36114">
        <ele>97.8</ele>
        <time>2015-04-13T18:31:03.816Z</time>
      </trkpt>
      <trkpt lat="48.877" lon="2.36117">
        <ele>97.9</ele>
        <time>2015-04-13T18:31:04.733Z</time>
      </trkpt>
      <trkpt lat="48.87705" lon="2.3612">
        <ele>97.8</ele>
        <time>2015-04-13T18:31:05.748Z</time>
      </trkpt>
      <trkpt lat="48.87709" lon="2.36123">
        <ele>97.8</ele>
        <time>2015-04-13T18:31:06.801Z</time>
      </trkpt>
      <trkpt lat="48.87714" lon="2.36126">
        <ele>97.5</ele>
        <time>2015-04-13T18:31:07.835Z</time>
      </trkpt>
      <trkpt lat="48.8772" lon="2.36131">
        <ele>96.9</ele>
        <time>2015-04-13T18:31:08.736Z</time>
      </trkpt>
      <trkpt lat="48.87728" lon="2.36135">
        <ele>96.5</ele>
        <time>2015-04-13T18:31:09.757Z</time>
      </trkpt>
      <trkpt lat="48.87735" lon="2.36138">
        <ele>95.9</ele>
        <time>2015-04-13T18:31:10.763Z</time>
      </trkpt>
      <trkpt lat="48.87742" lon="2.36142">
        <ele>95.5</ele>
        <time>2015-04-13T18:31:11.793Z</time>
      </trkpt>
      <trkpt lat="48.87747" lon="2.36145">
        <ele>95.2</ele>
        <time>2015-04-13T18:31:12.803Z</time>
      </trkpt>
      <trkpt lat="48.87753" lon="2.36149">
        <ele>95.1</ele>
        <time>2015-04-13T18:31:13.827Z</time>
      </trkpt>
      <trkpt lat="48.87758" lon="2.36153">
        <ele>95.1</ele>
        <time>2015-04-13T18:31:14.842Z</time>
      </trkpt>
      <trkpt lat="48.87764" lon="2.36156">
        <ele>95.2</ele>
        <time>2015-04-13T18:31:15.755Z</time>
      </trkpt>
      <trkpt lat="48.87769" lon="2.36159">
        <ele>95.2</ele>
        <time>2015-04-13T18:31:16.772Z</time>
      </trkpt>
      <trkpt lat="48.87775" lon="2.36163">
        <ele>95.3</ele>
        <time>2015-04-13T18:31:17.785Z</time>
      </trkpt>
      <trkpt lat="48.87779" lon="2.36167">
        <ele>95.4</ele>
        <time>2015-04-13T18:31:18.792Z</time>
      </trkpt>
      <trkpt lat="48.87784" lon="2.36171">
        <ele>95.4</ele>
        <time>2015-04-13T18:31:19.797Z</time>
      </trkpt>
      <trkpt lat="48.87789" lon="2.36174">
        <ele>95.4</ele>
        <time>2015-04-13T18:31:20.831Z</time>
      </trkpt>
      <trkpt lat="48.87793" lon="2.36178">
        <ele>95.4</ele>
        <time>2015-04-13T18:31:21.845Z</time>
      </trkpt>
      <trkpt lat="48.878" lon="2.36182">
        <ele>95.7</ele>
        <time>2015-04-13T18:31:23.794Z</time>
      </trkpt>
      <trkpt lat="48.87804" lon="2.36185">
        <ele>95.8</ele>
        <time>2015-04-13T18:31:24.837Z</time>
      </trkpt>
      <trkpt lat="48.87812" lon="2.3619">
        <ele>96.1</ele>
        <time>2015-04-13T18:31:26.765Z</time>
      </trkpt>
      <trkpt lat="48.87815" lon="2.36193">
        <ele>96.3</ele>
        <time>2015-04-13T18:31:27.770Z</time>
      </trkpt>
      <trkpt lat="48.87823" lon="2.36196">
        <ele>96.5</ele>
        <time>2015-04-13T18:31:29.778Z</time>
      </trkpt>
      <trkpt lat="48.87826" lon="2.36198">
        <ele>96.7</ele>
        <time>2015-04-13T18:31:30.783Z</time>
      </trkpt>
      <trkpt lat="48.87833" lon="2.36202">
        <ele>96.8</ele>
        <time>2015-04-13T18:31:32.765Z</time>
      </trkpt>
      <trkpt lat="48.87841" lon="2.36204">
        <ele>96.6</ele>
        <time>2015-04-13T18:31:33.783Z</time>
      </trkpt>
      <trkpt lat="48.87847" lon="2.36206">
        <ele>96.5</ele>
        <time>2015-04-13T18:31:34.799Z</time>
      </trkpt>
      <trkpt lat="48.87852" lon="2.36208">
        <ele>96.4</ele>
        <time>2015-04-13T18:31:35.797Z</time>
      </trkpt>
      <trkpt lat="48.87861" lon="2.36214">
        <ele>96.5</ele>
        <time>2015-04-13T18:31:37.771Z</time>
      </trkpt>
      <trkpt lat="48.87863" lon="2.36216">
        <ele>96.7</ele>
        <time>2015-04-13T18:31:38.766Z</time>
      </trkpt>
      <trkpt lat="48.87869" lon="2.36222">
        <ele>97.6</ele>
        <time>2015-04-13T18:31:41.842Z</time>
      </trkpt>
      <trkpt lat="48.87874" lon="2.36223">
        <ele>98</ele>
        <time>2015-04-13T18:31:42.870Z</time>
      </trkpt>
      <trkpt lat="48.87878" lon="2.36226">
        <ele>98.5</ele>
        <time>2015-04-13T18:31:43.811Z</time>
      </trkpt>
      <trkpt lat="48.87883" lon="2.36227">
        <ele>98.8</ele>
        <time>2015-04-13T18:31:44.826Z</time>
      </trkpt>
      <trkpt lat="48.87888" lon="2.36229">
        <ele>99.2</ele>
        <time>2015-04-13T18:31:45.855Z</time>
      </trkpt>
      <trkpt lat="48.87893" lon="2.36232">
        <ele>99.5</ele>
        <time>2015-04-13T18:31:46.782Z</time>
      </trkpt>
      <trkpt lat="48.87897" lon="2.36236">
        <ele>99.8</ele>
        <time>2015-04-13T18:31:47.781Z</time>
      </trkpt>
      <trkpt lat="48.87901" lon="2.36239">
        <ele>100.1</ele>
        <time>2015-04-13T18:31:48.784Z</time>
      </trkpt>
      <trkpt lat="48.87906" lon="2.36243">
        <ele>100.5</ele>
        <time>2015-04-13T18:31:49.800Z</time>
      </trkpt>
      <trkpt lat="48.8791" lon="2.36247">
        <ele>100.5</ele>
        <time>2015-04-13T18:31:50.800Z</time>
      </trkpt>
      <trkpt lat="48.87917" lon="2.36253">
        <ele>100.3</ele>
        <time>2015-04-13T18:31:50.177Z</time>
      </trkpt>
      <trkpt lat="48.87924" lon="2.36259">
        <ele>100</ele>
        <time>2015-04-13T18:31:52.839Z</time>
      </trkpt>
      <trkpt lat="48.8793" lon="2.36265">
        <ele>100</ele>
        <time>2015-04-13T18:31:53.825Z</time>
      </trkpt>
      <trkpt lat="48.87935" lon="2.36271">
        <ele>100</ele>
        <time>2015-04-13T18:31:54.836Z</time>
      </trkpt>
      <trkpt lat="48.87939" lon="2.36279">
        <ele>100</ele>
        <time>2015-04-13T18:31:55.846Z</time>
      </trkpt>
      <trkpt lat="48.87945" lon="2.36286">
        <ele>99.8</ele>
        <time>2015-04-13T18:31:56.865Z</time>
      </trkpt>
      <trkpt lat="48.87951" lon="2.36294">
        <ele>99.6</ele>
        <time>2015-04-13T18:31:57.813Z</time>
      </trkpt>
      <trkpt lat="48.87956" lon="2.36301">
        <ele>99.5</ele>
        <time>2015-04-13T18:31:58.774Z</time>
      </trkpt>
      <trkpt lat="48.87961" lon="2.36308">
        <ele>99.5</ele>
        <time>2015-04-13T18:31:59.776Z</time>
      </trkpt>
      <trkpt lat="48.87967" lon="2.36314">
        <ele>99</ele>
        <time>2015-04-13T18:32:00.804Z</time>
      </trkpt>
      <trkpt lat="48.87971" lon="2.36321">
        <ele>98.9</ele>
        <time>2015-04-13T18:32:01.803Z</time>
      </trkpt>
      <trkpt lat="48.87977" lon="2.36327">
        <ele>98.7</ele>
        <time>2015-04-13T18:32:02.806Z</time>
      </trkpt>
      <trkpt lat="48.87983" lon="2.36332">
        <ele>98.6</ele>
        <time>2015-04-13T18:32:03.814Z</time>
      </trkpt>
      <trkpt lat="48.87989" lon="2.36338">
        <ele>98.7</ele>
        <time>2015-04-13T18:32:04.824Z</time>
      </trkpt>
      <trkpt lat="48.87995" lon="2.36344">
        <ele>98.6</ele>
        <time>2015-04-13T18:32:05.841Z</time>
      </trkpt>
      <trkpt lat="48.88" lon="2.36351">
        <ele>98.7</ele>
        <time>2015-04-13T18:32:06.855Z</time>
      </trkpt>
      <trkpt lat="48.88004" lon="2.36358">
        <ele>98.6</ele>
        <time>2015-04-13T18:32:07.866Z</time>
      </trkpt>
      <trkpt lat="48.88009" lon="2.36364">
        <ele>98.6</ele>
        <time>2015-04-13T18:32:08.777Z</time>
      </trkpt>
      <trkpt lat="48.88014" lon="2.3637">
        <ele>98.7</ele>
        <time>2015-04-13T18:32:09.769Z</time>
      </trkpt>
      <trkpt lat="48.88019" lon="2.36375">
        <ele>98.8</ele>
        <time>2015-04-13T18:32:10.772Z</time>
      </trkpt>
      <trkpt lat="48.88025" lon="2.36381">
        <ele>98.7</ele>
        <time>2015-04-13T18:32:11.776Z</time>
      </trkpt>
      <trkpt lat="48.8803" lon="2.36387">
        <ele>98.7</ele>
        <time>2015-04-13T18:32:12.798Z</time>
      </trkpt>
      <trkpt lat="48.88035" lon="2.36393">
        <ele>98.7</ele>
        <time>2015-04-13T18:32:13.819Z</time>
      </trkpt>
      <trkpt lat="48.8804" lon="2.36399">
        <ele>98.7</ele>
        <time>2015-04-13T18:32:14.852Z</time>
      </trkpt>
      <trkpt lat="48.88045" lon="2.36405">
        <ele>98.8</ele>
        <time>2015-04-13T18:32:15.771Z</time>
      </trkpt>
      <trkpt lat="48.88049" lon="2.36411">
        <ele>98.8</ele>
        <time>2015-04-13T18:32:16.770Z</time>
      </trkpt>
      <trkpt lat="48.88052" lon="2.36417">
        <ele>98.8</ele>
        <time>2015-04-13T18:32:17.785Z</time>
      </trkpt>
      <trkpt lat="48.88056" lon="2.36423">
        <ele>98.7</ele>
        <time>2015-04-13T18:32:18.797Z</time>
      </trkpt>
      <trkpt lat="48.8806" lon="2.36428">
        <ele>98.5</ele>
        <time>2015-04-13T18:32:19.807Z</time>
      </trkpt>
      <trkpt lat="48.88063" lon="2.36435">
        <ele>98.4</ele>
        <time>2015-04-13T18:32:20.834Z</time>
      </trkpt>
      <trkpt lat="48.88066" lon="2.36441">
        <ele>98.4</ele>
        <time>2015-04-13T18:32:21.842Z</time>
      </trkpt>
      <trkpt lat="48.8807" lon="2.36447">
        <ele>98.2</ele>
        <time>2015-04-13T18:32:22.854Z</time>
      </trkpt>
      <trkpt lat="48.88074" lon="2.36453">
        <ele>97.9</ele>
        <time>2015-04-13T18:32:23.772Z</time>
      </trkpt>
      <trkpt lat="48.88079" lon="2.36458">
        <ele>97.7</ele>
        <time>2015-04-13T18:32:24.799Z</time>
      </trkpt>
      <trkpt lat="48.88084" lon="2.36464">
        <ele>97.5</ele>
        <time>2015-04-13T18:32:25.813Z</time>
      </trkpt>
      <trkpt lat="48.88088" lon="2.36469">
        <ele>97.5</ele>
        <time>2015-04-13T18:32:26.823Z</time>
      </trkpt>
      <trkpt lat="48.88091" lon="2.36476">
        <ele>97.4</ele>
        <time>2015-04-13T18:32:27.835Z</time>
      </trkpt>
      <trkpt lat="48.88094" lon="2.36482">
        <ele>97.3</ele>
        <time>2015-04-13T18:32:28.849Z</time>
      </trkpt>
      <trkpt lat="48.88098" lon="2.36488">
        <ele>97</ele>
        <time>2015-04-13T18:32:29.855Z</time>
      </trkpt>
      <trkpt lat="48.88103" lon="2.36493">
        <ele>96.8</ele>
        <time>2015-04-13T18:32:30.869Z</time>
      </trkpt>
      <trkpt lat="48.88108" lon="2.36497">
        <ele>96.5</ele>
        <time>2015-04-13T18:32:31.775Z</time>
      </trkpt>
      <trkpt lat="48.88113" lon="2.36501">
        <ele>96.5</ele>
        <time>2015-04-13T18:32:32.775Z</time>
      </trkpt>
      <trkpt lat="48.88117" lon="2.36506">
        <ele>96.5</ele>
        <time>2015-04-13T18:32:33.792Z</time>
      </trkpt>
      <trkpt lat="48.88121" lon="2.36511">
        <ele>96.5</ele>
        <time>2015-04-13T18:32:34.828Z</time>
      </trkpt>
      <trkpt lat="48.88124" lon="2.36516">
        <ele>96.6</ele>
        <time>2015-04-13T18:32:35.837Z</time>
      </trkpt>
      <trkpt lat="48.88127" lon="2.36521">
        <ele>96.8</ele>
        <time>2015-04-13T18:32:36.847Z</time>
      </trkpt>
      <trkpt lat="48.88131" lon="2.36526">
        <ele>97.1</ele>
        <time>2015-04-13T18:32:37.871Z</time>
      </trkpt>
      <trkpt lat="48.88136" lon="2.36532">
        <ele>97.4</ele>
        <time>2015-04-13T18:32:38.772Z</time>
      </trkpt>
      <trkpt lat="48.8814" lon="2.36537">
        <ele>97.6</ele>
        <time>2015-04-13T18:32:39.814Z</time>
      </trkpt>
      <trkpt lat="48.88144" lon="2.36543">
        <ele>97.8</ele>
        <time>2015-04-13T18:32:40.823Z</time>
      </trkpt>
      <trkpt lat="48.88147" lon="2.36549">
        <ele>98</ele>
        <time>2015-04-13T18:32:41.841Z</time>
      </trkpt>
      <trkpt lat="48.88151" lon="2.36554">
        <ele>98.3</ele>
        <time>2015-04-13T18:32:42.851Z</time>
      </trkpt>
      <trkpt lat="48.88156" lon="2.36563">
        <ele>98.4</ele>
        <time>2015-04-13T18:32:44.765Z</time>
      </trkpt>
      <trkpt lat="48.88158" lon="2.36567">
        <ele>98.4</ele>
        <time>2015-04-13T18:32:45.790Z</time>
      </trkpt>
      <trkpt lat="48.88162" lon="2.36575">
        <ele>98.5</ele>
        <time>2015-04-13T18:32:47.835Z</time>
      </trkpt>
      <trkpt lat="48.88164" lon="2.36578">
        <ele>98.7</ele>
        <time>2015-04-13T18:32:48.861Z</time>
      </trkpt>
      <trkpt lat="48.88165" lon="2.36586">
        <ele>99.3</ele>
        <time>2015-04-13T18:32:50.812Z</time>
      </trkpt>
      <trkpt lat="48.88166" lon="2.36591">
        <ele>99.4</ele>
        <time>2015-04-13T18:32:51.858Z</time>
      </trkpt>
      <trkpt lat="48.88166" lon="2.36601">
        <ele>100.1</ele>
        <time>2015-04-13T18:32:53.788Z</time>
      </trkpt>
      <trkpt lat="48.88166" lon="2.36606">
        <ele>100.4</ele>
        <time>2015-04-13T18:32:54.818Z</time>
      </trkpt>
      <trkpt lat="48.88167" lon="2.36616">
        <ele>101</ele>
        <time>2015-04-13T18:32:56.795Z</time>
      </trkpt>
      <trkpt lat="48.88167" lon="2.3662">
        <ele>101.2</ele>
        <time>2015-04-13T18:32:57.795Z</time>
      </trkpt>
      <trkpt lat="48.88168" lon="2.36632">
        <ele>101.7</ele>
        <time>2015-04-13T18:32:59.788Z</time>
      </trkpt>
      <trkpt lat="48.88168" lon="2.36639">
        <ele>102</ele>
        <time>2015-04-13T18:33:00.794Z</time>
      </trkpt>
      <trkpt lat="48.88169" lon="2.36646">
        <ele>102.2</ele>
        <time>2015-04-13T18:33:01.805Z</time>
      </trkpt>
      <trkpt lat="48.8817" lon="2.36654">
        <ele>102.3</ele>
        <time>2015-04-13T18:33:02.830Z</time>
      </trkpt>
      <trkpt lat="48.88171" lon="2.36662">
        <ele>102.4</ele>
        <time>2015-04-13T18:33:03.779Z</time>
      </trkpt>
      <trkpt lat="48.88174" lon="2.36671">
        <ele>102.6</ele>
        <time>2015-04-13T18:33:04.777Z</time>
      </trkpt>
      <trkpt lat="48.88175" lon="2.3668">
        <ele>102.7</ele>
        <time>2015-04-13T18:33:05.801Z</time>
      </trkpt>
      <trkpt lat="48.88177" lon="2.36689">
        <ele>103</ele>
        <time>2015-04-13T18:33:06.809Z</time>
      </trkpt>
      <trkpt lat="48.88179" lon="2.36696">
        <ele>103.2</ele>
        <time>2015-04-13T18:33:07.831Z</time>
      </trkpt>
      <trkpt lat="48.88181" lon="2.36703">
        <ele>103.4</ele>
        <time>2015-04-13T18:33:08.871Z</time>
      </trkpt>
      <trkpt lat="48.88184" lon="2.36711">
        <ele>103.6</ele>
        <time>2015-04-13T18:33:09.777Z</time>
      </trkpt>
      <trkpt lat="48.88186" lon="2.36719">
        <ele>103.7</ele>
        <time>2015-04-13T18:33:10.788Z</time>
      </trkpt>
      <trkpt lat="48.88187" lon="2.36727">
        <ele>103.7</ele>
        <time>2015-04-13T18:33:11.801Z</time>
      </trkpt>
      <trkpt lat="48.8819" lon="2.36734">
        <ele>103.9</ele>
        <time>2015-04-13T18:33:12.818Z</time>
      </trkpt>
      <trkpt lat="48.88193" lon="2.36742">
        <ele>104.2</ele>
        <time>2015-04-13T18:33:13.844Z</time>
      </trkpt>
      <trkpt lat="48.88196" lon="2.3675">
        <ele>104.4</ele>
        <time>2015-04-13T18:33:14.857Z</time>
      </trkpt>
      <trkpt lat="48.88198" lon="2.36758">
        <ele>104.6</ele>
        <time>2015-04-13T18:33:15.865Z</time>
      </trkpt>
      <trkpt lat="48.882" lon="2.36767">
        <ele>104.8</ele>
        <time>2015-04-13T18:33:16.787Z</time>
      </trkpt>
      <trkpt lat="48.88201" lon="2.36775">
        <ele>105</ele>
        <time>2015-04-13T18:33:17.790Z</time>
      </trkpt>
      <trkpt lat="48.88203" lon="2.36783">
        <ele>105.2</ele>
        <time>2015-04-13T18:33:18.823Z</time>
      </trkpt>
      <trkpt lat="48.88206" lon="2.36791">
        <ele>105.5</ele>
        <time>2015-04-13T18:33:19.844Z</time>
      </trkpt>
      <trkpt lat="48.88207" lon="2.36798">
        <ele>105.6</ele>
        <time>2015-04-13T18:33:20.861Z</time>
      </trkpt>
      <trkpt lat="48.88208" lon="2.36805">
        <ele>105.7</ele>
        <time>2015-04-13T18:33:21.789Z</time>
      </trkpt>
      <trkpt lat="48.88211" lon="2.36814">
        <ele>105.8</ele>
        <time>2015-04-13T18:33:22.797Z</time>
      </trkpt>
      <trkpt lat="48.88215" lon="2.36822">
        <ele>105.8</ele>
        <time>2015-04-13T18:33:23.788Z</time>
      </trkpt>
      <trkpt lat="48.88219" lon="2.3683">
        <ele>105.9</ele>
        <time>2015-04-13T18:33:24.804Z</time>
      </trkpt>
      <trkpt lat="48.88224" lon="2.36838">
        <ele>105.9</ele>
        <time>2015-04-13T18:33:25.793Z</time>
      </trkpt>
      <trkpt lat="48.88228" lon="2.36845">
        <ele>106.1</ele>
        <time>2015-04-13T18:33:26.854Z</time>
      </trkpt>
      <trkpt lat="48.88232" lon="2.36853">
        <ele>106.2</ele>
        <time>2015-04-13T18:33:27.760Z</time>
      </trkpt>
      <trkpt lat="48.88237" lon="2.3686">
        <ele>106.4</ele>
        <time>2015-04-13T18:33:28.770Z</time>
      </trkpt>
      <trkpt lat="48.88241" lon="2.36868">
        <ele>106.6</ele>
        <time>2015-04-13T18:33:29.789Z</time>
      </trkpt>
      <trkpt lat="48.88245" lon="2.36875">
        <ele>106.6</ele>
        <time>2015-04-13T18:33:30.804Z</time>
      </trkpt>
      <trkpt lat="48.88245" lon="2.36884">
        <ele>105.3</ele>
        <time>2015-04-13T18:33:31.866Z</time>
      </trkpt>
      <trkpt lat="48.88245" lon="2.36891">
        <ele>104.8</ele>
        <time>2015-04-13T18:33:32.759Z</time>
      </trkpt>
      <trkpt lat="48.88246" lon="2.36903">
        <ele>104.5</ele>
        <time>2015-04-13T18:33:34.764Z</time>
      </trkpt>
      <trkpt lat="48.88246" lon="2.36909">
        <ele>104.2</ele>
        <time>2015-04-13T18:33:35.855Z</time>
      </trkpt>
      <trkpt lat="48.88249" lon="2.36921">
        <ele>103.6</ele>
        <time>2015-04-13T18:33:37.772Z</time>
      </trkpt>
      <trkpt lat="48.8825" lon="2.36926">
        <ele>102.3</ele>
        <time>2015-04-13T18:33:38.854Z</time>
      </trkpt>
      <trkpt lat="48.88254" lon="2.36936">
        <ele>101.9</ele>
        <time>2015-04-13T18:33:40.770Z</time>
      </trkpt>
      <trkpt lat="48.88256" lon="2.3694">
        <ele>101.5</ele>
        <time>2015-04-13T18:33:41.799Z</time>
      </trkpt>
      <trkpt lat="48.88261" lon="2.3695">
        <ele>102</ele>
        <time>2015-04-13T18:33:45.785Z</time>
      </trkpt>
      <trkpt lat="48.88261" lon="2.36952">
        <ele>102.3</ele>
        <time>2015-04-13T18:33:46.781Z</time>
      </trkpt>
      <trkpt lat="48.88266" lon="2.36962">
        <ele>103.9</ele>
        <time>2015-04-13T18:33:56.840Z</time>
      </trkpt>
      <trkpt lat="48.88267" lon="2.36962">
        <ele>104</ele>
        <time>2015-04-13T18:33:57.853Z</time>
      </trkpt>
      <trkpt lat="48.88274" lon="2.36969">
        <ele>104.2</ele>
        <time>2015-04-13T18:34:04.837Z</time>
      </trkpt>
      <trkpt lat="48.88275" lon="2.36972">
        <ele>104.7</ele>
        <time>2015-04-13T18:34:05.848Z</time>
      </trkpt>
      <trkpt lat="48.88278" lon="2.36981">
        <ele>105.7</ele>
        <time>2015-04-13T18:34:07.835Z</time>
      </trkpt>
      <trkpt lat="48.88278" lon="2.36985">
        <ele>106.1</ele>
        <time>2015-04-13T18:34:08.854Z</time>
      </trkpt>
      <trkpt lat="48.88281" lon="2.36994">
        <ele>106</ele>
        <time>2015-04-13T18:34:10.843Z</time>
      </trkpt>
      <trkpt lat="48.88284" lon="2.36998">
        <ele>105.7</ele>
        <time>2015-04-13T18:34:11.759Z</time>
      </trkpt>
      <trkpt lat="48.88289" lon="2.37006">
        <ele>105.8</ele>
        <time>2015-04-13T18:34:13.841Z</time>
      </trkpt>
      <trkpt lat="48.88291" lon="2.37009">
        <ele>105.8</ele>
        <time>2015-04-13T18:34:14.754Z</time>
      </trkpt>
      <trkpt lat="48.88296" lon="2.37017">
        <ele>105.4</ele>
        <time>2015-04-13T18:34:16.763Z</time>
      </trkpt>
      <trkpt lat="48.88298" lon="2.3702">
        <ele>105.4</ele>
        <time>2015-04-13T18:34:17.749Z</time>
      </trkpt>
      <trkpt lat="48.88306" lon="2.37023">
        <ele>109.1</ele>
        <time>2015-04-13T18:34:38.758Z</time>
      </trkpt>
      <trkpt lat="48.88307" lon="2.3702">
        <ele>109.1</ele>
        <time>2015-04-13T18:34:39.853Z</time>
      </trkpt>
      <trkpt lat="48.88308" lon="2.37006">
        <ele>110.3</ele>
        <time>2015-04-13T18:34:46.785Z</time>
      </trkpt>
      <trkpt lat="48.88308" lon="2.37006">
        <ele>110.3</ele>
        <time>2015-04-13T18:34:47.851Z</time>
      </trkpt>
      <trkpt lat="48.88317" lon="2.37007">
        <ele>111</ele>
        <time>2015-04-13T18:34:51.789Z</time>
      </trkpt>
      <trkpt lat="48.8832" lon="2.37006">
        <ele>111.1</ele>
        <time>2015-04-13T18:34:52.843Z</time>
      </trkpt>
      <trkpt lat="48.88328" lon="2.37">
        <ele>111.4</ele>
        <time>2015-04-13T18:34:55.821Z</time>
      </trkpt>
      <trkpt lat="48.88331" lon="2.36997">
        <ele>111.5</ele>
        <time>2015-04-13T18:34:56.834Z</time>
      </trkpt>
      <trkpt lat="48.88335" lon="2.36993">
        <ele>111.5</ele>
        <time>2015-04-13T18:34:57.838Z</time>
      </trkpt>
      <trkpt lat="48.88338" lon="2.36988">
        <ele>111.6</ele>
        <time>2015-04-13T18:34:58.850Z</time>
      </trkpt>
      <trkpt lat="48.88343" lon="2.36984">
        <ele>111.6</ele>
        <time>2015-04-13T18:35:00.516Z</time>
      </trkpt>
      <trkpt lat="48.88346" lon="2.36979">
        <ele>111.6</ele>
        <time>2015-04-13T18:35:00.874Z</time>
      </trkpt>
      <trkpt lat="48.88349" lon="2.36973">
        <ele>111.7</ele>
        <time>2015-04-13T18:35:01.781Z</time>
      </trkpt>
      <trkpt lat="48.88353" lon="2.36967">
        <ele>111.8</ele>
        <time>2015-04-13T18:35:02.798Z</time>
      </trkpt>
      <trkpt lat="48.88356" lon="2.36961">
        <ele>111.7</ele>
        <time>2015-04-13T18:35:03.850Z</time>
      </trkpt>
      <trkpt lat="48.8836" lon="2.36956">
        <ele>111.7</ele>
        <time>2015-04-13T18:35:04.873Z</time>
      </trkpt>
      <trkpt lat="48.88366" lon="2.36947">
        <ele>111.8</ele>
        <time>2015-04-13T18:35:06.793Z</time>
      </trkpt>
      <trkpt lat="48.88368" lon="2.36944">
        <ele>111.9</ele>
        <time>2015-04-13T18:35:07.808Z</time>
      </trkpt>
      <trkpt lat="48.8837" lon="2.36932">
        <ele>112.9</ele>
        <time>2015-04-13T18:35:10.843Z</time>
      </trkpt>
      <trkpt lat="48.88372" lon="2.36928">
        <ele>113.3</ele>
        <time>2015-04-13T18:35:11.847Z</time>
      </trkpt>
      <trkpt lat="48.88374" lon="2.36925">
        <ele>113.8</ele>
        <time>2015-04-13T18:35:12.869Z</time>
      </trkpt>
      <trkpt lat="48.88374" lon="2.36924">
        <ele>114</ele>
        <time>2015-04-13T18:35:13.897Z</time>
      </trkpt>
      <trkpt lat="48.88374" lon="2.36924">
        <ele>114.4</ele>
        <time>2015-04-13T18:35:14.787Z</time>
      </trkpt>
      <trkpt lat="48.88379" lon="2.3692">
        <ele>116</ele>
        <time>2015-04-13T18:35:16.808Z</time>
      </trkpt>
      <trkpt lat="48.88388" lon="2.36914">
        <ele>119</ele>
        <time>2015-04-13T18:35:17.822Z</time>
      </trkpt>
      <trkpt lat="48.88394" lon="2.3691">
        <ele>122</ele>
        <time>2015-04-13T18:35:18.845Z</time>
      </trkpt>
      <trkpt lat="48.88397" lon="2.3691">
        <ele>123.9</ele>
        <time>2015-04-13T18:35:19.854Z</time>
      </trkpt>
      <trkpt lat="48.88403" lon="2.36906">
        <ele>127.7</ele>
        <time>2015-04-13T18:35:20.854Z</time>
      </trkpt>
      <trkpt lat="48.8841" lon="2.369">
        <ele>131.1</ele>
        <time>2015-04-13T18:35:21.862Z</time>
      </trkpt>
      <trkpt lat="48.88416" lon="2.36896">
        <ele>133.9</ele>
        <time>2015-04-13T18:35:22.870Z</time>
      </trkpt>
      <trkpt lat="48.88422" lon="2.36892">
        <ele>136.5</ele>
        <time>2015-04-13T18:35:23.875Z</time>
      </trkpt>
      <trkpt lat="48.8843" lon="2.36892">
        <ele>139.9</ele>
        <time>2015-04-13T18:35:25.811Z</time>
      </trkpt>
      <trkpt lat="48.88432" lon="2.36894">
        <ele>140.7</ele>
        <time>2015-04-13T18:35:26.825Z</time>
      </trkpt>
      <trkpt lat="48.88437" lon="2.36903">
        <ele>142.2</ele>
        <time>2015-04-13T18:35:28.843Z</time>
      </trkpt>
      <trkpt lat="48.88439" lon="2.36909">
        <ele>142.9</ele>
        <time>2015-04-13T18:35:29.851Z</time>
      </trkpt>
      <trkpt lat="48.88443" lon="2.36915">
        <ele>143.1</ele>
        <time>2015-04-13T18:35:30.880Z</time>
      </trkpt>
      <trkpt lat="48.88446" lon="2.36921">
        <ele>143.3</ele>
        <time>2015-04-13T18:35:31.880Z</time>
      </trkpt>
      <trkpt lat="48.8845" lon="2.36928">
        <ele>143.3</ele>
        <time>2015-04-13T18:35:32.787Z</time>
      </trkpt>
      <trkpt lat="48.88449" lon="2.36938">
        <ele>141.7</ele>
        <time>2015-04-13T18:35:33.786Z</time>
      </trkpt>
      <trkpt lat="48.88452" lon="2.36948">
        <ele>141.5</ele>
        <time>2015-04-13T18:35:34.809Z</time>
      </trkpt>
      <trkpt lat="48.88454" lon="2.36955">
        <ele>141.8</ele>
        <time>2015-04-13T18:35:35.820Z</time>
      </trkpt>
      <trkpt lat="48.88457" lon="2.36967">
        <ele>142.3</ele>
        <time>2015-04-13T18:35:37.833Z</time>
      </trkpt>
      <trkpt lat="48.88461" lon="2.36973">
        <ele>142.2</ele>
        <time>2015-04-13T18:35:38.843Z</time>
      </trkpt>
      <trkpt lat="48.88463" lon="2.36982">
        <ele>141.6</ele>
        <time>2015-04-13T18:35:39.852Z</time>
      </trkpt>
      <trkpt lat="48.88478" lon="2.36991">
        <ele>139.9</ele>
        <time>2015-04-13T18:35:40.761Z</time>
      </trkpt>
      <trkpt lat="48.88483" lon="2.36998">
        <ele>139.6</ele>
        <time>2015-04-13T18:35:41.780Z</time>
      </trkpt>
      <trkpt lat="48.88487" lon="2.37005">
        <ele>139.1</ele>
        <time>2015-04-13T18:35:42.827Z</time>
      </trkpt>
      <trkpt lat="48.88491" lon="2.37011">
        <ele>138.8</ele>
        <time>2015-04-13T18:35:43.855Z</time>
      </trkpt>
      <trkpt lat="48.88495" lon="2.37017">
        <ele>138.5</ele>
        <time>2015-04-13T18:35:44.873Z</time>
      </trkpt>
      <trkpt lat="48.88498" lon="2.37022">
        <ele>138.2</ele>
        <time>2015-04-13T18:35:45.770Z</time>
      </trkpt>
      <trkpt lat="48.885" lon="2.37028">
        <ele>138.3</ele>
        <time>2015-04-13T18:35:46.795Z</time>
      </trkpt>
      <trkpt lat="48.88502" lon="2.37035">
        <ele>138.3</ele>
        <time>2015-04-13T18:35:47.805Z</time>
      </trkpt>
      <trkpt lat="48.88505" lon="2.37043">
        <ele>138.4</ele>
        <time>2015-04-13T18:35:48.818Z</time>
      </trkpt>
      <trkpt lat="48.88506" lon="2.37053">
        <ele>137.2</ele>
        <time>2015-04-13T18:35:49.833Z</time>
      </trkpt>
      <trkpt lat="48.88508" lon="2.3706">
        <ele>136.7</ele>
        <time>2015-04-13T18:35:50.841Z</time>
      </trkpt>
      <trkpt lat="48.88509" lon="2.37067">
        <ele>135.6</ele>
        <time>2015-04-13T18:35:51.767Z</time>
      </trkpt>
      <trkpt lat="48.88509" lon="2.37076">
        <ele>133.5</ele>
        <time>2015-04-13T18:35:52.776Z</time>
      </trkpt>
      <trkpt lat="48.88509" lon="2.37084">
        <ele>132.2</ele>
        <time>2015-04-13T18:35:53.781Z</time>
      </trkpt>
      <trkpt lat="48.8851" lon="2.37092">
        <ele>131</ele>
        <time>2015-04-13T18:35:54.848Z</time>
      </trkpt>
      <trkpt lat="48.88512" lon="2.37098">
        <ele>130.6</ele>
        <time>2015-04-13T18:35:55.831Z</time>
      </trkpt>
      <trkpt lat="48.88514" lon="2.37105">
        <ele>129.9</ele>
        <time>2015-04-13T18:35:56.836Z</time>
      </trkpt>
      <trkpt lat="48.88517" lon="2.37112">
        <ele>129.7</ele>
        <time>2015-04-13T18:35:57.856Z</time>
      </trkpt>
      <trkpt lat="48.88521" lon="2.37118">
        <ele>129.1</ele>
        <time>2015-04-13T18:35:58.868Z</time>
      </trkpt>
      <trkpt lat="48.88524" lon="2.37125">
        <ele>128.7</ele>
        <time>2015-04-13T18:35:59.803Z</time>
      </trkpt>
      <trkpt lat="48.88527" lon="2.37132">
        <ele>127.8</ele>
        <time>2015-04-13T18:36:00.805Z</time>
      </trkpt>
      <trkpt lat="48.8853" lon="2.37138">
        <ele>127.3</ele>
        <time>2015-04-13T18:36:01.814Z</time>
      </trkpt>
      <trkpt lat="48.88533" lon="2.37145">
        <ele>126.6</ele>
        <time>2015-04-13T18:36:02.827Z</time>
      </trkpt>
      <trkpt lat="48.88536" lon="2.37152">
        <ele>126.3</ele>
        <time>2015-04-13T18:36:03.857Z</time>
      </trkpt>
      <trkpt lat="48.88539" lon="2.37158">
        <ele>126.3</ele>
        <time>2015-04-13T18:36:04.860Z</time>
      </trkpt>
      <trkpt lat="48.88543" lon="2.37164">
        <ele>126.2</ele>
        <time>2015-04-13T18:36:05.759Z</time>
      </trkpt>
      <trkpt lat="48.88546" lon="2.37169">
        <ele>126.1</ele>
        <time>2015-04-13T18:36:06.804Z</time>
      </trkpt>
      <trkpt lat="48.8855" lon="2.37175">
        <ele>125.9</ele>
        <time>2015-04-13T18:36:07.806Z</time>
      </trkpt>
      <trkpt lat="48.88553" lon="2.3718">
        <ele>125.5</ele>
        <time>2015-04-13T18:36:08.811Z</time>
      </trkpt>
      <trkpt lat="48.88555" lon="2.37186">
        <ele>124.4</ele>
        <time>2015-04-13T18:36:09.829Z</time>
      </trkpt>
      <trkpt lat="48.88557" lon="2.37193">
        <ele>123.4</ele>
        <time>2015-04-13T18:36:10.835Z</time>
      </trkpt>
      <trkpt lat="48.88558" lon="2.372">
        <ele>122.7</ele>
        <time>2015-04-13T18:36:11.844Z</time>
      </trkpt>
      <trkpt lat="48.8856" lon="2.37207">
        <ele>122</ele>
        <time>2015-04-13T18:36:12.856Z</time>
      </trkpt>
      <trkpt lat="48.88563" lon="2.37214">
        <ele>121.4</ele>
        <time>2015-04-13T18:36:13.874Z</time>
      </trkpt>
      <trkpt lat="48.88565" lon="2.37222">
        <ele>121.1</ele>
        <time>2015-04-13T18:36:14.786Z</time>
      </trkpt>
      <trkpt lat="48.88566" lon="2.37229">
        <ele>120.7</ele>
        <time>2015-04-13T18:36:15.783Z</time>
      </trkpt>
      <trkpt lat="48.88569" lon="2.37235">
        <ele>120.4</ele>
        <time>2015-04-13T18:36:16.787Z</time>
      </trkpt>
      <trkpt lat="48.88573" lon="2.37243">
        <ele>120</ele>
        <time>2015-04-13T18:36:17.801Z</time>
      </trkpt>
      <trkpt lat="48.88576" lon="2.3725">
        <ele>119.1</ele>
        <time>2015-04-13T18:36:18.810Z</time>
      </trkpt>
      <trkpt lat="48.88578" lon="2.37257">
        <ele>118.3</ele>
        <time>2015-04-13T18:36:19.823Z</time>
      </trkpt>
      <trkpt lat="48.88581" lon="2.37264">
        <ele>117.2</ele>
        <time>2015-04-13T18:36:20.825Z</time>
      </trkpt>
      <trkpt lat="48.88583" lon="2.37271">
        <ele>116.4</ele>
        <time>2015-04-13T18:36:21.876Z</time>
      </trkpt>
      <trkpt lat="48.88586" lon="2.37278">
        <ele>115.8</ele>
        <time>2015-04-13T18:36:22.761Z</time>
      </trkpt>
      <trkpt lat="48.8859" lon="2.37284">
        <ele>115.6</ele>
        <time>2015-04-13T18:36:23.784Z</time>
      </trkpt>
      <trkpt lat="48.88593" lon="2.3729">
        <ele>115.4</ele>
        <time>2015-04-13T18:36:24.808Z</time>
      </trkpt>
      <trkpt lat="48.88596" lon="2.37296">
        <ele>114.6</ele>
        <time>2015-04-13T18:36:25.818Z</time>
      </trkpt>
      <trkpt lat="48.886" lon="2.37302">
        <ele>114.2</ele>
        <time>2015-04-13T18:36:26.830Z</time>
      </trkpt>
      <trkpt lat="48.88604" lon="2.37309">
        <ele>113.7</ele>
        <time>2015-04-13T18:36:27.836Z</time>
      </trkpt>
      <trkpt lat="48.88607" lon="2.37316">
        <ele>113.1</ele>
        <time>2015-04-13T18:36:28.836Z</time>
      </trkpt>
      <trkpt lat="48.88611" lon="2.37322">
        <ele>112.5</ele>
        <time>2015-04-13T18:36:29.856Z</time>
      </trkpt>
      <trkpt lat="48.88614" lon="2.37329">
        <ele>112</ele>
        <time>2015-04-13T18:36:30.861Z</time>
      </trkpt>
      <trkpt lat="48.88617" lon="2.37336">
        <ele>111.6</ele>
        <time>2015-04-13T18:36:31.871Z</time>
      </trkpt>
      <trkpt lat="48.8862" lon="2.37342">
        <ele>111.2</ele>
        <time>2015-04-13T18:36:32.779Z</time>
      </trkpt>
      <trkpt lat="48.88623" lon="2.37349">
        <ele>110.9</ele>
        <time>2015-04-13T18:36:33.788Z</time>
      </trkpt>
      <trkpt lat="48.88626" lon="2.37355">
        <ele>110.7</ele>
        <time>2015-04-13T18:36:34.801Z</time>
      </trkpt>
      <trkpt lat="48.8863" lon="2.37362">
        <ele>110.4</ele>
        <time>2015-04-13T18:36:35.834Z</time>
      </trkpt>
      <trkpt lat="48.88633" lon="2.37368">
        <ele>109.9</ele>
        <time>2015-04-13T18:36:36.846Z</time>
      </trkpt>
      <trkpt lat="48.88636" lon="2.37374">
        <ele>109.4</ele>
        <time>2015-04-13T18:36:37.857Z</time>
      </trkpt>
      <trkpt lat="48.8864" lon="2.3738">
        <ele>109.3</ele>
        <time>2015-04-13T18:36:38.770Z</time>
      </trkpt>
      <trkpt lat="48.88644" lon="2.37386">
        <ele>109.2</ele>
        <time>2015-04-13T18:36:39.867Z</time>
      </trkpt>
      <trkpt lat="48.88647" lon="2.37393">
        <ele>108.8</ele>
        <time>2015-04-13T18:36:40.871Z</time>
      </trkpt>
      <trkpt lat="48.88651" lon="2.374">
        <ele>108.9</ele>
        <time>2015-04-13T18:36:41.841Z</time>
      </trkpt>
      <trkpt lat="48.88655" lon="2.37407">
        <ele>108.7</ele>
        <time>2015-04-13T18:36:42.843Z</time>
      </trkpt>
      <trkpt lat="48.88659" lon="2.37414">
        <ele>108.7</ele>
        <time>2015-04-13T18:36:43.855Z</time>
      </trkpt>
      <trkpt lat="48.88662" lon="2.37421">
        <ele>108.7</ele>
        <time>2015-04-13T18:36:44.870Z</time>
      </trkpt>
      <trkpt lat="48.88665" lon="2.37429">
        <ele>108.7</ele>
        <time>2015-04-13T18:36:45.776Z</time>
      </trkpt>
      <trkpt lat="48.88668" lon="2.37435">
        <ele>108.6</ele>
        <time>2015-04-13T18:36:46.800Z</time>
      </trkpt>
      <trkpt lat="48.88671" lon="2.37442">
        <ele>108.6</ele>
        <time>2015-04-13T18:36:47.804Z</time>
      </trkpt>
      <trkpt lat="48.88674" lon="2.37448">
        <ele>108.6</ele>
        <time>2015-04-13T18:36:48.826Z</time>
      </trkpt>
      <trkpt lat="48.88677" lon="2.37455">
        <ele>108.3</ele>
        <time>2015-04-13T18:36:49.817Z</time>
      </trkpt>
      <trkpt lat="48.88681" lon="2.37462">
        <ele>108.1</ele>
        <time>2015-04-13T18:36:50.873Z</time>
      </trkpt>
      <trkpt lat="48.88684" lon="2.37469">
        <ele>108.2</ele>
        <time>2015-04-13T18:36:51.764Z</time>
      </trkpt>
      <trkpt lat="48.88688" lon="2.37475">
        <ele>107.7</ele>
        <time>2015-04-13T18:36:52.771Z</time>
      </trkpt>
      <trkpt lat="48.88692" lon="2.37482">
        <ele>107.5</ele>
        <time>2015-04-13T18:36:53.799Z</time>
      </trkpt>
      <trkpt lat="48.88696" lon="2.37489">
        <ele>107.2</ele>
        <time>2015-04-13T18:36:54.806Z</time>
      </trkpt>
      <trkpt lat="48.88699" lon="2.37496">
        <ele>107</ele>
        <time>2015-04-13T18:36:55.824Z</time>
      </trkpt>
      <trkpt lat="48.88703" lon="2.37502">
        <ele>106.9</ele>
        <time>2015-04-13T18:36:56.825Z</time>
      </trkpt>
      <trkpt lat="48.88707" lon="2.37508">
        <ele>106.8</ele>
        <time>2015-04-13T18:36:57.855Z</time>
      </trkpt>
      <trkpt lat="48.8871" lon="2.37514">
        <ele>106.6</ele>
        <time>2015-04-13T18:36:58.854Z</time>
      </trkpt>
      <trkpt lat="48.88713" lon="2.3752">
        <ele>106.5</ele>
        <time>2015-04-13T18:36:59.869Z</time>
      </trkpt>
      <trkpt lat="48.88717" lon="2.37526">
        <ele>106.4</ele>
        <time>2015-04-13T18:37:00.878Z</time>
      </trkpt>
      <trkpt lat="48.8872" lon="2.37532">
        <ele>106.3</ele>
        <time>2015-04-13T18:37:01.792Z</time>
      </trkpt>
      <trkpt lat="48.88723" lon="2.37538">
        <ele>106.3</ele>
        <time>2015-04-13T18:37:02.791Z</time>
      </trkpt>
      <trkpt lat="48.88726" lon="2.37544">
        <ele>106.3</ele>
        <time>2015-04-13T18:37:03.801Z</time>
      </trkpt>
      <trkpt lat="48.88729" lon="2.3755">
        <ele>106.4</ele>
        <time>2015-04-13T18:37:04.830Z</time>
      </trkpt>
      <trkpt lat="48.88732" lon="2.37556">
        <ele>106.4</ele>
        <time>2015-04-13T18:37:05.796Z</time>
      </trkpt>
      <trkpt lat="48.88735" lon="2.37563">
        <ele>106.4</ele>
        <time>2015-04-13T18:37:06.837Z</time>
      </trkpt>
      <trkpt lat="48.88738" lon="2.3757">
        <ele>106.4</ele>
        <time>2015-04-13T18:37:07.838Z</time>
      </trkpt>
      <trkpt lat="48.8874" lon="2.37579">
        <ele>106.3</ele>
        <time>2015-04-13T18:37:08.846Z</time>
      </trkpt>
      <trkpt lat="48.88742" lon="2.37585">
        <ele>106.1</ele>
        <time>2015-04-13T18:37:09.761Z</time>
      </trkpt>
      <trkpt lat="48.88745" lon="2.37592">
        <ele>105.1</ele>
        <time>2015-04-13T18:37:10.778Z</time>
      </trkpt>
      <trkpt lat="48.88749" lon="2.37599">
        <ele>104.7</ele>
        <time>2015-04-13T18:37:11.790Z</time>
      </trkpt>
      <trkpt lat="48.88753" lon="2.37607">
        <ele>104.5</ele>
        <time>2015-04-13T18:37:12.821Z</time>
      </trkpt>
      <trkpt lat="48.88756" lon="2.37614">
        <ele>104.2</ele>
        <time>2015-04-13T18:37:13.845Z</time>
      </trkpt>
      <trkpt lat="48.88758" lon="2.37621">
        <ele>104</ele>
        <time>2015-04-13T18:37:14.860Z</time>
      </trkpt>
      <trkpt lat="48.88761" lon="2.37628">
        <ele>103.9</ele>
        <time>2015-04-13T18:37:15.876Z</time>
      </trkpt>
      <trkpt lat="48.88764" lon="2.37634">
        <ele>103.7</ele>
        <time>2015-04-13T18:37:16.791Z</time>
      </trkpt>
      <trkpt lat="48.88767" lon="2.3764">
        <ele>103.8</ele>
        <time>2015-04-13T18:37:17.863Z</time>
      </trkpt>
      <trkpt lat="48.8877" lon="2.37647">
        <ele>103.8</ele>
        <time>2015-04-13T18:37:18.887Z</time>
      </trkpt>
      <trkpt lat="48.88773" lon="2.37653">
        <ele>103.8</ele>
        <time>2015-04-13T18:37:19.819Z</time>
      </trkpt>
      <trkpt lat="48.88775" lon="2.37659">
        <ele>103.8</ele>
        <time>2015-04-13T18:37:20.802Z</time>
      </trkpt>
      <trkpt lat="48.88777" lon="2.37666">
        <ele>103.8</ele>
        <time>2015-04-13T18:37:21.797Z</time>
      </trkpt>
      <trkpt lat="48.88779" lon="2.37672">
        <ele>103.9</ele>
        <time>2015-04-13T18:37:22.818Z</time>
      </trkpt>
      <trkpt lat="48.88781" lon="2.37679">
        <ele>104.1</ele>
        <time>2015-04-13T18:37:23.810Z</time>
      </trkpt>
      <trkpt lat="48.88784" lon="2.37685">
        <ele>104.2</ele>
        <time>2015-04-13T18:37:24.868Z</time>
      </trkpt>
      <trkpt lat="48.88786" lon="2.37691">
        <ele>104.3</ele>
        <time>2015-04-13T18:37:25.871Z</time>
      </trkpt>
      <trkpt lat="48.88788" lon="2.37697">
        <ele>104.4</ele>
        <time>2015-04-13T18:37:26.782Z</time>
      </trkpt>
      <trkpt lat="48.8879" lon="2.37703">
        <ele>104.3</ele>
        <time>2015-04-13T18:37:26.749Z</time>
      </trkpt>
      <trkpt lat="48.88794" lon="2.37709">
        <ele>104</ele>
        <time>2015-04-13T18:37:28.809Z</time>
      </trkpt>
      <trkpt lat="48.88798" lon="2.37715">
        <ele>103.7</ele>
        <time>2015-04-13T18:37:29.827Z</time>
      </trkpt>
      <trkpt lat="48.88802" lon="2.37722">
        <ele>103.4</ele>
        <time>2015-04-13T18:37:30.842Z</time>
      </trkpt>
      <trkpt lat="48.88808" lon="2.3773">
        <ele>102.5</ele>
        <time>2015-04-13T18:37:31.861Z</time>
      </trkpt>
      <trkpt lat="48.88814" lon="2.37737">
        <ele>102</ele>
        <time>2015-04-13T18:37:32.867Z</time>
      </trkpt>
      <trkpt lat="48.88819" lon="2.37744">
        <ele>101.5</ele>
        <time>2015-04-13T18:37:33.791Z</time>
      </trkpt>
      <trkpt lat="48.88823" lon="2.37751">
        <ele>101.1</ele>
        <time>2015-04-13T18:37:34.794Z</time>
      </trkpt>
      <trkpt lat="48.88826" lon="2.37758">
        <ele>101</ele>
        <time>2015-04-13T18:37:35.809Z</time>
      </trkpt>
      <trkpt lat="48.88829" lon="2.37764">
        <ele>100.8</ele>
        <time>2015-04-13T18:37:36.811Z</time>
      </trkpt>
      <trkpt lat="48.88833" lon="2.37769">
        <ele>100.7</ele>
        <time>2015-04-13T18:37:37.874Z</time>
      </trkpt>
      <trkpt lat="48.88837" lon="2.37775">
        <ele>100.5</ele>
        <time>2015-04-13T18:37:38.794Z</time>
      </trkpt>
      <trkpt lat="48.8884" lon="2.37779">
        <ele>100.4</ele>
        <time>2015-04-13T18:37:39.816Z</time>
      </trkpt>
      <trkpt lat="48.88844" lon="2.37784">
        <ele>100.2</ele>
        <time>2015-04-13T18:37:40.814Z</time>
      </trkpt>
      <trkpt lat="48.88847" lon="2.37789">
        <ele>100.3</ele>
        <time>2015-04-13T18:37:41.830Z</time>
      </trkpt>
      <trkpt lat="48.88851" lon="2.37795">
        <ele>100.1</ele>
        <time>2015-04-13T18:37:42.827Z</time>
      </trkpt>
      <trkpt lat="48.88855" lon="2.37801">
        <ele>100</ele>
        <time>2015-04-13T18:37:43.864Z</time>
      </trkpt>
      <trkpt lat="48.88859" lon="2.37806">
        <ele>99.9</ele>
        <time>2015-04-13T18:37:44.881Z</time>
      </trkpt>
      <trkpt lat="48.88862" lon="2.37812">
        <ele>99.9</ele>
        <time>2015-04-13T18:37:44.366Z</time>
      </trkpt>
      <trkpt lat="48.88866" lon="2.37818">
        <ele>99.9</ele>
        <time>2015-04-13T18:37:46.787Z</time>
      </trkpt>
      <trkpt lat="48.8887" lon="2.37823">
        <ele>99.7</ele>
        <time>2015-04-13T18:37:47.817Z</time>
      </trkpt>
      <trkpt lat="48.88874" lon="2.37826">
        <ele>99.7</ele>
        <time>2015-04-13T18:37:48.825Z</time>
      </trkpt>
      <trkpt lat="48.88882" lon="2.37833">
        <ele>100.1</ele>
        <time>2015-04-13T18:37:50.841Z</time>
      </trkpt>
      <trkpt lat="48.88886" lon="2.37835">
        <ele>100.4</ele>
        <time>2015-04-13T18:37:51.872Z</time>
      </trkpt>
      <trkpt lat="48.88892" lon="2.37838">
        <ele>100.5</ele>
        <time>2015-04-13T18:37:52.779Z</time>
      </trkpt>
      <trkpt lat="48.88896" lon="2.37843">
        <ele>100.6</ele>
        <time>2015-04-13T18:37:53.779Z</time>
      </trkpt>
      <trkpt lat="48.88903" lon="2.37851">
        <ele>100.9</ele>
        <time>2015-04-13T18:37:55.793Z</time>
      </trkpt>
      <trkpt lat="48.88904" lon="2.37856">
        <ele>101.9</ele>
        <time>2015-04-13T18:37:56.820Z</time>
      </trkpt>
      <trkpt lat="48.88904" lon="2.37867">
        <ele>103.6</ele>
        <time>2015-04-13T18:37:58.859Z</time>
      </trkpt>
      <trkpt lat="48.88904" lon="2.37872">
        <ele>104</ele>
        <time>2015-04-13T18:37:59.871Z</time>
      </trkpt>
      <trkpt lat="48.88901" lon="2.3788">
        <ele>103.5</ele>
        <time>2015-04-13T18:38:00.874Z</time>
      </trkpt>
      <trkpt lat="48.88899" lon="2.37887">
        <ele>103.3</ele>
        <time>2015-04-13T18:38:01.878Z</time>
      </trkpt>
      <trkpt lat="48.88895" lon="2.37896">
        <ele>103.3</ele>
        <time>2015-04-13T18:38:03.818Z</time>
      </trkpt>
      <trkpt lat="48.88893" lon="2.379">
        <ele>103.3</ele>
        <time>2015-04-13T18:38:04.796Z</time>
      </trkpt>
      <trkpt lat="48.88888" lon="2.37905">
        <ele>103.1</ele>
        <time>2015-04-13T18:38:06.806Z</time>
      </trkpt>
      <trkpt lat="48.88884" lon="2.37906">
        <ele>102.6</ele>
        <time>2015-04-13T18:38:07.818Z</time>
      </trkpt>
      <trkpt lat="48.88877" lon="2.37913">
        <ele>103.5</ele>
        <time>2015-04-13T18:38:10.829Z</time>
      </trkpt>
      <trkpt lat="48.88876" lon="2.37915">
        <ele>103.3</ele>
        <time>2015-04-13T18:38:11.874Z</time>
      </trkpt>
      <trkpt lat="48.88869" lon="2.37913">
        <ele>102.5</ele>
        <time>2015-04-13T18:38:32.773Z</time>
      </trkpt>
      <trkpt lat="48.88865" lon="2.37918">
        <ele>101.2</ele>
        <time>2015-04-13T18:38:33.825Z</time>
      </trkpt>
      <trkpt lat="48.88864" lon="2.37918">
        <ele>101.4</ele>
        <time>2015-04-13T18:38:34.847Z</time>
      </trkpt>
      <trkpt lat="48.88864" lon="2.37919">
        <ele>101.6</ele>
        <time>2015-04-13T18:38:35.850Z</time>
      </trkpt>
      <trkpt lat="48.88863" lon="2.37921">
        <ele>101.9</ele>
        <time>2015-04-13T18:38:39.779Z</time>
      </trkpt>
      <trkpt lat="48.88864" lon="2.37925">
        <ele>101.3</ele>
        <time>2015-04-13T18:38:40.778Z</time>
      </trkpt>
      <trkpt lat="48.88863" lon="2.37938">
        <ele>103</ele>
        <time>2015-04-13T18:38:47.790Z</time>
      </trkpt>
      <trkpt lat="48.88864" lon="2.37942">
        <ele>102.8</ele>
        <time>2015-04-13T18:38:48.862Z</time>
      </trkpt>
      <trkpt lat="48.88867" lon="2.37952">
        <ele>102.7</ele>
        <time>2015-04-13T18:38:50.823Z</time>
      </trkpt>
      <trkpt lat="48.88869" lon="2.37957">
        <ele>102.6</ele>
        <time>2015-04-13T18:38:51.872Z</time>
      </trkpt>
      <trkpt lat="48.88874" lon="2.37965">
        <ele>102.8</ele>
        <time>2015-04-13T18:38:53.815Z</time>
      </trkpt>
      <trkpt lat="48.88878" lon="2.37969">
        <ele>102.7</ele>
        <time>2015-04-13T18:38:54.890Z</time>
      </trkpt>
      <trkpt lat="48.88881" lon="2.37973">
        <ele>102.8</ele>
        <time>2015-04-13T18:38:55.845Z</time>
      </trkpt>
      <trkpt lat="48.88885" lon="2.37978">
        <ele>102.9</ele>
        <time>2015-04-13T18:38:56.759Z</time>
      </trkpt>
      <trkpt lat="48.88889" lon="2.37984">
        <ele>103.3</ele>
        <time>2015-04-13T18:38:57.799Z</time>
      </trkpt>
      <trkpt lat="48.88892" lon="2.3799">
        <ele>103.6</ele>
        <time>2015-04-13T18:38:58.802Z</time>
      </trkpt>
      <trkpt lat="48.88896" lon="2.37996">
        <ele>103.8</ele>
        <time>2015-04-13T18:38:59.818Z</time>
      </trkpt>
      <trkpt lat="48.889" lon="2.38002">
        <ele>103.8</ele>
        <time>2015-04-13T18:39:00.840Z</time>
      </trkpt>
      <trkpt lat="48.88904" lon="2.38009">
        <ele>103.8</ele>
        <time>2015-04-13T18:39:01.862Z</time>
      </trkpt>
      <trkpt lat="48.88908" lon="2.38016">
        <ele>104</ele>
        <time>2015-04-13T18:39:02.752Z</time>
      </trkpt>
      <trkpt lat="48.88911" lon="2.38022">
        <ele>104</ele>
        <time>2015-04-13T18:39:03.754Z</time>
      </trkpt>
      <trkpt lat="48.88915" lon="2.38029">
        <ele>104</ele>
        <time>2015-04-13T18:39:04.845Z</time>
      </trkpt>
      <trkpt lat="48.88918" lon="2.38036">
        <ele>104</ele>
        <time>2015-04-13T18:39:05.852Z</time>
      </trkpt>
      <trkpt lat="48.88922" lon="2.38044">
        <ele>104.1</ele>
        <time>2015-04-13T18:39:06.843Z</time>
      </trkpt>
      <trkpt lat="48.88926" lon="2.38052">
        <ele>104.3</ele>
        <time>2015-04-13T18:39:07.798Z</time>
      </trkpt>
      <trkpt lat="48.88929" lon="2.38059">
        <ele>104.3</ele>
        <time>2015-04-13T18:39:08.786Z</time>
      </trkpt>
      <trkpt lat="48.88933" lon="2.38067">
        <ele>104</ele>
        <time>2015-04-13T18:39:09.869Z</time>
      </trkpt>
      <trkpt lat="48.88937" lon="2.38073">
        <ele>103.8</ele>
        <time>2015-04-13T18:39:10.798Z</time>
      </trkpt>
      <trkpt lat="48.88941" lon="2.3808">
        <ele>103.5</ele>
        <time>2015-04-13T18:39:11.805Z</time>
      </trkpt>
      <trkpt lat="48.88946" lon="2.38087">
        <ele>103.4</ele>
        <time>2015-04-13T18:39:12.811Z</time>
      </trkpt>
      <trkpt lat="48.8895" lon="2.38095">
        <ele>103.4</ele>
        <time>2015-04-13T18:39:14.539Z</time>
      </trkpt>
      <trkpt lat="48.88954" lon="2.38102">
        <ele>103.3</ele>
        <time>2015-04-13T18:39:14.823Z</time>
      </trkpt>
      <trkpt lat="48.88957" lon="2.3811">
        <ele>103</ele>
        <time>2015-04-13T18:39:15.828Z</time>
      </trkpt>
      <trkpt lat="48.88961" lon="2.38117">
        <ele>102.8</ele>
        <time>2015-04-13T18:39:16.753Z</time>
      </trkpt>
      <trkpt lat="48.88965" lon="2.38124">
        <ele>102.6</ele>
        <time>2015-04-13T18:39:17.758Z</time>
      </trkpt>
      <trkpt lat="48.88969" lon="2.38131">
        <ele>102.3</ele>
        <time>2015-04-13T18:39:18.801Z</time>
      </trkpt>
      <trkpt lat="48.88974" lon="2.38137">
        <ele>102.3</ele>
        <time>2015-04-13T18:39:19.793Z</time>
      </trkpt>
      <trkpt lat="48.88979" lon="2.38144">
        <ele>102.2</ele>
        <time>2015-04-13T18:39:20.819Z</time>
      </trkpt>
      <trkpt lat="48.88983" lon="2.38151">
        <ele>101.8</ele>
        <time>2015-04-13T18:39:19.537Z</time>
      </trkpt>
      <trkpt lat="48.88987" lon="2.38159">
        <ele>101.9</ele>
        <time>2015-04-13T18:39:22.760Z</time>
      </trkpt>
      <trkpt lat="48.88991" lon="2.38166">
        <ele>101.8</ele>
        <time>2015-04-13T18:39:23.818Z</time>
      </trkpt>
      <trkpt lat="48.88994" lon="2.38173">
        <ele>101.6</ele>
        <time>2015-04-13T18:39:24.845Z</time>
      </trkpt>
      <trkpt lat="48.88998" lon="2.3818">
        <ele>101.4</ele>
        <time>2015-04-13T18:39:25.884Z</time>
      </trkpt>
      <trkpt lat="48.89002" lon="2.38187">
        <ele>101.1</ele>
        <time>2015-04-13T18:39:26.754Z</time>
      </trkpt>
      <trkpt lat="48.89006" lon="2.38194">
        <ele>101.1</ele>
        <time>2015-04-13T18:39:27.780Z</time>
      </trkpt>
      <trkpt lat="48.8901" lon="2.38201">
        <ele>100.9</ele>
        <time>2015-04-13T18:39:28.784Z</time>
      </trkpt>
      <trkpt lat="48.89016" lon="2.38208">
        <ele>100.3</ele>
        <time>2015-04-13T18:39:30.810Z</time>
      </trkpt>
      <trkpt lat="48.89018" lon="2.38214">
        <ele>100.5</ele>
        <time>2015-04-13T18:39:31.868Z</time>
      </trkpt>
      <trkpt lat="48.89022" lon="2.38221">
        <ele>100.8</ele>
        <time>2015-04-13T18:39:32.773Z</time>
      </trkpt>
      <trkpt lat="48.89026" lon="2.3823">
        <ele>100.9</ele>
        <time>2015-04-13T18:39:33.781Z</time>
      </trkpt>
      <trkpt lat="48.89031" lon="2.38237">
        <ele>100.9</ele>
        <time>2015-04-13T18:39:34.783Z</time>
      </trkpt>
      <trkpt lat="48.89036" lon="2.38243">
        <ele>100.8</ele>
        <time>2015-04-13T18:39:35.796Z</time>
      </trkpt>
      <trkpt lat="48.8904" lon="2.3825">
        <ele>100.9</ele>
        <time>2015-04-13T18:39:36.813Z</time>
      </trkpt>
      <trkpt lat="48.89044" lon="2.38257">
        <ele>100.9</ele>
        <time>2015-04-13T18:39:37.823Z</time>
      </trkpt>
      <trkpt lat="48.89048" lon="2.38264">
        <ele>101</ele>
        <time>2015-04-13T18:39:38.846Z</time>
      </trkpt>
      <trkpt lat="48.8905" lon="2.38271">
        <ele>100.9</ele>
        <time>2015-04-13T18:39:39.844Z</time>
      </trkpt>
      <trkpt lat="48.89053" lon="2.38278">
        <ele>101</ele>
        <time>2015-04-13T18:39:40.854Z</time>
      </trkpt>
      <trkpt lat="48.89056" lon="2.38285">
        <ele>100.6</ele>
        <time>2015-04-13T18:39:41.771Z</time>
      </trkpt>
      <trkpt lat="48.89056" lon="2.38295">
        <ele>100.6</ele>
        <time>2015-04-13T18:39:42.790Z</time>
      </trkpt>
      <trkpt lat="48.89059" lon="2.38304">
        <ele>100.8</ele>
        <time>2015-04-13T18:39:43.802Z</time>
      </trkpt>
      <trkpt lat="48.89062" lon="2.38312">
        <ele>101.1</ele>
        <time>2015-04-13T18:39:44.817Z</time>
      </trkpt>
      <trkpt lat="48.89065" lon="2.38321">
        <ele>101.1</ele>
        <time>2015-04-13T18:39:45.823Z</time>
      </trkpt>
      <trkpt lat="48.89068" lon="2.38329">
        <ele>100.8</ele>
        <time>2015-04-13T18:39:46.828Z</time>
      </trkpt>
      <trkpt lat="48.89071" lon="2.38336">
        <ele>100.6</ele>
        <time>2015-04-13T18:39:47.834Z</time>
      </trkpt>
      <trkpt lat="48.89075" lon="2.38343">
        <ele>100.4</ele>
        <time>2015-04-13T18:39:48.863Z</time>
      </trkpt>
      <trkpt lat="48.89078" lon="2.38348">
        <ele>100.1</ele>
        <time>2015-04-13T18:39:49.857Z</time>
      </trkpt>
      <trkpt lat="48.89084" lon="2.38357">
        <ele>100</ele>
        <time>2015-04-13T18:39:51.785Z</time>
      </trkpt>
      <trkpt lat="48.89086" lon="2.38363">
        <ele>100.1</ele>
        <time>2015-04-13T18:39:52.798Z</time>
      </trkpt>
      <trkpt lat="48.89089" lon="2.3837">
        <ele>100.3</ele>
        <time>2015-04-13T18:39:53.834Z</time>
      </trkpt>
      <trkpt lat="48.89092" lon="2.38377">
        <ele>100</ele>
        <time>2015-04-13T18:39:54.862Z</time>
      </trkpt>
      <trkpt lat="48.89095" lon="2.38384">
        <ele>99.9</ele>
        <time>2015-04-13T18:39:55.754Z</time>
      </trkpt>
      <trkpt lat="48.89098" lon="2.38393">
        <ele>99.9</ele>
        <time>2015-04-13T18:39:56.772Z</time>
      </trkpt>
      <trkpt lat="48.89101" lon="2.38399">
        <ele>99.9</ele>
        <time>2015-04-13T18:39:57.774Z</time>
      </trkpt>
      <trkpt lat="48.89105" lon="2.38404">
        <ele>99.8</ele>
        <time>2015-04-13T18:39:58.792Z</time>
      </trkpt>
      <trkpt lat="48.89108" lon="2.38411">
        <ele>99.8</ele>
        <time>2015-04-13T18:39:59.809Z</time>
      </trkpt>
      <trkpt lat="48.89111" lon="2.38417">
        <ele>99.7</ele>
        <time>2015-04-13T18:40:00.821Z</time>
      </trkpt>
      <trkpt lat="48.89115" lon="2.38422">
        <ele>99.8</ele>
        <time>2015-04-13T18:40:01.845Z</time>
      </trkpt>
      <trkpt lat="48.89118" lon="2.38427">
        <ele>99.8</ele>
        <time>2015-04-13T18:40:02.851Z</time>
      </trkpt>
      <trkpt lat="48.89121" lon="2.38432">
        <ele>99.9</ele>
        <time>2015-04-13T18:40:03.771Z</time>
      </trkpt>
      <trkpt lat="48.89124" lon="2.38438">
        <ele>99.8</ele>
        <time>2015-04-13T18:40:04.778Z</time>
      </trkpt>
      <trkpt lat="48.89128" lon="2.38443">
        <ele>99.7</ele>
        <time>2015-04-13T18:40:05.786Z</time>
      </trkpt>
      <trkpt lat="48.89133" lon="2.38449">
        <ele>99.5</ele>
        <time>2015-04-13T18:40:06.808Z</time>
      </trkpt>
      <trkpt lat="48.89137" lon="2.3846">
        <ele>99.6</ele>
        <time>2015-04-13T18:40:07.818Z</time>
      </trkpt>
      <trkpt lat="48.89141" lon="2.38468">
        <ele>99.6</ele>
        <time>2015-04-13T18:40:08.831Z</time>
      </trkpt>
      <trkpt lat="48.89146" lon="2.38475">
        <ele>99.7</ele>
        <time>2015-04-13T18:40:09.851Z</time>
      </trkpt>
      <trkpt lat="48.8915" lon="2.38484">
        <ele>99.7</ele>
        <time>2015-04-13T18:40:10.859Z</time>
      </trkpt>
      <trkpt lat="48.89153" lon="2.38494">
        <ele>99.6</ele>
        <time>2015-04-13T18:40:11.774Z</time>
      </trkpt>
      <trkpt lat="48.89157" lon="2.38503">
        <ele>99.4</ele>
        <time>2015-04-13T18:40:12.880Z</time>
      </trkpt>
      <trkpt lat="48.89162" lon="2.3851">
        <ele>99.2</ele>
        <time>2015-04-13T18:40:13.814Z</time>
      </trkpt>
      <trkpt lat="48.89167" lon="2.38514">
        <ele>99.3</ele>
        <time>2015-04-13T18:40:14.766Z</time>
      </trkpt>
      <trkpt lat="48.89172" lon="2.38517">
        <ele>99</ele>
        <time>2015-04-13T18:40:15.806Z</time>
      </trkpt>
      <trkpt lat="48.89176" lon="2.38519">
        <ele>99.2</ele>
        <time>2015-04-13T18:40:16.812Z</time>
      </trkpt>
      <trkpt lat="48.89184" lon="2.3852">
        <ele>99.2</ele>
        <time>2015-04-13T18:40:18.839Z</time>
      </trkpt>
      <trkpt lat="48.89189" lon="2.38518">
        <ele>100.9</ele>
        <time>2015-04-13T18:40:19.856Z</time>
      </trkpt>
      <trkpt lat="48.89194" lon="2.38517">
        <ele>101.4</ele>
        <time>2015-04-13T18:40:20.796Z</time>
      </trkpt>
      <trkpt lat="48.89198" lon="2.38516">
        <ele>101.9</ele>
        <time>2015-04-13T18:40:21.807Z</time>
      </trkpt>
      <trkpt lat="48.89203" lon="2.38519">
        <ele>101.8</ele>
        <time>2015-04-13T18:40:22.814Z</time>
      </trkpt>
      <trkpt lat="48.89208" lon="2.38522">
        <ele>101.8</ele>
        <time>2015-04-13T18:40:23.821Z</time>
      </trkpt>
      <trkpt lat="48.89213" lon="2.38525">
        <ele>102</ele>
        <time>2015-04-13T18:40:24.859Z</time>
      </trkpt>
      <trkpt lat="48.89218" lon="2.38529">
        <ele>102.2</ele>
        <time>2015-04-13T18:40:25.877Z</time>
      </trkpt>
      <trkpt lat="48.89222" lon="2.38533">
        <ele>102.2</ele>
        <time>2015-04-13T18:40:26.775Z</time>
      </trkpt>
      <trkpt lat="48.89228" lon="2.38538">
        <ele>102</ele>
        <time>2015-04-13T18:40:27.773Z</time>
      </trkpt>
      <trkpt lat="48.89234" lon="2.38541">
        <ele>102.1</ele>
        <time>2015-04-13T18:40:28.800Z</time>
      </trkpt>
      <trkpt lat="48.8924" lon="2.38545">
        <ele>102</ele>
        <time>2015-04-13T18:40:29.818Z</time>
      </trkpt>
      <trkpt lat="48.89245" lon="2.38549">
        <ele>102</ele>
        <time>2015-04-13T18:40:30.838Z</time>
      </trkpt>
      <trkpt lat="48.89249" lon="2.38553">
        <ele>102.1</ele>
        <time>2015-04-13T18:40:31.841Z</time>
      </trkpt>
      <trkpt lat="48.89258" lon="2.38554">
        <ele>102.3</ele>
        <time>2015-04-13T18:40:33.800Z</time>
      </trkpt>
      <trkpt lat="48.89264" lon="2.38549">
        <ele>102.1</ele>
        <time>2015-04-13T18:40:34.821Z</time>
      </trkpt>
      <trkpt lat="48.89269" lon="2.38545">
        <ele>102</ele>
        <time>2015-04-13T18:40:35.775Z</time>
      </trkpt>
      <trkpt lat="48.89274" lon="2.38541">
        <ele>102</ele>
        <time>2015-04-13T18:40:36.790Z</time>
      </trkpt>
      <trkpt lat="48.8928" lon="2.38538">
        <ele>101.9</ele>
        <time>2015-04-13T18:40:37.800Z</time>
      </trkpt>
      <trkpt lat="48.89285" lon="2.38536">
        <ele>101.9</ele>
        <time>2015-04-13T18:40:38.819Z</time>
      </trkpt>
      <trkpt lat="48.8929" lon="2.38532">
        <ele>101.6</ele>
        <time>2015-04-13T18:40:39.813Z</time>
      </trkpt>
      <trkpt lat="48.89295" lon="2.38529">
        <ele>101.7</ele>
        <time>2015-04-13T18:40:40.832Z</time>
      </trkpt>
      <trkpt lat="48.893" lon="2.38518">
        <ele>101.9</ele>
        <time>2015-04-13T18:40:43.857Z</time>
      </trkpt>
      <trkpt lat="48.89304" lon="2.38514">
        <ele>102</ele>
        <time>2015-04-13T18:40:44.796Z</time>
      </trkpt>
      <trkpt lat="48.89309" lon="2.38511">
        <ele>102</ele>
        <time>2015-04-13T18:40:45.848Z</time>
      </trkpt>
      <trkpt lat="48.89316" lon="2.38507">
        <ele>101.8</ele>
        <time>2015-04-13T18:40:46.861Z</time>
      </trkpt>
      <trkpt lat="48.89323" lon="2.38504">
        <ele>101.6</ele>
        <time>2015-04-13T18:40:47.769Z</time>
      </trkpt>
      <trkpt lat="48.89329" lon="2.385">
        <ele>101.3</ele>
        <time>2015-04-13T18:40:48.800Z</time>
      </trkpt>
      <trkpt lat="48.89342" lon="2.38491">
        <ele>99.7</ele>
        <time>2015-04-13T18:40:49.835Z</time>
      </trkpt>
      <trkpt lat="48.89351" lon="2.38487">
        <ele>99</ele>
        <time>2015-04-13T18:40:50.857Z</time>
      </trkpt>
      <trkpt lat="48.89358" lon="2.38484">
        <ele>98.7</ele>
        <time>2015-04-13T18:40:51.853Z</time>
      </trkpt>
      <trkpt lat="48.89371" lon="2.3848">
        <ele>98.4</ele>
        <time>2015-04-13T18:40:53.798Z</time>
      </trkpt>
      <trkpt lat="48.89377" lon="2.38476">
        <ele>98.1</ele>
        <time>2015-04-13T18:40:54.818Z</time>
      </trkpt>
      <trkpt lat="48.89382" lon="2.38472">
        <ele>97.9</ele>
        <time>2015-04-13T18:40:55.828Z</time>
      </trkpt>
      <trkpt lat="48.89388" lon="2.3847">
        <ele>97.8</ele>
        <time>2015-04-13T18:40:56.841Z</time>
      </trkpt>
      <trkpt lat="48.89395" lon="2.38468">
        <ele>97.7</ele>
        <time>2015-04-13T18:40:57.858Z</time>
      </trkpt>
      <trkpt lat="48.89401" lon="2.38466">
        <ele>97.6</ele>
        <time>2015-04-13T18:40:58.803Z</time>
      </trkpt>
      <trkpt lat="48.89406" lon="2.38464">
        <ele>97.7</ele>
        <time>2015-04-13T18:40:59.796Z</time>
      </trkpt>
      <trkpt lat="48.89411" lon="2.38458">
        <ele>97.5</ele>
        <time>2015-04-13T18:41:00.802Z</time>
      </trkpt>
      <trkpt lat="48.89415" lon="2.38452">
        <ele>97.5</ele>
        <time>2015-04-13T18:41:01.825Z</time>
      </trkpt>
      <trkpt lat="48.89421" lon="2.38448">
        <ele>97.5</ele>
        <time>2015-04-13T18:41:02.842Z</time>
      </trkpt>
      <trkpt lat="48.89426" lon="2.38443">
        <ele>97.6</ele>
        <time>2015-04-13T18:41:03.850Z</time>
      </trkpt>
      <trkpt lat="48.89432" lon="2.38439">
        <ele>97.7</ele>
        <time>2015-04-13T18:41:04.760Z</time>
      </trkpt>
      <trkpt lat="48.89439" lon="2.38435">
        <ele>98.1</ele>
        <time>2015-04-13T18:41:05.778Z</time>
      </trkpt>
      <trkpt lat="48.89448" lon="2.38431">
        <ele>98.2</ele>
        <time>2015-04-13T18:41:06.811Z</time>
      </trkpt>
      <trkpt lat="48.89455" lon="2.38428">
        <ele>98.3</ele>
        <time>2015-04-13T18:41:07.864Z</time>
      </trkpt>
      <trkpt lat="48.89463" lon="2.38425">
        <ele>98.5</ele>
        <time>2015-04-13T18:41:08.767Z</time>
      </trkpt>
      <trkpt lat="48.89471" lon="2.3842">
        <ele>99.3</ele>
        <time>2015-04-13T18:41:09.787Z</time>
      </trkpt>
      <trkpt lat="48.89476" lon="2.38414">
        <ele>99.6</ele>
        <time>2015-04-13T18:41:10.801Z</time>
      </trkpt>
      <trkpt lat="48.89481" lon="2.38409">
        <ele>99.8</ele>
        <time>2015-04-13T18:41:11.850Z</time>
      </trkpt>
      <trkpt lat="48.89485" lon="2.38406">
        <ele>99.8</ele>
        <time>2015-04-13T18:41:12.855Z</time>
      </trkpt>
      <trkpt lat="48.8949" lon="2.38403">
        <ele>99.9</ele>
        <time>2015-04-13T18:41:13.869Z</time>
      </trkpt>
      <trkpt lat="48.89495" lon="2.38401">
        <ele>100</ele>
        <time>2015-04-13T18:41:14.772Z</time>
      </trkpt>
      <trkpt lat="48.895" lon="2.38398">
        <ele>100</ele>
        <time>2015-04-13T18:41:15.787Z</time>
      </trkpt>
      <trkpt lat="48.89505" lon="2.38397">
        <ele>100.1</ele>
        <time>2015-04-13T18:41:16.844Z</time>
      </trkpt>
      <trkpt lat="48.8951" lon="2.38394">
        <ele>100.2</ele>
        <time>2015-04-13T18:41:17.773Z</time>
      </trkpt>
      <trkpt lat="48.89515" lon="2.38391">
        <ele>100.2</ele>
        <time>2015-04-13T18:41:18.796Z</time>
      </trkpt>
      <trkpt lat="48.8952" lon="2.38389">
        <ele>100.3</ele>
        <time>2015-04-13T18:41:19.811Z</time>
      </trkpt>
      <trkpt lat="48.89524" lon="2.38387">
        <ele>100.4</ele>
        <time>2015-04-13T18:41:20.830Z</time>
      </trkpt>
      <trkpt lat="48.89529" lon="2.38386">
        <ele>100.7</ele>
        <time>2015-04-13T18:41:21.778Z</time>
      </trkpt>
      <trkpt lat="48.89533" lon="2.38383">
        <ele>100.9</ele>
        <time>2015-04-13T18:41:22.771Z</time>
      </trkpt>
      <trkpt lat="48.89541" lon="2.38378">
        <ele>101.3</ele>
        <time>2015-04-13T18:41:24.797Z</time>
      </trkpt>
      <trkpt lat="48.89545" lon="2.38376">
        <ele>101.5</ele>
        <time>2015-04-13T18:41:25.840Z</time>
      </trkpt>
      <trkpt lat="48.89551" lon="2.38373">
        <ele>101.5</ele>
        <time>2015-04-13T18:41:27.873Z</time>
      </trkpt>
      <trkpt lat="48.89553" lon="2.38371">
        <ele>101.5</ele>
        <time>2015-04-13T18:41:28.796Z</time>
      </trkpt>
      <trkpt lat="48.8956" lon="2.38365">
        <ele>100.3</ele>
        <time>2015-04-13T18:41:34.832Z</time>
      </trkpt>
      <trkpt lat="48.89561" lon="2.38364">
        <ele>100.2</ele>
        <time>2015-04-13T18:41:35.838Z</time>
      </trkpt>
      <trkpt lat="48.89565" lon="2.38363">
        <ele>101.9</ele>
        <time>2015-04-13T18:41:41.789Z</time>
      </trkpt>
      <trkpt lat="48.89566" lon="2.38363">
        <ele>101.4</ele>
        <time>2015-04-13T18:41:42.797Z</time>
      </trkpt>
      <trkpt lat="48.89566" lon="2.38363">
        <ele>101.3</ele>
        <time>2015-04-13T18:41:43.816Z</time>
      </trkpt>
      <trkpt lat="48.89567" lon="2.38364">
        <ele>101.2</ele>
        <time>2015-04-13T18:41:44.842Z</time>
      </trkpt>
      <trkpt lat="48.89575" lon="2.3837">
        <ele>101</ele>
        <time>2015-04-13T18:41:47.759Z</time>
      </trkpt>
      <trkpt lat="48.89578" lon="2.38372">
        <ele>101</ele>
        <time>2015-04-13T18:41:48.844Z</time>
      </trkpt>
      <trkpt lat="48.89584" lon="2.38378">
        <ele>101</ele>
        <time>2015-04-13T18:41:50.792Z</time>
      </trkpt>
      <trkpt lat="48.89586" lon="2.38381">
        <ele>101.3</ele>
        <time>2015-04-13T18:41:51.931Z</time>
      </trkpt>
      <trkpt lat="48.8959" lon="2.38389">
        <ele>101.1</ele>
        <time>2015-04-13T18:41:53.826Z</time>
      </trkpt>
      <trkpt lat="48.89592" lon="2.38393">
        <ele>101.1</ele>
        <time>2015-04-13T18:41:54.842Z</time>
      </trkpt>
      <trkpt lat="48.89596" lon="2.38402">
        <ele>101.3</ele>
        <time>2015-04-13T18:41:56.860Z</time>
      </trkpt>
      <trkpt lat="48.89598" lon="2.38407">
        <ele>101.4</ele>
        <time>2015-04-13T18:41:57.890Z</time>
      </trkpt>
      <trkpt lat="48.896" lon="2.38418">
        <ele>101.9</ele>
        <time>2015-04-13T18:41:59.826Z</time>
      </trkpt>
      <trkpt lat="48.89601" lon="2.38423">
        <ele>101.8</ele>
        <time>2015-04-13T18:42:00.846Z</time>
      </trkpt>
      <trkpt lat="48.89602" lon="2.38433">
        <ele>101.8</ele>
        <time>2015-04-13T18:42:02.893Z</time>
      </trkpt>
      <trkpt lat="48.89601" lon="2.38436">
        <ele>102</ele>
        <time>2015-04-13T18:42:03.804Z</time>
      </trkpt>
      <trkpt lat="48.89596" lon="2.38445">
        <ele>102.9</ele>
        <time>2015-04-13T18:42:06.841Z</time>
      </trkpt>
      <trkpt lat="48.89594" lon="2.38448">
        <ele>103</ele>
        <time>2015-04-13T18:42:07.810Z</time>
      </trkpt>
      <trkpt lat="48.89589" lon="2.38459">
        <ele>103.6</ele>
        <time>2015-04-13T18:42:10.752Z</time>
      </trkpt>
      <trkpt lat="48.89588" lon="2.38464">
        <ele>104.1</ele>
        <time>2015-04-13T18:42:11.783Z</time>
      </trkpt>
      <trkpt lat="48.89585" lon="2.38475">
        <ele>105</ele>
        <time>2015-04-13T18:42:14.572Z</time>
      </trkpt>
      <trkpt lat="48.89584" lon="2.38479">
        <ele>105.1</ele>
        <time>2015-04-13T18:42:15.767Z</time>
      </trkpt>
      <trkpt lat="48.8958" lon="2.38489">
        <ele>104.8</ele>
        <time>2015-04-13T18:42:19.662Z</time>
      </trkpt>
      <trkpt lat="48.8958" lon="2.38492">
        <ele>104.8</ele>
        <time>2015-04-13T18:42:19.875Z</time>
      </trkpt>
      <trkpt lat="48.89574" lon="2.38502">
        <ele>104.8</ele>
        <time>2015-04-13T18:42:22.808Z</time>
      </trkpt>
      <trkpt lat="48.89573" lon="2.38504">
        <ele>104.6</ele>
        <time>2015-04-13T18:42:23.811Z</time>
      </trkpt>
      <trkpt lat="48.89568" lon="2.38516">
        <ele>104.8</ele>
        <time>2015-04-13T18:42:27.864Z</time>
      </trkpt>
      <trkpt lat="48.89568" lon="2.38517">
        <ele>104.7</ele>
        <time>2015-04-13T18:42:28.882Z</time>
      </trkpt>
      <trkpt lat="48.89568" lon="2.38528">
        <ele>104</ele>
        <time>2015-04-13T18:42:32.835Z</time>
      </trkpt>
      <trkpt lat="48.89567" lon="2.38531">
        <ele>104</ele>
        <time>2015-04-13T18:42:33.867Z</time>
      </trkpt>
      <trkpt lat="48.89565" lon="2.38541">
        <ele>104</ele>
        <time>2015-04-13T18:43:01.811Z</time>
      </trkpt>
      <trkpt lat="48.89559" lon="2.38544">
        <ele>101.6</ele>
        <time>2015-04-13T18:43:02.817Z</time>
      </trkpt>
      <trkpt lat="48.89551" lon="2.38549">
        <ele>100.7</ele>
        <time>2015-04-13T18:43:10.658Z</time>
      </trkpt>
      <trkpt lat="48.8955" lon="2.38549">
        <ele>100.2</ele>
        <time>2015-04-13T18:43:10.814Z</time>
      </trkpt>
      <trkpt lat="48.89542" lon="2.38548">
        <ele>99.7</ele>
        <time>2015-04-13T18:43:15.776Z</time>
      </trkpt>
      <trkpt lat="48.8954" lon="2.38549">
        <ele>99.7</ele>
        <time>2015-04-13T18:43:16.797Z</time>
      </trkpt>
      <trkpt lat="48.89533" lon="2.38555">
        <ele>99.7</ele>
        <time>2015-04-13T18:43:20.853Z</time>
      </trkpt>
      <trkpt lat="48.89531" lon="2.38557">
        <ele>99.7</ele>
        <time>2015-04-13T18:43:21.843Z</time>
      </trkpt>
      <trkpt lat="48.89526" lon="2.38566">
        <ele>99.6</ele>
        <time>2015-04-13T18:43:24.873Z</time>
      </trkpt>
      <trkpt lat="48.89524" lon="2.3857">
        <ele>99.8</ele>
        <time>2015-04-13T18:43:25.768Z</time>
      </trkpt>
      <trkpt lat="48.89519" lon="2.38576">
        <ele>100.1</ele>
        <time>2015-04-13T18:43:27.838Z</time>
      </trkpt>
      <trkpt lat="48.89516" lon="2.38579">
        <ele>100.2</ele>
        <time>2015-04-13T18:43:28.829Z</time>
      </trkpt>
      <trkpt lat="48.8951" lon="2.38585">
        <ele>100.6</ele>
        <time>2015-04-13T18:43:30.847Z</time>
      </trkpt>
      <trkpt lat="48.89508" lon="2.38588">
        <ele>100.7</ele>
        <time>2015-04-13T18:43:31.866Z</time>
      </trkpt>
      <trkpt lat="48.89503" lon="2.38594">
        <ele>100.8</ele>
        <time>2015-04-13T18:43:33.793Z</time>
      </trkpt>
      <trkpt lat="48.89501" lon="2.38598">
        <ele>100.9</ele>
        <time>2015-04-13T18:43:34.781Z</time>
      </trkpt>
      <trkpt lat="48.89497" lon="2.38609">
        <ele>101.2</ele>
        <time>2015-04-13T18:43:37.847Z</time>
      </trkpt>
      <trkpt lat="48.89497" lon="2.38611">
        <ele>101.2</ele>
        <time>2015-04-13T18:43:38.772Z</time>
      </trkpt>
      <trkpt lat="48.89492" lon="2.38621">
        <ele>101.8</ele>
        <time>2015-04-13T18:43:44.909Z</time>
      </trkpt>
      <trkpt lat="48.8949" lon="2.38624">
        <ele>101.9</ele>
        <time>2015-04-13T18:43:45.823Z</time>
      </trkpt>
      <trkpt lat="48.89485" lon="2.38633">
        <ele>101.7</ele>
        <time>2015-04-13T18:43:48.842Z</time>
      </trkpt>
      <trkpt lat="48.89484" lon="2.38637">
        <ele>101.8</ele>
        <time>2015-04-13T18:43:49.747Z</time>
      </trkpt>
      <trkpt lat="48.89481" lon="2.38647">
        <ele>101.9</ele>
        <time>2015-04-13T18:43:51.792Z</time>
      </trkpt>
      <trkpt lat="48.89479" lon="2.38652">
        <ele>101.1</ele>
        <time>2015-04-13T18:43:52.799Z</time>
      </trkpt>
      <trkpt lat="48.89476" lon="2.38664">
        <ele>100.1</ele>
        <time>2015-04-13T18:43:54.840Z</time>
      </trkpt>
      <trkpt lat="48.89474" lon="2.38668">
        <ele>99.7</ele>
        <time>2015-04-13T18:43:55.849Z</time>
      </trkpt>
      <trkpt lat="48.8947" lon="2.38677">
        <ele>98.7</ele>
        <time>2015-04-13T18:43:57.758Z</time>
      </trkpt>
      <trkpt lat="48.89469" lon="2.38682">
        <ele>98.4</ele>
        <time>2015-04-13T18:43:58.764Z</time>
      </trkpt>
      <trkpt lat="48.89466" lon="2.38692">
        <ele>97.9</ele>
        <time>2015-04-13T18:44:00.800Z</time>
      </trkpt>
      <trkpt lat="48.89465" lon="2.38697">
        <ele>98.3</ele>
        <time>2015-04-13T18:44:01.814Z</time>
      </trkpt>
      <trkpt lat="48.89459" lon="2.38703">
        <ele>98.5</ele>
        <time>2015-04-13T18:44:03.833Z</time>
      </trkpt>
      <trkpt lat="48.8945" lon="2.387">
        <ele>98.3</ele>
        <time>2015-04-13T18:44:04.789Z</time>
      </trkpt>
      <trkpt lat="48.89443" lon="2.38697">
        <ele>98.1</ele>
        <time>2015-04-13T18:44:05.771Z</time>
      </trkpt>
      <trkpt lat="48.89435" lon="2.38695">
        <ele>97.8</ele>
        <time>2015-04-13T18:44:06.786Z</time>
      </trkpt>
      <trkpt lat="48.89428" lon="2.38697">
        <ele>98.1</ele>
        <time>2015-04-13T18:44:08.803Z</time>
      </trkpt>
      <trkpt lat="48.89424" lon="2.38699">
        <ele>98.5</ele>
        <time>2015-04-13T18:44:09.839Z</time>
      </trkpt>
      <trkpt lat="48.89421" lon="2.38701">
        <ele>99.1</ele>
        <time>2015-04-13T18:44:10.860Z</time>
      </trkpt>
      <trkpt lat="48.89415" lon="2.38705">
        <ele>100.3</ele>
        <time>2015-04-13T18:44:11.767Z</time>
      </trkpt>
      <trkpt lat="48.89411" lon="2.38713">
        <ele>101.6</ele>
        <time>2015-04-13T18:44:13.849Z</time>
      </trkpt>
      <trkpt lat="48.89411" lon="2.38719">
        <ele>101.7</ele>
        <time>2015-04-13T18:44:14.839Z</time>
      </trkpt>
      <trkpt lat="48.89411" lon="2.3873">
        <ele>102.2</ele>
        <time>2015-04-13T18:44:16.774Z</time>
      </trkpt>
      <trkpt lat="48.89413" lon="2.38734">
        <ele>102.3</ele>
        <time>2015-04-13T18:44:17.806Z</time>
      </trkpt>
      <trkpt lat="48.89417" lon="2.38739">
        <ele>102.2</ele>
        <time>2015-04-13T18:44:19.848Z</time>
      </trkpt>
      <trkpt lat="48.89422" lon="2.38739">
        <ele>102.5</ele>
        <time>2015-04-13T18:44:20.867Z</time>
      </trkpt>
      <trkpt lat="48.89427" lon="2.38745">
        <ele>103</ele>
        <time>2015-04-13T18:44:22.858Z</time>
      </trkpt>
      <trkpt lat="48.89429" lon="2.38747">
        <ele>103</ele>
        <time>2015-04-13T18:44:23.782Z</time>
      </trkpt>
      <trkpt lat="48.89436" lon="2.38755">
        <ele>103.2</ele>
        <time>2015-04-13T18:44:26.791Z</time>
      </trkpt>
      <trkpt lat="48.89438" lon="2.38757">
        <ele>103.2</ele>
        <time>2015-04-13T18:44:27.799Z</time>
      </trkpt>
      <trkpt lat="48.89445" lon="2.38764">
        <ele>103.5</ele>
        <time>2015-04-13T18:44:29.757Z</time>
      </trkpt>
      <trkpt lat="48.89449" lon="2.38767">
        <ele>103.7</ele>
        <time>2015-04-13T18:44:30.816Z</time>
      </trkpt>
      <trkpt lat="48.89454" lon="2.38769">
        <ele>104</ele>
        <time>2015-04-13T18:44:31.837Z</time>
      </trkpt>
      <trkpt lat="48.89459" lon="2.38771">
        <ele>104.4</ele>
        <time>2015-04-13T18:44:32.859Z</time>
      </trkpt>
      <trkpt lat="48.89465" lon="2.38773">
        <ele>105</ele>
        <time>2015-04-13T18:44:33.802Z</time>
      </trkpt>
      <trkpt lat="48.8947" lon="2.38774">
        <ele>105.6</ele>
        <time>2015-04-13T18:44:34.753Z</time>
      </trkpt>
      <trkpt lat="48.89475" lon="2.38776">
        <ele>106.3</ele>
        <time>2015-04-13T18:44:35.790Z</time>
      </trkpt>
      <trkpt lat="48.8948" lon="2.38779">
        <ele>107.1</ele>
        <time>2015-04-13T18:44:36.805Z</time>
      </trkpt>
      <trkpt lat="48.89486" lon="2.38788">
        <ele>107</ele>
        <time>2015-04-13T18:44:38.822Z</time>
      </trkpt>
      <trkpt lat="48.89489" lon="2.38793">
        <ele>107</ele>
        <time>2015-04-13T18:44:39.832Z</time>
      </trkpt>
      <trkpt lat="48.89496" lon="2.38801">
        <ele>107.1</ele>
        <time>2015-04-13T18:44:41.840Z</time>
      </trkpt>
      <trkpt lat="48.895" lon="2.38805">
        <ele>107.4</ele>
        <time>2015-04-13T18:44:42.842Z</time>
      </trkpt>
      <trkpt lat="48.89506" lon="2.38814">
        <ele>107.7</ele>
        <time>2015-04-13T18:44:44.752Z</time>
      </trkpt>
      <trkpt lat="48.89509" lon="2.38817">
        <ele>107.9</ele>
        <time>2015-04-13T18:44:45.775Z</time>
      </trkpt>
      <trkpt lat="48.89516" lon="2.38824">
        <ele>108.3</ele>
        <time>2015-04-13T18:44:47.806Z</time>
      </trkpt>
      <trkpt lat="48.8952" lon="2.38827">
        <ele>108.7</ele>
        <time>2015-04-13T18:44:48.817Z</time>
      </trkpt>
      <trkpt lat="48.89524" lon="2.38836">
        <ele>109.8</ele>
        <time>2015-04-13T18:44:50.812Z</time>
      </trkpt>
      <trkpt lat="48.89526" lon="2.3884">
        <ele>110.1</ele>
        <time>2015-04-13T18:44:51.857Z</time>
      </trkpt>
      <trkpt lat="48.89531" lon="2.38848">
        <ele>111.3</ele>
        <time>2015-04-13T18:44:53.814Z</time>
      </trkpt>
      <trkpt lat="48.89533" lon="2.38851">
        <ele>112.2</ele>
        <time>2015-04-13T18:44:54.860Z</time>
      </trkpt>
      <trkpt lat="48.89532" lon="2.38863">
        <ele>114.4</ele>
        <time>2015-04-13T18:44:56.816Z</time>
      </trkpt>
      <trkpt lat="48.89532" lon="2.38867">
        <ele>114.8</ele>
        <time>2015-04-13T18:44:57.770Z</time>
      </trkpt>
      <trkpt lat="48.89532" lon="2.38879">
        <ele>115.7</ele>
        <time>2015-04-13T18:45:01.813Z</time>
      </trkpt>
      <trkpt lat="48.89532" lon="2.38882">
        <ele>116.7</ele>
        <time>2015-04-13T18:45:02.830Z</time>
      </trkpt>
      <trkpt lat="48.89534" lon="2.3889">
        <ele>117.8</ele>
        <time>2015-04-13T18:45:06.814Z</time>
      </trkpt>
      <trkpt lat="48.89529" lon="2.38896">
        <ele>118.7</ele>
        <time>2015-04-13T18:45:07.819Z</time>
      </trkpt>
      <trkpt lat="48.89522" lon="2.38903">
        <ele>118.4</ele>
        <time>2015-04-13T18:45:09.859Z</time>
      </trkpt>
      <trkpt lat="48.8952" lon="2.38903">
        <ele>118.1</ele>
        <time>2015-04-13T18:45:10.855Z</time>
      </trkpt>
      <trkpt lat="48.89516" lon="2.38897">
        <ele>116.2</ele>
        <time>2015-04-13T18:45:15.832Z</time>
      </trkpt>
      <trkpt lat="48.89512" lon="2.38895">
        <ele>114.6</ele>
        <time>2015-04-13T18:45:16.754Z</time>
      </trkpt>
      <trkpt lat="48.89518" lon="2.38887">
        <ele>112.5</ele>
        <time>2015-04-13T18:45:26.791Z</time>
      </trkpt>
      <trkpt lat="48.89521" lon="2.38889">
        <ele>112.6</ele>
        <time>2015-04-13T18:45:27.830Z</time>
      </trkpt>
      <trkpt lat="48.89528" lon="2.38896">
        <ele>112.4</ele>
        <time>2015-04-13T18:45:29.779Z</time>
      </trkpt>
      <trkpt lat="48.8953" lon="2.389">
        <ele>112.2</ele>
        <time>2015-04-13T18:45:30.821Z</time>
      </trkpt>
      <trkpt lat="48.89535" lon="2.38906">
        <ele>111.4</ele>
        <time>2015-04-13T18:45:32.855Z</time>
      </trkpt>
      <trkpt lat="48.89538" lon="2.38908">
        <ele>111.2</ele>
        <time>2015-04-13T18:45:33.876Z</time>
      </trkpt>
      <trkpt lat="48.89544" lon="2.38917">
        <ele>111.1</ele>
        <time>2015-04-13T18:45:36.820Z</time>
      </trkpt>
      <trkpt lat="48.89546" lon="2.38921">
        <ele>111</ele>
        <time>2015-04-13T18:45:37.838Z</time>
      </trkpt>
      <trkpt lat="48.89551" lon="2.3893">
        <ele>110.3</ele>
        <time>2015-04-13T18:45:40.804Z</time>
      </trkpt>
      <trkpt lat="48.89553" lon="2.38934">
        <ele>109.6</ele>
        <time>2015-04-13T18:45:41.819Z</time>
      </trkpt>
      <trkpt lat="48.89558" lon="2.38938">
        <ele>109.3</ele>
        <time>2015-04-13T18:45:43.853Z</time>
      </trkpt>
      <trkpt lat="48.89562" lon="2.38941">
        <ele>109.7</ele>
        <time>2015-04-13T18:45:44.872Z</time>
      </trkpt>
      <trkpt lat="48.89567" lon="2.38948">
        <ele>109.4</ele>
        <time>2015-04-13T18:45:46.791Z</time>
      </trkpt>
      <trkpt lat="48.8957" lon="2.38951">
        <ele>109.5</ele>
        <time>2015-04-13T18:45:47.838Z</time>
      </trkpt>
      <trkpt lat="48.89576" lon="2.38957">
        <ele>110.3</ele>
        <time>2015-04-13T18:45:49.803Z</time>
      </trkpt>
      <trkpt lat="48.89579" lon="2.3896">
        <ele>110.7</ele>
        <time>2015-04-13T18:45:50.766Z</time>
      </trkpt>
      <trkpt lat="48.89585" lon="2.38967">
        <ele>111.2</ele>
        <time>2015-04-13T18:45:52.794Z</time>
      </trkpt>
      <trkpt lat="48.89587" lon="2.38972">
        <ele>111.3</ele>
        <time>2015-04-13T18:45:53.807Z</time>
      </trkpt>
      <trkpt lat="48.89591" lon="2.3898">
        <ele>111.5</ele>
        <time>2015-04-13T18:45:55.766Z</time>
      </trkpt>
      <trkpt lat="48.89593" lon="2.38985">
        <ele>111.4</ele>
        <time>2015-04-13T18:45:56.771Z</time>
      </trkpt>
      <trkpt lat="48.89598" lon="2.38993">
        <ele>112</ele>
        <time>2015-04-13T18:45:58.778Z</time>
      </trkpt>
      <trkpt lat="48.896" lon="2.38997">
        <ele>112</ele>
        <time>2015-04-13T18:45:59.784Z</time>
      </trkpt>
      <trkpt lat="48.89605" lon="2.39006">
        <ele>112.3</ele>
        <time>2015-04-13T18:46:01.813Z</time>
      </trkpt>
      <trkpt lat="48.89607" lon="2.39011">
        <ele>112.7</ele>
        <time>2015-04-13T18:46:02.839Z</time>
      </trkpt>
      <trkpt lat="48.89612" lon="2.39021">
        <ele>113.3</ele>
        <time>2015-04-13T18:46:04.870Z</time>
      </trkpt>
      <trkpt lat="48.89614" lon="2.39027">
        <ele>113.2</ele>
        <time>2015-04-13T18:46:05.789Z</time>
      </trkpt>
      <trkpt lat="48.89619" lon="2.39037">
        <ele>113.3</ele>
        <time>2015-04-13T18:46:07.808Z</time>
      </trkpt>
      <trkpt lat="48.8962" lon="2.39043">
        <ele>113.5</ele>
        <time>2015-04-13T18:46:08.838Z</time>
      </trkpt>
      <trkpt lat="48.89623" lon="2.39054">
        <ele>113.8</ele>
        <time>2015-04-13T18:46:10.791Z</time>
      </trkpt>
      <trkpt lat="48.89625" lon="2.39059">
        <ele>114.1</ele>
        <time>2015-04-13T18:46:11.788Z</time>
      </trkpt>
      <trkpt lat="48.89629" lon="2.3907">
        <ele>114.2</ele>
        <time>2015-04-13T18:46:13.833Z</time>
      </trkpt>
      <trkpt lat="48.89631" lon="2.39075">
        <ele>114.1</ele>
        <time>2015-04-13T18:46:14.859Z</time>
      </trkpt>
      <trkpt lat="48.89636" lon="2.39085">
        <ele>114.4</ele>
        <time>2015-04-13T18:46:16.784Z</time>
      </trkpt>
      <trkpt lat="48.89638" lon="2.3909">
        <ele>114.5</ele>
        <time>2015-04-13T18:46:17.798Z</time>
      </trkpt>
      <trkpt lat="48.89643" lon="2.391">
        <ele>114.4</ele>
        <time>2015-04-13T18:46:19.829Z</time>
      </trkpt>
      <trkpt lat="48.89645" lon="2.39104">
        <ele>114.3</ele>
        <time>2015-04-13T18:46:20.859Z</time>
      </trkpt>
      <trkpt lat="48.89648" lon="2.39113">
        <ele>114.4</ele>
        <time>2015-04-13T18:46:22.773Z</time>
      </trkpt>
      <trkpt lat="48.8965" lon="2.39118">
        <ele>114.4</ele>
        <time>2015-04-13T18:46:23.796Z</time>
      </trkpt>
      <trkpt lat="48.89653" lon="2.39128">
        <ele>114.8</ele>
        <time>2015-04-13T18:46:25.832Z</time>
      </trkpt>
      <trkpt lat="48.89653" lon="2.39134">
        <ele>114.9</ele>
        <time>2015-04-13T18:46:26.854Z</time>
      </trkpt>
      <trkpt lat="48.89656" lon="2.39144">
        <ele>115.1</ele>
        <time>2015-04-13T18:46:28.811Z</time>
      </trkpt>
      <trkpt lat="48.89658" lon="2.39148">
        <ele>115.2</ele>
        <time>2015-04-13T18:46:29.863Z</time>
      </trkpt>
      <trkpt lat="48.8966" lon="2.39157">
        <ele>115.5</ele>
        <time>2015-04-13T18:46:31.837Z</time>
      </trkpt>
      <trkpt lat="48.89662" lon="2.39161">
        <ele>115.6</ele>
        <time>2015-04-13T18:46:32.869Z</time>
      </trkpt>
      <trkpt lat="48.89664" lon="2.39174">
        <ele>113.4</ele>
        <time>2015-04-13T18:46:35.863Z</time>
      </trkpt>
      <trkpt lat="48.89663" lon="2.39179">
        <ele>112.4</ele>
        <time>2015-04-13T18:46:36.809Z</time>
      </trkpt>
      <trkpt lat="48.89665" lon="2.39189">
        <ele>111</ele>
        <time>2015-04-13T18:46:38.837Z</time>
      </trkpt>
      <trkpt lat="48.89666" lon="2.39194">
        <ele>110.3</ele>
        <time>2015-04-13T18:46:39.859Z</time>
      </trkpt>
      <trkpt lat="48.89669" lon="2.39204">
        <ele>109.2</ele>
        <time>2015-04-13T18:46:41.788Z</time>
      </trkpt>
      <trkpt lat="48.89671" lon="2.39208">
        <ele>108.9</ele>
        <time>2015-04-13T18:46:42.819Z</time>
      </trkpt>
      <trkpt lat="48.89674" lon="2.39217">
        <ele>108.1</ele>
        <time>2015-04-13T18:46:44.762Z</time>
      </trkpt>
      <trkpt lat="48.89675" lon="2.39221">
        <ele>108.1</ele>
        <time>2015-04-13T18:46:45.842Z</time>
      </trkpt>
      <trkpt lat="48.89674" lon="2.39233">
        <ele>108</ele>
        <time>2015-04-13T18:46:48.797Z</time>
      </trkpt>
      <trkpt lat="48.89672" lon="2.39237">
        <ele>107.6</ele>
        <time>2015-04-13T18:46:49.817Z</time>
      </trkpt>
      <trkpt lat="48.89666" lon="2.39243">
        <ele>107</ele>
        <time>2015-04-13T18:46:51.853Z</time>
      </trkpt>
      <trkpt lat="48.89664" lon="2.39246">
        <ele>106.6</ele>
        <time>2015-04-13T18:46:52.846Z</time>
      </trkpt>
      <trkpt lat="48.89658" lon="2.39252">
        <ele>106.2</ele>
        <time>2015-04-13T18:46:54.807Z</time>
      </trkpt>
      <trkpt lat="48.89655" lon="2.39255">
        <ele>106</ele>
        <time>2015-04-13T18:46:55.811Z</time>
      </trkpt>
      <trkpt lat="48.8965" lon="2.39261">
        <ele>106</ele>
        <time>2015-04-13T18:46:57.846Z</time>
      </trkpt>
      <trkpt lat="48.89647" lon="2.39264">
        <ele>106.1</ele>
        <time>2015-04-13T18:46:58.856Z</time>
      </trkpt>
      <trkpt lat="48.89641" lon="2.39268">
        <ele>106.3</ele>
        <time>2015-04-13T18:47:00.776Z</time>
      </trkpt>
      <trkpt lat="48.89638" lon="2.39271">
        <ele>106.3</ele>
        <time>2015-04-13T18:47:01.847Z</time>
      </trkpt>
      <trkpt lat="48.89632" lon="2.39281">
        <ele>106.2</ele>
        <time>2015-04-13T18:47:04.868Z</time>
      </trkpt>
      <trkpt lat="48.8963" lon="2.39282">
        <ele>106</ele>
        <time>2015-04-13T18:47:05.819Z</time>
      </trkpt>
      <trkpt lat="48.89623" lon="2.39289">
        <ele>105.8</ele>
        <time>2015-04-13T18:47:09.269Z</time>
      </trkpt>
      <trkpt lat="48.8962" lon="2.39291">
        <ele>105.8</ele>
        <time>2015-04-13T18:47:09.787Z</time>
      </trkpt>
      <trkpt lat="48.89615" lon="2.39297">
        <ele>105.9</ele>
        <time>2015-04-13T18:47:11.795Z</time>
      </trkpt>
      <trkpt lat="48.89612" lon="2.39299">
        <ele>106</ele>
        <time>2015-04-13T18:47:12.844Z</time>
      </trkpt>
      <trkpt lat="48.89605" lon="2.39303">
        <ele>105.6</ele>
        <time>2015-04-13T18:47:14.843Z</time>
      </trkpt>
      <trkpt lat="48.89602" lon="2.39305">
        <ele>105.4</ele>
        <time>2015-04-13T18:47:15.864Z</time>
      </trkpt>
      <trkpt lat="48.89595" lon="2.39309">
        <ele>105.1</ele>
        <time>2015-04-13T18:47:17.876Z</time>
      </trkpt>
      <trkpt lat="48.89592" lon="2.39311">
        <ele>105</ele>
        <time>2015-04-13T18:47:18.897Z</time>
      </trkpt>
      <trkpt lat="48.89585" lon="2.39316">
        <ele>105</ele>
        <time>2015-04-13T18:47:21.789Z</time>
      </trkpt>
      <trkpt lat="48.89583" lon="2.3932">
        <ele>105.1</ele>
        <time>2015-04-13T18:47:22.802Z</time>
      </trkpt>
      <trkpt lat="48.89575" lon="2.39324">
        <ele>105</ele>
        <time>2015-04-13T18:47:26.848Z</time>
      </trkpt>
      <trkpt lat="48.89574" lon="2.39324">
        <ele>105</ele>
        <time>2015-04-13T18:47:27.857Z</time>
      </trkpt>
      <trkpt lat="48.89571" lon="2.39337">
        <ele>105.1</ele>
        <time>2015-04-13T18:47:37.906Z</time>
      </trkpt>
      <trkpt lat="48.89571" lon="2.39339">
        <ele>105.2</ele>
        <time>2015-04-13T18:47:38.817Z</time>
      </trkpt>
      <trkpt lat="48.89567" lon="2.39349">
        <ele>104.8</ele>
        <time>2015-04-13T18:47:43.844Z</time>
      </trkpt>
      <trkpt lat="48.89564" lon="2.39351">
        <ele>104.8</ele>
        <time>2015-04-13T18:47:44.776Z</time>
      </trkpt>
      <trkpt lat="48.89556" lon="2.39355">
        <ele>104.5</ele>
        <time>2015-04-13T18:47:47.778Z</time>
      </trkpt>
      <trkpt lat="48.89554" lon="2.39356">
        <ele>104.4</ele>
        <time>2015-04-13T18:47:48.836Z</time>
      </trkpt>
      <trkpt lat="48.8954" lon="2.39373">
        <ele>104</ele>
        <time>2015-04-13T18:48:00.844Z</time>
      </trkpt>
      <trkpt lat="48.89541" lon="2.3938">
        <ele>103.9</ele>
        <time>2015-04-13T18:48:01.862Z</time>
      </trkpt>
      <trkpt lat="48.89545" lon="2.39391">
        <ele>104.9</ele>
        <time>2015-04-13T18:48:02.771Z</time>
      </trkpt>
      <trkpt lat="48.89549" lon="2.394">
        <ele>106.5</ele>
        <time>2015-04-13T18:48:03.770Z</time>
      </trkpt>
      <trkpt lat="48.89552" lon="2.39406">
        <ele>107.2</ele>
        <time>2015-04-13T18:48:04.792Z</time>
      </trkpt>
      <trkpt lat="48.89557" lon="2.39427">
        <ele>106.8</ele>
        <time>2015-04-13T18:48:10.747Z</time>
      </trkpt>
      <trkpt lat="48.89557" lon="2.39435">
        <ele>106.4</ele>
        <time>2015-04-13T18:48:12.822Z</time>
      </trkpt>
      <trkpt lat="48.89562" lon="2.39441">
        <ele>105.2</ele>
        <time>2015-04-13T18:48:13.762Z</time>
      </trkpt>
      <trkpt lat="48.89568" lon="2.39446">
        <ele>103.4</ele>
        <time>2015-04-13T18:48:14.744Z</time>
      </trkpt>
      <trkpt lat="48.89573" lon="2.39452">
        <ele>101.5</ele>
        <time>2015-04-13T18:48:15.765Z</time>
      </trkpt>
      <trkpt lat="48.89581" lon="2.39458">
        <ele>96.9</ele>
        <time>2015-04-13T18:48:16.780Z</time>
      </trkpt>
      <trkpt lat="48.89585" lon="2.39465">
        <ele>96.6</ele>
        <time>2015-04-13T18:48:17.792Z</time>
      </trkpt>
      <trkpt lat="48.89588" lon="2.39474">
        <ele>95.2</ele>
        <time>2015-04-13T18:48:18.805Z</time>
      </trkpt>
      <trkpt lat="48.89593" lon="2.39485">
        <ele>93.7</ele>
        <time>2015-04-13T18:48:19.806Z</time>
      </trkpt>
      <trkpt lat="48.89597" lon="2.39497">
        <ele>94.2</ele>
        <time>2015-04-13T18:48:20.822Z</time>
      </trkpt>
      <trkpt lat="48.89601" lon="2.39507">
        <ele>93.6</ele>
        <time>2015-04-13T18:48:21.804Z</time>
      </trkpt>
      <trkpt lat="48.89604" lon="2.39518">
        <ele>92.8</ele>
        <time>2015-04-13T18:48:22.776Z</time>
      </trkpt>
      <trkpt lat="48.89606" lon="2.39527">
        <ele>93.1</ele>
        <time>2015-04-13T18:48:23.801Z</time>
      </trkpt>
      <trkpt lat="48.89608" lon="2.39535">
        <ele>92.8</ele>
        <time>2015-04-13T18:48:24.830Z</time>
      </trkpt>
      <trkpt lat="48.89609" lon="2.39542">
        <ele>92.1</ele>
        <time>2015-04-13T18:48:25.828Z</time>
      </trkpt>
      <trkpt lat="48.8961" lon="2.39549">
        <ele>92.4</ele>
        <time>2015-04-13T18:48:26.867Z</time>
      </trkpt>
      <trkpt lat="48.89612" lon="2.39555">
        <ele>92.5</ele>
        <time>2015-04-13T18:48:27.801Z</time>
      </trkpt>
      <trkpt lat="48.89613" lon="2.39562">
        <ele>92.7</ele>
        <time>2015-04-13T18:48:28.793Z</time>
      </trkpt>
      <trkpt lat="48.89615" lon="2.39575">
        <ele>94</ele>
        <time>2015-04-13T18:48:30.815Z</time>
      </trkpt>
      <trkpt lat="48.89616" lon="2.39582">
        <ele>94.9</ele>
        <time>2015-04-13T18:48:31.845Z</time>
      </trkpt>
      <trkpt lat="48.89618" lon="2.39589">
        <ele>95.4</ele>
        <time>2015-04-13T18:48:32.862Z</time>
      </trkpt>
      <trkpt lat="48.89619" lon="2.39595">
        <ele>96.1</ele>
        <time>2015-04-13T18:48:33.782Z</time>
      </trkpt>
      <trkpt lat="48.89623" lon="2.39606">
        <ele>97.3</ele>
        <time>2015-04-13T18:48:35.779Z</time>
      </trkpt>
      <trkpt lat="48.89624" lon="2.39612">
        <ele>97.5</ele>
        <time>2015-04-13T18:48:36.830Z</time>
      </trkpt>
      <trkpt lat="48.89625" lon="2.39619">
        <ele>98.8</ele>
        <time>2015-04-13T18:48:34.867Z</time>
      </trkpt>
      <trkpt lat="48.89624" lon="2.39627">
        <ele>98.5</ele>
        <time>2015-04-13T18:48:38.832Z</time>
      </trkpt>
      <trkpt lat="48.89624" lon="2.39637">
        <ele>99.3</ele>
        <time>2015-04-13T18:48:40.833Z</time>
      </trkpt>
      <trkpt lat="48.89626" lon="2.39649">
        <ele>98.5</ele>
        <time>2015-04-13T18:48:42.746Z</time>
      </trkpt>
      <trkpt lat="48.89627" lon="2.39656">
        <ele>97.9</ele>
        <time>2015-04-13T18:48:43.758Z</time>
      </trkpt>
      <trkpt lat="48.89628" lon="2.39663">
        <ele>97.9</ele>
        <time>2015-04-13T18:48:44.761Z</time>
      </trkpt>
      <trkpt lat="48.8963" lon="2.3967">
        <ele>98.1</ele>
        <time>2015-04-13T18:48:45.786Z</time>
      </trkpt>
      <trkpt lat="48.8963" lon="2.39677">
        <ele>98.2</ele>
        <time>2015-04-13T18:48:46.799Z</time>
      </trkpt>
      <trkpt lat="48.89632" lon="2.39684">
        <ele>98.2</ele>
        <time>2015-04-13T18:48:47.811Z</time>
      </trkpt>
      <trkpt lat="48.89633" lon="2.39691">
        <ele>98.5</ele>
        <time>2015-04-13T18:48:48.820Z</time>
      </trkpt>
      <trkpt lat="48.89635" lon="2.39699">
        <ele>98.6</ele>
        <time>2015-04-13T18:48:50.018Z</time>
      </trkpt>
      <trkpt lat="48.89635" lon="2.39705">
        <ele>98.3</ele>
        <time>2015-04-13T18:48:50.718Z</time>
      </trkpt>
      <trkpt lat="48.89637" lon="2.39714">
        <ele>99</ele>
        <time>2015-04-13T18:48:52.746Z</time>
      </trkpt>
      <trkpt lat="48.89638" lon="2.3972">
        <ele>99.1</ele>
        <time>2015-04-13T18:48:53.766Z</time>
      </trkpt>
      <trkpt lat="48.89641" lon="2.39732">
        <ele>99.2</ele>
        <time>2015-04-13T18:48:55.811Z</time>
      </trkpt>
      <trkpt lat="48.89644" lon="2.3974">
        <ele>98.5</ele>
        <time>2015-04-13T18:48:56.835Z</time>
      </trkpt>
      <trkpt lat="48.89647" lon="2.39749">
        <ele>98.4</ele>
        <time>2015-04-13T18:48:57.751Z</time>
      </trkpt>
      <trkpt lat="48.8965" lon="2.39758">
        <ele>98.2</ele>
        <time>2015-04-13T18:48:58.741Z</time>
      </trkpt>
      <trkpt lat="48.89653" lon="2.39767">
        <ele>98.3</ele>
        <time>2015-04-13T18:48:59.768Z</time>
      </trkpt>
      <trkpt lat="48.89655" lon="2.39775">
        <ele>98.2</ele>
        <time>2015-04-13T18:49:00.787Z</time>
      </trkpt>
      <trkpt lat="48.89657" lon="2.39783">
        <ele>98.1</ele>
        <time>2015-04-13T18:49:01.830Z</time>
      </trkpt>
      <trkpt lat="48.89658" lon="2.39789">
        <ele>98</ele>
        <time>2015-04-13T18:49:02.757Z</time>
      </trkpt>
      <trkpt lat="48.89657" lon="2.39802">
        <ele>98.1</ele>
        <time>2015-04-13T18:49:04.773Z</time>
      </trkpt>
      <trkpt lat="48.89657" lon="2.39809">
        <ele>97.9</ele>
        <time>2015-04-13T18:49:05.789Z</time>
      </trkpt>
      <trkpt lat="48.89653" lon="2.3982">
        <ele>97.3</ele>
        <time>2015-04-13T18:49:07.848Z</time>
      </trkpt>
      <trkpt lat="48.89651" lon="2.39827">
        <ele>97</ele>
        <time>2015-04-13T18:49:08.755Z</time>
      </trkpt>
      <trkpt lat="48.8965" lon="2.39834">
        <ele>96.8</ele>
        <time>2015-04-13T18:49:09.762Z</time>
      </trkpt>
      <trkpt lat="48.89649" lon="2.39841">
        <ele>96.2</ele>
        <time>2015-04-13T18:49:10.763Z</time>
      </trkpt>
      <trkpt lat="48.89647" lon="2.39854">
        <ele>96</ele>
        <time>2015-04-13T18:49:12.794Z</time>
      </trkpt>
      <trkpt lat="48.89646" lon="2.3986">
        <ele>95.8</ele>
        <time>2015-04-13T18:49:13.814Z</time>
      </trkpt>
      <trkpt lat="48.89644" lon="2.39868">
        <ele>96.4</ele>
        <time>2015-04-13T18:49:14.825Z</time>
      </trkpt>
      <trkpt lat="48.89641" lon="2.39875">
        <ele>97.5</ele>
        <time>2015-04-13T18:49:15.862Z</time>
      </trkpt>
      <trkpt lat="48.89639" lon="2.39882">
        <ele>98.1</ele>
        <time>2015-04-13T18:49:16.770Z</time>
      </trkpt>
      <trkpt lat="48.89638" lon="2.39889">
        <ele>98.5</ele>
        <time>2015-04-13T18:49:17.801Z</time>
      </trkpt>
      <trkpt lat="48.89636" lon="2.39902">
        <ele>98.1</ele>
        <time>2015-04-13T18:49:19.843Z</time>
      </trkpt>
      <trkpt lat="48.89636" lon="2.39907">
        <ele>98</ele>
        <time>2015-04-13T18:49:20.862Z</time>
      </trkpt>
      <trkpt lat="48.89634" lon="2.39918">
        <ele>98</ele>
        <time>2015-04-13T18:49:22.788Z</time>
      </trkpt>
      <trkpt lat="48.89634" lon="2.39924">
        <ele>98.2</ele>
        <time>2015-04-13T18:49:23.808Z</time>
      </trkpt>
      <trkpt lat="48.89632" lon="2.39936">
        <ele>98.3</ele>
        <time>2015-04-13T18:49:25.881Z</time>
      </trkpt>
      <trkpt lat="48.89631" lon="2.39943">
        <ele>98.4</ele>
        <time>2015-04-13T18:49:26.807Z</time>
      </trkpt>
      <trkpt lat="48.8963" lon="2.39949">
        <ele>98.5</ele>
        <time>2015-04-13T18:49:27.904Z</time>
      </trkpt>
      <trkpt lat="48.89629" lon="2.39956">
        <ele>98.2</ele>
        <time>2015-04-13T18:49:28.790Z</time>
      </trkpt>
      <trkpt lat="48.89628" lon="2.39964">
        <ele>98.3</ele>
        <time>2015-04-13T18:49:29.782Z</time>
      </trkpt>
      <trkpt lat="48.89627" lon="2.39973">
        <ele>98.2</ele>
        <time>2015-04-13T18:49:30.801Z</time>
      </trkpt>
      <trkpt lat="48.89626" lon="2.39981">
        <ele>98.3</ele>
        <time>2015-04-13T18:49:31.830Z</time>
      </trkpt>
      <trkpt lat="48.89625" lon="2.39989">
        <ele>98.1</ele>
        <time>2015-04-13T18:49:32.826Z</time>
      </trkpt>
      <trkpt lat="48.89624" lon="2.39997">
        <ele>98.2</ele>
        <time>2015-04-13T18:49:33.852Z</time>
      </trkpt>
      <trkpt lat="48.89623" lon="2.40005">
        <ele>98.5</ele>
        <time>2015-04-13T18:49:34.866Z</time>
      </trkpt>
      <trkpt lat="48.89622" lon="2.40013">
        <ele>99.1</ele>
        <time>2015-04-13T18:49:35.781Z</time>
      </trkpt>
      <trkpt lat="48.89622" lon="2.40022">
        <ele>100.3</ele>
        <time>2015-04-13T18:49:36.907Z</time>
      </trkpt>
      <trkpt lat="48.89621" lon="2.40029">
        <ele>100.8</ele>
        <time>2015-04-13T18:49:37.828Z</time>
      </trkpt>
      <trkpt lat="48.89622" lon="2.40038">
        <ele>101.4</ele>
        <time>2015-04-13T18:49:38.811Z</time>
      </trkpt>
      <trkpt lat="48.89622" lon="2.40046">
        <ele>101.4</ele>
        <time>2015-04-13T18:49:39.851Z</time>
      </trkpt>
      <trkpt lat="48.89622" lon="2.40054">
        <ele>101.4</ele>
        <time>2015-04-13T18:49:40.856Z</time>
      </trkpt>
      <trkpt lat="48.89622" lon="2.40061">
        <ele>101.8</ele>
        <time>2015-04-13T18:49:41.770Z</time>
      </trkpt>
      <trkpt lat="48.89621" lon="2.40068">
        <ele>102.1</ele>
        <time>2015-04-13T18:49:42.800Z</time>
      </trkpt>
      <trkpt lat="48.89617" lon="2.40079">
        <ele>104.4</ele>
        <time>2015-04-13T18:49:44.818Z</time>
      </trkpt>
      <trkpt lat="48.89612" lon="2.40083">
        <ele>107.5</ele>
        <time>2015-04-13T18:49:45.841Z</time>
      </trkpt>
      <trkpt lat="48.89606" lon="2.40089">
        <ele>110.8</ele>
        <time>2015-04-13T18:49:46.862Z</time>
      </trkpt>
      <trkpt lat="48.89603" lon="2.40093">
        <ele>112.7</ele>
        <time>2015-04-13T18:49:47.775Z</time>
      </trkpt>
      <trkpt lat="48.89605" lon="2.40105">
        <ele>109.2</ele>
        <time>2015-04-13T18:49:52.849Z</time>
      </trkpt>
      <trkpt lat="48.89604" lon="2.40108">
        <ele>109.2</ele>
        <time>2015-04-13T18:49:53.815Z</time>
      </trkpt>
      <trkpt lat="48.89602" lon="2.40119">
        <ele>109.6</ele>
        <time>2015-04-13T18:49:56.817Z</time>
      </trkpt>
      <trkpt lat="48.89601" lon="2.40125">
        <ele>109.5</ele>
        <time>2015-04-13T18:49:57.837Z</time>
      </trkpt>
      <trkpt lat="48.896" lon="2.40132">
        <ele>109.5</ele>
        <time>2015-04-13T18:49:58.857Z</time>
      </trkpt>
      <trkpt lat="48.89599" lon="2.40139">
        <ele>110.1</ele>
        <time>2015-04-13T18:49:59.872Z</time>
      </trkpt>
      <trkpt lat="48.89598" lon="2.40146">
        <ele>110.4</ele>
        <time>2015-04-13T18:50:00.798Z</time>
      </trkpt>
      <trkpt lat="48.89597" lon="2.40153">
        <ele>110.7</ele>
        <time>2015-04-13T18:50:01.843Z</time>
      </trkpt>
      <trkpt lat="48.89597" lon="2.40161">
        <ele>111</ele>
        <time>2015-04-13T18:50:02.839Z</time>
      </trkpt>
      <trkpt lat="48.89595" lon="2.40169">
        <ele>111.1</ele>
        <time>2015-04-13T18:50:03.837Z</time>
      </trkpt>
      <trkpt lat="48.89594" lon="2.40176">
        <ele>111.2</ele>
        <time>2015-04-13T18:50:04.746Z</time>
      </trkpt>
      <trkpt lat="48.89593" lon="2.40183">
        <ele>111.5</ele>
        <time>2015-04-13T18:50:05.776Z</time>
      </trkpt>
      <trkpt lat="48.89592" lon="2.4019">
        <ele>111.8</ele>
        <time>2015-04-13T18:50:06.798Z</time>
      </trkpt>
      <trkpt lat="48.89591" lon="2.40197">
        <ele>112.1</ele>
        <time>2015-04-13T18:50:07.813Z</time>
      </trkpt>
      <trkpt lat="48.89589" lon="2.40205">
        <ele>112.7</ele>
        <time>2015-04-13T18:50:08.813Z</time>
      </trkpt>
      <trkpt lat="48.89587" lon="2.40215">
        <ele>112.7</ele>
        <time>2015-04-13T18:50:09.822Z</time>
      </trkpt>
      <trkpt lat="48.89584" lon="2.40223">
        <ele>112.4</ele>
        <time>2015-04-13T18:50:10.837Z</time>
      </trkpt>
      <trkpt lat="48.89584" lon="2.40231">
        <ele>112.5</ele>
        <time>2015-04-13T18:50:11.856Z</time>
      </trkpt>
      <trkpt lat="48.89584" lon="2.4024">
        <ele>112.8</ele>
        <time>2015-04-13T18:50:12.890Z</time>
      </trkpt>
      <trkpt lat="48.89585" lon="2.40249">
        <ele>113.1</ele>
        <time>2015-04-13T18:50:13.888Z</time>
      </trkpt>
      <trkpt lat="48.89584" lon="2.40258">
        <ele>113.1</ele>
        <time>2015-04-13T18:50:14.775Z</time>
      </trkpt>
      <trkpt lat="48.89584" lon="2.40266">
        <ele>113.1</ele>
        <time>2015-04-13T18:50:15.794Z</time>
      </trkpt>
      <trkpt lat="48.89582" lon="2.40278">
        <ele>113.2</ele>
        <time>2015-04-13T18:50:17.858Z</time>
      </trkpt>
      <trkpt lat="48.89582" lon="2.40284">
        <ele>113.2</ele>
        <time>2015-04-13T18:50:18.868Z</time>
      </trkpt>
      <trkpt lat="48.8958" lon="2.40293">
        <ele>113.3</ele>
        <time>2015-04-13T18:50:20.761Z</time>
      </trkpt>
      <trkpt lat="48.8958" lon="2.40298">
        <ele>112.7</ele>
        <time>2015-04-13T18:50:21.786Z</time>
      </trkpt>
      <trkpt lat="48.8958" lon="2.40309">
        <ele>112.7</ele>
        <time>2015-04-13T18:50:23.821Z</time>
      </trkpt>
      <trkpt lat="48.8958" lon="2.40315">
        <ele>112.7</ele>
        <time>2015-04-13T18:50:24.834Z</time>
      </trkpt>
      <trkpt lat="48.89582" lon="2.40326">
        <ele>112.6</ele>
        <time>2015-04-13T18:50:26.867Z</time>
      </trkpt>
      <trkpt lat="48.89582" lon="2.40331">
        <ele>112.5</ele>
        <time>2015-04-13T18:50:27.783Z</time>
      </trkpt>
      <trkpt lat="48.89582" lon="2.40342">
        <ele>112.3</ele>
        <time>2015-04-13T18:50:29.821Z</time>
      </trkpt>
      <trkpt lat="48.89582" lon="2.40347">
        <ele>112.2</ele>
        <time>2015-04-13T18:50:30.827Z</time>
      </trkpt>
      <trkpt lat="48.8958" lon="2.40356">
        <ele>111.8</ele>
        <time>2015-04-13T18:50:32.752Z</time>
      </trkpt>
      <trkpt lat="48.89579" lon="2.40362">
        <ele>111.6</ele>
        <time>2015-04-13T18:50:33.760Z</time>
      </trkpt>
      <trkpt lat="48.89577" lon="2.40373">
        <ele>111.4</ele>
        <time>2015-04-13T18:50:35.784Z</time>
      </trkpt>
      <trkpt lat="48.89577" lon="2.40379">
        <ele>111.2</ele>
        <time>2015-04-13T18:50:36.804Z</time>
      </trkpt>
      <trkpt lat="48.89575" lon="2.4039">
        <ele>111.2</ele>
        <time>2015-04-13T18:50:38.834Z</time>
      </trkpt>
      <trkpt lat="48.89574" lon="2.40397">
        <ele>111.2</ele>
        <time>2015-04-13T18:50:39.746Z</time>
      </trkpt>
      <trkpt lat="48.89573" lon="2.40409">
        <ele>111.2</ele>
        <time>2015-04-13T18:50:41.864Z</time>
      </trkpt>
      <trkpt lat="48.89573" lon="2.40415">
        <ele>111</ele>
        <time>2015-04-13T18:50:42.862Z</time>
      </trkpt>
      <trkpt lat="48.89573" lon="2.40422">
        <ele>111</ele>
        <time>2015-04-13T18:50:43.784Z</time>
      </trkpt>
      <trkpt lat="48.89574" lon="2.40429">
        <ele>111</ele>
        <time>2015-04-13T18:50:44.800Z</time>
      </trkpt>
      <trkpt lat="48.89575" lon="2.40436">
        <ele>111.1</ele>
        <time>2015-04-13T18:50:45.814Z</time>
      </trkpt>
      <trkpt lat="48.89575" lon="2.40443">
        <ele>111.1</ele>
        <time>2015-04-13T18:50:46.821Z</time>
      </trkpt>
      <trkpt lat="48.89576" lon="2.40456">
        <ele>111.2</ele>
        <time>2015-04-13T18:50:48.846Z</time>
      </trkpt>
      <trkpt lat="48.89576" lon="2.40462">
        <ele>111</ele>
        <time>2015-04-13T18:50:49.866Z</time>
      </trkpt>
      <trkpt lat="48.89577" lon="2.40475">
        <ele>110.9</ele>
        <time>2015-04-13T18:50:51.791Z</time>
      </trkpt>
      <trkpt lat="48.89578" lon="2.40482">
        <ele>110.8</ele>
        <time>2015-04-13T18:50:52.827Z</time>
      </trkpt>
      <trkpt lat="48.89578" lon="2.40496">
        <ele>110.6</ele>
        <time>2015-04-13T18:50:54.881Z</time>
      </trkpt>
      <trkpt lat="48.89578" lon="2.40502">
        <ele>110.5</ele>
        <time>2015-04-13T18:50:55.818Z</time>
      </trkpt>
      <trkpt lat="48.89577" lon="2.40515">
        <ele>110</ele>
        <time>2015-04-13T18:50:57.740Z</time>
      </trkpt>
      <trkpt lat="48.89576" lon="2.40522">
        <ele>109.7</ele>
        <time>2015-04-13T18:50:58.865Z</time>
      </trkpt>
      <trkpt lat="48.89575" lon="2.40535">
        <ele>109.3</ele>
        <time>2015-04-13T18:51:00.778Z</time>
      </trkpt>
      <trkpt lat="48.89574" lon="2.40542">
        <ele>109.4</ele>
        <time>2015-04-13T18:51:01.931Z</time>
      </trkpt>
      <trkpt lat="48.89572" lon="2.40549">
        <ele>109.6</ele>
        <time>2015-04-13T18:51:02.747Z</time>
      </trkpt>
      <trkpt lat="48.89571" lon="2.40556">
        <ele>109.7</ele>
        <time>2015-04-13T18:51:03.782Z</time>
      </trkpt>
      <trkpt lat="48.8957" lon="2.40563">
        <ele>109.7</ele>
        <time>2015-04-13T18:51:04.784Z</time>
      </trkpt>
      <trkpt lat="48.89569" lon="2.40569">
        <ele>109.8</ele>
        <time>2015-04-13T18:51:05.797Z</time>
      </trkpt>
      <trkpt lat="48.89568" lon="2.40581">
        <ele>109.5</ele>
        <time>2015-04-13T18:51:07.848Z</time>
      </trkpt>
      <trkpt lat="48.89567" lon="2.40587">
        <ele>109.4</ele>
        <time>2015-04-13T18:51:08.764Z</time>
      </trkpt>
      <trkpt lat="48.89566" lon="2.40599">
        <ele>109.7</ele>
        <time>2015-04-13T18:51:11.546Z</time>
      </trkpt>
      <trkpt lat="48.89566" lon="2.40604">
        <ele>109.6</ele>
        <time>2015-04-13T18:51:11.799Z</time>
      </trkpt>
      <trkpt lat="48.89565" lon="2.40616">
        <ele>109.9</ele>
        <time>2015-04-13T18:51:13.832Z</time>
      </trkpt>
      <trkpt lat="48.89565" lon="2.40623">
        <ele>109.7</ele>
        <time>2015-04-13T18:51:14.880Z</time>
      </trkpt>
      <trkpt lat="48.89563" lon="2.40636">
        <ele>109.2</ele>
        <time>2015-04-13T18:51:16.638Z</time>
      </trkpt>
      <trkpt lat="48.89562" lon="2.40641">
        <ele>108.9</ele>
        <time>2015-04-13T18:51:17.835Z</time>
      </trkpt>
      <trkpt lat="48.89561" lon="2.40652">
        <ele>108.6</ele>
        <time>2015-04-13T18:51:19.862Z</time>
      </trkpt>
      <trkpt lat="48.8956" lon="2.40657">
        <ele>108.4</ele>
        <time>2015-04-13T18:51:20.773Z</time>
      </trkpt>
      <trkpt lat="48.89559" lon="2.40668">
        <ele>108</ele>
        <time>2015-04-13T18:51:22.780Z</time>
      </trkpt>
      <trkpt lat="48.89558" lon="2.40673">
        <ele>107.9</ele>
        <time>2015-04-13T18:51:23.810Z</time>
      </trkpt>
      <trkpt lat="48.89557" lon="2.40683">
        <ele>107.4</ele>
        <time>2015-04-13T18:51:25.831Z</time>
      </trkpt>
      <trkpt lat="48.89556" lon="2.40688">
        <ele>107.3</ele>
        <time>2015-04-13T18:51:26.866Z</time>
      </trkpt>
      <trkpt lat="48.89555" lon="2.40701">
        <ele>107</ele>
        <time>2015-04-13T18:51:29.937Z</time>
      </trkpt>
      <trkpt lat="48.89555" lon="2.40705">
        <ele>106.8</ele>
        <time>2015-04-13T18:51:30.801Z</time>
      </trkpt>
      <trkpt lat="48.89552" lon="2.40717">
        <ele>107</ele>
        <time>2015-04-13T18:51:35.024Z</time>
      </trkpt>
      <trkpt lat="48.89552" lon="2.40719">
        <ele>106.7</ele>
        <time>2015-04-13T18:51:35.883Z</time>
      </trkpt>
      <trkpt lat="48.8955" lon="2.40729">
        <ele>106</ele>
        <time>2015-04-13T18:51:38.823Z</time>
      </trkpt>
      <trkpt lat="48.89549" lon="2.40733">
        <ele>105.9</ele>
        <time>2015-04-13T18:51:39.826Z</time>
      </trkpt>
      <trkpt lat="48.89548" lon="2.40746">
        <ele>105.1</ele>
        <time>2015-04-13T18:51:42.863Z</time>
      </trkpt>
      <trkpt lat="48.89548" lon="2.4075">
        <ele>105.1</ele>
        <time>2015-04-13T18:51:43.933Z</time>
      </trkpt>
      <trkpt lat="48.89548" lon="2.40763">
        <ele>105.1</ele>
        <time>2015-04-13T18:51:46.833Z</time>
      </trkpt>
      <trkpt lat="48.89547" lon="2.40766">
        <ele>105.4</ele>
        <time>2015-04-13T18:51:47.848Z</time>
      </trkpt>
      <trkpt lat="48.89546" lon="2.40779">
        <ele>107.1</ele>
        <time>2015-04-13T18:51:53.891Z</time>
      </trkpt>
      <trkpt lat="48.89545" lon="2.40784">
        <ele>107.2</ele>
        <time>2015-04-13T18:51:54.824Z</time>
      </trkpt>
      <trkpt lat="48.89544" lon="2.40793">
        <ele>107.2</ele>
        <time>2015-04-13T18:51:56.828Z</time>
      </trkpt>
      <trkpt lat="48.89543" lon="2.40798">
        <ele>107.4</ele>
        <time>2015-04-13T18:51:57.808Z</time>
      </trkpt>
      <trkpt lat="48.89541" lon="2.40807">
        <ele>107.5</ele>
        <time>2015-04-13T18:52:00.447Z</time>
      </trkpt>
      <trkpt lat="48.8954" lon="2.40812">
        <ele>107.7</ele>
        <time>2015-04-13T18:52:00.854Z</time>
      </trkpt>
      <trkpt lat="48.89539" lon="2.40824">
        <ele>108.3</ele>
        <time>2015-04-13T18:52:03.782Z</time>
      </trkpt>
      <trkpt lat="48.89539" lon="2.40827">
        <ele>108.4</ele>
        <time>2015-04-13T18:52:04.796Z</time>
      </trkpt>
      <trkpt lat="48.8954" lon="2.40836">
        <ele>109.1</ele>
        <time>2015-04-13T18:52:06.810Z</time>
      </trkpt>
      <trkpt lat="48.89539" lon="2.40843">
        <ele>108.9</ele>
        <time>2015-04-13T18:52:07.806Z</time>
      </trkpt>
      <trkpt lat="48.89537" lon="2.40854">
        <ele>108.6</ele>
        <time>2015-04-13T18:52:10.618Z</time>
      </trkpt>
      <trkpt lat="48.89537" lon="2.40858">
        <ele>108.4</ele>
        <time>2015-04-13T18:52:10.737Z</time>
      </trkpt>
      <trkpt lat="48.89536" lon="2.40871">
        <ele>108</ele>
        <time>2015-04-13T18:52:14.541Z</time>
      </trkpt>
      <trkpt lat="48.89536" lon="2.40876">
        <ele>108.1</ele>
        <time>2015-04-13T18:52:14.782Z</time>
      </trkpt>
      <trkpt lat="48.89536" lon="2.40888">
        <ele>108.8</ele>
        <time>2015-04-13T18:52:17.801Z</time>
      </trkpt>
      <trkpt lat="48.89536" lon="2.40891">
        <ele>109</ele>
        <time>2015-04-13T18:52:18.837Z</time>
      </trkpt>
      <trkpt lat="48.89538" lon="2.40903">
        <ele>108.3</ele>
        <time>2015-04-13T18:52:21.855Z</time>
      </trkpt>
      <trkpt lat="48.89538" lon="2.40907">
        <ele>108.1</ele>
        <time>2015-04-13T18:52:22.852Z</time>
      </trkpt>
      <trkpt lat="48.89537" lon="2.40919">
        <ele>108.9</ele>
        <time>2015-04-13T18:52:26.820Z</time>
      </trkpt>
      <trkpt lat="48.89537" lon="2.40922">
        <ele>109</ele>
        <time>2015-04-13T18:52:27.822Z</time>
      </trkpt>
      <trkpt lat="48.89536" lon="2.40935">
        <ele>108.8</ele>
        <time>2015-04-13T18:52:31.799Z</time>
      </trkpt>
      <trkpt lat="48.89535" lon="2.40939">
        <ele>108.9</ele>
        <time>2015-04-13T18:52:32.792Z</time>
      </trkpt>
      <trkpt lat="48.89534" lon="2.40952">
        <ele>108.8</ele>
        <time>2015-04-13T18:52:36.802Z</time>
      </trkpt>
      <trkpt lat="48.89533" lon="2.40954">
        <ele>108.7</ele>
        <time>2015-04-13T18:52:37.824Z</time>
      </trkpt>
      <trkpt lat="48.89529" lon="2.40966">
        <ele>108</ele>
        <time>2015-04-13T18:52:42.859Z</time>
      </trkpt>
      <trkpt lat="48.89529" lon="2.40968">
        <ele>108.1</ele>
        <time>2015-04-13T18:52:43.884Z</time>
      </trkpt>
      <trkpt lat="48.89529" lon="2.40969">
        <ele>108</ele>
        <time>2015-04-13T18:52:44.843Z</time>
      </trkpt>
      <trkpt lat="48.89529" lon="2.40969">
        <ele>107.8</ele>
        <time>2015-04-13T18:52:52.814Z</time>
      </trkpt>
      <trkpt lat="48.89528" lon="2.40967">
        <ele>107.2</ele>
        <time>2015-04-13T18:52:53.822Z</time>
      </trkpt>
      <trkpt lat="48.89534" lon="2.40971">
        <ele>106.5</ele>
        <time>2015-04-13T18:52:57.867Z</time>
      </trkpt>
      <trkpt lat="48.89537" lon="2.40973">
        <ele>106.5</ele>
        <time>2015-04-13T18:52:58.844Z</time>
      </trkpt>
      <trkpt lat="48.89542" lon="2.40975">
        <ele>106.3</ele>
        <time>2015-04-13T18:53:01.051Z</time>
      </trkpt>
      <trkpt lat="48.89545" lon="2.40976">
        <ele>105.9</ele>
        <time>2015-04-13T18:53:01.900Z</time>
      </trkpt>
      <trkpt lat="48.89553" lon="2.40977">
        <ele>105.3</ele>
        <time>2015-04-13T18:53:03.835Z</time>
      </trkpt>
      <trkpt lat="48.89557" lon="2.40977">
        <ele>105.2</ele>
        <time>2015-04-13T18:53:04.849Z</time>
      </trkpt>
      <trkpt lat="48.89566" lon="2.40979">
        <ele>105.2</ele>
        <time>2015-04-13T18:53:06.864Z</time>
      </trkpt>
      <trkpt lat="48.89569" lon="2.40981">
        <ele>105.1</ele>
        <time>2015-04-13T18:53:07.922Z</time>
      </trkpt>
      <trkpt lat="48.89576" lon="2.40985">
        <ele>105</ele>
        <time>2015-04-13T18:53:10.286Z</time>
      </trkpt>
      <trkpt lat="48.89579" lon="2.40988">
        <ele>105.2</ele>
        <time>2015-04-13T18:53:10.804Z</time>
      </trkpt>
      <trkpt lat="48.89583" lon="2.40998">
        <ele>107.5</ele>
        <time>2015-04-13T18:53:14.839Z</time>
      </trkpt>
      <trkpt lat="48.89584" lon="2.40998">
        <ele>108.9</ele>
        <time>2015-04-13T18:53:15.856Z</time>
      </trkpt>
      <trkpt lat="48.89583" lon="2.40998">
        <ele>108.9</ele>
        <time>2015-04-13T18:53:48.797Z</time>
      </trkpt>
      <trkpt lat="48.89578" lon="2.41">
        <ele>114.1</ele>
        <time>2015-04-13T18:53:49.819Z</time>
      </trkpt>
      <trkpt lat="48.89577" lon="2.41">
        <ele>113.8</ele>
        <time>2015-04-13T18:53:50.810Z</time>
      </trkpt>
      <trkpt lat="48.89577" lon="2.41">
        <ele>113.6</ele>
        <time>2015-04-13T18:53:51.841Z</time>
      </trkpt>
      <trkpt lat="48.89577" lon="2.41">
        <ele>113.6</ele>
        <time>2015-04-13T18:54:20.738Z</time>
      </trkpt>
      <trkpt lat="48.89577" lon="2.40991">
        <ele>114.8</ele>
        <time>2015-04-13T18:54:21.744Z</time>
      </trkpt>
      <trkpt lat="48.89574" lon="2.41002">
        <ele>110.6</ele>
        <time>2015-04-13T18:54:24.801Z</time>
      </trkpt>
      <trkpt lat="48.89572" lon="2.41007">
        <ele>109.5</ele>
        <time>2015-04-13T18:54:25.811Z</time>
      </trkpt>
      <trkpt lat="48.89568" lon="2.41012">
        <ele>108.6</ele>
        <time>2015-04-13T18:54:26.811Z</time>
      </trkpt>
      <trkpt lat="48.89565" lon="2.41018">
        <ele>107.8</ele>
        <time>2015-04-13T18:54:27.815Z</time>
      </trkpt>
      <trkpt lat="48.89565" lon="2.41026">
        <ele>107.1</ele>
        <time>2015-04-13T18:54:28.842Z</time>
      </trkpt>
      <trkpt lat="48.89563" lon="2.41033">
        <ele>106.5</ele>
        <time>2015-04-13T18:54:29.760Z</time>
      </trkpt>
      <trkpt lat="48.89563" lon="2.4104">
        <ele>106.3</ele>
        <time>2015-04-13T18:54:30.777Z</time>
      </trkpt>
      <trkpt lat="48.89563" lon="2.41048">
        <ele>106</ele>
        <time>2015-04-13T18:54:31.848Z</time>
      </trkpt>
      <trkpt lat="48.89562" lon="2.41055">
        <ele>105.6</ele>
        <time>2015-04-13T18:54:32.746Z</time>
      </trkpt>
      <trkpt lat="48.89563" lon="2.41062">
        <ele>105.3</ele>
        <time>2015-04-13T18:54:33.804Z</time>
      </trkpt>
      <trkpt lat="48.89563" lon="2.41069">
        <ele>105.1</ele>
        <time>2015-04-13T18:54:34.809Z</time>
      </trkpt>
      <trkpt lat="48.89562" lon="2.41077">
        <ele>104.8</ele>
        <time>2015-04-13T18:54:35.847Z</time>
      </trkpt>
      <trkpt lat="48.89562" lon="2.41085">
        <ele>104.6</ele>
        <time>2015-04-13T18:54:36.810Z</time>
      </trkpt>
      <trkpt lat="48.89562" lon="2.41093">
        <ele>104.3</ele>
        <time>2015-04-13T18:54:37.809Z</time>
      </trkpt>
      <trkpt lat="48.89563" lon="2.41101">
        <ele>104.2</ele>
        <time>2015-04-13T18:54:38.814Z</time>
      </trkpt>
      <trkpt lat="48.89563" lon="2.41109">
        <ele>103.9</ele>
        <time>2015-04-13T18:54:39.833Z</time>
      </trkpt>
      <trkpt lat="48.89562" lon="2.41116">
        <ele>103.8</ele>
        <time>2015-04-13T18:54:40.768Z</time>
      </trkpt>
      <trkpt lat="48.89562" lon="2.41123">
        <ele>103.4</ele>
        <time>2015-04-13T18:54:41.788Z</time>
      </trkpt>
      <trkpt lat="48.8956" lon="2.41136">
        <ele>102.7</ele>
        <time>2015-04-13T18:54:43.860Z</time>
      </trkpt>
      <trkpt lat="48.89559" lon="2.41142">
        <ele>102.4</ele>
        <time>2015-04-13T18:54:44.819Z</time>
      </trkpt>
      <trkpt lat="48.89557" lon="2.41154">
        <ele>102</ele>
        <time>2015-04-13T18:54:46.785Z</time>
      </trkpt>
      <trkpt lat="48.89556" lon="2.4116">
        <ele>101.7</ele>
        <time>2015-04-13T18:54:47.818Z</time>
      </trkpt>
      <trkpt lat="48.89554" lon="2.4117">
        <ele>101.1</ele>
        <time>2015-04-13T18:54:49.850Z</time>
      </trkpt>
      <trkpt lat="48.89553" lon="2.41174">
        <ele>100.7</ele>
        <time>2015-04-13T18:54:50.886Z</time>
      </trkpt>
      <trkpt lat="48.89551" lon="2.41185">
        <ele>100.5</ele>
        <time>2015-04-13T18:54:52.797Z</time>
      </trkpt>
      <trkpt lat="48.8955" lon="2.41191">
        <ele>100.2</ele>
        <time>2015-04-13T18:54:53.840Z</time>
      </trkpt>
      <trkpt lat="48.89549" lon="2.41198">
        <ele>99.5</ele>
        <time>2015-04-13T18:54:54.897Z</time>
      </trkpt>
      <trkpt lat="48.89548" lon="2.41205">
        <ele>99.5</ele>
        <time>2015-04-13T18:54:55.806Z</time>
      </trkpt>
      <trkpt lat="48.89546" lon="2.41212">
        <ele>99.3</ele>
        <time>2015-04-13T18:54:56.938Z</time>
      </trkpt>
      <trkpt lat="48.89545" lon="2.41219">
        <ele>99.2</ele>
        <time>2015-04-13T18:54:57.823Z</time>
      </trkpt>
      <trkpt lat="48.89544" lon="2.41226">
        <ele>99.1</ele>
        <time>2015-04-13T18:54:58.801Z</time>
      </trkpt>
      <trkpt lat="48.89544" lon="2.41233">
        <ele>99</ele>
        <time>2015-04-13T18:54:59.809Z</time>
      </trkpt>
      <trkpt lat="48.89543" lon="2.4124">
        <ele>98.9</ele>
        <time>2015-04-13T18:55:00.827Z</time>
      </trkpt>
      <trkpt lat="48.89541" lon="2.41246">
        <ele>98.9</ele>
        <time>2015-04-13T18:55:01.868Z</time>
      </trkpt>
      <trkpt lat="48.89539" lon="2.41252">
        <ele>99.1</ele>
        <time>2015-04-13T18:55:02.794Z</time>
      </trkpt>
      <trkpt lat="48.89536" lon="2.41258">
        <ele>99.4</ele>
        <time>2015-04-13T18:55:03.858Z</time>
      </trkpt>
      <trkpt lat="48.89531" lon="2.41269">
        <ele>99.6</ele>
        <time>2015-04-13T18:55:05.870Z</time>
      </trkpt>
      <trkpt lat="48.89529" lon="2.41273">
        <ele>99.6</ele>
        <time>2015-04-13T18:55:06.880Z</time>
      </trkpt>
      <trkpt lat="48.89525" lon="2.41283">
        <ele>100.4</ele>
        <time>2015-04-13T18:55:10.848Z</time>
      </trkpt>
      <trkpt lat="48.89525" lon="2.41286">
        <ele>100.2</ele>
        <time>2015-04-13T18:55:11.915Z</time>
      </trkpt>
      <trkpt lat="48.8952" lon="2.41296">
        <ele>101.7</ele>
        <time>2015-04-13T18:55:16.804Z</time>
      </trkpt>
      <trkpt lat="48.89519" lon="2.41298">
        <ele>102</ele>
        <time>2015-04-13T18:55:17.834Z</time>
      </trkpt>
      <trkpt lat="48.89518" lon="2.41306">
        <ele>102.4</ele>
        <time>2015-04-13T18:55:19.843Z</time>
      </trkpt>
      <trkpt lat="48.89518" lon="2.41312">
        <ele>102.6</ele>
        <time>2015-04-13T18:55:20.860Z</time>
      </trkpt>
      <trkpt lat="48.89516" lon="2.41323">
        <ele>102.9</ele>
        <time>2015-04-13T18:55:22.813Z</time>
      </trkpt>
      <trkpt lat="48.89515" lon="2.41329">
        <ele>103.1</ele>
        <time>2015-04-13T18:55:23.841Z</time>
      </trkpt>
      <trkpt lat="48.89515" lon="2.41336">
        <ele>103.4</ele>
        <time>2015-04-13T18:55:24.862Z</time>
      </trkpt>
      <trkpt lat="48.89515" lon="2.41344">
        <ele>103.3</ele>
        <time>2015-04-13T18:55:25.883Z</time>
      </trkpt>
      <trkpt lat="48.89516" lon="2.41352">
        <ele>102.6</ele>
        <time>2015-04-13T18:55:26.887Z</time>
      </trkpt>
      <trkpt lat="48.89517" lon="2.41361">
        <ele>102.2</ele>
        <time>2015-04-13T18:55:27.812Z</time>
      </trkpt>
      <trkpt lat="48.89518" lon="2.41368">
        <ele>102.1</ele>
        <time>2015-04-13T18:55:28.846Z</time>
      </trkpt>
      <trkpt lat="48.89519" lon="2.41376">
        <ele>102</ele>
        <time>2015-04-13T18:55:29.859Z</time>
      </trkpt>
      <trkpt lat="48.89519" lon="2.41384">
        <ele>102</ele>
        <time>2015-04-13T18:55:30.884Z</time>
      </trkpt>
      <trkpt lat="48.8952" lon="2.41394">
        <ele>101.8</ele>
        <time>2015-04-13T18:55:31.899Z</time>
      </trkpt>
      <trkpt lat="48.89522" lon="2.41402">
        <ele>101.5</ele>
        <time>2015-04-13T18:55:32.845Z</time>
      </trkpt>
      <trkpt lat="48.89523" lon="2.41411">
        <ele>101.3</ele>
        <time>2015-04-13T18:55:33.872Z</time>
      </trkpt>
      <trkpt lat="48.89524" lon="2.4142">
        <ele>101.1</ele>
        <time>2015-04-13T18:55:34.825Z</time>
      </trkpt>
      <trkpt lat="48.89525" lon="2.41428">
        <ele>100.8</ele>
        <time>2015-04-13T18:55:35.830Z</time>
      </trkpt>
      <trkpt lat="48.89525" lon="2.41437">
        <ele>100.7</ele>
        <time>2015-04-13T18:55:36.855Z</time>
      </trkpt>
      <trkpt lat="48.89525" lon="2.41444">
        <ele>100.7</ele>
        <time>2015-04-13T18:55:37.868Z</time>
      </trkpt>
      <trkpt lat="48.89526" lon="2.41452">
        <ele>100.7</ele>
        <time>2015-04-13T18:55:38.783Z</time>
      </trkpt>
      <trkpt lat="48.89527" lon="2.4146">
        <ele>100.4</ele>
        <time>2015-04-13T18:55:39.785Z</time>
      </trkpt>
      <trkpt lat="48.89529" lon="2.41468">
        <ele>100.4</ele>
        <time>2015-04-13T18:55:40.837Z</time>
      </trkpt>
      <trkpt lat="48.8953" lon="2.41476">
        <ele>100.6</ele>
        <time>2015-04-13T18:55:41.844Z</time>
      </trkpt>
      <trkpt lat="48.89534" lon="2.41487">
        <ele>101.1</ele>
        <time>2015-04-13T18:55:43.874Z</time>
      </trkpt>
      <trkpt lat="48.89536" lon="2.4149">
        <ele>101.4</ele>
        <time>2015-04-13T18:55:44.780Z</time>
      </trkpt>
      <trkpt lat="48.89544" lon="2.41495">
        <ele>102.7</ele>
        <time>2015-04-13T18:55:47.834Z</time>
      </trkpt>
      <trkpt lat="48.89546" lon="2.41496">
        <ele>102.5</ele>
        <time>2015-04-13T18:55:48.849Z</time>
      </trkpt>
      <trkpt lat="48.89552" lon="2.41498">
        <ele>102.4</ele>
        <time>2015-04-13T18:55:50.874Z</time>
      </trkpt>
      <trkpt lat="48.89556" lon="2.41498">
        <ele>102.3</ele>
        <time>2015-04-13T18:55:51.795Z</time>
      </trkpt>
      <trkpt lat="48.89564" lon="2.41498">
        <ele>102.7</ele>
        <time>2015-04-13T18:55:53.837Z</time>
      </trkpt>
      <trkpt lat="48.89568" lon="2.41497">
        <ele>103.4</ele>
        <time>2015-04-13T18:55:54.858Z</time>
      </trkpt>
      <trkpt lat="48.89575" lon="2.41498">
        <ele>104.9</ele>
        <time>2015-04-13T18:55:56.881Z</time>
      </trkpt>
      <trkpt lat="48.8958" lon="2.41497">
        <ele>105</ele>
        <time>2015-04-13T18:55:57.891Z</time>
      </trkpt>
      <trkpt lat="48.89584" lon="2.41496">
        <ele>105.1</ele>
        <time>2015-04-13T18:55:58.829Z</time>
      </trkpt>
      <trkpt lat="48.8959" lon="2.41495">
        <ele>105</ele>
        <time>2015-04-13T18:55:59.817Z</time>
      </trkpt>
      <trkpt lat="48.89595" lon="2.41494">
        <ele>105</ele>
        <time>2015-04-13T18:56:00.832Z</time>
      </trkpt>
      <trkpt lat="48.89601" lon="2.41494">
        <ele>104.8</ele>
        <time>2015-04-13T18:56:01.874Z</time>
      </trkpt>
      <trkpt lat="48.89607" lon="2.41494">
        <ele>104.2</ele>
        <time>2015-04-13T18:56:02.799Z</time>
      </trkpt>
      <trkpt lat="48.89614" lon="2.41495">
        <ele>103.6</ele>
        <time>2015-04-13T18:56:03.800Z</time>
      </trkpt>
      <trkpt lat="48.89622" lon="2.41496">
        <ele>103.8</ele>
        <time>2015-04-13T18:56:05.797Z</time>
      </trkpt>
      <trkpt lat="48.89625" lon="2.41498">
        <ele>104.1</ele>
        <time>2015-04-13T18:56:06.825Z</time>
      </trkpt>
      <trkpt lat="48.8963" lon="2.41503">
        <ele>104.7</ele>
        <time>2015-04-13T18:56:08.777Z</time>
      </trkpt>
      <trkpt lat="48.89632" lon="2.41511">
        <ele>105.1</ele>
        <time>2015-04-13T18:56:09.828Z</time>
      </trkpt>
      <trkpt lat="48.89633" lon="2.41517">
        <ele>105.3</ele>
        <time>2015-04-13T18:56:10.861Z</time>
      </trkpt>
      <trkpt lat="48.89633" lon="2.41525">
        <ele>105.6</ele>
        <time>2015-04-13T18:56:11.872Z</time>
      </trkpt>
      <trkpt lat="48.89633" lon="2.41533">
        <ele>105.8</ele>
        <time>2015-04-13T18:56:12.889Z</time>
      </trkpt>
      <trkpt lat="48.89634" lon="2.41541">
        <ele>106</ele>
        <time>2015-04-13T18:56:13.842Z</time>
      </trkpt>
      <trkpt lat="48.89635" lon="2.41548">
        <ele>106.3</ele>
        <time>2015-04-13T18:56:14.811Z</time>
      </trkpt>
      <trkpt lat="48.89635" lon="2.41556">
        <ele>106.4</ele>
        <time>2015-04-13T18:56:15.819Z</time>
      </trkpt>
      <trkpt lat="48.89635" lon="2.41565">
        <ele>106.8</ele>
        <time>2015-04-13T18:56:16.838Z</time>
      </trkpt>
      <trkpt lat="48.89637" lon="2.41573">
        <ele>107.7</ele>
        <time>2015-04-13T18:56:17.865Z</time>
      </trkpt>
      <trkpt lat="48.89638" lon="2.41581">
        <ele>109.2</ele>
        <time>2015-04-13T18:56:18.885Z</time>
      </trkpt>
      <trkpt lat="48.89638" lon="2.4159">
        <ele>110.6</ele>
        <time>2015-04-13T18:56:19.817Z</time>
      </trkpt>
      <trkpt lat="48.8964" lon="2.41599">
        <ele>111.4</ele>
        <time>2015-04-13T18:56:20.791Z</time>
      </trkpt>
      <trkpt lat="48.89641" lon="2.41607">
        <ele>112.2</ele>
        <time>2015-04-13T18:56:21.797Z</time>
      </trkpt>
      <trkpt lat="48.89642" lon="2.41616">
        <ele>112.9</ele>
        <time>2015-04-13T18:56:22.808Z</time>
      </trkpt>
      <trkpt lat="48.89645" lon="2.41625">
        <ele>113.8</ele>
        <time>2015-04-13T18:56:23.867Z</time>
      </trkpt>
      <trkpt lat="48.89646" lon="2.41634">
        <ele>114.3</ele>
        <time>2015-04-13T18:56:24.886Z</time>
      </trkpt>
      <trkpt lat="48.89647" lon="2.41642">
        <ele>114.8</ele>
        <time>2015-04-13T18:56:25.798Z</time>
      </trkpt>
      <trkpt lat="48.89648" lon="2.41651">
        <ele>115.2</ele>
        <time>2015-04-13T18:56:26.840Z</time>
      </trkpt>
      <trkpt lat="48.89649" lon="2.4166">
        <ele>115.5</ele>
        <time>2015-04-13T18:56:27.855Z</time>
      </trkpt>
      <trkpt lat="48.89651" lon="2.41668">
        <ele>115.9</ele>
        <time>2015-04-13T18:56:28.868Z</time>
      </trkpt>
      <trkpt lat="48.89652" lon="2.41677">
        <ele>116.2</ele>
        <time>2015-04-13T18:56:29.782Z</time>
      </trkpt>
      <trkpt lat="48.89652" lon="2.41685">
        <ele>116.3</ele>
        <time>2015-04-13T18:56:30.814Z</time>
      </trkpt>
      <trkpt lat="48.89653" lon="2.41693">
        <ele>116.6</ele>
        <time>2015-04-13T18:56:31.845Z</time>
      </trkpt>
      <trkpt lat="48.89654" lon="2.41702">
        <ele>116.8</ele>
        <time>2015-04-13T18:56:32.843Z</time>
      </trkpt>
      <trkpt lat="48.89655" lon="2.41711">
        <ele>116.9</ele>
        <time>2015-04-13T18:56:33.858Z</time>
      </trkpt>
      <trkpt lat="48.89656" lon="2.41719">
        <ele>117</ele>
        <time>2015-04-13T18:56:34.867Z</time>
      </trkpt>
      <trkpt lat="48.89656" lon="2.41728">
        <ele>117.1</ele>
        <time>2015-04-13T18:56:35.753Z</time>
      </trkpt>
      <trkpt lat="48.89657" lon="2.41737">
        <ele>117.1</ele>
        <time>2015-04-13T18:56:36.830Z</time>
      </trkpt>
      <trkpt lat="48.89658" lon="2.41748">
        <ele>116.3</ele>
        <time>2015-04-13T18:56:37.796Z</time>
      </trkpt>
      <trkpt lat="48.89659" lon="2.41757">
        <ele>116.5</ele>
        <time>2015-04-13T18:56:38.808Z</time>
      </trkpt>
      <trkpt lat="48.8966" lon="2.41766">
        <ele>116.7</ele>
        <time>2015-04-13T18:56:39.815Z</time>
      </trkpt>
      <trkpt lat="48.89661" lon="2.41775">
        <ele>116.7</ele>
        <time>2015-04-13T18:56:40.832Z</time>
      </trkpt>
      <trkpt lat="48.89662" lon="2.41784">
        <ele>116.8</ele>
        <time>2015-04-13T18:56:41.870Z</time>
      </trkpt>
      <trkpt lat="48.89663" lon="2.41792">
        <ele>116.9</ele>
        <time>2015-04-13T18:56:42.884Z</time>
      </trkpt>
      <trkpt lat="48.89664" lon="2.41801">
        <ele>116.4</ele>
        <time>2015-04-13T18:56:43.784Z</time>
      </trkpt>
      <trkpt lat="48.89665" lon="2.4181">
        <ele>116</ele>
        <time>2015-04-13T18:56:44.810Z</time>
      </trkpt>
      <trkpt lat="48.89665" lon="2.41818">
        <ele>115.6</ele>
        <time>2015-04-13T18:56:45.832Z</time>
      </trkpt>
      <trkpt lat="48.89666" lon="2.41827">
        <ele>115.3</ele>
        <time>2015-04-13T18:56:46.847Z</time>
      </trkpt>
      <trkpt lat="48.89667" lon="2.41835">
        <ele>114.9</ele>
        <time>2015-04-13T18:56:47.859Z</time>
      </trkpt>
      <trkpt lat="48.89668" lon="2.41844">
        <ele>114.5</ele>
        <time>2015-04-13T18:56:48.869Z</time>
      </trkpt>
      <trkpt lat="48.89668" lon="2.41852">
        <ele>114.1</ele>
        <time>2015-04-13T18:56:49.865Z</time>
      </trkpt>
      <trkpt lat="48.89669" lon="2.4186">
        <ele>113.7</ele>
        <time>2015-04-13T18:56:50.821Z</time>
      </trkpt>
      <trkpt lat="48.89669" lon="2.41868">
        <ele>113.5</ele>
        <time>2015-04-13T18:56:51.814Z</time>
      </trkpt>
      <trkpt lat="48.8967" lon="2.41875">
        <ele>113.2</ele>
        <time>2015-04-13T18:56:52.854Z</time>
      </trkpt>
      <trkpt lat="48.8967" lon="2.41883">
        <ele>112.9</ele>
        <time>2015-04-13T18:56:53.867Z</time>
      </trkpt>
      <trkpt lat="48.89671" lon="2.41891">
        <ele>112.6</ele>
        <time>2015-04-13T18:56:54.887Z</time>
      </trkpt>
      <trkpt lat="48.8967" lon="2.41899">
        <ele>112.4</ele>
        <time>2015-04-13T18:56:55.789Z</time>
      </trkpt>
      <trkpt lat="48.8967" lon="2.41907">
        <ele>112.3</ele>
        <time>2015-04-13T18:56:56.784Z</time>
      </trkpt>
      <trkpt lat="48.8967" lon="2.41914">
        <ele>112</ele>
        <time>2015-04-13T18:56:57.802Z</time>
      </trkpt>
      <trkpt lat="48.89669" lon="2.41927">
        <ele>112.1</ele>
        <time>2015-04-13T18:56:59.826Z</time>
      </trkpt>
      <trkpt lat="48.89668" lon="2.41933">
        <ele>112.3</ele>
        <time>2015-04-13T18:57:00.851Z</time>
      </trkpt>
      <trkpt lat="48.89665" lon="2.41942">
        <ele>111.8</ele>
        <time>2015-04-13T18:57:02.877Z</time>
      </trkpt>
      <trkpt lat="48.89664" lon="2.41946">
        <ele>111.3</ele>
        <time>2015-04-13T18:57:03.787Z</time>
      </trkpt>
      <trkpt lat="48.8966" lon="2.41953">
        <ele>110.6</ele>
        <time>2015-04-13T18:57:05.808Z</time>
      </trkpt>
      <trkpt lat="48.8966" lon="2.41958">
        <ele>110.4</ele>
        <time>2015-04-13T18:57:06.807Z</time>
      </trkpt>
      <trkpt lat="48.89658" lon="2.41969">
        <ele>110.1</ele>
        <time>2015-04-13T18:57:08.840Z</time>
      </trkpt>
      <trkpt lat="48.89658" lon="2.41975">
        <ele>110.1</ele>
        <time>2015-04-13T18:57:09.851Z</time>
      </trkpt>
      <trkpt lat="48.89659" lon="2.41987">
        <ele>110</ele>
        <time>2015-04-13T18:57:11.788Z</time>
      </trkpt>
      <trkpt lat="48.89659" lon="2.41993">
        <ele>109.8</ele>
        <time>2015-04-13T18:57:12.835Z</time>
      </trkpt>
      <trkpt lat="48.89659" lon="2.42004">
        <ele>109.7</ele>
        <time>2015-04-13T18:57:14.802Z</time>
      </trkpt>
      <trkpt lat="48.89659" lon="2.42009">
        <ele>109.6</ele>
        <time>2015-04-13T18:57:15.832Z</time>
      </trkpt>
      <trkpt lat="48.89659" lon="2.42019">
        <ele>109.1</ele>
        <time>2015-04-13T18:57:17.874Z</time>
      </trkpt>
      <trkpt lat="48.89659" lon="2.42025">
        <ele>108.8</ele>
        <time>2015-04-13T18:57:18.899Z</time>
      </trkpt>
      <trkpt lat="48.89659" lon="2.42037">
        <ele>108.5</ele>
        <time>2015-04-13T18:57:20.816Z</time>
      </trkpt>
      <trkpt lat="48.89659" lon="2.42043">
        <ele>108.3</ele>
        <time>2015-04-13T18:57:21.837Z</time>
      </trkpt>
      <trkpt lat="48.8966" lon="2.4205">
        <ele>108</ele>
        <time>2015-04-13T18:57:22.859Z</time>
      </trkpt>
      <trkpt lat="48.8966" lon="2.42057">
        <ele>107.8</ele>
        <time>2015-04-13T18:57:23.783Z</time>
      </trkpt>
      <trkpt lat="48.8966" lon="2.42065">
        <ele>107.9</ele>
        <time>2015-04-13T18:57:24.888Z</time>
      </trkpt>
      <trkpt lat="48.8966" lon="2.42071">
        <ele>107.9</ele>
        <time>2015-04-13T18:57:25.877Z</time>
      </trkpt>
      <trkpt lat="48.8966" lon="2.42085">
        <ele>107.8</ele>
        <time>2015-04-13T18:57:27.793Z</time>
      </trkpt>
      <trkpt lat="48.8966" lon="2.42092">
        <ele>107.7</ele>
        <time>2015-04-13T18:57:28.832Z</time>
      </trkpt>
      <trkpt lat="48.8966" lon="2.42105">
        <ele>107.3</ele>
        <time>2015-04-13T18:57:30.875Z</time>
      </trkpt>
      <trkpt lat="48.89661" lon="2.42112">
        <ele>107.1</ele>
        <time>2015-04-13T18:57:31.845Z</time>
      </trkpt>
      <trkpt lat="48.89661" lon="2.42125">
        <ele>106.6</ele>
        <time>2015-04-13T18:57:33.871Z</time>
      </trkpt>
      <trkpt lat="48.89661" lon="2.42131">
        <ele>106</ele>
        <time>2015-04-13T18:57:34.817Z</time>
      </trkpt>
      <trkpt lat="48.89662" lon="2.42143">
        <ele>105.8</ele>
        <time>2015-04-13T18:57:36.860Z</time>
      </trkpt>
      <trkpt lat="48.89662" lon="2.42148">
        <ele>105.7</ele>
        <time>2015-04-13T18:57:37.891Z</time>
      </trkpt>
      <trkpt lat="48.89663" lon="2.42158">
        <ele>105.4</ele>
        <time>2015-04-13T18:57:39.796Z</time>
      </trkpt>
      <trkpt lat="48.89663" lon="2.42162">
        <ele>105.3</ele>
        <time>2015-04-13T18:57:40.814Z</time>
      </trkpt>
      <trkpt lat="48.89662" lon="2.42174">
        <ele>105.5</ele>
        <time>2015-04-13T18:57:43.860Z</time>
      </trkpt>
      <trkpt lat="48.89662" lon="2.42176">
        <ele>105.1</ele>
        <time>2015-04-13T18:57:44.792Z</time>
      </trkpt>
      <trkpt lat="48.89661" lon="2.42189">
        <ele>105.2</ele>
        <time>2015-04-13T18:57:51.890Z</time>
      </trkpt>
      <trkpt lat="48.8966" lon="2.4219">
        <ele>105.2</ele>
        <time>2015-04-13T18:57:52.790Z</time>
      </trkpt>
      <trkpt lat="48.89659" lon="2.4219">
        <ele>104.9</ele>
        <time>2015-04-13T18:57:53.813Z</time>
      </trkpt>
      <trkpt lat="48.89659" lon="2.4219">
        <ele>104.8</ele>
        <time>2015-04-13T18:57:54.844Z</time>
      </trkpt>
      <trkpt lat="48.89655" lon="2.4218">
        <ele>104</ele>
        <time>2015-04-13T18:58:00.825Z</time>
      </trkpt>
      <trkpt lat="48.89653" lon="2.42178">
        <ele>103.8</ele>
        <time>2015-04-13T18:58:01.835Z</time>
      </trkpt>
      <trkpt lat="48.89646" lon="2.42174">
        <ele>103</ele>
        <time>2015-04-13T18:58:03.870Z</time>
      </trkpt>
      <trkpt lat="48.89643" lon="2.42173">
        <ele>102.8</ele>
        <time>2015-04-13T18:58:04.781Z</time>
      </trkpt>
      <trkpt lat="48.89634" lon="2.42172">
        <ele>103.1</ele>
        <time>2015-04-13T18:58:07.824Z</time>
      </trkpt>
      <trkpt lat="48.89631" lon="2.42172">
        <ele>103</ele>
        <time>2015-04-13T18:58:08.829Z</time>
      </trkpt>
      <trkpt lat="48.89622" lon="2.42173">
        <ele>103.3</ele>
        <time>2015-04-13T18:58:13.907Z</time>
      </trkpt>
      <trkpt lat="48.89621" lon="2.42174">
        <ele>103.3</ele>
        <time>2015-04-13T18:58:14.802Z</time>
      </trkpt>
      <trkpt lat="48.89619" lon="2.42184">
        <ele>104.8</ele>
        <time>2015-04-13T18:58:18.833Z</time>
      </trkpt>
      <trkpt lat="48.89619" lon="2.42189">
        <ele>104.8</ele>
        <time>2015-04-13T18:58:19.848Z</time>
      </trkpt>
      <trkpt lat="48.8962" lon="2.42198">
        <ele>104.4</ele>
        <time>2015-04-13T18:58:21.797Z</time>
      </trkpt>
      <trkpt lat="48.89621" lon="2.42203">
        <ele>104.4</ele>
        <time>2015-04-13T18:58:22.791Z</time>
      </trkpt>
      <trkpt lat="48.89623" lon="2.42214">
        <ele>104.2</ele>
        <time>2015-04-13T18:58:24.825Z</time>
      </trkpt>
      <trkpt lat="48.89623" lon="2.42219">
        <ele>104</ele>
        <time>2015-04-13T18:58:25.826Z</time>
      </trkpt>
      <trkpt lat="48.89624" lon="2.42232">
        <ele>103.8</ele>
        <time>2015-04-13T18:58:28.872Z</time>
      </trkpt>
      <trkpt lat="48.89625" lon="2.42235">
        <ele>103.8</ele>
        <time>2015-04-13T18:58:29.883Z</time>
      </trkpt>
      <trkpt lat="48.89625" lon="2.42246">
        <ele>104</ele>
        <time>2015-04-13T18:58:32.800Z</time>
      </trkpt>
      <trkpt lat="48.89625" lon="2.42249">
        <ele>104.2</ele>
        <time>2015-04-13T18:58:33.798Z</time>
      </trkpt>
      <trkpt lat="48.89626" lon="2.42261">
        <ele>105.1</ele>
        <time>2015-04-13T18:58:36.848Z</time>
      </trkpt>
      <trkpt lat="48.89626" lon="2.42265">
        <ele>105.1</ele>
        <time>2015-04-13T18:58:37.847Z</time>
      </trkpt>
      <trkpt lat="48.89628" lon="2.42274">
        <ele>105.5</ele>
        <time>2015-04-13T18:58:39.802Z</time>
      </trkpt>
      <trkpt lat="48.89628" lon="2.42279">
        <ele>105.4</ele>
        <time>2015-04-13T18:58:40.824Z</time>
      </trkpt>
      <trkpt lat="48.89629" lon="2.42292">
        <ele>104.7</ele>
        <time>2015-04-13T18:58:43.879Z</time>
      </trkpt>
      <trkpt lat="48.89628" lon="2.42296">
        <ele>104.5</ele>
        <time>2015-04-13T18:58:44.884Z</time>
      </trkpt>
      <trkpt lat="48.89626" lon="2.42309">
        <ele>103.5</ele>
        <time>2015-04-13T18:58:47.655Z</time>
      </trkpt>
      <trkpt lat="48.89626" lon="2.42313">
        <ele>103.4</ele>
        <time>2015-04-13T18:58:48.849Z</time>
      </trkpt>
      <trkpt lat="48.89624" lon="2.42321">
        <ele>103.4</ele>
        <time>2015-04-13T18:58:50.823Z</time>
      </trkpt>
      <trkpt lat="48.89622" lon="2.42326">
        <ele>103.7</ele>
        <time>2015-04-13T18:58:51.824Z</time>
      </trkpt>
      <trkpt lat="48.89622" lon="2.42338">
        <ele>104.5</ele>
        <time>2015-04-13T18:58:54.900Z</time>
      </trkpt>
      <trkpt lat="48.89622" lon="2.42342">
        <ele>104.6</ele>
        <time>2015-04-13T18:58:55.912Z</time>
      </trkpt>
      <trkpt lat="48.89624" lon="2.42352">
        <ele>104.8</ele>
        <time>2015-04-13T18:58:57.802Z</time>
      </trkpt>
      <trkpt lat="48.89626" lon="2.42356">
        <ele>104.9</ele>
        <time>2015-04-13T18:58:58.812Z</time>
      </trkpt>
      <trkpt lat="48.89629" lon="2.42366">
        <ele>105.8</ele>
        <time>2015-04-13T18:59:01.880Z</time>
      </trkpt>
      <trkpt lat="48.89629" lon="2.42369">
        <ele>105.9</ele>
        <time>2015-04-13T18:59:02.790Z</time>
      </trkpt>
      <trkpt lat="48.89631" lon="2.42379">
        <ele>106.5</ele>
        <time>2015-04-13T18:59:05.810Z</time>
      </trkpt>
      <trkpt lat="48.89631" lon="2.42383">
        <ele>106.6</ele>
        <time>2015-04-13T18:59:06.845Z</time>
      </trkpt>
      <trkpt lat="48.89633" lon="2.42394">
        <ele>105.4</ele>
        <time>2015-04-13T18:59:08.832Z</time>
      </trkpt>
      <trkpt lat="48.89634" lon="2.42397">
        <ele>105.3</ele>
        <time>2015-04-13T18:59:09.837Z</time>
      </trkpt>
      <trkpt lat="48.89635" lon="2.42407">
        <ele>105.5</ele>
        <time>2015-04-13T18:59:12.888Z</time>
      </trkpt>
      <trkpt lat="48.89635" lon="2.42411">
        <ele>105.5</ele>
        <time>2015-04-13T18:59:13.806Z</time>
      </trkpt>
      <trkpt lat="48.89636" lon="2.42421">
        <ele>104.6</ele>
        <time>2015-04-13T18:59:15.817Z</time>
      </trkpt>
      <trkpt lat="48.89637" lon="2.42425">
        <ele>104.1</ele>
        <time>2015-04-13T18:59:16.833Z</time>
      </trkpt>
      <trkpt lat="48.8964" lon="2.42434">
        <ele>103.8</ele>
        <time>2015-04-13T18:59:19.578Z</time>
      </trkpt>
      <trkpt lat="48.89641" lon="2.42438">
        <ele>103.9</ele>
        <time>2015-04-13T18:59:19.861Z</time>
      </trkpt>
      <trkpt lat="48.89644" lon="2.42447">
        <ele>104.4</ele>
        <time>2015-04-13T18:59:21.760Z</time>
      </trkpt>
      <trkpt lat="48.89645" lon="2.42452">
        <ele>104.2</ele>
        <time>2015-04-13T18:59:22.799Z</time>
      </trkpt>
      <trkpt lat="48.89647" lon="2.42462">
        <ele>104.5</ele>
        <time>2015-04-13T18:59:24.815Z</time>
      </trkpt>
      <trkpt lat="48.89648" lon="2.42468">
        <ele>104.5</ele>
        <time>2015-04-13T18:59:25.855Z</time>
      </trkpt>
      <trkpt lat="48.89649" lon="2.42479">
        <ele>104.9</ele>
        <time>2015-04-13T18:59:27.786Z</time>
      </trkpt>
      <trkpt lat="48.89649" lon="2.42485">
        <ele>104.9</ele>
        <time>2015-04-13T18:59:28.799Z</time>
      </trkpt>
      <trkpt lat="48.8965" lon="2.42495">
        <ele>105.2</ele>
        <time>2015-04-13T18:59:30.833Z</time>
      </trkpt>
      <trkpt lat="48.89651" lon="2.42501">
        <ele>105</ele>
        <time>2015-04-13T18:59:31.850Z</time>
      </trkpt>
      <trkpt lat="48.89651" lon="2.4251">
        <ele>104.7</ele>
        <time>2015-04-13T18:59:33.791Z</time>
      </trkpt>
      <trkpt lat="48.89652" lon="2.42515">
        <ele>104.6</ele>
        <time>2015-04-13T18:59:34.784Z</time>
      </trkpt>
      <trkpt lat="48.89653" lon="2.42527">
        <ele>104.6</ele>
        <time>2015-04-13T18:59:37.834Z</time>
      </trkpt>
      <trkpt lat="48.89653" lon="2.42532">
        <ele>104.7</ele>
        <time>2015-04-13T18:59:38.852Z</time>
      </trkpt>
      <trkpt lat="48.89655" lon="2.42544">
        <ele>105</ele>
        <time>2015-04-13T18:59:41.844Z</time>
      </trkpt>
      <trkpt lat="48.89656" lon="2.42548">
        <ele>104.8</ele>
        <time>2015-04-13T18:59:42.854Z</time>
      </trkpt>
      <trkpt lat="48.89654" lon="2.4256">
        <ele>103.2</ele>
        <time>2015-04-13T19:00:05.341Z</time>
      </trkpt>
      <trkpt lat="48.89654" lon="2.42563">
        <ele>103.2</ele>
        <time>2015-04-13T19:00:05.812Z</time>
      </trkpt>
      <trkpt lat="48.89655" lon="2.42575">
        <ele>103.7</ele>
        <time>2015-04-13T19:00:08.848Z</time>
      </trkpt>
      <trkpt lat="48.89655" lon="2.4258">
        <ele>103.9</ele>
        <time>2015-04-13T19:00:09.769Z</time>
      </trkpt>
      <trkpt lat="48.89655" lon="2.4259">
        <ele>104.1</ele>
        <time>2015-04-13T19:00:11.800Z</time>
      </trkpt>
      <trkpt lat="48.89655" lon="2.42595">
        <ele>104.1</ele>
        <time>2015-04-13T19:00:12.791Z</time>
      </trkpt>
      <trkpt lat="48.89656" lon="2.42607">
        <ele>104.3</ele>
        <time>2015-04-13T19:00:14.851Z</time>
      </trkpt>
      <trkpt lat="48.89656" lon="2.42612">
        <ele>104.6</ele>
        <time>2015-04-13T19:00:15.759Z</time>
      </trkpt>
      <trkpt lat="48.89658" lon="2.42623">
        <ele>105</ele>
        <time>2015-04-13T19:00:17.772Z</time>
      </trkpt>
      <trkpt lat="48.89659" lon="2.42629">
        <ele>105.1</ele>
        <time>2015-04-13T19:00:18.892Z</time>
      </trkpt>
      <trkpt lat="48.8966" lon="2.4264">
        <ele>105.4</ele>
        <time>2015-04-13T19:00:20.775Z</time>
      </trkpt>
      <trkpt lat="48.89661" lon="2.42647">
        <ele>105.5</ele>
        <time>2015-04-13T19:00:21.795Z</time>
      </trkpt>
      <trkpt lat="48.89662" lon="2.42658">
        <ele>105.3</ele>
        <time>2015-04-13T19:00:24.656Z</time>
      </trkpt>
      <trkpt lat="48.89663" lon="2.42665">
        <ele>104.8</ele>
        <time>2015-04-13T19:00:24.847Z</time>
      </trkpt>
      <trkpt lat="48.89664" lon="2.42677">
        <ele>105</ele>
        <time>2015-04-13T19:00:26.820Z</time>
      </trkpt>
      <trkpt lat="48.89664" lon="2.42682">
        <ele>105.1</ele>
        <time>2015-04-13T19:00:27.778Z</time>
      </trkpt>
      <trkpt lat="48.89667" lon="2.42694">
        <ele>105.2</ele>
        <time>2015-04-13T19:00:29.814Z</time>
      </trkpt>
      <trkpt lat="48.89668" lon="2.42701">
        <ele>105.3</ele>
        <time>2015-04-13T19:00:30.812Z</time>
      </trkpt>
      <trkpt lat="48.8967" lon="2.42713">
        <ele>104.8</ele>
        <time>2015-04-13T19:00:32.840Z</time>
      </trkpt>
      <trkpt lat="48.89671" lon="2.42719">
        <ele>104.4</ele>
        <time>2015-04-13T19:00:33.773Z</time>
      </trkpt>
      <trkpt lat="48.89674" lon="2.42728">
        <ele>104</ele>
        <time>2015-04-13T19:00:35.830Z</time>
      </trkpt>
      <trkpt lat="48.89675" lon="2.42733">
        <ele>103.8</ele>
        <time>2015-04-13T19:00:36.860Z</time>
      </trkpt>
      <trkpt lat="48.89678" lon="2.42742">
        <ele>103.5</ele>
        <time>2015-04-13T19:00:38.765Z</time>
      </trkpt>
      <trkpt lat="48.89679" lon="2.42747">
        <ele>103.5</ele>
        <time>2015-04-13T19:00:39.783Z</time>
      </trkpt>
      <trkpt lat="48.89681" lon="2.42757">
        <ele>103.7</ele>
        <time>2015-04-13T19:00:41.808Z</time>
      </trkpt>
      <trkpt lat="48.89681" lon="2.42763">
        <ele>103.8</ele>
        <time>2015-04-13T19:00:42.825Z</time>
      </trkpt>
      <trkpt lat="48.89683" lon="2.42776">
        <ele>103.2</ele>
        <time>2015-04-13T19:00:45.052Z</time>
      </trkpt>
      <trkpt lat="48.89684" lon="2.42782">
        <ele>103.3</ele>
        <time>2015-04-13T19:00:45.883Z</time>
      </trkpt>
      <trkpt lat="48.89684" lon="2.42795">
        <ele>103.2</ele>
        <time>2015-04-13T19:00:47.775Z</time>
      </trkpt>
      <trkpt lat="48.89685" lon="2.428">
        <ele>103.1</ele>
        <time>2015-04-13T19:00:48.806Z</time>
      </trkpt>
      <trkpt lat="48.89686" lon="2.4281">
        <ele>103.1</ele>
        <time>2015-04-13T19:00:50.791Z</time>
      </trkpt>
      <trkpt lat="48.89687" lon="2.42815">
        <ele>103.3</ele>
        <time>2015-04-13T19:00:51.802Z</time>
      </trkpt>
      <trkpt lat="48.89689" lon="2.42826">
        <ele>103.9</ele>
        <time>2015-04-13T19:00:53.822Z</time>
      </trkpt>
      <trkpt lat="48.89689" lon="2.42833">
        <ele>104.1</ele>
        <time>2015-04-13T19:00:54.823Z</time>
      </trkpt>
      <trkpt lat="48.89691" lon="2.42844">
        <ele>103.9</ele>
        <time>2015-04-13T19:00:56.796Z</time>
      </trkpt>
      <trkpt lat="48.89692" lon="2.42849">
        <ele>103.8</ele>
        <time>2015-04-13T19:00:57.788Z</time>
      </trkpt>
      <trkpt lat="48.89694" lon="2.4286">
        <ele>103.3</ele>
        <time>2015-04-13T19:01:00.276Z</time>
      </trkpt>
      <trkpt lat="48.89695" lon="2.42866">
        <ele>103.2</ele>
        <time>2015-04-13T19:01:00.819Z</time>
      </trkpt>
      <trkpt lat="48.89697" lon="2.42878">
        <ele>102.7</ele>
        <time>2015-04-13T19:01:02.845Z</time>
      </trkpt>
      <trkpt lat="48.89698" lon="2.42884">
        <ele>102.6</ele>
        <time>2015-04-13T19:01:03.842Z</time>
      </trkpt>
      <trkpt lat="48.897" lon="2.42896">
        <ele>102.1</ele>
        <time>2015-04-13T19:01:05.804Z</time>
      </trkpt>
      <trkpt lat="48.89702" lon="2.42903">
        <ele>102.1</ele>
        <time>2015-04-13T19:01:06.834Z</time>
      </trkpt>
      <trkpt lat="48.89705" lon="2.42915">
        <ele>102.4</ele>
        <time>2015-04-13T19:01:08.768Z</time>
      </trkpt>
      <trkpt lat="48.89706" lon="2.42922">
        <ele>102.1</ele>
        <time>2015-04-13T19:01:09.894Z</time>
      </trkpt>
      <trkpt lat="48.89708" lon="2.42935">
        <ele>101.7</ele>
        <time>2015-04-13T19:01:11.766Z</time>
      </trkpt>
      <trkpt lat="48.8971" lon="2.42942">
        <ele>101.5</ele>
        <time>2015-04-13T19:01:12.831Z</time>
      </trkpt>
      <trkpt lat="48.89711" lon="2.42948">
        <ele>101.5</ele>
        <time>2015-04-13T19:01:14.533Z</time>
      </trkpt>
      <trkpt lat="48.89712" lon="2.42955">
        <ele>101.4</ele>
        <time>2015-04-13T19:01:14.861Z</time>
      </trkpt>
      <trkpt lat="48.89714" lon="2.42962">
        <ele>101.4</ele>
        <time>2015-04-13T19:01:15.781Z</time>
      </trkpt>
      <trkpt lat="48.89715" lon="2.42968">
        <ele>101.2</ele>
        <time>2015-04-13T19:01:16.808Z</time>
      </trkpt>
      <trkpt lat="48.89717" lon="2.42975">
        <ele>101.3</ele>
        <time>2015-04-13T19:01:17.822Z</time>
      </trkpt>
      <trkpt lat="48.89719" lon="2.42982">
        <ele>101.4</ele>
        <time>2015-04-13T19:01:18.843Z</time>
      </trkpt>
      <trkpt lat="48.8972" lon="2.42989">
        <ele>101.4</ele>
        <time>2015-04-13T19:01:19.857Z</time>
      </trkpt>
      <trkpt lat="48.89721" lon="2.42995">
        <ele>101.6</ele>
        <time>2015-04-13T19:01:20.861Z</time>
      </trkpt>
      <trkpt lat="48.89723" lon="2.43002">
        <ele>101.6</ele>
        <time>2015-04-13T19:01:21.785Z</time>
      </trkpt>
      <trkpt lat="48.89724" lon="2.43009">
        <ele>102.1</ele>
        <time>2015-04-13T19:01:22.897Z</time>
      </trkpt>
      <trkpt lat="48.89726" lon="2.43016">
        <ele>102.5</ele>
        <time>2015-04-13T19:01:23.791Z</time>
      </trkpt>
      <trkpt lat="48.89728" lon="2.43023">
        <ele>102.6</ele>
        <time>2015-04-13T19:01:24.827Z</time>
      </trkpt>
      <trkpt lat="48.89729" lon="2.4303">
        <ele>102.5</ele>
        <time>2015-04-13T19:01:25.842Z</time>
      </trkpt>
      <trkpt lat="48.89731" lon="2.43037">
        <ele>102.5</ele>
        <time>2015-04-13T19:01:26.858Z</time>
      </trkpt>
      <trkpt lat="48.89733" lon="2.43044">
        <ele>102.6</ele>
        <time>2015-04-13T19:01:27.867Z</time>
      </trkpt>
      <trkpt lat="48.89735" lon="2.43051">
        <ele>102.8</ele>
        <time>2015-04-13T19:01:28.883Z</time>
      </trkpt>
      <trkpt lat="48.89736" lon="2.43059">
        <ele>103.1</ele>
        <time>2015-04-13T19:01:29.797Z</time>
      </trkpt>
      <trkpt lat="48.89737" lon="2.43066">
        <ele>103.2</ele>
        <time>2015-04-13T19:01:30.814Z</time>
      </trkpt>
      <trkpt lat="48.89738" lon="2.43073">
        <ele>103.2</ele>
        <time>2015-04-13T19:01:31.871Z</time>
      </trkpt>
      <trkpt lat="48.89739" lon="2.4308">
        <ele>103.2</ele>
        <time>2015-04-13T19:01:32.771Z</time>
      </trkpt>
      <trkpt lat="48.89741" lon="2.43087">
        <ele>102.9</ele>
        <time>2015-04-13T19:01:33.790Z</time>
      </trkpt>
      <trkpt lat="48.89742" lon="2.43093">
        <ele>103.1</ele>
        <time>2015-04-13T19:01:34.788Z</time>
      </trkpt>
      <trkpt lat="48.89744" lon="2.431">
        <ele>103.3</ele>
        <time>2015-04-13T19:01:35.795Z</time>
      </trkpt>
      <trkpt lat="48.89745" lon="2.43107">
        <ele>103.3</ele>
        <time>2015-04-13T19:01:36.842Z</time>
      </trkpt>
      <trkpt lat="48.89747" lon="2.43113">
        <ele>103.2</ele>
        <time>2015-04-13T19:01:37.848Z</time>
      </trkpt>
      <trkpt lat="48.89748" lon="2.4312">
        <ele>103.2</ele>
        <time>2015-04-13T19:01:38.911Z</time>
      </trkpt>
      <trkpt lat="48.89749" lon="2.43127">
        <ele>103</ele>
        <time>2015-04-13T19:01:39.777Z</time>
      </trkpt>
      <trkpt lat="48.8975" lon="2.43133">
        <ele>103</ele>
        <time>2015-04-13T19:01:40.781Z</time>
      </trkpt>
      <trkpt lat="48.89751" lon="2.43141">
        <ele>103</ele>
        <time>2015-04-13T19:01:41.802Z</time>
      </trkpt>
      <trkpt lat="48.89752" lon="2.43148">
        <ele>103.2</ele>
        <time>2015-04-13T19:01:42.804Z</time>
      </trkpt>
      <trkpt lat="48.89754" lon="2.43156">
        <ele>103.1</ele>
        <time>2015-04-13T19:01:43.823Z</time>
      </trkpt>
      <trkpt lat="48.89755" lon="2.43163">
        <ele>103.2</ele>
        <time>2015-04-13T19:01:44.840Z</time>
      </trkpt>
      <trkpt lat="48.89757" lon="2.4317">
        <ele>103.1</ele>
        <time>2015-04-13T19:01:45.850Z</time>
      </trkpt>
      <trkpt lat="48.89758" lon="2.43177">
        <ele>103.1</ele>
        <time>2015-04-13T19:01:46.860Z</time>
      </trkpt>
      <trkpt lat="48.8976" lon="2.43184">
        <ele>103.3</ele>
        <time>2015-04-13T19:01:47.878Z</time>
      </trkpt>
      <trkpt lat="48.89761" lon="2.43192">
        <ele>103.3</ele>
        <time>2015-04-13T19:01:48.881Z</time>
      </trkpt>
      <trkpt lat="48.89762" lon="2.43199">
        <ele>103.2</ele>
        <time>2015-04-13T19:01:49.899Z</time>
      </trkpt>
      <trkpt lat="48.89764" lon="2.43206">
        <ele>103.3</ele>
        <time>2015-04-13T19:01:50.779Z</time>
      </trkpt>
      <trkpt lat="48.89765" lon="2.43213">
        <ele>103.4</ele>
        <time>2015-04-13T19:01:51.780Z</time>
      </trkpt>
      <trkpt lat="48.89767" lon="2.43221">
        <ele>103.5</ele>
        <time>2015-04-13T19:01:52.800Z</time>
      </trkpt>
      <trkpt lat="48.89768" lon="2.43228">
        <ele>103.6</ele>
        <time>2015-04-13T19:01:53.815Z</time>
      </trkpt>
      <trkpt lat="48.8977" lon="2.43236">
        <ele>103.6</ele>
        <time>2015-04-13T19:01:54.816Z</time>
      </trkpt>
      <trkpt lat="48.89771" lon="2.43243">
        <ele>103.5</ele>
        <time>2015-04-13T19:01:55.838Z</time>
      </trkpt>
      <trkpt lat="48.89773" lon="2.4325">
        <ele>103.3</ele>
        <time>2015-04-13T19:01:56.842Z</time>
      </trkpt>
      <trkpt lat="48.89775" lon="2.43257">
        <ele>103.2</ele>
        <time>2015-04-13T19:01:57.852Z</time>
      </trkpt>
      <trkpt lat="48.89776" lon="2.43264">
        <ele>103.1</ele>
        <time>2015-04-13T19:01:58.857Z</time>
      </trkpt>
      <trkpt lat="48.89778" lon="2.43271">
        <ele>103.3</ele>
        <time>2015-04-13T19:01:59.892Z</time>
      </trkpt>
      <trkpt lat="48.89779" lon="2.43279">
        <ele>103.2</ele>
        <time>2015-04-13T19:02:00.809Z</time>
      </trkpt>
      <trkpt lat="48.89781" lon="2.43286">
        <ele>103</ele>
        <time>2015-04-13T19:02:01.826Z</time>
      </trkpt>
      <trkpt lat="48.89783" lon="2.43293">
        <ele>103.1</ele>
        <time>2015-04-13T19:02:02.785Z</time>
      </trkpt>
      <trkpt lat="48.89785" lon="2.433">
        <ele>103</ele>
        <time>2015-04-13T19:02:03.789Z</time>
      </trkpt>
      <trkpt lat="48.89786" lon="2.43307">
        <ele>103</ele>
        <time>2015-04-13T19:02:04.799Z</time>
      </trkpt>
      <trkpt lat="48.89787" lon="2.43315">
        <ele>103.1</ele>
        <time>2015-04-13T19:02:05.817Z</time>
      </trkpt>
      <trkpt lat="48.89789" lon="2.43322">
        <ele>103.2</ele>
        <time>2015-04-13T19:02:06.822Z</time>
      </trkpt>
      <trkpt lat="48.8979" lon="2.4333">
        <ele>103.4</ele>
        <time>2015-04-13T19:02:07.829Z</time>
      </trkpt>
      <trkpt lat="48.89792" lon="2.43337">
        <ele>103.6</ele>
        <time>2015-04-13T19:02:08.840Z</time>
      </trkpt>
      <trkpt lat="48.89794" lon="2.43345">
        <ele>103.7</ele>
        <time>2015-04-13T19:02:09.836Z</time>
      </trkpt>
      <trkpt lat="48.89795" lon="2.43352">
        <ele>103.6</ele>
        <time>2015-04-13T19:02:10.842Z</time>
      </trkpt>
      <trkpt lat="48.89797" lon="2.43359">
        <ele>103.7</ele>
        <time>2015-04-13T19:02:11.856Z</time>
      </trkpt>
      <trkpt lat="48.89798" lon="2.43367">
        <ele>103.6</ele>
        <time>2015-04-13T19:02:12.854Z</time>
      </trkpt>
      <trkpt lat="48.898" lon="2.43374">
        <ele>103.7</ele>
        <time>2015-04-13T19:02:13.862Z</time>
      </trkpt>
      <trkpt lat="48.89801" lon="2.43382">
        <ele>103.8</ele>
        <time>2015-04-13T19:02:14.878Z</time>
      </trkpt>
      <trkpt lat="48.89803" lon="2.43389">
        <ele>104</ele>
        <time>2015-04-13T19:02:15.764Z</time>
      </trkpt>
      <trkpt lat="48.89804" lon="2.43397">
        <ele>104.1</ele>
        <time>2015-04-13T19:02:16.788Z</time>
      </trkpt>
      <trkpt lat="48.89806" lon="2.43404">
        <ele>104.4</ele>
        <time>2015-04-13T19:02:17.816Z</time>
      </trkpt>
      <trkpt lat="48.89807" lon="2.43411">
        <ele>104.4</ele>
        <time>2015-04-13T19:02:18.803Z</time>
      </trkpt>
      <trkpt lat="48.89809" lon="2.43418">
        <ele>104.5</ele>
        <time>2015-04-13T19:02:19.818Z</time>
      </trkpt>
      <trkpt lat="48.8981" lon="2.43425">
        <ele>104.5</ele>
        <time>2015-04-13T19:02:20.830Z</time>
      </trkpt>
      <trkpt lat="48.8981" lon="2.43432">
        <ele>104.8</ele>
        <time>2015-04-13T19:02:21.832Z</time>
      </trkpt>
      <trkpt lat="48.8981" lon="2.43439">
        <ele>104.9</ele>
        <time>2015-04-13T19:02:22.849Z</time>
      </trkpt>
      <trkpt lat="48.8981" lon="2.43446">
        <ele>104.8</ele>
        <time>2015-04-13T19:02:23.871Z</time>
      </trkpt>
      <trkpt lat="48.8981" lon="2.43453">
        <ele>104.9</ele>
        <time>2015-04-13T19:02:24.868Z</time>
      </trkpt>
      <trkpt lat="48.89811" lon="2.43461">
        <ele>105.1</ele>
        <time>2015-04-13T19:02:25.873Z</time>
      </trkpt>
      <trkpt lat="48.89811" lon="2.43467">
        <ele>105.2</ele>
        <time>2015-04-13T19:02:26.807Z</time>
      </trkpt>
      <trkpt lat="48.8981" lon="2.43479">
        <ele>105.5</ele>
        <time>2015-04-13T19:02:28.784Z</time>
      </trkpt>
      <trkpt lat="48.89808" lon="2.43484">
        <ele>105.5</ele>
        <time>2015-04-13T19:02:29.832Z</time>
      </trkpt>
      <trkpt lat="48.89807" lon="2.4349">
        <ele>105.5</ele>
        <time>2015-04-13T19:02:30.840Z</time>
      </trkpt>
      <trkpt lat="48.89806" lon="2.43499">
        <ele>105.4</ele>
        <time>2015-04-13T19:02:32.855Z</time>
      </trkpt>
      <trkpt lat="48.89806" lon="2.43503">
        <ele>105.4</ele>
        <time>2015-04-13T19:02:34.836Z</time>
      </trkpt>
      <trkpt lat="48.89833" lon="2.43614">
        <ele>103.4</ele>
        <time>2015-04-13T19:02:48.857Z</time>
      </trkpt>
      <trkpt lat="48.89837" lon="2.4362">
        <ele>102.5</ele>
        <time>2015-04-13T19:02:49.768Z</time>
      </trkpt>
      <trkpt lat="48.8984" lon="2.43628">
        <ele>103.1</ele>
        <time>2015-04-13T19:02:50.758Z</time>
      </trkpt>
      <trkpt lat="48.89842" lon="2.43635">
        <ele>103.2</ele>
        <time>2015-04-13T19:02:51.775Z</time>
      </trkpt>
      <trkpt lat="48.89843" lon="2.43642">
        <ele>104</ele>
        <time>2015-04-13T19:02:52.829Z</time>
      </trkpt>
      <trkpt lat="48.89843" lon="2.43655">
        <ele>104.4</ele>
        <time>2015-04-13T19:02:54.645Z</time>
      </trkpt>
      <trkpt lat="48.89844" lon="2.43662">
        <ele>104.3</ele>
        <time>2015-04-13T19:02:55.757Z</time>
      </trkpt>
      <trkpt lat="48.89845" lon="2.43668">
        <ele>103</ele>
        <time>2015-04-13T19:02:57.100Z</time>
      </trkpt>
      <trkpt lat="48.89847" lon="2.43675">
        <ele>102.1</ele>
        <time>2015-04-13T19:02:57.791Z</time>
      </trkpt>
      <trkpt lat="48.8985" lon="2.43681">
        <ele>100</ele>
        <time>2015-04-13T19:02:58.806Z</time>
      </trkpt>
      <trkpt lat="48.89853" lon="2.43688">
        <ele>99.1</ele>
        <time>2015-04-13T19:02:59.841Z</time>
      </trkpt>
      <trkpt lat="48.89856" lon="2.43695">
        <ele>99.8</ele>
        <time>2015-04-13T19:03:00.793Z</time>
      </trkpt>
      <trkpt lat="48.89858" lon="2.43703">
        <ele>100.7</ele>
        <time>2015-04-13T19:03:01.811Z</time>
      </trkpt>
      <trkpt lat="48.8986" lon="2.4371">
        <ele>100.4</ele>
        <time>2015-04-13T19:03:02.821Z</time>
      </trkpt>
      <trkpt lat="48.89861" lon="2.43717">
        <ele>99.9</ele>
        <time>2015-04-13T19:03:03.832Z</time>
      </trkpt>
      <trkpt lat="48.89862" lon="2.43723">
        <ele>98.9</ele>
        <time>2015-04-13T19:03:04.841Z</time>
      </trkpt>
      <trkpt lat="48.89864" lon="2.4373">
        <ele>99.3</ele>
        <time>2015-04-13T19:03:05.849Z</time>
      </trkpt>
      <trkpt lat="48.89866" lon="2.43737">
        <ele>99.1</ele>
        <time>2015-04-13T19:03:06.859Z</time>
      </trkpt>
      <trkpt lat="48.89867" lon="2.43744">
        <ele>99.2</ele>
        <time>2015-04-13T19:03:07.886Z</time>
      </trkpt>
      <trkpt lat="48.8987" lon="2.43757">
        <ele>97.8</ele>
        <time>2015-04-13T19:03:09.831Z</time>
      </trkpt>
      <trkpt lat="48.89871" lon="2.43764">
        <ele>98</ele>
        <time>2015-04-13T19:03:10.856Z</time>
      </trkpt>
      <trkpt lat="48.89872" lon="2.43771">
        <ele>97.9</ele>
        <time>2015-04-13T19:03:11.820Z</time>
      </trkpt>
      <trkpt lat="48.89874" lon="2.43778">
        <ele>98</ele>
        <time>2015-04-13T19:03:12.829Z</time>
      </trkpt>
      <trkpt lat="48.89875" lon="2.43786">
        <ele>98.1</ele>
        <time>2015-04-13T19:03:13.832Z</time>
      </trkpt>
      <trkpt lat="48.89877" lon="2.43793">
        <ele>97.6</ele>
        <time>2015-04-13T19:03:14.839Z</time>
      </trkpt>
      <trkpt lat="48.89879" lon="2.438">
        <ele>97.6</ele>
        <time>2015-04-13T19:03:15.862Z</time>
      </trkpt>
      <trkpt lat="48.8988" lon="2.43807">
        <ele>97.8</ele>
        <time>2015-04-13T19:03:16.824Z</time>
      </trkpt>
      <trkpt lat="48.89882" lon="2.43814">
        <ele>98</ele>
        <time>2015-04-13T19:03:17.823Z</time>
      </trkpt>
      <trkpt lat="48.89883" lon="2.43822">
        <ele>97.7</ele>
        <time>2015-04-13T19:03:18.832Z</time>
      </trkpt>
      <trkpt lat="48.89884" lon="2.43829">
        <ele>98.2</ele>
        <time>2015-04-13T19:03:19.841Z</time>
      </trkpt>
      <trkpt lat="48.89886" lon="2.43837">
        <ele>98.6</ele>
        <time>2015-04-13T19:03:20.856Z</time>
      </trkpt>
      <trkpt lat="48.89887" lon="2.43845">
        <ele>99.1</ele>
        <time>2015-04-13T19:03:21.867Z</time>
      </trkpt>
      <trkpt lat="48.89888" lon="2.43852">
        <ele>99.1</ele>
        <time>2015-04-13T19:03:22.881Z</time>
      </trkpt>
      <trkpt lat="48.89889" lon="2.4386">
        <ele>99.1</ele>
        <time>2015-04-13T19:03:23.816Z</time>
      </trkpt>
      <trkpt lat="48.89891" lon="2.43867">
        <ele>98.8</ele>
        <time>2015-04-13T19:03:24.829Z</time>
      </trkpt>
      <trkpt lat="48.89893" lon="2.43875">
        <ele>99.1</ele>
        <time>2015-04-13T19:03:25.855Z</time>
      </trkpt>
      <trkpt lat="48.89894" lon="2.43882">
        <ele>99</ele>
        <time>2015-04-13T19:03:26.943Z</time>
      </trkpt>
      <trkpt lat="48.89895" lon="2.4389">
        <ele>98.9</ele>
        <time>2015-04-13T19:03:27.830Z</time>
      </trkpt>
      <trkpt lat="48.89897" lon="2.43897">
        <ele>99</ele>
        <time>2015-04-13T19:03:28.840Z</time>
      </trkpt>
      <trkpt lat="48.89899" lon="2.43905">
        <ele>99.1</ele>
        <time>2015-04-13T19:03:29.892Z</time>
      </trkpt>
      <trkpt lat="48.899" lon="2.43913">
        <ele>99.1</ele>
        <time>2015-04-13T19:03:30.898Z</time>
      </trkpt>
      <trkpt lat="48.89902" lon="2.4392">
        <ele>99.4</ele>
        <time>2015-04-13T19:03:31.915Z</time>
      </trkpt>
      <trkpt lat="48.89903" lon="2.43928">
        <ele>99.5</ele>
        <time>2015-04-13T19:03:32.777Z</time>
      </trkpt>
      <trkpt lat="48.89905" lon="2.43936">
        <ele>100.3</ele>
        <time>2015-04-13T19:03:33.795Z</time>
      </trkpt>
      <trkpt lat="48.89906" lon="2.43944">
        <ele>100.4</ele>
        <time>2015-04-13T19:03:34.780Z</time>
      </trkpt>
      <trkpt lat="48.89907" lon="2.43951">
        <ele>100.6</ele>
        <time>2015-04-13T19:03:35.814Z</time>
      </trkpt>
      <trkpt lat="48.89909" lon="2.43959">
        <ele>100.7</ele>
        <time>2015-04-13T19:03:36.826Z</time>
      </trkpt>
      <trkpt lat="48.89911" lon="2.43966">
        <ele>100.7</ele>
        <time>2015-04-13T19:03:37.840Z</time>
      </trkpt>
      <trkpt lat="48.89912" lon="2.43974">
        <ele>100.5</ele>
        <time>2015-04-13T19:03:38.840Z</time>
      </trkpt>
      <trkpt lat="48.89914" lon="2.43981">
        <ele>100.2</ele>
        <time>2015-04-13T19:03:39.846Z</time>
      </trkpt>
      <trkpt lat="48.89915" lon="2.43988">
        <ele>100.2</ele>
        <time>2015-04-13T19:03:40.850Z</time>
      </trkpt>
      <trkpt lat="48.89916" lon="2.43996">
        <ele>100.4</ele>
        <time>2015-04-13T19:03:41.880Z</time>
      </trkpt>
      <trkpt lat="48.89918" lon="2.44003">
        <ele>100.5</ele>
        <time>2015-04-13T19:03:42.890Z</time>
      </trkpt>
      <trkpt lat="48.89919" lon="2.44011">
        <ele>100.3</ele>
        <time>2015-04-13T19:03:43.897Z</time>
      </trkpt>
      <trkpt lat="48.89921" lon="2.44019">
        <ele>100.5</ele>
        <time>2015-04-13T19:03:44.854Z</time>
      </trkpt>
      <trkpt lat="48.89922" lon="2.44027">
        <ele>100.6</ele>
        <time>2015-04-13T19:03:45.806Z</time>
      </trkpt>
      <trkpt lat="48.89924" lon="2.44034">
        <ele>100.7</ele>
        <time>2015-04-13T19:03:46.837Z</time>
      </trkpt>
      <trkpt lat="48.89925" lon="2.44042">
        <ele>100.8</ele>
        <time>2015-04-13T19:03:47.837Z</time>
      </trkpt>
      <trkpt lat="48.89926" lon="2.44049">
        <ele>101</ele>
        <time>2015-04-13T19:03:48.853Z</time>
      </trkpt>
      <trkpt lat="48.89928" lon="2.44056">
        <ele>100.9</ele>
        <time>2015-04-13T19:03:49.868Z</time>
      </trkpt>
      <trkpt lat="48.89929" lon="2.44064">
        <ele>100.9</ele>
        <time>2015-04-13T19:03:50.781Z</time>
      </trkpt>
      <trkpt lat="48.89931" lon="2.44072">
        <ele>100.9</ele>
        <time>2015-04-13T19:03:51.790Z</time>
      </trkpt>
      <trkpt lat="48.89932" lon="2.44079">
        <ele>100.7</ele>
        <time>2015-04-13T19:03:52.793Z</time>
      </trkpt>
      <trkpt lat="48.89934" lon="2.44087">
        <ele>100.7</ele>
        <time>2015-04-13T19:03:53.806Z</time>
      </trkpt>
      <trkpt lat="48.89936" lon="2.44095">
        <ele>100.8</ele>
        <time>2015-04-13T19:03:54.823Z</time>
      </trkpt>
      <trkpt lat="48.89938" lon="2.44102">
        <ele>100.8</ele>
        <time>2015-04-13T19:03:55.850Z</time>
      </trkpt>
      <trkpt lat="48.89939" lon="2.4411">
        <ele>100.8</ele>
        <time>2015-04-13T19:03:56.868Z</time>
      </trkpt>
      <trkpt lat="48.8994" lon="2.44117">
        <ele>100.8</ele>
        <time>2015-04-13T19:03:57.782Z</time>
      </trkpt>
      <trkpt lat="48.89942" lon="2.44124">
        <ele>100.9</ele>
        <time>2015-04-13T19:03:58.784Z</time>
      </trkpt>
      <trkpt lat="48.89944" lon="2.44137">
        <ele>101.1</ele>
        <time>2015-04-13T19:04:00.826Z</time>
      </trkpt>
      <trkpt lat="48.89946" lon="2.44143">
        <ele>101.3</ele>
        <time>2015-04-13T19:04:01.866Z</time>
      </trkpt>
      <trkpt lat="48.89948" lon="2.44155">
        <ele>101.6</ele>
        <time>2015-04-13T19:04:03.776Z</time>
      </trkpt>
      <trkpt lat="48.89949" lon="2.44161">
        <ele>101.7</ele>
        <time>2015-04-13T19:04:04.740Z</time>
      </trkpt>
      <trkpt lat="48.8995" lon="2.44173">
        <ele>101.6</ele>
        <time>2015-04-13T19:04:06.770Z</time>
      </trkpt>
      <trkpt lat="48.89951" lon="2.44179">
        <ele>101.6</ele>
        <time>2015-04-13T19:04:07.813Z</time>
      </trkpt>
      <trkpt lat="48.89954" lon="2.44188">
        <ele>101.7</ele>
        <time>2015-04-13T19:04:09.735Z</time>
      </trkpt>
      <trkpt lat="48.89955" lon="2.44194">
        <ele>101.7</ele>
        <time>2015-04-13T19:04:10.751Z</time>
      </trkpt>
      <trkpt lat="48.89958" lon="2.44204">
        <ele>101.8</ele>
        <time>2015-04-13T19:04:12.872Z</time>
      </trkpt>
      <trkpt lat="48.89959" lon="2.44211">
        <ele>101.8</ele>
        <time>2015-04-13T19:04:13.890Z</time>
      </trkpt>
      <trkpt lat="48.89962" lon="2.44224">
        <ele>102.2</ele>
        <time>2015-04-13T19:04:15.786Z</time>
      </trkpt>
      <trkpt lat="48.89963" lon="2.44229">
        <ele>102.4</ele>
        <time>2015-04-13T19:04:16.796Z</time>
      </trkpt>
      <trkpt lat="48.89965" lon="2.4424">
        <ele>102.5</ele>
        <time>2015-04-13T19:04:18.843Z</time>
      </trkpt>
      <trkpt lat="48.89965" lon="2.44244">
        <ele>102.1</ele>
        <time>2015-04-13T19:04:19.860Z</time>
      </trkpt>
      <trkpt lat="48.89967" lon="2.44248">
        <ele>101.9</ele>
        <time>2015-04-13T19:04:23.836Z</time>
      </trkpt>
      <trkpt lat="48.89966" lon="2.44248">
        <ele>101.8</ele>
        <time>2015-04-13T19:04:24.894Z</time>
      </trkpt>
      <trkpt lat="48.89966" lon="2.44249">
        <ele>101.9</ele>
        <time>2015-04-13T19:04:36.888Z</time>
      </trkpt>
      <trkpt lat="48.89966" lon="2.44251">
        <ele>103.4</ele>
        <time>2015-04-13T19:04:37.796Z</time>
      </trkpt>
      <trkpt lat="48.89967" lon="2.4424">
        <ele>104</ele>
        <time>2015-04-13T19:04:40.833Z</time>
      </trkpt>
      <trkpt lat="48.89967" lon="2.44237">
        <ele>104.1</ele>
        <time>2015-04-13T19:04:41.784Z</time>
      </trkpt>
      <trkpt lat="48.89966" lon="2.44227">
        <ele>104.1</ele>
        <time>2015-04-13T19:04:43.790Z</time>
      </trkpt>
      <trkpt lat="48.89965" lon="2.44222">
        <ele>104.1</ele>
        <time>2015-04-13T19:04:44.804Z</time>
      </trkpt>
      <trkpt lat="48.89963" lon="2.44211">
        <ele>104.1</ele>
        <time>2015-04-13T19:04:46.838Z</time>
      </trkpt>
      <trkpt lat="48.89963" lon="2.44206">
        <ele>104.1</ele>
        <time>2015-04-13T19:04:47.850Z</time>
      </trkpt>
      <trkpt lat="48.89961" lon="2.44197">
        <ele>104.3</ele>
        <time>2015-04-13T19:04:49.802Z</time>
      </trkpt>
      <trkpt lat="48.89958" lon="2.44193">
        <ele>104.9</ele>
        <time>2015-04-13T19:04:50.824Z</time>
      </trkpt>
      <trkpt lat="48.89957" lon="2.44206">
        <ele>108.4</ele>
        <time>2015-04-13T19:06:00.804Z</time>
      </trkpt>
      <trkpt lat="48.89957" lon="2.44209">
        <ele>108.2</ele>
        <time>2015-04-13T19:06:01.810Z</time>
      </trkpt>
      <trkpt lat="48.8996" lon="2.44221">
        <ele>107.5</ele>
        <time>2015-04-13T19:06:05.846Z</time>
      </trkpt>
      <trkpt lat="48.89961" lon="2.44224">
        <ele>107.2</ele>
        <time>2015-04-13T19:06:06.865Z</time>
      </trkpt>
      <trkpt lat="48.89964" lon="2.44236">
        <ele>106.5</ele>
        <time>2015-04-13T19:06:10.791Z</time>
      </trkpt>
      <trkpt lat="48.89965" lon="2.44239">
        <ele>106.5</ele>
        <time>2015-04-13T19:06:11.790Z</time>
      </trkpt>
      <trkpt lat="48.89969" lon="2.4425">
        <ele>105.5</ele>
        <time>2015-04-13T19:06:43.885Z</time>
      </trkpt>
      <trkpt lat="48.89969" lon="2.44251">
        <ele>105.5</ele>
        <time>2015-04-13T19:06:44.795Z</time>
      </trkpt>
      <trkpt lat="48.89969" lon="2.44256">
        <ele>104.8</ele>
        <time>2015-04-13T19:06:49.899Z</time>
      </trkpt>
      <trkpt lat="48.89969" lon="2.44256">
        <ele>104.7</ele>
        <time>2015-04-13T19:06:50.816Z</time>
      </trkpt>
      <trkpt lat="48.89969" lon="2.44256">
        <ele>104.6</ele>
        <time>2015-04-13T19:06:55.897Z</time>
      </trkpt>
      <trkpt lat="48.8997" lon="2.44259">
        <ele>105.1</ele>
        <time>2015-04-13T19:06:56.783Z</time>
      </trkpt>
      <trkpt lat="48.89973" lon="2.4427">
        <ele>105.9</ele>
        <time>2015-04-13T19:07:02.775Z</time>
      </trkpt>
      <trkpt lat="48.89974" lon="2.44273">
        <ele>106</ele>
        <time>2015-04-13T19:07:03.773Z</time>
      </trkpt>
      <trkpt lat="48.89976" lon="2.44285">
        <ele>106.1</ele>
        <time>2015-04-13T19:07:06.838Z</time>
      </trkpt>
      <trkpt lat="48.89977" lon="2.4429">
        <ele>106.1</ele>
        <time>2015-04-13T19:07:07.854Z</time>
      </trkpt>
      <trkpt lat="48.89979" lon="2.44299">
        <ele>106</ele>
        <time>2015-04-13T19:07:09.875Z</time>
      </trkpt>
      <trkpt lat="48.8998" lon="2.44304">
        <ele>106</ele>
        <time>2015-04-13T19:07:10.781Z</time>
      </trkpt>
      <trkpt lat="48.89982" lon="2.44315">
        <ele>105.8</ele>
        <time>2015-04-13T19:07:12.826Z</time>
      </trkpt>
      <trkpt lat="48.89983" lon="2.44322">
        <ele>105.8</ele>
        <time>2015-04-13T19:07:13.836Z</time>
      </trkpt>
      <trkpt lat="48.89984" lon="2.44328">
        <ele>105.8</ele>
        <time>2015-04-13T19:07:14.866Z</time>
      </trkpt>
      <trkpt lat="48.89985" lon="2.44335">
        <ele>105.8</ele>
        <time>2015-04-13T19:07:15.772Z</time>
      </trkpt>
      <trkpt lat="48.89987" lon="2.44342">
        <ele>105.6</ele>
        <time>2015-04-13T19:07:16.810Z</time>
      </trkpt>
      <trkpt lat="48.89989" lon="2.44348">
        <ele>105.5</ele>
        <time>2015-04-13T19:07:17.781Z</time>
      </trkpt>
      <trkpt lat="48.89991" lon="2.44356">
        <ele>105.6</ele>
        <time>2015-04-13T19:07:18.806Z</time>
      </trkpt>
      <trkpt lat="48.89993" lon="2.44363">
        <ele>105.2</ele>
        <time>2015-04-13T19:07:19.827Z</time>
      </trkpt>
      <trkpt lat="48.89994" lon="2.4437">
        <ele>105</ele>
        <time>2015-04-13T19:07:20.839Z</time>
      </trkpt>
      <trkpt lat="48.89995" lon="2.44377">
        <ele>105</ele>
        <time>2015-04-13T19:07:21.852Z</time>
      </trkpt>
      <trkpt lat="48.89997" lon="2.44385">
        <ele>104.8</ele>
        <time>2015-04-13T19:07:22.863Z</time>
      </trkpt>
      <trkpt lat="48.89998" lon="2.44392">
        <ele>104.7</ele>
        <time>2015-04-13T19:07:23.862Z</time>
      </trkpt>
      <trkpt lat="48.9" lon="2.444">
        <ele>104.6</ele>
        <time>2015-04-13T19:07:24.889Z</time>
      </trkpt>
      <trkpt lat="48.90001" lon="2.44408">
        <ele>104.7</ele>
        <time>2015-04-13T19:07:25.796Z</time>
      </trkpt>
      <trkpt lat="48.90003" lon="2.44416">
        <ele>104.8</ele>
        <time>2015-04-13T19:07:26.802Z</time>
      </trkpt>
      <trkpt lat="48.90004" lon="2.44424">
        <ele>104.7</ele>
        <time>2015-04-13T19:07:27.805Z</time>
      </trkpt>
      <trkpt lat="48.90006" lon="2.44432">
        <ele>104.7</ele>
        <time>2015-04-13T19:07:28.820Z</time>
      </trkpt>
      <trkpt lat="48.90007" lon="2.4444">
        <ele>104.9</ele>
        <time>2015-04-13T19:07:29.837Z</time>
      </trkpt>
      <trkpt lat="48.90009" lon="2.44448">
        <ele>104.8</ele>
        <time>2015-04-13T19:07:30.846Z</time>
      </trkpt>
      <trkpt lat="48.9001" lon="2.44457">
        <ele>104.7</ele>
        <time>2015-04-13T19:07:31.874Z</time>
      </trkpt>
      <trkpt lat="48.90012" lon="2.44465">
        <ele>104.7</ele>
        <time>2015-04-13T19:07:32.777Z</time>
      </trkpt>
      <trkpt lat="48.90014" lon="2.44472">
        <ele>104.6</ele>
        <time>2015-04-13T19:07:33.779Z</time>
      </trkpt>
      <trkpt lat="48.90015" lon="2.4448">
        <ele>104.6</ele>
        <time>2015-04-13T19:07:34.786Z</time>
      </trkpt>
      <trkpt lat="48.90017" lon="2.44488">
        <ele>104.6</ele>
        <time>2015-04-13T19:07:35.801Z</time>
      </trkpt>
      <trkpt lat="48.90019" lon="2.44496">
        <ele>104.6</ele>
        <time>2015-04-13T19:07:36.810Z</time>
      </trkpt>
      <trkpt lat="48.9002" lon="2.44503">
        <ele>104.5</ele>
        <time>2015-04-13T19:07:37.824Z</time>
      </trkpt>
      <trkpt lat="48.90022" lon="2.44511">
        <ele>104.5</ele>
        <time>2015-04-13T19:07:38.856Z</time>
      </trkpt>
      <trkpt lat="48.90024" lon="2.44518">
        <ele>104.6</ele>
        <time>2015-04-13T19:07:39.860Z</time>
      </trkpt>
      <trkpt lat="48.90026" lon="2.44525">
        <ele>104.6</ele>
        <time>2015-04-13T19:07:40.772Z</time>
      </trkpt>
      <trkpt lat="48.90027" lon="2.44532">
        <ele>104.5</ele>
        <time>2015-04-13T19:07:41.779Z</time>
      </trkpt>
      <trkpt lat="48.90029" lon="2.44539">
        <ele>104.5</ele>
        <time>2015-04-13T19:07:42.806Z</time>
      </trkpt>
      <trkpt lat="48.90031" lon="2.44546">
        <ele>104.5</ele>
        <time>2015-04-13T19:07:43.825Z</time>
      </trkpt>
      <trkpt lat="48.90033" lon="2.44553">
        <ele>104.4</ele>
        <time>2015-04-13T19:07:44.844Z</time>
      </trkpt>
      <trkpt lat="48.90034" lon="2.4456">
        <ele>104.1</ele>
        <time>2015-04-13T19:07:45.860Z</time>
      </trkpt>
      <trkpt lat="48.90036" lon="2.44567">
        <ele>103.9</ele>
        <time>2015-04-13T19:07:46.777Z</time>
      </trkpt>
      <trkpt lat="48.90038" lon="2.44574">
        <ele>103.8</ele>
        <time>2015-04-13T19:07:47.777Z</time>
      </trkpt>
      <trkpt lat="48.9004" lon="2.4458">
        <ele>103.8</ele>
        <time>2015-04-13T19:07:48.810Z</time>
      </trkpt>
      <trkpt lat="48.90042" lon="2.44587">
        <ele>103.6</ele>
        <time>2015-04-13T19:07:49.802Z</time>
      </trkpt>
      <trkpt lat="48.90044" lon="2.44594">
        <ele>103.6</ele>
        <time>2015-04-13T19:07:50.813Z</time>
      </trkpt>
      <trkpt lat="48.90046" lon="2.44601">
        <ele>103.5</ele>
        <time>2015-04-13T19:07:51.836Z</time>
      </trkpt>
      <trkpt lat="48.90049" lon="2.44608">
        <ele>103.7</ele>
        <time>2015-04-13T19:07:52.845Z</time>
      </trkpt>
      <trkpt lat="48.90052" lon="2.44614">
        <ele>103.7</ele>
        <time>2015-04-13T19:07:53.874Z</time>
      </trkpt>
      <trkpt lat="48.90055" lon="2.44621">
        <ele>103.7</ele>
        <time>2015-04-13T19:07:54.902Z</time>
      </trkpt>
      <trkpt lat="48.90057" lon="2.44628">
        <ele>103.7</ele>
        <time>2015-04-13T19:07:55.840Z</time>
      </trkpt>
      <trkpt lat="48.90059" lon="2.44635">
        <ele>103.7</ele>
        <time>2015-04-13T19:07:56.861Z</time>
      </trkpt>
      <trkpt lat="48.90061" lon="2.44643">
        <ele>103.5</ele>
        <time>2015-04-13T19:07:57.874Z</time>
      </trkpt>
      <trkpt lat="48.90063" lon="2.44651">
        <ele>103.8</ele>
        <time>2015-04-13T19:07:58.774Z</time>
      </trkpt>
      <trkpt lat="48.90064" lon="2.44659">
        <ele>103.9</ele>
        <time>2015-04-13T19:07:59.780Z</time>
      </trkpt>
      <trkpt lat="48.90066" lon="2.44668">
        <ele>103.9</ele>
        <time>2015-04-13T19:08:00.789Z</time>
      </trkpt>
      <trkpt lat="48.90068" lon="2.44676">
        <ele>104.1</ele>
        <time>2015-04-13T19:08:01.853Z</time>
      </trkpt>
      <trkpt lat="48.9007" lon="2.44684">
        <ele>104.1</ele>
        <time>2015-04-13T19:08:02.889Z</time>
      </trkpt>
      <trkpt lat="48.90071" lon="2.44692">
        <ele>104.1</ele>
        <time>2015-04-13T19:08:03.766Z</time>
      </trkpt>
      <trkpt lat="48.90073" lon="2.44699">
        <ele>104</ele>
        <time>2015-04-13T19:08:04.781Z</time>
      </trkpt>
      <trkpt lat="48.90074" lon="2.44707">
        <ele>103.9</ele>
        <time>2015-04-13T19:08:05.786Z</time>
      </trkpt>
      <trkpt lat="48.90076" lon="2.44715">
        <ele>103.7</ele>
        <time>2015-04-13T19:08:06.795Z</time>
      </trkpt>
      <trkpt lat="48.90077" lon="2.44723">
        <ele>103.5</ele>
        <time>2015-04-13T19:08:07.815Z</time>
      </trkpt>
      <trkpt lat="48.90079" lon="2.44731">
        <ele>103.4</ele>
        <time>2015-04-13T19:08:08.826Z</time>
      </trkpt>
      <trkpt lat="48.9008" lon="2.44739">
        <ele>103.4</ele>
        <time>2015-04-13T19:08:09.827Z</time>
      </trkpt>
      <trkpt lat="48.90081" lon="2.44748">
        <ele>103.4</ele>
        <time>2015-04-13T19:08:10.850Z</time>
      </trkpt>
      <trkpt lat="48.90083" lon="2.44756">
        <ele>103.5</ele>
        <time>2015-04-13T19:08:11.863Z</time>
      </trkpt>
      <trkpt lat="48.90084" lon="2.44764">
        <ele>103.6</ele>
        <time>2015-04-13T19:08:12.879Z</time>
      </trkpt>
      <trkpt lat="48.90086" lon="2.44772">
        <ele>103.8</ele>
        <time>2015-04-13T19:08:13.885Z</time>
      </trkpt>
      <trkpt lat="48.90088" lon="2.4478">
        <ele>103.5</ele>
        <time>2015-04-13T19:08:14.804Z</time>
      </trkpt>
      <trkpt lat="48.90089" lon="2.44788">
        <ele>103.2</ele>
        <time>2015-04-13T19:08:15.814Z</time>
      </trkpt>
      <trkpt lat="48.9009" lon="2.44797">
        <ele>102.8</ele>
        <time>2015-04-13T19:08:16.814Z</time>
      </trkpt>
      <trkpt lat="48.90092" lon="2.44805">
        <ele>102.5</ele>
        <time>2015-04-13T19:08:17.822Z</time>
      </trkpt>
      <trkpt lat="48.90093" lon="2.44814">
        <ele>102</ele>
        <time>2015-04-13T19:08:18.832Z</time>
      </trkpt>
      <trkpt lat="48.90094" lon="2.44823">
        <ele>101.8</ele>
        <time>2015-04-13T19:08:19.852Z</time>
      </trkpt>
      <trkpt lat="48.90096" lon="2.44832">
        <ele>101.8</ele>
        <time>2015-04-13T19:08:20.813Z</time>
      </trkpt>
      <trkpt lat="48.90097" lon="2.44841">
        <ele>101.6</ele>
        <time>2015-04-13T19:08:21.773Z</time>
      </trkpt>
      <trkpt lat="48.90099" lon="2.4485">
        <ele>101.6</ele>
        <time>2015-04-13T19:08:22.781Z</time>
      </trkpt>
      <trkpt lat="48.90101" lon="2.44859">
        <ele>101.6</ele>
        <time>2015-04-13T19:08:23.793Z</time>
      </trkpt>
      <trkpt lat="48.90102" lon="2.44868">
        <ele>101.8</ele>
        <time>2015-04-13T19:08:24.803Z</time>
      </trkpt>
      <trkpt lat="48.90104" lon="2.44877">
        <ele>101.9</ele>
        <time>2015-04-13T19:08:25.809Z</time>
      </trkpt>
      <trkpt lat="48.90106" lon="2.44887">
        <ele>102.3</ele>
        <time>2015-04-13T19:08:26.820Z</time>
      </trkpt>
      <trkpt lat="48.90108" lon="2.44896">
        <ele>102.2</ele>
        <time>2015-04-13T19:08:27.831Z</time>
      </trkpt>
      <trkpt lat="48.90109" lon="2.44905">
        <ele>102.4</ele>
        <time>2015-04-13T19:08:28.843Z</time>
      </trkpt>
      <trkpt lat="48.9011" lon="2.44914">
        <ele>102.2</ele>
        <time>2015-04-13T19:08:29.859Z</time>
      </trkpt>
      <trkpt lat="48.90112" lon="2.44922">
        <ele>102.2</ele>
        <time>2015-04-13T19:08:30.869Z</time>
      </trkpt>
      <trkpt lat="48.90114" lon="2.44931">
        <ele>102.2</ele>
        <time>2015-04-13T19:08:31.887Z</time>
      </trkpt>
      <trkpt lat="48.90116" lon="2.4494">
        <ele>102</ele>
        <time>2015-04-13T19:08:32.766Z</time>
      </trkpt>
      <trkpt lat="48.90118" lon="2.44949">
        <ele>101.6</ele>
        <time>2015-04-13T19:08:33.771Z</time>
      </trkpt>
      <trkpt lat="48.9012" lon="2.44958">
        <ele>101.2</ele>
        <time>2015-04-13T19:08:34.790Z</time>
      </trkpt>
      <trkpt lat="48.90122" lon="2.44967">
        <ele>100.9</ele>
        <time>2015-04-13T19:08:35.799Z</time>
      </trkpt>
      <trkpt lat="48.90124" lon="2.44976">
        <ele>100.8</ele>
        <time>2015-04-13T19:08:36.835Z</time>
      </trkpt>
      <trkpt lat="48.90127" lon="2.44986">
        <ele>100.2</ele>
        <time>2015-04-13T19:08:37.842Z</time>
      </trkpt>
      <trkpt lat="48.90129" lon="2.44995">
        <ele>99.8</ele>
        <time>2015-04-13T19:08:38.768Z</time>
      </trkpt>
      <trkpt lat="48.90132" lon="2.45004">
        <ele>99.7</ele>
        <time>2015-04-13T19:08:39.771Z</time>
      </trkpt>
      <trkpt lat="48.90135" lon="2.45014">
        <ele>99.3</ele>
        <time>2015-04-13T19:08:40.784Z</time>
      </trkpt>
      <trkpt lat="48.90137" lon="2.45024">
        <ele>99.2</ele>
        <time>2015-04-13T19:08:41.793Z</time>
      </trkpt>
      <trkpt lat="48.9014" lon="2.45034">
        <ele>99.2</ele>
        <time>2015-04-13T19:08:42.829Z</time>
      </trkpt>
      <trkpt lat="48.90141" lon="2.45044">
        <ele>98.9</ele>
        <time>2015-04-13T19:08:43.825Z</time>
      </trkpt>
      <trkpt lat="48.90142" lon="2.45054">
        <ele>98.7</ele>
        <time>2015-04-13T19:08:44.842Z</time>
      </trkpt>
      <trkpt lat="48.90144" lon="2.45064">
        <ele>98.3</ele>
        <time>2015-04-13T19:08:45.850Z</time>
      </trkpt>
      <trkpt lat="48.90146" lon="2.45075">
        <ele>98</ele>
        <time>2015-04-13T19:08:46.859Z</time>
      </trkpt>
      <trkpt lat="48.90147" lon="2.45085">
        <ele>98.2</ele>
        <time>2015-04-13T19:08:47.776Z</time>
      </trkpt>
      <trkpt lat="48.9015" lon="2.45095">
        <ele>97.9</ele>
        <time>2015-04-13T19:08:48.901Z</time>
      </trkpt>
      <trkpt lat="48.90152" lon="2.45106">
        <ele>97.8</ele>
        <time>2015-04-13T19:08:49.797Z</time>
      </trkpt>
      <trkpt lat="48.90153" lon="2.45116">
        <ele>97.7</ele>
        <time>2015-04-13T19:08:50.820Z</time>
      </trkpt>
      <trkpt lat="48.90155" lon="2.45126">
        <ele>97.8</ele>
        <time>2015-04-13T19:08:51.825Z</time>
      </trkpt>
      <trkpt lat="48.90156" lon="2.45136">
        <ele>97.3</ele>
        <time>2015-04-13T19:08:52.834Z</time>
      </trkpt>
      <trkpt lat="48.90158" lon="2.45146">
        <ele>97.3</ele>
        <time>2015-04-13T19:08:53.841Z</time>
      </trkpt>
      <trkpt lat="48.9016" lon="2.45156">
        <ele>97.1</ele>
        <time>2015-04-13T19:08:54.846Z</time>
      </trkpt>
      <trkpt lat="48.90162" lon="2.45167">
        <ele>97.5</ele>
        <time>2015-04-13T19:08:55.857Z</time>
      </trkpt>
      <trkpt lat="48.90164" lon="2.45177">
        <ele>97.5</ele>
        <time>2015-04-13T19:08:56.772Z</time>
      </trkpt>
      <trkpt lat="48.90165" lon="2.45187">
        <ele>97.8</ele>
        <time>2015-04-13T19:08:57.771Z</time>
      </trkpt>
      <trkpt lat="48.90167" lon="2.45197">
        <ele>97.6</ele>
        <time>2015-04-13T19:08:58.770Z</time>
      </trkpt>
      <trkpt lat="48.90168" lon="2.45206">
        <ele>97.5</ele>
        <time>2015-04-13T19:08:59.785Z</time>
      </trkpt>
      <trkpt lat="48.90169" lon="2.45216">
        <ele>97.4</ele>
        <time>2015-04-13T19:09:00.824Z</time>
      </trkpt>
      <trkpt lat="48.9017" lon="2.45226">
        <ele>97.2</ele>
        <time>2015-04-13T19:09:01.843Z</time>
      </trkpt>
      <trkpt lat="48.90171" lon="2.45236">
        <ele>96.9</ele>
        <time>2015-04-13T19:09:03.596Z</time>
      </trkpt>
      <trkpt lat="48.90172" lon="2.45246">
        <ele>96.7</ele>
        <time>2015-04-13T19:09:04.601Z</time>
      </trkpt>
      <trkpt lat="48.90174" lon="2.45256">
        <ele>96.7</ele>
        <time>2015-04-13T19:09:05.615Z</time>
      </trkpt>
      <trkpt lat="48.90175" lon="2.45266">
        <ele>96.5</ele>
        <time>2015-04-13T19:09:06.628Z</time>
      </trkpt>
      <trkpt lat="48.90177" lon="2.45276">
        <ele>96.6</ele>
        <time>2015-04-13T19:09:07.643Z</time>
      </trkpt>
      <trkpt lat="48.9018" lon="2.45286">
        <ele>96.6</ele>
        <time>2015-04-13T19:09:08.638Z</time>
      </trkpt>
      <trkpt lat="48.90182" lon="2.45296">
        <ele>96.4</ele>
        <time>2015-04-13T19:09:09.653Z</time>
      </trkpt>
      <trkpt lat="48.90185" lon="2.45306">
        <ele>96.6</ele>
        <time>2015-04-13T19:09:10.677Z</time>
      </trkpt>
      <trkpt lat="48.90187" lon="2.45316">
        <ele>96.7</ele>
        <time>2015-04-13T19:09:11.609Z</time>
      </trkpt>
      <trkpt lat="48.90189" lon="2.45326">
        <ele>96.6</ele>
        <time>2015-04-13T19:09:12.615Z</time>
      </trkpt>
      <trkpt lat="48.90192" lon="2.45336">
        <ele>96.5</ele>
        <time>2015-04-13T19:09:13.681Z</time>
      </trkpt>
      <trkpt lat="48.90193" lon="2.45346">
        <ele>96.5</ele>
        <time>2015-04-13T19:09:14.693Z</time>
      </trkpt>
      <trkpt lat="48.90195" lon="2.45356">
        <ele>96.8</ele>
        <time>2015-04-13T19:09:15.703Z</time>
      </trkpt>
      <trkpt lat="48.90198" lon="2.45366">
        <ele>96.8</ele>
        <time>2015-04-13T19:09:16.709Z</time>
      </trkpt>
      <trkpt lat="48.902" lon="2.45376">
        <ele>96.7</ele>
        <time>2015-04-13T19:09:17.604Z</time>
      </trkpt>
      <trkpt lat="48.90202" lon="2.45386">
        <ele>96.9</ele>
        <time>2015-04-13T19:09:18.625Z</time>
      </trkpt>
      <trkpt lat="48.90204" lon="2.45396">
        <ele>97</ele>
        <time>2015-04-13T19:09:19.660Z</time>
      </trkpt>
      <trkpt lat="48.90206" lon="2.45406">
        <ele>97.2</ele>
        <time>2015-04-13T19:09:20.672Z</time>
      </trkpt>
      <trkpt lat="48.90209" lon="2.45416">
        <ele>97.3</ele>
        <time>2015-04-13T19:09:21.625Z</time>
      </trkpt>
      <trkpt lat="48.90212" lon="2.45425">
        <ele>97.3</ele>
        <time>2015-04-13T19:09:22.625Z</time>
      </trkpt>
      <trkpt lat="48.90214" lon="2.45434">
        <ele>97.2</ele>
        <time>2015-04-13T19:09:23.646Z</time>
      </trkpt>
      <trkpt lat="48.90216" lon="2.45444">
        <ele>97.3</ele>
        <time>2015-04-13T19:09:24.663Z</time>
      </trkpt>
      <trkpt lat="48.90218" lon="2.45453">
        <ele>97.3</ele>
        <time>2015-04-13T19:09:25.751Z</time>
      </trkpt>
      <trkpt lat="48.9022" lon="2.45462">
        <ele>97.2</ele>
        <time>2015-04-13T19:09:26.648Z</time>
      </trkpt>
      <trkpt lat="48.90222" lon="2.45472">
        <ele>97.3</ele>
        <time>2015-04-13T19:09:27.659Z</time>
      </trkpt>
      <trkpt lat="48.90224" lon="2.45482">
        <ele>97.1</ele>
        <time>2015-04-13T19:09:28.670Z</time>
      </trkpt>
      <trkpt lat="48.90226" lon="2.45492">
        <ele>96.9</ele>
        <time>2015-04-13T19:09:29.679Z</time>
      </trkpt>
      <trkpt lat="48.90229" lon="2.45501">
        <ele>97.1</ele>
        <time>2015-04-13T19:09:30.680Z</time>
      </trkpt>
      <trkpt lat="48.90231" lon="2.4551">
        <ele>97</ele>
        <time>2015-04-13T19:09:31.685Z</time>
      </trkpt>
      <trkpt lat="48.90233" lon="2.45519">
        <ele>97</ele>
        <time>2015-04-13T19:09:32.695Z</time>
      </trkpt>
      <trkpt lat="48.90234" lon="2.45528">
        <ele>96.5</ele>
        <time>2015-04-13T19:09:33.700Z</time>
      </trkpt>
      <trkpt lat="48.90236" lon="2.45537">
        <ele>96.5</ele>
        <time>2015-04-13T19:09:34.726Z</time>
      </trkpt>
      <trkpt lat="48.90238" lon="2.45545">
        <ele>96.7</ele>
        <time>2015-04-13T19:09:35.717Z</time>
      </trkpt>
      <trkpt lat="48.9024" lon="2.45555">
        <ele>97</ele>
        <time>2015-04-13T19:09:36.630Z</time>
      </trkpt>
      <trkpt lat="48.90242" lon="2.45565">
        <ele>97.5</ele>
        <time>2015-04-13T19:09:37.681Z</time>
      </trkpt>
      <trkpt lat="48.90244" lon="2.45575">
        <ele>97.7</ele>
        <time>2015-04-13T19:09:38.674Z</time>
      </trkpt>
      <trkpt lat="48.90247" lon="2.45585">
        <ele>97.8</ele>
        <time>2015-04-13T19:09:39.684Z</time>
      </trkpt>
      <trkpt lat="48.90249" lon="2.45595">
        <ele>97.7</ele>
        <time>2015-04-13T19:09:40.697Z</time>
      </trkpt>
      <trkpt lat="48.90251" lon="2.45605">
        <ele>98</ele>
        <time>2015-04-13T19:09:41.705Z</time>
      </trkpt>
      <trkpt lat="48.90253" lon="2.45615">
        <ele>98.1</ele>
        <time>2015-04-13T19:09:42.633Z</time>
      </trkpt>
      <trkpt lat="48.90255" lon="2.45625">
        <ele>98</ele>
        <time>2015-04-13T19:09:43.726Z</time>
      </trkpt>
      <trkpt lat="48.90257" lon="2.45635">
        <ele>98</ele>
        <time>2015-04-13T19:09:44.742Z</time>
      </trkpt>
      <trkpt lat="48.90259" lon="2.45645">
        <ele>98.2</ele>
        <time>2015-04-13T19:09:45.329Z</time>
      </trkpt>
      <trkpt lat="48.90261" lon="2.45655">
        <ele>98.4</ele>
        <time>2015-04-13T19:09:46.347Z</time>
      </trkpt>
      <trkpt lat="48.90264" lon="2.45665">
        <ele>98.3</ele>
        <time>2015-04-13T19:09:47.363Z</time>
      </trkpt>
      <trkpt lat="48.90266" lon="2.45675">
        <ele>98.1</ele>
        <time>2015-04-13T19:09:48.376Z</time>
      </trkpt>
      <trkpt lat="48.90268" lon="2.45684">
        <ele>97.7</ele>
        <time>2015-04-13T19:09:49.382Z</time>
      </trkpt>
      <trkpt lat="48.9027" lon="2.45693">
        <ele>97.5</ele>
        <time>2015-04-13T19:09:50.413Z</time>
      </trkpt>
      <trkpt lat="48.90272" lon="2.45702">
        <ele>97.4</ele>
        <time>2015-04-13T19:09:51.407Z</time>
      </trkpt>
      <trkpt lat="48.90274" lon="2.45712">
        <ele>97.5</ele>
        <time>2015-04-13T19:09:52.319Z</time>
      </trkpt>
      <trkpt lat="48.90275" lon="2.45722">
        <ele>97.5</ele>
        <time>2015-04-13T19:09:53.319Z</time>
      </trkpt>
      <trkpt lat="48.90277" lon="2.45732">
        <ele>97.6</ele>
        <time>2015-04-13T19:09:54.353Z</time>
      </trkpt>
      <trkpt lat="48.90279" lon="2.45742">
        <ele>97.6</ele>
        <time>2015-04-13T19:09:55.389Z</time>
      </trkpt>
      <trkpt lat="48.90281" lon="2.45752">
        <ele>97.6</ele>
        <time>2015-04-13T19:09:56.394Z</time>
      </trkpt>
      <trkpt lat="48.90283" lon="2.45763">
        <ele>97.7</ele>
        <time>2015-04-13T19:09:57.425Z</time>
      </trkpt>
      <trkpt lat="48.90285" lon="2.45773">
        <ele>97.7</ele>
        <time>2015-04-13T19:09:58.341Z</time>
      </trkpt>
      <trkpt lat="48.90287" lon="2.45784">
        <ele>97.8</ele>
        <time>2015-04-13T19:09:59.426Z</time>
      </trkpt>
      <trkpt lat="48.90289" lon="2.45794">
        <ele>98.2</ele>
        <time>2015-04-13T19:10:00.318Z</time>
      </trkpt>
      <trkpt lat="48.90291" lon="2.45805">
        <ele>98.2</ele>
        <time>2015-04-13T19:10:01.376Z</time>
      </trkpt>
      <trkpt lat="48.90294" lon="2.45816">
        <ele>98.4</ele>
        <time>2015-04-13T19:10:02.375Z</time>
      </trkpt>
      <trkpt lat="48.90296" lon="2.45826">
        <ele>98.5</ele>
        <time>2015-04-13T19:10:03.388Z</time>
      </trkpt>
      <trkpt lat="48.90298" lon="2.45836">
        <ele>98.6</ele>
        <time>2015-04-13T19:10:04.401Z</time>
      </trkpt>
      <trkpt lat="48.903" lon="2.45846">
        <ele>98.7</ele>
        <time>2015-04-13T19:10:05.417Z</time>
      </trkpt>
      <trkpt lat="48.90302" lon="2.45856">
        <ele>98.6</ele>
        <time>2015-04-13T19:10:06.429Z</time>
      </trkpt>
      <trkpt lat="48.90304" lon="2.45867">
        <ele>98.6</ele>
        <time>2015-04-13T19:10:07.363Z</time>
      </trkpt>
      <trkpt lat="48.90307" lon="2.45877">
        <ele>98.5</ele>
        <time>2015-04-13T19:10:08.365Z</time>
      </trkpt>
      <trkpt lat="48.90309" lon="2.45887">
        <ele>98.7</ele>
        <time>2015-04-13T19:10:09.379Z</time>
      </trkpt>
      <trkpt lat="48.90311" lon="2.45897">
        <ele>98.7</ele>
        <time>2015-04-13T19:10:10.414Z</time>
      </trkpt>
      <trkpt lat="48.90313" lon="2.45908">
        <ele>98.7</ele>
        <time>2015-04-13T19:10:11.418Z</time>
      </trkpt>
      <trkpt lat="48.90315" lon="2.45918">
        <ele>98.8</ele>
        <time>2015-04-13T19:10:12.424Z</time>
      </trkpt>
      <trkpt lat="48.90317" lon="2.45929">
        <ele>99.2</ele>
        <time>2015-04-13T19:10:13.439Z</time>
      </trkpt>
      <trkpt lat="48.90319" lon="2.45939">
        <ele>99.3</ele>
        <time>2015-04-13T19:10:14.445Z</time>
      </trkpt>
      <trkpt lat="48.90321" lon="2.4595">
        <ele>99.1</ele>
        <time>2015-04-13T19:10:15.346Z</time>
      </trkpt>
      <trkpt lat="48.90322" lon="2.45961">
        <ele>98.5</ele>
        <time>2015-04-13T19:10:16.348Z</time>
      </trkpt>
      <trkpt lat="48.90324" lon="2.45971">
        <ele>98.3</ele>
        <time>2015-04-13T19:10:17.354Z</time>
      </trkpt>
      <trkpt lat="48.90326" lon="2.45981">
        <ele>98.2</ele>
        <time>2015-04-13T19:10:18.361Z</time>
      </trkpt>
      <trkpt lat="48.90329" lon="2.45991">
        <ele>98.3</ele>
        <time>2015-04-13T19:10:19.414Z</time>
      </trkpt>
      <trkpt lat="48.9033" lon="2.46002">
        <ele>98.2</ele>
        <time>2015-04-13T19:10:20.421Z</time>
      </trkpt>
      <trkpt lat="48.90332" lon="2.46013">
        <ele>98.1</ele>
        <time>2015-04-13T19:10:21.447Z</time>
      </trkpt>
      <trkpt lat="48.90335" lon="2.46023">
        <ele>98.1</ele>
        <time>2015-04-13T19:10:22.352Z</time>
      </trkpt>
      <trkpt lat="48.90337" lon="2.46033">
        <ele>97.9</ele>
        <time>2015-04-13T19:10:23.349Z</time>
      </trkpt>
      <trkpt lat="48.90339" lon="2.46044">
        <ele>97.7</ele>
        <time>2015-04-13T19:10:24.375Z</time>
      </trkpt>
      <trkpt lat="48.90341" lon="2.46054">
        <ele>97.6</ele>
        <time>2015-04-13T19:10:25.413Z</time>
      </trkpt>
      <trkpt lat="48.90342" lon="2.46064">
        <ele>97.4</ele>
        <time>2015-04-13T19:10:26.410Z</time>
      </trkpt>
      <trkpt lat="48.90344" lon="2.46074">
        <ele>97.2</ele>
        <time>2015-04-13T19:10:27.420Z</time>
      </trkpt>
      <trkpt lat="48.90345" lon="2.46084">
        <ele>97.1</ele>
        <time>2015-04-13T19:10:28.329Z</time>
      </trkpt>
      <trkpt lat="48.90347" lon="2.46094">
        <ele>96.8</ele>
        <time>2015-04-13T19:10:29.338Z</time>
      </trkpt>
      <trkpt lat="48.9035" lon="2.46103">
        <ele>96.5</ele>
        <time>2015-04-13T19:10:30.347Z</time>
      </trkpt>
      <trkpt lat="48.90352" lon="2.46112">
        <ele>96.5</ele>
        <time>2015-04-13T19:10:31.363Z</time>
      </trkpt>
      <trkpt lat="48.90355" lon="2.46122">
        <ele>96.4</ele>
        <time>2015-04-13T19:10:32.370Z</time>
      </trkpt>
      <trkpt lat="48.90357" lon="2.46131">
        <ele>96.3</ele>
        <time>2015-04-13T19:10:33.382Z</time>
      </trkpt>
      <trkpt lat="48.90359" lon="2.46141">
        <ele>96.5</ele>
        <time>2015-04-13T19:10:34.394Z</time>
      </trkpt>
      <trkpt lat="48.90362" lon="2.46152">
        <ele>96.7</ele>
        <time>2015-04-13T19:10:35.416Z</time>
      </trkpt>
      <trkpt lat="48.90364" lon="2.46162">
        <ele>96.8</ele>
        <time>2015-04-13T19:10:36.418Z</time>
      </trkpt>
      <trkpt lat="48.90366" lon="2.46173">
        <ele>97.1</ele>
        <time>2015-04-13T19:10:37.432Z</time>
      </trkpt>
      <trkpt lat="48.90367" lon="2.46183">
        <ele>97.3</ele>
        <time>2015-04-13T19:10:38.437Z</time>
      </trkpt>
      <trkpt lat="48.9037" lon="2.46193">
        <ele>97.2</ele>
        <time>2015-04-13T19:10:39.373Z</time>
      </trkpt>
      <trkpt lat="48.90371" lon="2.46203">
        <ele>97.2</ele>
        <time>2015-04-13T19:10:40.365Z</time>
      </trkpt>
      <trkpt lat="48.90372" lon="2.46214">
        <ele>97.2</ele>
        <time>2015-04-13T19:10:41.385Z</time>
      </trkpt>
      <trkpt lat="48.90374" lon="2.46224">
        <ele>97.2</ele>
        <time>2015-04-13T19:10:42.401Z</time>
      </trkpt>
      <trkpt lat="48.90377" lon="2.46233">
        <ele>97.2</ele>
        <time>2015-04-13T19:10:43.407Z</time>
      </trkpt>
      <trkpt lat="48.90379" lon="2.46243">
        <ele>97.4</ele>
        <time>2015-04-13T19:10:44.421Z</time>
      </trkpt>
      <trkpt lat="48.90381" lon="2.46253">
        <ele>97.4</ele>
        <time>2015-04-13T19:10:45.440Z</time>
      </trkpt>
      <trkpt lat="48.90384" lon="2.46263">
        <ele>97.2</ele>
        <time>2015-04-13T19:10:46.352Z</time>
      </trkpt>
      <trkpt lat="48.90386" lon="2.46273">
        <ele>97.2</ele>
        <time>2015-04-13T19:10:47.348Z</time>
      </trkpt>
      <trkpt lat="48.90388" lon="2.46284">
        <ele>97.6</ele>
        <time>2015-04-13T19:10:48.356Z</time>
      </trkpt>
      <trkpt lat="48.9039" lon="2.46294">
        <ele>97.8</ele>
        <time>2015-04-13T19:10:49.373Z</time>
      </trkpt>
      <trkpt lat="48.90392" lon="2.46304">
        <ele>98</ele>
        <time>2015-04-13T19:10:50.386Z</time>
      </trkpt>
      <trkpt lat="48.90394" lon="2.46315">
        <ele>97.9</ele>
        <time>2015-04-13T19:10:51.389Z</time>
      </trkpt>
      <trkpt lat="48.90395" lon="2.46325">
        <ele>97.9</ele>
        <time>2015-04-13T19:10:52.416Z</time>
      </trkpt>
      <trkpt lat="48.90396" lon="2.46335">
        <ele>97.6</ele>
        <time>2015-04-13T19:10:53.434Z</time>
      </trkpt>
      <trkpt lat="48.90399" lon="2.46346">
        <ele>97.9</ele>
        <time>2015-04-13T19:10:54.350Z</time>
      </trkpt>
      <trkpt lat="48.90401" lon="2.46355">
        <ele>98</ele>
        <time>2015-04-13T19:10:55.379Z</time>
      </trkpt>
      <trkpt lat="48.90403" lon="2.46364">
        <ele>98.1</ele>
        <time>2015-04-13T19:10:56.379Z</time>
      </trkpt>
      <trkpt lat="48.90405" lon="2.46374">
        <ele>98</ele>
        <time>2015-04-13T19:10:57.400Z</time>
      </trkpt>
      <trkpt lat="48.90407" lon="2.46383">
        <ele>98.1</ele>
        <time>2015-04-13T19:10:58.413Z</time>
      </trkpt>
      <trkpt lat="48.90409" lon="2.46392">
        <ele>98.2</ele>
        <time>2015-04-13T19:10:59.423Z</time>
      </trkpt>
      <trkpt lat="48.90411" lon="2.46402">
        <ele>98.1</ele>
        <time>2015-04-13T19:11:00.426Z</time>
      </trkpt>
      <trkpt lat="48.90413" lon="2.46412">
        <ele>98.1</ele>
        <time>2015-04-13T19:11:01.442Z</time>
      </trkpt>
      <trkpt lat="48.90415" lon="2.46422">
        <ele>98.1</ele>
        <time>2015-04-13T19:11:02.443Z</time>
      </trkpt>
      <trkpt lat="48.90416" lon="2.46432">
        <ele>98.2</ele>
        <time>2015-04-13T19:11:03.351Z</time>
      </trkpt>
      <trkpt lat="48.90418" lon="2.46442">
        <ele>98.3</ele>
        <time>2015-04-13T19:11:04.359Z</time>
      </trkpt>
      <trkpt lat="48.90421" lon="2.46452">
        <ele>98.4</ele>
        <time>2015-04-13T19:11:05.361Z</time>
      </trkpt>
      <trkpt lat="48.90423" lon="2.46461">
        <ele>98.6</ele>
        <time>2015-04-13T19:11:06.372Z</time>
      </trkpt>
      <trkpt lat="48.90424" lon="2.46471">
        <ele>98.9</ele>
        <time>2015-04-13T19:11:07.388Z</time>
      </trkpt>
      <trkpt lat="48.90424" lon="2.4648">
        <ele>99.2</ele>
        <time>2015-04-13T19:11:08.407Z</time>
      </trkpt>
      <trkpt lat="48.90424" lon="2.46489">
        <ele>99.6</ele>
        <time>2015-04-13T19:11:09.417Z</time>
      </trkpt>
      <trkpt lat="48.90424" lon="2.46499">
        <ele>100.1</ele>
        <time>2015-04-13T19:11:10.427Z</time>
      </trkpt>
      <trkpt lat="48.90425" lon="2.4651">
        <ele>100</ele>
        <time>2015-04-13T19:11:11.439Z</time>
      </trkpt>
      <trkpt lat="48.90427" lon="2.46518">
        <ele>100.2</ele>
        <time>2015-04-13T19:11:12.346Z</time>
      </trkpt>
      <trkpt lat="48.90428" lon="2.46526">
        <ele>100.4</ele>
        <time>2015-04-13T19:11:13.368Z</time>
      </trkpt>
      <trkpt lat="48.9043" lon="2.46535">
        <ele>100.7</ele>
        <time>2015-04-13T19:11:14.385Z</time>
      </trkpt>
      <trkpt lat="48.90434" lon="2.46544">
        <ele>101.3</ele>
        <time>2015-04-13T19:11:15.379Z</time>
      </trkpt>
      <trkpt lat="48.90436" lon="2.46552">
        <ele>101.3</ele>
        <time>2015-04-13T19:11:16.390Z</time>
      </trkpt>
      <trkpt lat="48.90439" lon="2.4656">
        <ele>100.8</ele>
        <time>2015-04-13T19:11:17.416Z</time>
      </trkpt>
      <trkpt lat="48.90441" lon="2.46569">
        <ele>100.7</ele>
        <time>2015-04-13T19:11:18.453Z</time>
      </trkpt>
      <trkpt lat="48.90443" lon="2.46577">
        <ele>100.8</ele>
        <time>2015-04-13T19:11:19.363Z</time>
      </trkpt>
      <trkpt lat="48.90445" lon="2.46586">
        <ele>100.8</ele>
        <time>2015-04-13T19:11:20.365Z</time>
      </trkpt>
      <trkpt lat="48.90446" lon="2.46595">
        <ele>101.2</ele>
        <time>2015-04-13T19:11:21.387Z</time>
      </trkpt>
      <trkpt lat="48.90448" lon="2.46605">
        <ele>101.2</ele>
        <time>2015-04-13T19:11:22.409Z</time>
      </trkpt>
      <trkpt lat="48.90451" lon="2.4662">
        <ele>102.3</ele>
        <time>2015-04-13T19:11:23.345Z</time>
      </trkpt>
      <trkpt lat="48.90454" lon="2.46631">
        <ele>102</ele>
        <time>2015-04-13T19:11:24.351Z</time>
      </trkpt>
      <trkpt lat="48.90457" lon="2.46641">
        <ele>101.9</ele>
        <time>2015-04-13T19:11:25.472Z</time>
      </trkpt>
      <trkpt lat="48.90459" lon="2.4665">
        <ele>102.1</ele>
        <time>2015-04-13T19:11:26.358Z</time>
      </trkpt>
      <trkpt lat="48.90462" lon="2.4666">
        <ele>102.3</ele>
        <time>2015-04-13T19:11:27.379Z</time>
      </trkpt>
      <trkpt lat="48.90464" lon="2.4667">
        <ele>102.3</ele>
        <time>2015-04-13T19:11:28.396Z</time>
      </trkpt>
      <trkpt lat="48.90466" lon="2.4668">
        <ele>102.4</ele>
        <time>2015-04-13T19:11:29.404Z</time>
      </trkpt>
      <trkpt lat="48.90468" lon="2.46691">
        <ele>102.6</ele>
        <time>2015-04-13T19:11:30.433Z</time>
      </trkpt>
      <trkpt lat="48.9047" lon="2.46701">
        <ele>102.7</ele>
        <time>2015-04-13T19:11:31.435Z</time>
      </trkpt>
      <trkpt lat="48.90473" lon="2.46711">
        <ele>102.7</ele>
        <time>2015-04-13T19:11:32.394Z</time>
      </trkpt>
      <trkpt lat="48.90476" lon="2.4672">
        <ele>102.8</ele>
        <time>2015-04-13T19:11:33.352Z</time>
      </trkpt>
      <trkpt lat="48.90479" lon="2.4673">
        <ele>103</ele>
        <time>2015-04-13T19:11:34.348Z</time>
      </trkpt>
      <trkpt lat="48.90481" lon="2.4674">
        <ele>102.9</ele>
        <time>2015-04-13T19:11:35.395Z</time>
      </trkpt>
      <trkpt lat="48.90483" lon="2.46751">
        <ele>102.8</ele>
        <time>2015-04-13T19:11:36.414Z</time>
      </trkpt>
      <trkpt lat="48.90485" lon="2.46761">
        <ele>102.2</ele>
        <time>2015-04-13T19:11:37.386Z</time>
      </trkpt>
      <trkpt lat="48.90488" lon="2.46772">
        <ele>101.9</ele>
        <time>2015-04-13T19:11:38.375Z</time>
      </trkpt>
      <trkpt lat="48.9049" lon="2.46783">
        <ele>101.8</ele>
        <time>2015-04-13T19:11:39.379Z</time>
      </trkpt>
      <trkpt lat="48.9049" lon="2.46794">
        <ele>101.5</ele>
        <time>2015-04-13T19:11:40.430Z</time>
      </trkpt>
      <trkpt lat="48.9049" lon="2.46806">
        <ele>101.9</ele>
        <time>2015-04-13T19:11:41.340Z</time>
      </trkpt>
      <trkpt lat="48.90491" lon="2.46818">
        <ele>101.9</ele>
        <time>2015-04-13T19:11:42.423Z</time>
      </trkpt>
      <trkpt lat="48.90493" lon="2.46828">
        <ele>101.9</ele>
        <time>2015-04-13T19:11:43.396Z</time>
      </trkpt>
      <trkpt lat="48.90496" lon="2.46838">
        <ele>102.2</ele>
        <time>2015-04-13T19:11:44.401Z</time>
      </trkpt>
      <trkpt lat="48.90498" lon="2.46848">
        <ele>102.1</ele>
        <time>2015-04-13T19:11:45.440Z</time>
      </trkpt>
      <trkpt lat="48.905" lon="2.46858">
        <ele>102.2</ele>
        <time>2015-04-13T19:11:46.357Z</time>
      </trkpt>
      <trkpt lat="48.90502" lon="2.46867">
        <ele>102.3</ele>
        <time>2015-04-13T19:11:47.357Z</time>
      </trkpt>
      <trkpt lat="48.90504" lon="2.46877">
        <ele>102.3</ele>
        <time>2015-04-13T19:11:48.401Z</time>
      </trkpt>
      <trkpt lat="48.90506" lon="2.46886">
        <ele>102.3</ele>
        <time>2015-04-13T19:11:49.395Z</time>
      </trkpt>
      <trkpt lat="48.90508" lon="2.46895">
        <ele>102.2</ele>
        <time>2015-04-13T19:11:50.403Z</time>
      </trkpt>
      <trkpt lat="48.90509" lon="2.46904">
        <ele>102.1</ele>
        <time>2015-04-13T19:11:51.432Z</time>
      </trkpt>
      <trkpt lat="48.90511" lon="2.46912">
        <ele>102.1</ele>
        <time>2015-04-13T19:11:52.365Z</time>
      </trkpt>
      <trkpt lat="48.90513" lon="2.4692">
        <ele>102</ele>
        <time>2015-04-13T19:11:53.351Z</time>
      </trkpt>
      <trkpt lat="48.90515" lon="2.46929">
        <ele>102.1</ele>
        <time>2015-04-13T19:11:54.367Z</time>
      </trkpt>
      <trkpt lat="48.90516" lon="2.46936">
        <ele>102.1</ele>
        <time>2015-04-13T19:11:55.369Z</time>
      </trkpt>
      <trkpt lat="48.90517" lon="2.46944">
        <ele>102.1</ele>
        <time>2015-04-13T19:11:56.383Z</time>
      </trkpt>
      <trkpt lat="48.90518" lon="2.46951">
        <ele>102.2</ele>
        <time>2015-04-13T19:11:57.392Z</time>
      </trkpt>
      <trkpt lat="48.90519" lon="2.46963">
        <ele>102.4</ele>
        <time>2015-04-13T19:11:59.430Z</time>
      </trkpt>
      <trkpt lat="48.9052" lon="2.46968">
        <ele>102.5</ele>
        <time>2015-04-13T19:12:00.458Z</time>
      </trkpt>
      <trkpt lat="48.90522" lon="2.46978">
        <ele>102.7</ele>
        <time>2015-04-13T19:12:02.406Z</time>
      </trkpt>
      <trkpt lat="48.90523" lon="2.46981">
        <ele>102.9</ele>
        <time>2015-04-13T19:12:03.413Z</time>
      </trkpt>
      <trkpt lat="48.90527" lon="2.46983">
        <ele>103</ele>
        <time>2015-04-13T19:12:04.310Z</time>
      </trkpt>
      <trkpt lat="48.90531" lon="2.46986">
        <ele>103.1</ele>
        <time>2015-04-13T19:12:05.321Z</time>
      </trkpt>
      <trkpt lat="48.90535" lon="2.46992">
        <ele>103</ele>
        <time>2015-04-13T19:12:06.346Z</time>
      </trkpt>
      <trkpt lat="48.9054" lon="2.46998">
        <ele>103</ele>
        <time>2015-04-13T19:12:07.349Z</time>
      </trkpt>
      <trkpt lat="48.90544" lon="2.47006">
        <ele>102.8</ele>
        <time>2015-04-13T19:12:08.357Z</time>
      </trkpt>
      <trkpt lat="48.90548" lon="2.47013">
        <ele>102.5</ele>
        <time>2015-04-13T19:12:09.368Z</time>
      </trkpt>
      <trkpt lat="48.90551" lon="2.47022">
        <ele>102.2</ele>
        <time>2015-04-13T19:12:10.388Z</time>
      </trkpt>
      <trkpt lat="48.90554" lon="2.47029">
        <ele>102.1</ele>
        <time>2015-04-13T19:12:11.411Z</time>
      </trkpt>
      <trkpt lat="48.90556" lon="2.47037">
        <ele>102</ele>
        <time>2015-04-13T19:12:12.314Z</time>
      </trkpt>
      <trkpt lat="48.90557" lon="2.47043">
        <ele>101.7</ele>
        <time>2015-04-13T19:12:13.335Z</time>
      </trkpt>
      <trkpt lat="48.90557" lon="2.47051">
        <ele>101.6</ele>
        <time>2015-04-13T19:12:14.362Z</time>
      </trkpt>
      <trkpt lat="48.90558" lon="2.47058">
        <ele>101.3</ele>
        <time>2015-04-13T19:12:15.355Z</time>
      </trkpt>
      <trkpt lat="48.90557" lon="2.47067">
        <ele>101.4</ele>
        <time>2015-04-13T19:12:16.383Z</time>
      </trkpt>
      <trkpt lat="48.90556" lon="2.47074">
        <ele>100.9</ele>
        <time>2015-04-13T19:12:17.391Z</time>
      </trkpt>
      <trkpt lat="48.90555" lon="2.47082">
        <ele>101</ele>
        <time>2015-04-13T19:12:18.404Z</time>
      </trkpt>
      <trkpt lat="48.90555" lon="2.47088">
        <ele>101.2</ele>
        <time>2015-04-13T19:12:19.415Z</time>
      </trkpt>
      <trkpt lat="48.90555" lon="2.47094">
        <ele>101.3</ele>
        <time>2015-04-13T19:12:20.435Z</time>
      </trkpt>
      <trkpt lat="48.90555" lon="2.47104">
        <ele>102.1</ele>
        <time>2015-04-13T19:12:21.337Z</time>
      </trkpt>
      <trkpt lat="48.90557" lon="2.47116">
        <ele>102.5</ele>
        <time>2015-04-13T19:12:23.362Z</time>
      </trkpt>
      <trkpt lat="48.90558" lon="2.4712">
        <ele>102.5</ele>
        <time>2015-04-13T19:12:24.384Z</time>
      </trkpt>
      <trkpt lat="48.9056" lon="2.47126">
        <ele>102.8</ele>
        <time>2015-04-13T19:12:28.371Z</time>
      </trkpt>
      <trkpt lat="48.90559" lon="2.47127">
        <ele>102.7</ele>
        <time>2015-04-13T19:12:29.394Z</time>
      </trkpt>
      <trkpt lat="48.90559" lon="2.47126">
        <ele>102.5</ele>
        <time>2015-04-13T19:12:30.423Z</time>
      </trkpt>
      <trkpt lat="48.90556" lon="2.47119">
        <ele>101.2</ele>
        <time>2015-04-13T19:12:38.501Z</time>
      </trkpt>
      <trkpt lat="48.90556" lon="2.47119">
        <ele>101.1</ele>
        <time>2015-04-13T19:12:39.383Z</time>
      </trkpt>
      <trkpt lat="48.90556" lon="2.47119">
        <ele>101</ele>
        <time>2015-04-13T19:14:34.385Z</time>
      </trkpt>
      <trkpt lat="48.90551" lon="2.47133">
        <ele>108</ele>
        <time>2015-04-13T19:14:35.413Z</time>
      </trkpt>
      <trkpt lat="48.90554" lon="2.47144">
        <ele>106.3</ele>
        <time>2015-04-13T19:14:41.424Z</time>
      </trkpt>
      <trkpt lat="48.90555" lon="2.47147">
        <ele>106</ele>
        <time>2015-04-13T19:14:42.374Z</time>
      </trkpt>
      <trkpt lat="48.90557" lon="2.47159">
        <ele>105.4</ele>
        <time>2015-04-13T19:14:45.448Z</time>
      </trkpt>
      <trkpt lat="48.90558" lon="2.47163">
        <ele>105.2</ele>
        <time>2015-04-13T19:14:46.371Z</time>
      </trkpt>
      <trkpt lat="48.90561" lon="2.47172">
        <ele>105</ele>
        <time>2015-04-13T19:14:48.354Z</time>
      </trkpt>
      <trkpt lat="48.90562" lon="2.47177">
        <ele>105.1</ele>
        <time>2015-04-13T19:14:49.389Z</time>
      </trkpt>
      <trkpt lat="48.90563" lon="2.47187">
        <ele>105.1</ele>
        <time>2015-04-13T19:14:51.425Z</time>
      </trkpt>
      <trkpt lat="48.90564" lon="2.47192">
        <ele>105.1</ele>
        <time>2015-04-13T19:14:52.324Z</time>
      </trkpt>
      <trkpt lat="48.90564" lon="2.47202">
        <ele>105.1</ele>
        <time>2015-04-13T19:14:54.374Z</time>
      </trkpt>
      <trkpt lat="48.90565" lon="2.47208">
        <ele>105.1</ele>
        <time>2015-04-13T19:14:55.385Z</time>
      </trkpt>
      <trkpt lat="48.90567" lon="2.4722">
        <ele>105</ele>
        <time>2015-04-13T19:14:57.416Z</time>
      </trkpt>
      <trkpt lat="48.90568" lon="2.47226">
        <ele>104.8</ele>
        <time>2015-04-13T19:14:58.436Z</time>
      </trkpt>
      <trkpt lat="48.9057" lon="2.47233">
        <ele>104.5</ele>
        <time>2015-04-13T19:14:59.362Z</time>
      </trkpt>
      <trkpt lat="48.90572" lon="2.4724">
        <ele>104.4</ele>
        <time>2015-04-13T19:15:00.355Z</time>
      </trkpt>
      <trkpt lat="48.90575" lon="2.47246">
        <ele>104.5</ele>
        <time>2015-04-13T19:15:01.395Z</time>
      </trkpt>
      <trkpt lat="48.90577" lon="2.47252">
        <ele>104.3</ele>
        <time>2015-04-13T19:15:02.438Z</time>
      </trkpt>
      <trkpt lat="48.90579" lon="2.47258">
        <ele>104.4</ele>
        <time>2015-04-13T19:15:03.322Z</time>
      </trkpt>
      <trkpt lat="48.90582" lon="2.47265">
        <ele>104.4</ele>
        <time>2015-04-13T19:15:04.340Z</time>
      </trkpt>
      <trkpt lat="48.90584" lon="2.47271">
        <ele>104.1</ele>
        <time>2015-04-13T19:15:05.339Z</time>
      </trkpt>
      <trkpt lat="48.90586" lon="2.47277">
        <ele>103.9</ele>
        <time>2015-04-13T19:15:06.354Z</time>
      </trkpt>
      <trkpt lat="48.9059" lon="2.47289">
        <ele>103.5</ele>
        <time>2015-04-13T19:15:08.398Z</time>
      </trkpt>
      <trkpt lat="48.90591" lon="2.47295">
        <ele>103.5</ele>
        <time>2015-04-13T19:15:09.409Z</time>
      </trkpt>
      <trkpt lat="48.90594" lon="2.47308">
        <ele>103.7</ele>
        <time>2015-04-13T19:15:11.342Z</time>
      </trkpt>
      <trkpt lat="48.90595" lon="2.47314">
        <ele>103.8</ele>
        <time>2015-04-13T19:15:12.363Z</time>
      </trkpt>
      <trkpt lat="48.90598" lon="2.47324">
        <ele>104</ele>
        <time>2015-04-13T19:15:14.405Z</time>
      </trkpt>
      <trkpt lat="48.90598" lon="2.47328">
        <ele>104.2</ele>
        <time>2015-04-13T19:15:15.316Z</time>
      </trkpt>
      <trkpt lat="48.90599" lon="2.4734">
        <ele>104.4</ele>
        <time>2015-04-13T19:15:20.432Z</time>
      </trkpt>
      <trkpt lat="48.906" lon="2.47342">
        <ele>104.6</ele>
        <time>2015-04-13T19:15:21.332Z</time>
      </trkpt>
      <trkpt lat="48.90601" lon="2.47354">
        <ele>104.5</ele>
        <time>2015-04-13T19:15:25.362Z</time>
      </trkpt>
      <trkpt lat="48.90602" lon="2.47357">
        <ele>104.7</ele>
        <time>2015-04-13T19:15:26.444Z</time>
      </trkpt>
      <trkpt lat="48.90601" lon="2.4737">
        <ele>103.8</ele>
        <time>2015-04-13T19:15:31.465Z</time>
      </trkpt>
      <trkpt lat="48.906" lon="2.47371">
        <ele>103.9</ele>
        <time>2015-04-13T19:15:32.482Z</time>
      </trkpt>
      <trkpt lat="48.90599" lon="2.47375">
        <ele>103.8</ele>
        <time>2015-04-13T19:15:36.343Z</time>
      </trkpt>
      <trkpt lat="48.90598" lon="2.47375">
        <ele>103.6</ele>
        <time>2015-04-13T19:15:37.352Z</time>
      </trkpt>
      <trkpt lat="48.90598" lon="2.47376">
        <ele>103.5</ele>
        <time>2015-04-13T19:15:43.373Z</time>
      </trkpt>
      <trkpt lat="48.90598" lon="2.47377">
        <ele>103.6</ele>
        <time>2015-04-13T19:15:44.412Z</time>
      </trkpt>
      <trkpt lat="48.90592" lon="2.47384">
        <ele>103.1</ele>
        <time>2015-04-13T19:15:51.385Z</time>
      </trkpt>
      <trkpt lat="48.90591" lon="2.47385">
        <ele>103.1</ele>
        <time>2015-04-13T19:15:52.399Z</time>
      </trkpt>
      <trkpt lat="48.90585" lon="2.47393">
        <ele>102.8</ele>
        <time>2015-04-13T19:15:56.427Z</time>
      </trkpt>
      <trkpt lat="48.90583" lon="2.47395">
        <ele>102.7</ele>
        <time>2015-04-13T19:15:57.352Z</time>
      </trkpt>
      <trkpt lat="48.90578" lon="2.47403">
        <ele>101.9</ele>
        <time>2015-04-13T19:16:02.397Z</time>
      </trkpt>
      <trkpt lat="48.90578" lon="2.47403">
        <ele>101.8</ele>
        <time>2015-04-13T19:16:03.411Z</time>
      </trkpt>
      <trkpt lat="48.90578" lon="2.47404">
        <ele>102.2</ele>
        <time>2015-04-13T19:17:33.386Z</time>
      </trkpt>
      <trkpt lat="48.90578" lon="2.47406">
        <ele>103.9</ele>
        <time>2015-04-13T19:17:34.390Z</time>
      </trkpt>
      <trkpt lat="48.90578" lon="2.47407">
        <ele>103.9</ele>
        <time>2015-04-13T19:17:35.384Z</time>
      </trkpt>
      <trkpt lat="48.90578" lon="2.47406">
        <ele>103.6</ele>
        <time>2015-04-13T19:17:36.372Z</time>
      </trkpt>
      <trkpt lat="48.90578" lon="2.47406">
        <ele>103.6</ele>
        <time>2015-04-13T19:18:02.360Z</time>
      </trkpt>
      <trkpt lat="48.90579" lon="2.47405">
        <ele>103.5</ele>
        <time>2015-04-13T19:18:03.366Z</time>
      </trkpt>
      <trkpt lat="48.90586" lon="2.47398">
        <ele>103.6</ele>
        <time>2015-04-13T19:18:09.340Z</time>
      </trkpt>
      <trkpt lat="48.90587" lon="2.47396">
        <ele>103.5</ele>
        <time>2015-04-13T19:18:10.381Z</time>
      </trkpt>
      <trkpt lat="48.90593" lon="2.4739">
        <ele>103.2</ele>
        <time>2015-04-13T19:18:14.499Z</time>
      </trkpt>
      <trkpt lat="48.90595" lon="2.47388">
        <ele>103.1</ele>
        <time>2015-04-13T19:18:15.347Z</time>
      </trkpt>
      <trkpt lat="48.906" lon="2.47378">
        <ele>102.7</ele>
        <time>2015-04-13T19:18:19.413Z</time>
      </trkpt>
      <trkpt lat="48.90602" lon="2.47375">
        <ele>102.7</ele>
        <time>2015-04-13T19:18:20.440Z</time>
      </trkpt>
      <trkpt lat="48.90603" lon="2.47362">
        <ele>102.9</ele>
        <time>2015-04-13T19:18:26.398Z</time>
      </trkpt>
      <trkpt lat="48.90602" lon="2.4736">
        <ele>103.1</ele>
        <time>2015-04-13T19:18:27.419Z</time>
      </trkpt>
      <trkpt lat="48.906" lon="2.47348">
        <ele>103.4</ele>
        <time>2015-04-13T19:18:32.460Z</time>
      </trkpt>
      <trkpt lat="48.906" lon="2.47345">
        <ele>103.4</ele>
        <time>2015-04-13T19:18:33.305Z</time>
      </trkpt>
      <trkpt lat="48.90598" lon="2.47336">
        <ele>103.4</ele>
        <time>2015-04-13T19:18:35.394Z</time>
      </trkpt>
      <trkpt lat="48.90597" lon="2.4733">
        <ele>103.5</ele>
        <time>2015-04-13T19:18:36.413Z</time>
      </trkpt>
      <trkpt lat="48.90594" lon="2.47318">
        <ele>103.4</ele>
        <time>2015-04-13T19:18:38.470Z</time>
      </trkpt>
      <trkpt lat="48.90593" lon="2.47312">
        <ele>103.4</ele>
        <time>2015-04-13T19:18:39.350Z</time>
      </trkpt>
      <trkpt lat="48.9059" lon="2.47299">
        <ele>103.5</ele>
        <time>2015-04-13T19:18:41.389Z</time>
      </trkpt>
      <trkpt lat="48.90589" lon="2.47293">
        <ele>103.7</ele>
        <time>2015-04-13T19:18:42.406Z</time>
      </trkpt>
      <trkpt lat="48.90585" lon="2.4728">
        <ele>103.8</ele>
        <time>2015-04-13T19:18:44.430Z</time>
      </trkpt>
      <trkpt lat="48.90584" lon="2.47274">
        <ele>104</ele>
        <time>2015-04-13T19:18:45.373Z</time>
      </trkpt>
      <trkpt lat="48.90581" lon="2.47261">
        <ele>104.1</ele>
        <time>2015-04-13T19:18:47.342Z</time>
      </trkpt>
      <trkpt lat="48.90579" lon="2.47255">
        <ele>104</ele>
        <time>2015-04-13T19:18:48.373Z</time>
      </trkpt>
      <trkpt lat="48.90577" lon="2.47249">
        <ele>104.1</ele>
        <time>2015-04-13T19:18:49.406Z</time>
      </trkpt>
      <trkpt lat="48.90575" lon="2.47243">
        <ele>104.2</ele>
        <time>2015-04-13T19:18:50.414Z</time>
      </trkpt>
      <trkpt lat="48.90573" lon="2.47236">
        <ele>104.2</ele>
        <time>2015-04-13T19:18:51.427Z</time>
      </trkpt>
      <trkpt lat="48.90571" lon="2.4723">
        <ele>104.2</ele>
        <time>2015-04-13T19:18:52.343Z</time>
      </trkpt>
      <trkpt lat="48.9057" lon="2.47223">
        <ele>104.2</ele>
        <time>2015-04-13T19:18:53.372Z</time>
      </trkpt>
      <trkpt lat="48.90568" lon="2.47217">
        <ele>104.2</ele>
        <time>2015-04-13T19:18:54.340Z</time>
      </trkpt>
      <trkpt lat="48.90567" lon="2.4721">
        <ele>104.3</ele>
        <time>2015-04-13T19:18:55.354Z</time>
      </trkpt>
      <trkpt lat="48.90564" lon="2.47203">
        <ele>104.6</ele>
        <time>2015-04-13T19:18:56.394Z</time>
      </trkpt>
      <trkpt lat="48.9056" lon="2.47191">
        <ele>104.6</ele>
        <time>2015-04-13T19:18:58.342Z</time>
      </trkpt>
      <trkpt lat="48.90559" lon="2.47185">
        <ele>104.1</ele>
        <time>2015-04-13T19:18:59.349Z</time>
      </trkpt>
      <trkpt lat="48.90557" lon="2.47172">
        <ele>104</ele>
        <time>2015-04-13T19:19:01.400Z</time>
      </trkpt>
      <trkpt lat="48.90555" lon="2.47164">
        <ele>104</ele>
        <time>2015-04-13T19:19:02.418Z</time>
      </trkpt>
      <trkpt lat="48.90553" lon="2.47157">
        <ele>103.8</ele>
        <time>2015-04-13T19:19:03.425Z</time>
      </trkpt>
      <trkpt lat="48.90551" lon="2.4715">
        <ele>103.8</ele>
        <time>2015-04-13T19:19:04.351Z</time>
      </trkpt>
      <trkpt lat="48.90549" lon="2.47136">
        <ele>103.7</ele>
        <time>2015-04-13T19:19:06.381Z</time>
      </trkpt>
      <trkpt lat="48.90548" lon="2.47129">
        <ele>103.7</ele>
        <time>2015-04-13T19:19:07.381Z</time>
      </trkpt>
      <trkpt lat="48.90547" lon="2.47122">
        <ele>103.7</ele>
        <time>2015-04-13T19:19:08.391Z</time>
      </trkpt>
      <trkpt lat="48.90545" lon="2.47115">
        <ele>103.7</ele>
        <time>2015-04-13T19:19:09.429Z</time>
      </trkpt>
      <trkpt lat="48.90544" lon="2.47108">
        <ele>103.6</ele>
        <time>2015-04-13T19:19:10.343Z</time>
      </trkpt>
      <trkpt lat="48.90543" lon="2.47101">
        <ele>103.5</ele>
        <time>2015-04-13T19:19:11.348Z</time>
      </trkpt>
      <trkpt lat="48.90542" lon="2.47095">
        <ele>103.6</ele>
        <time>2015-04-13T19:19:12.362Z</time>
      </trkpt>
      <trkpt lat="48.90541" lon="2.47088">
        <ele>103.7</ele>
        <time>2015-04-13T19:19:13.360Z</time>
      </trkpt>
      <trkpt lat="48.9054" lon="2.47081">
        <ele>103.8</ele>
        <time>2015-04-13T19:19:14.403Z</time>
      </trkpt>
      <trkpt lat="48.90538" lon="2.47074">
        <ele>103.9</ele>
        <time>2015-04-13T19:19:15.304Z</time>
      </trkpt>
      <trkpt lat="48.90536" lon="2.47066">
        <ele>104</ele>
        <time>2015-04-13T19:19:16.354Z</time>
      </trkpt>
      <trkpt lat="48.90534" lon="2.47059">
        <ele>104.1</ele>
        <time>2015-04-13T19:19:17.378Z</time>
      </trkpt>
      <trkpt lat="48.90533" lon="2.47052">
        <ele>104.2</ele>
        <time>2015-04-13T19:19:18.402Z</time>
      </trkpt>
      <trkpt lat="48.90532" lon="2.47045">
        <ele>104.5</ele>
        <time>2015-04-13T19:19:19.412Z</time>
      </trkpt>
      <trkpt lat="48.90531" lon="2.47038">
        <ele>104.7</ele>
        <time>2015-04-13T19:19:20.417Z</time>
      </trkpt>
      <trkpt lat="48.9053" lon="2.47032">
        <ele>105</ele>
        <time>2015-04-13T19:19:21.423Z</time>
      </trkpt>
      <trkpt lat="48.90525" lon="2.4702">
        <ele>105.3</ele>
        <time>2015-04-13T19:19:23.386Z</time>
      </trkpt>
      <trkpt lat="48.90522" lon="2.47016">
        <ele>105.5</ele>
        <time>2015-04-13T19:19:24.348Z</time>
      </trkpt>
      <trkpt lat="48.90516" lon="2.47006">
        <ele>105.7</ele>
        <time>2015-04-13T19:19:26.412Z</time>
      </trkpt>
      <trkpt lat="48.90514" lon="2.47002">
        <ele>105.7</ele>
        <time>2015-04-13T19:19:27.403Z</time>
      </trkpt>
      <trkpt lat="48.90511" lon="2.46992">
        <ele>106.1</ele>
        <time>2015-04-13T19:19:29.334Z</time>
      </trkpt>
      <trkpt lat="48.9051" lon="2.46987">
        <ele>106.3</ele>
        <time>2015-04-13T19:19:30.426Z</time>
      </trkpt>
      <trkpt lat="48.90509" lon="2.4698">
        <ele>106.5</ele>
        <time>2015-04-13T19:19:31.371Z</time>
      </trkpt>
      <trkpt lat="48.90508" lon="2.46973">
        <ele>107.1</ele>
        <time>2015-04-13T19:19:32.483Z</time>
      </trkpt>
      <trkpt lat="48.90506" lon="2.46965">
        <ele>107.4</ele>
        <time>2015-04-13T19:19:33.340Z</time>
      </trkpt>
      <trkpt lat="48.90504" lon="2.46957">
        <ele>107.8</ele>
        <time>2015-04-13T19:19:34.360Z</time>
      </trkpt>
      <trkpt lat="48.90502" lon="2.46949">
        <ele>108.2</ele>
        <time>2015-04-13T19:19:35.372Z</time>
      </trkpt>
      <trkpt lat="48.90499" lon="2.46941">
        <ele>108.9</ele>
        <time>2015-04-13T19:19:36.381Z</time>
      </trkpt>
      <trkpt lat="48.90497" lon="2.46934">
        <ele>109.5</ele>
        <time>2015-04-13T19:19:37.398Z</time>
      </trkpt>
      <trkpt lat="48.90494" lon="2.46927">
        <ele>110.8</ele>
        <time>2015-04-13T19:19:38.411Z</time>
      </trkpt>
      <trkpt lat="48.90492" lon="2.4692">
        <ele>112</ele>
        <time>2015-04-13T19:19:39.337Z</time>
      </trkpt>
      <trkpt lat="48.90491" lon="2.46911">
        <ele>112.6</ele>
        <time>2015-04-13T19:19:40.360Z</time>
      </trkpt>
      <trkpt lat="48.90489" lon="2.46902">
        <ele>113.6</ele>
        <time>2015-04-13T19:19:41.341Z</time>
      </trkpt>
      <trkpt lat="48.90486" lon="2.46894">
        <ele>115</ele>
        <time>2015-04-13T19:19:42.347Z</time>
      </trkpt>
      <trkpt lat="48.90483" lon="2.46885">
        <ele>116.7</ele>
        <time>2015-04-13T19:19:43.388Z</time>
      </trkpt>
      <trkpt lat="48.90481" lon="2.46876">
        <ele>117.8</ele>
        <time>2015-04-13T19:19:44.388Z</time>
      </trkpt>
      <trkpt lat="48.9048" lon="2.46868">
        <ele>118.2</ele>
        <time>2015-04-13T19:19:45.407Z</time>
      </trkpt>
      <trkpt lat="48.90479" lon="2.4686">
        <ele>118.4</ele>
        <time>2015-04-13T19:19:46.414Z</time>
      </trkpt>
      <trkpt lat="48.90478" lon="2.46852">
        <ele>118.5</ele>
        <time>2015-04-13T19:19:47.337Z</time>
      </trkpt>
      <trkpt lat="48.90477" lon="2.46844">
        <ele>118.5</ele>
        <time>2015-04-13T19:19:48.344Z</time>
      </trkpt>
      <trkpt lat="48.90475" lon="2.46835">
        <ele>118.6</ele>
        <time>2015-04-13T19:19:49.362Z</time>
      </trkpt>
      <trkpt lat="48.90474" lon="2.46827">
        <ele>118.9</ele>
        <time>2015-04-13T19:19:50.375Z</time>
      </trkpt>
      <trkpt lat="48.90473" lon="2.46818">
        <ele>119.2</ele>
        <time>2015-04-13T19:19:51.386Z</time>
      </trkpt>
      <trkpt lat="48.90472" lon="2.4681">
        <ele>119.8</ele>
        <time>2015-04-13T19:19:52.399Z</time>
      </trkpt>
      <trkpt lat="48.90471" lon="2.46801">
        <ele>120.3</ele>
        <time>2015-04-13T19:19:53.411Z</time>
      </trkpt>
      <trkpt lat="48.90469" lon="2.46792">
        <ele>121</ele>
        <time>2015-04-13T19:19:54.434Z</time>
      </trkpt>
      <trkpt lat="48.90468" lon="2.46783">
        <ele>121.3</ele>
        <time>2015-04-13T19:19:55.433Z</time>
      </trkpt>
      <trkpt lat="48.90467" lon="2.46774">
        <ele>121.9</ele>
        <time>2015-04-13T19:19:56.445Z</time>
      </trkpt>
      <trkpt lat="48.90466" lon="2.46766">
        <ele>122.4</ele>
        <time>2015-04-13T19:19:57.339Z</time>
      </trkpt>
      <trkpt lat="48.90465" lon="2.46757">
        <ele>122.9</ele>
        <time>2015-04-13T19:19:58.348Z</time>
      </trkpt>
      <trkpt lat="48.90462" lon="2.4675">
        <ele>124.9</ele>
        <time>2015-04-13T19:19:59.359Z</time>
      </trkpt>
      <trkpt lat="48.90459" lon="2.46742">
        <ele>125.7</ele>
        <time>2015-04-13T19:20:00.365Z</time>
      </trkpt>
      <trkpt lat="48.90456" lon="2.46735">
        <ele>128.4</ele>
        <time>2015-04-13T19:20:01.394Z</time>
      </trkpt>
      <trkpt lat="48.90453" lon="2.46729">
        <ele>130.9</ele>
        <time>2015-04-13T19:20:02.408Z</time>
      </trkpt>
      <trkpt lat="48.90451" lon="2.4672">
        <ele>131.8</ele>
        <time>2015-04-13T19:20:03.426Z</time>
      </trkpt>
      <trkpt lat="48.90449" lon="2.46712">
        <ele>132.4</ele>
        <time>2015-04-13T19:20:04.338Z</time>
      </trkpt>
      <trkpt lat="48.90448" lon="2.46704">
        <ele>133.1</ele>
        <time>2015-04-13T19:20:05.368Z</time>
      </trkpt>
      <trkpt lat="48.90446" lon="2.46696">
        <ele>134</ele>
        <time>2015-04-13T19:20:06.370Z</time>
      </trkpt>
      <trkpt lat="48.90445" lon="2.46688">
        <ele>134.6</ele>
        <time>2015-04-13T19:20:07.397Z</time>
      </trkpt>
      <trkpt lat="48.90444" lon="2.46679">
        <ele>135.1</ele>
        <time>2015-04-13T19:20:08.408Z</time>
      </trkpt>
      <trkpt lat="48.90443" lon="2.4667">
        <ele>135.7</ele>
        <time>2015-04-13T19:20:09.418Z</time>
      </trkpt>
      <trkpt lat="48.90442" lon="2.46662">
        <ele>136.3</ele>
        <time>2015-04-13T19:20:10.339Z</time>
      </trkpt>
      <trkpt lat="48.90441" lon="2.46653">
        <ele>136.8</ele>
        <time>2015-04-13T19:20:11.343Z</time>
      </trkpt>
      <trkpt lat="48.9044" lon="2.46645">
        <ele>137</ele>
        <time>2015-04-13T19:20:12.352Z</time>
      </trkpt>
      <trkpt lat="48.90439" lon="2.46637">
        <ele>137.1</ele>
        <time>2015-04-13T19:20:13.380Z</time>
      </trkpt>
      <trkpt lat="48.90438" lon="2.46629">
        <ele>137.2</ele>
        <time>2015-04-13T19:20:14.391Z</time>
      </trkpt>
      <trkpt lat="48.90437" lon="2.46621">
        <ele>137.5</ele>
        <time>2015-04-13T19:20:15.407Z</time>
      </trkpt>
      <trkpt lat="48.90437" lon="2.46614">
        <ele>137.6</ele>
        <time>2015-04-13T19:20:16.420Z</time>
      </trkpt>
      <trkpt lat="48.90436" lon="2.46606">
        <ele>137.7</ele>
        <time>2015-04-13T19:20:17.332Z</time>
      </trkpt>
      <trkpt lat="48.90434" lon="2.46598">
        <ele>137.7</ele>
        <time>2015-04-13T19:20:18.354Z</time>
      </trkpt>
      <trkpt lat="48.90434" lon="2.46591">
        <ele>137.7</ele>
        <time>2015-04-13T19:20:19.386Z</time>
      </trkpt>
      <trkpt lat="48.90434" lon="2.46584">
        <ele>137.7</ele>
        <time>2015-04-13T19:20:20.393Z</time>
      </trkpt>
      <trkpt lat="48.90434" lon="2.46571">
        <ele>137.8</ele>
        <time>2015-04-13T19:20:22.405Z</time>
      </trkpt>
      <trkpt lat="48.90434" lon="2.46566">
        <ele>138.1</ele>
        <time>2015-04-13T19:20:23.302Z</time>
      </trkpt>
      <trkpt lat="48.90431" lon="2.46558">
        <ele>138</ele>
        <time>2015-04-13T19:20:24.414Z</time>
      </trkpt>
      <trkpt lat="48.9043" lon="2.46552">
        <ele>137.9</ele>
        <time>2015-04-13T19:20:25.423Z</time>
      </trkpt>
      <trkpt lat="48.90427" lon="2.46541">
        <ele>138.1</ele>
        <time>2015-04-13T19:20:27.336Z</time>
      </trkpt>
      <trkpt lat="48.90425" lon="2.46534">
        <ele>138.2</ele>
        <time>2015-04-13T19:20:28.352Z</time>
      </trkpt>
      <trkpt lat="48.90424" lon="2.46528">
        <ele>138.2</ele>
        <time>2015-04-13T19:20:29.384Z</time>
      </trkpt>
      <trkpt lat="48.90423" lon="2.46521">
        <ele>138.4</ele>
        <time>2015-04-13T19:20:30.388Z</time>
      </trkpt>
      <trkpt lat="48.90422" lon="2.46507">
        <ele>138.9</ele>
        <time>2015-04-13T19:20:32.417Z</time>
      </trkpt>
      <trkpt lat="48.90422" lon="2.46501">
        <ele>138.9</ele>
        <time>2015-04-13T19:20:33.365Z</time>
      </trkpt>
      <trkpt lat="48.90419" lon="2.46489">
        <ele>138.9</ele>
        <time>2015-04-13T19:20:35.315Z</time>
      </trkpt>
      <trkpt lat="48.90418" lon="2.46483">
        <ele>139.1</ele>
        <time>2015-04-13T19:20:36.382Z</time>
      </trkpt>
      <trkpt lat="48.90412" lon="2.46474">
        <ele>141.7</ele>
        <time>2015-04-13T19:20:38.403Z</time>
      </trkpt>
      <trkpt lat="48.9041" lon="2.46468">
        <ele>142.6</ele>
        <time>2015-04-13T19:20:39.309Z</time>
      </trkpt>
      <trkpt lat="48.90408" lon="2.46455">
        <ele>143.4</ele>
        <time>2015-04-13T19:20:41.331Z</time>
      </trkpt>
      <trkpt lat="48.90407" lon="2.46448">
        <ele>143.5</ele>
        <time>2015-04-13T19:20:42.348Z</time>
      </trkpt>
      <trkpt lat="48.90406" lon="2.46442">
        <ele>143.7</ele>
        <time>2015-04-13T19:20:43.370Z</time>
      </trkpt>
      <trkpt lat="48.90404" lon="2.46435">
        <ele>143.9</ele>
        <time>2015-04-13T19:20:44.365Z</time>
      </trkpt>
      <trkpt lat="48.90403" lon="2.46428">
        <ele>144</ele>
        <time>2015-04-13T19:20:45.294Z</time>
      </trkpt>
      <trkpt lat="48.90401" lon="2.46421">
        <ele>145</ele>
        <time>2015-04-13T19:20:46.316Z</time>
      </trkpt>
      <trkpt lat="48.90399" lon="2.46415">
        <ele>145.6</ele>
        <time>2015-04-13T19:20:47.326Z</time>
      </trkpt>
      <trkpt lat="48.90397" lon="2.46408">
        <ele>146</ele>
        <time>2015-04-13T19:20:48.346Z</time>
      </trkpt>
      <trkpt lat="48.90395" lon="2.46401">
        <ele>146.7</ele>
        <time>2015-04-13T19:20:49.420Z</time>
      </trkpt>
      <trkpt lat="48.90394" lon="2.46393">
        <ele>147</ele>
        <time>2015-04-13T19:20:50.320Z</time>
      </trkpt>
      <trkpt lat="48.90392" lon="2.46385">
        <ele>147.3</ele>
        <time>2015-04-13T19:20:51.337Z</time>
      </trkpt>
      <trkpt lat="48.9039" lon="2.46377">
        <ele>147.3</ele>
        <time>2015-04-13T19:20:52.347Z</time>
      </trkpt>
      <trkpt lat="48.90389" lon="2.46369">
        <ele>147.2</ele>
        <time>2015-04-13T19:20:53.406Z</time>
      </trkpt>
      <trkpt lat="48.90388" lon="2.4636">
        <ele>147.1</ele>
        <time>2015-04-13T19:20:54.555Z</time>
      </trkpt>
      <trkpt lat="48.90386" lon="2.46352">
        <ele>146.9</ele>
        <time>2015-04-13T19:20:55.344Z</time>
      </trkpt>
      <trkpt lat="48.90385" lon="2.46344">
        <ele>146.9</ele>
        <time>2015-04-13T19:20:56.357Z</time>
      </trkpt>
      <trkpt lat="48.90383" lon="2.46335">
        <ele>146.8</ele>
        <time>2015-04-13T19:20:57.408Z</time>
      </trkpt>
      <trkpt lat="48.90382" lon="2.46327">
        <ele>146.7</ele>
        <time>2015-04-13T19:20:58.415Z</time>
      </trkpt>
      <trkpt lat="48.9038" lon="2.46318">
        <ele>146.5</ele>
        <time>2015-04-13T19:20:59.374Z</time>
      </trkpt>
      <trkpt lat="48.90379" lon="2.46309">
        <ele>146.4</ele>
        <time>2015-04-13T19:21:00.308Z</time>
      </trkpt>
      <trkpt lat="48.90377" lon="2.463">
        <ele>146.2</ele>
        <time>2015-04-13T19:21:01.388Z</time>
      </trkpt>
      <trkpt lat="48.90375" lon="2.46291">
        <ele>146.3</ele>
        <time>2015-04-13T19:21:02.409Z</time>
      </trkpt>
      <trkpt lat="48.90373" lon="2.46282">
        <ele>146.1</ele>
        <time>2015-04-13T19:21:03.353Z</time>
      </trkpt>
      <trkpt lat="48.90371" lon="2.46274">
        <ele>146.5</ele>
        <time>2015-04-13T19:21:04.362Z</time>
      </trkpt>
      <trkpt lat="48.90368" lon="2.46266">
        <ele>147.4</ele>
        <time>2015-04-13T19:21:05.437Z</time>
      </trkpt>
      <trkpt lat="48.90366" lon="2.46258">
        <ele>147.6</ele>
        <time>2015-04-13T19:21:06.335Z</time>
      </trkpt>
      <trkpt lat="48.90364" lon="2.46249">
        <ele>147.5</ele>
        <time>2015-04-13T19:21:07.353Z</time>
      </trkpt>
      <trkpt lat="48.90363" lon="2.4624">
        <ele>147.6</ele>
        <time>2015-04-13T19:21:08.349Z</time>
      </trkpt>
      <trkpt lat="48.90361" lon="2.46232">
        <ele>147.6</ele>
        <time>2015-04-13T19:21:09.378Z</time>
      </trkpt>
      <trkpt lat="48.90359" lon="2.46223">
        <ele>147.7</ele>
        <time>2015-04-13T19:21:10.385Z</time>
      </trkpt>
      <trkpt lat="48.90357" lon="2.46214">
        <ele>147.9</ele>
        <time>2015-04-13T19:21:11.415Z</time>
      </trkpt>
      <trkpt lat="48.90355" lon="2.46205">
        <ele>148.1</ele>
        <time>2015-04-13T19:21:12.356Z</time>
      </trkpt>
      <trkpt lat="48.90354" lon="2.46196">
        <ele>148.3</ele>
        <time>2015-04-13T19:21:13.401Z</time>
      </trkpt>
      <trkpt lat="48.90352" lon="2.46188">
        <ele>148.5</ele>
        <time>2015-04-13T19:21:14.389Z</time>
      </trkpt>
      <trkpt lat="48.90351" lon="2.4618">
        <ele>148.7</ele>
        <time>2015-04-13T19:21:15.341Z</time>
      </trkpt>
      <trkpt lat="48.90349" lon="2.46172">
        <ele>148.7</ele>
        <time>2015-04-13T19:21:16.350Z</time>
      </trkpt>
      <trkpt lat="48.90348" lon="2.46165">
        <ele>148.8</ele>
        <time>2015-04-13T19:21:17.411Z</time>
      </trkpt>
      <trkpt lat="48.90346" lon="2.46156">
        <ele>149</ele>
        <time>2015-04-13T19:21:18.423Z</time>
      </trkpt>
      <trkpt lat="48.90344" lon="2.46147">
        <ele>149.2</ele>
        <time>2015-04-13T19:21:19.439Z</time>
      </trkpt>
      <trkpt lat="48.90342" lon="2.46139">
        <ele>149.4</ele>
        <time>2015-04-13T19:21:20.359Z</time>
      </trkpt>
      <trkpt lat="48.90338" lon="2.4613">
        <ele>150.8</ele>
        <time>2015-04-13T19:21:21.405Z</time>
      </trkpt>
      <trkpt lat="48.90336" lon="2.46121">
        <ele>151.2</ele>
        <time>2015-04-13T19:21:22.414Z</time>
      </trkpt>
      <trkpt lat="48.90335" lon="2.46114">
        <ele>151.3</ele>
        <time>2015-04-13T19:21:23.337Z</time>
      </trkpt>
      <trkpt lat="48.90333" lon="2.46107">
        <ele>151.2</ele>
        <time>2015-04-13T19:21:24.352Z</time>
      </trkpt>
      <trkpt lat="48.90332" lon="2.461">
        <ele>151.3</ele>
        <time>2015-04-13T19:21:25.355Z</time>
      </trkpt>
      <trkpt lat="48.90331" lon="2.46092">
        <ele>151.3</ele>
        <time>2015-04-13T19:21:26.367Z</time>
      </trkpt>
      <trkpt lat="48.9033" lon="2.46085">
        <ele>151.3</ele>
        <time>2015-04-13T19:21:27.375Z</time>
      </trkpt>
      <trkpt lat="48.90328" lon="2.46077">
        <ele>152</ele>
        <time>2015-04-13T19:21:28.389Z</time>
      </trkpt>
      <trkpt lat="48.90327" lon="2.4607">
        <ele>152.4</ele>
        <time>2015-04-13T19:21:29.416Z</time>
      </trkpt>
      <trkpt lat="48.90325" lon="2.46063">
        <ele>152.7</ele>
        <time>2015-04-13T19:21:30.426Z</time>
      </trkpt>
      <trkpt lat="48.90324" lon="2.46056">
        <ele>153.2</ele>
        <time>2015-04-13T19:21:31.425Z</time>
      </trkpt>
      <trkpt lat="48.90322" lon="2.46049">
        <ele>153.4</ele>
        <time>2015-04-13T19:21:32.443Z</time>
      </trkpt>
      <trkpt lat="48.90321" lon="2.46041">
        <ele>153.7</ele>
        <time>2015-04-13T19:21:33.301Z</time>
      </trkpt>
      <trkpt lat="48.90319" lon="2.46034">
        <ele>154</ele>
        <time>2015-04-13T19:21:34.333Z</time>
      </trkpt>
      <trkpt lat="48.90317" lon="2.46026">
        <ele>154.2</ele>
        <time>2015-04-13T19:21:35.333Z</time>
      </trkpt>
      <trkpt lat="48.90316" lon="2.46018">
        <ele>154</ele>
        <time>2015-04-13T19:21:36.335Z</time>
      </trkpt>
      <trkpt lat="48.90314" lon="2.4601">
        <ele>153.9</ele>
        <time>2015-04-13T19:21:37.351Z</time>
      </trkpt>
      <trkpt lat="48.90312" lon="2.46002">
        <ele>153.7</ele>
        <time>2015-04-13T19:21:38.357Z</time>
      </trkpt>
      <trkpt lat="48.90311" lon="2.45994">
        <ele>153.7</ele>
        <time>2015-04-13T19:21:39.373Z</time>
      </trkpt>
      <trkpt lat="48.9031" lon="2.45985">
        <ele>153.8</ele>
        <time>2015-04-13T19:21:40.387Z</time>
      </trkpt>
      <trkpt lat="48.90309" lon="2.45977">
        <ele>153.7</ele>
        <time>2015-04-13T19:21:41.392Z</time>
      </trkpt>
      <trkpt lat="48.90307" lon="2.45969">
        <ele>153.9</ele>
        <time>2015-04-13T19:21:42.412Z</time>
      </trkpt>
      <trkpt lat="48.90305" lon="2.45961">
        <ele>154.3</ele>
        <time>2015-04-13T19:21:43.423Z</time>
      </trkpt>
      <trkpt lat="48.90303" lon="2.45952">
        <ele>154.7</ele>
        <time>2015-04-13T19:21:44.456Z</time>
      </trkpt>
      <trkpt lat="48.90301" lon="2.45944">
        <ele>155.2</ele>
        <time>2015-04-13T19:21:45.338Z</time>
      </trkpt>
      <trkpt lat="48.90299" lon="2.45935">
        <ele>155.7</ele>
        <time>2015-04-13T19:21:46.346Z</time>
      </trkpt>
      <trkpt lat="48.90298" lon="2.45926">
        <ele>156.1</ele>
        <time>2015-04-13T19:21:47.349Z</time>
      </trkpt>
      <trkpt lat="48.90296" lon="2.45918">
        <ele>156.2</ele>
        <time>2015-04-13T19:21:48.361Z</time>
      </trkpt>
      <trkpt lat="48.90294" lon="2.45909">
        <ele>156.5</ele>
        <time>2015-04-13T19:21:49.379Z</time>
      </trkpt>
      <trkpt lat="48.90292" lon="2.45901">
        <ele>156.7</ele>
        <time>2015-04-13T19:21:50.409Z</time>
      </trkpt>
      <trkpt lat="48.90291" lon="2.45892">
        <ele>157.1</ele>
        <time>2015-04-13T19:21:51.340Z</time>
      </trkpt>
      <trkpt lat="48.9029" lon="2.45884">
        <ele>157.3</ele>
        <time>2015-04-13T19:21:52.342Z</time>
      </trkpt>
      <trkpt lat="48.90288" lon="2.45875">
        <ele>157.4</ele>
        <time>2015-04-13T19:21:53.349Z</time>
      </trkpt>
      <trkpt lat="48.90286" lon="2.45866">
        <ele>157.4</ele>
        <time>2015-04-13T19:21:54.351Z</time>
      </trkpt>
      <trkpt lat="48.90285" lon="2.45858">
        <ele>157.3</ele>
        <time>2015-04-13T19:21:55.377Z</time>
      </trkpt>
      <trkpt lat="48.90282" lon="2.4585">
        <ele>157.6</ele>
        <time>2015-04-13T19:21:56.372Z</time>
      </trkpt>
      <trkpt lat="48.90281" lon="2.45842">
        <ele>157.6</ele>
        <time>2015-04-13T19:21:57.389Z</time>
      </trkpt>
      <trkpt lat="48.90279" lon="2.45834">
        <ele>157.7</ele>
        <time>2015-04-13T19:21:58.404Z</time>
      </trkpt>
      <trkpt lat="48.90278" lon="2.45826">
        <ele>157.5</ele>
        <time>2015-04-13T19:21:59.404Z</time>
      </trkpt>
      <trkpt lat="48.90277" lon="2.45818">
        <ele>157.8</ele>
        <time>2015-04-13T19:22:00.306Z</time>
      </trkpt>
      <trkpt lat="48.90275" lon="2.4581">
        <ele>158.2</ele>
        <time>2015-04-13T19:22:01.360Z</time>
      </trkpt>
      <trkpt lat="48.90273" lon="2.45802">
        <ele>159</ele>
        <time>2015-04-13T19:22:02.365Z</time>
      </trkpt>
      <trkpt lat="48.90271" lon="2.45793">
        <ele>159.4</ele>
        <time>2015-04-13T19:22:03.397Z</time>
      </trkpt>
      <trkpt lat="48.9027" lon="2.45785">
        <ele>159.7</ele>
        <time>2015-04-13T19:22:04.415Z</time>
      </trkpt>
      <trkpt lat="48.90268" lon="2.45776">
        <ele>159.9</ele>
        <time>2015-04-13T19:22:05.332Z</time>
      </trkpt>
      <trkpt lat="48.90267" lon="2.45768">
        <ele>160.3</ele>
        <time>2015-04-13T19:22:06.336Z</time>
      </trkpt>
      <trkpt lat="48.90265" lon="2.45759">
        <ele>160.3</ele>
        <time>2015-04-13T19:22:07.359Z</time>
      </trkpt>
      <trkpt lat="48.90263" lon="2.45751">
        <ele>160.9</ele>
        <time>2015-04-13T19:22:08.372Z</time>
      </trkpt>
      <trkpt lat="48.90261" lon="2.45743">
        <ele>161.3</ele>
        <time>2015-04-13T19:22:09.390Z</time>
      </trkpt>
      <trkpt lat="48.90259" lon="2.45735">
        <ele>162</ele>
        <time>2015-04-13T19:22:10.398Z</time>
      </trkpt>
      <trkpt lat="48.90257" lon="2.45727">
        <ele>162.4</ele>
        <time>2015-04-13T19:22:11.423Z</time>
      </trkpt>
      <trkpt lat="48.90255" lon="2.45719">
        <ele>162.8</ele>
        <time>2015-04-13T19:22:12.306Z</time>
      </trkpt>
      <trkpt lat="48.90253" lon="2.45711">
        <ele>163.2</ele>
        <time>2015-04-13T19:22:13.360Z</time>
      </trkpt>
      <trkpt lat="48.90251" lon="2.45703">
        <ele>163.2</ele>
        <time>2015-04-13T19:22:14.362Z</time>
      </trkpt>
      <trkpt lat="48.9025" lon="2.45694">
        <ele>163.2</ele>
        <time>2015-04-13T19:22:15.349Z</time>
      </trkpt>
      <trkpt lat="48.90249" lon="2.45686">
        <ele>163.3</ele>
        <time>2015-04-13T19:22:16.358Z</time>
      </trkpt>
      <trkpt lat="48.90247" lon="2.45678">
        <ele>163.4</ele>
        <time>2015-04-13T19:22:17.389Z</time>
      </trkpt>
      <trkpt lat="48.90246" lon="2.4567">
        <ele>163.4</ele>
        <time>2015-04-13T19:22:18.431Z</time>
      </trkpt>
      <trkpt lat="48.90244" lon="2.45662">
        <ele>163.4</ele>
        <time>2015-04-13T19:22:19.443Z</time>
      </trkpt>
      <trkpt lat="48.90243" lon="2.45653">
        <ele>163.6</ele>
        <time>2015-04-13T19:22:20.337Z</time>
      </trkpt>
      <trkpt lat="48.90241" lon="2.45645">
        <ele>163.9</ele>
        <time>2015-04-13T19:22:21.363Z</time>
      </trkpt>
      <trkpt lat="48.90238" lon="2.45637">
        <ele>164</ele>
        <time>2015-04-13T19:22:22.386Z</time>
      </trkpt>
      <trkpt lat="48.90237" lon="2.45628">
        <ele>164</ele>
        <time>2015-04-13T19:22:23.400Z</time>
      </trkpt>
      <trkpt lat="48.90236" lon="2.4562">
        <ele>163.8</ele>
        <time>2015-04-13T19:22:24.310Z</time>
      </trkpt>
      <trkpt lat="48.90235" lon="2.45611">
        <ele>163.7</ele>
        <time>2015-04-13T19:22:25.357Z</time>
      </trkpt>
      <trkpt lat="48.90233" lon="2.45603">
        <ele>163.4</ele>
        <time>2015-04-13T19:22:26.370Z</time>
      </trkpt>
      <trkpt lat="48.90233" lon="2.45594">
        <ele>163.3</ele>
        <time>2015-04-13T19:22:27.387Z</time>
      </trkpt>
      <trkpt lat="48.90231" lon="2.45586">
        <ele>163.1</ele>
        <time>2015-04-13T19:22:28.398Z</time>
      </trkpt>
      <trkpt lat="48.9023" lon="2.45578">
        <ele>163.3</ele>
        <time>2015-04-13T19:22:29.294Z</time>
      </trkpt>
      <trkpt lat="48.90229" lon="2.45571">
        <ele>163.3</ele>
        <time>2015-04-13T19:22:30.299Z</time>
      </trkpt>
      <trkpt lat="48.90227" lon="2.45564">
        <ele>163.5</ele>
        <time>2015-04-13T19:22:31.350Z</time>
      </trkpt>
      <trkpt lat="48.90226" lon="2.45556">
        <ele>163.5</ele>
        <time>2015-04-13T19:22:32.369Z</time>
      </trkpt>
      <trkpt lat="48.90224" lon="2.45547">
        <ele>163.6</ele>
        <time>2015-04-13T19:22:33.373Z</time>
      </trkpt>
      <trkpt lat="48.90223" lon="2.45539">
        <ele>163.6</ele>
        <time>2015-04-13T19:22:34.382Z</time>
      </trkpt>
      <trkpt lat="48.90222" lon="2.4553">
        <ele>163.5</ele>
        <time>2015-04-13T19:22:35.385Z</time>
      </trkpt>
      <trkpt lat="48.90221" lon="2.45522">
        <ele>163.5</ele>
        <time>2015-04-13T19:22:36.410Z</time>
      </trkpt>
      <trkpt lat="48.9022" lon="2.45514">
        <ele>163.4</ele>
        <time>2015-04-13T19:22:37.417Z</time>
      </trkpt>
      <trkpt lat="48.90218" lon="2.45506">
        <ele>163.1</ele>
        <time>2015-04-13T19:22:38.420Z</time>
      </trkpt>
      <trkpt lat="48.90216" lon="2.45498">
        <ele>163.1</ele>
        <time>2015-04-13T19:22:39.351Z</time>
      </trkpt>
      <trkpt lat="48.90215" lon="2.4549">
        <ele>163.4</ele>
        <time>2015-04-13T19:22:40.343Z</time>
      </trkpt>
      <trkpt lat="48.90213" lon="2.45482">
        <ele>163.6</ele>
        <time>2015-04-13T19:22:41.357Z</time>
      </trkpt>
      <trkpt lat="48.90211" lon="2.45474">
        <ele>163.9</ele>
        <time>2015-04-13T19:22:42.370Z</time>
      </trkpt>
      <trkpt lat="48.90209" lon="2.45467">
        <ele>164.4</ele>
        <time>2015-04-13T19:22:43.377Z</time>
      </trkpt>
      <trkpt lat="48.90208" lon="2.45459">
        <ele>164.3</ele>
        <time>2015-04-13T19:22:44.394Z</time>
      </trkpt>
      <trkpt lat="48.90206" lon="2.45451">
        <ele>164.5</ele>
        <time>2015-04-13T19:22:45.395Z</time>
      </trkpt>
      <trkpt lat="48.90205" lon="2.45444">
        <ele>164.8</ele>
        <time>2015-04-13T19:22:46.411Z</time>
      </trkpt>
      <trkpt lat="48.90203" lon="2.45437">
        <ele>165.1</ele>
        <time>2015-04-13T19:22:47.414Z</time>
      </trkpt>
      <trkpt lat="48.90202" lon="2.45431">
        <ele>165</ele>
        <time>2015-04-13T19:22:48.341Z</time>
      </trkpt>
      <trkpt lat="48.90199" lon="2.45418">
        <ele>165.2</ele>
        <time>2015-04-13T19:22:50.351Z</time>
      </trkpt>
      <trkpt lat="48.90198" lon="2.45411">
        <ele>165.2</ele>
        <time>2015-04-13T19:22:51.384Z</time>
      </trkpt>
      <trkpt lat="48.90197" lon="2.45403">
        <ele>165.2</ele>
        <time>2015-04-13T19:22:52.412Z</time>
      </trkpt>
      <trkpt lat="48.90195" lon="2.45396">
        <ele>164.9</ele>
        <time>2015-04-13T19:22:53.418Z</time>
      </trkpt>
      <trkpt lat="48.90194" lon="2.45389">
        <ele>164.8</ele>
        <time>2015-04-13T19:22:54.321Z</time>
      </trkpt>
      <trkpt lat="48.90193" lon="2.45382">
        <ele>164.8</ele>
        <time>2015-04-13T19:22:55.343Z</time>
      </trkpt>
      <trkpt lat="48.90192" lon="2.45375">
        <ele>164.7</ele>
        <time>2015-04-13T19:22:56.358Z</time>
      </trkpt>
      <trkpt lat="48.9019" lon="2.45367">
        <ele>164.4</ele>
        <time>2015-04-13T19:22:57.361Z</time>
      </trkpt>
      <trkpt lat="48.90188" lon="2.4536">
        <ele>164.2</ele>
        <time>2015-04-13T19:22:58.357Z</time>
      </trkpt>
      <trkpt lat="48.90187" lon="2.45352">
        <ele>164.2</ele>
        <time>2015-04-13T19:22:59.370Z</time>
      </trkpt>
      <trkpt lat="48.90185" lon="2.45345">
        <ele>164.4</ele>
        <time>2015-04-13T19:23:00.371Z</time>
      </trkpt>
      <trkpt lat="48.90183" lon="2.45337">
        <ele>164.7</ele>
        <time>2015-04-13T19:23:01.384Z</time>
      </trkpt>
      <trkpt lat="48.90181" lon="2.4533">
        <ele>165.1</ele>
        <time>2015-04-13T19:23:02.396Z</time>
      </trkpt>
      <trkpt lat="48.9018" lon="2.45323">
        <ele>165.2</ele>
        <time>2015-04-13T19:23:03.402Z</time>
      </trkpt>
      <trkpt lat="48.90178" lon="2.45315">
        <ele>165.4</ele>
        <time>2015-04-13T19:23:04.412Z</time>
      </trkpt>
      <trkpt lat="48.90176" lon="2.45307">
        <ele>165.6</ele>
        <time>2015-04-13T19:23:05.325Z</time>
      </trkpt>
      <trkpt lat="48.90175" lon="2.45299">
        <ele>165.6</ele>
        <time>2015-04-13T19:23:06.325Z</time>
      </trkpt>
      <trkpt lat="48.90174" lon="2.45291">
        <ele>165.3</ele>
        <time>2015-04-13T19:23:07.324Z</time>
      </trkpt>
      <trkpt lat="48.90172" lon="2.45283">
        <ele>165.2</ele>
        <time>2015-04-13T19:23:08.353Z</time>
      </trkpt>
      <trkpt lat="48.90171" lon="2.45275">
        <ele>165.1</ele>
        <time>2015-04-13T19:23:09.356Z</time>
      </trkpt>
      <trkpt lat="48.90169" lon="2.45267">
        <ele>165.1</ele>
        <time>2015-04-13T19:23:10.374Z</time>
      </trkpt>
      <trkpt lat="48.90168" lon="2.45259">
        <ele>165</ele>
        <time>2015-04-13T19:23:11.412Z</time>
      </trkpt>
      <trkpt lat="48.90167" lon="2.45251">
        <ele>165</ele>
        <time>2015-04-13T19:23:12.330Z</time>
      </trkpt>
      <trkpt lat="48.90165" lon="2.45243">
        <ele>165</ele>
        <time>2015-04-13T19:23:13.449Z</time>
      </trkpt>
      <trkpt lat="48.90163" lon="2.45234">
        <ele>165</ele>
        <time>2015-04-13T19:23:14.377Z</time>
      </trkpt>
      <trkpt lat="48.90162" lon="2.45226">
        <ele>165</ele>
        <time>2015-04-13T19:23:15.349Z</time>
      </trkpt>
      <trkpt lat="48.9016" lon="2.45217">
        <ele>165.1</ele>
        <time>2015-04-13T19:23:16.325Z</time>
      </trkpt>
      <trkpt lat="48.90158" lon="2.45209">
        <ele>165.2</ele>
        <time>2015-04-13T19:23:17.321Z</time>
      </trkpt>
      <trkpt lat="48.90157" lon="2.452">
        <ele>165.3</ele>
        <time>2015-04-13T19:23:18.332Z</time>
      </trkpt>
      <trkpt lat="48.90155" lon="2.45191">
        <ele>165.3</ele>
        <time>2015-04-13T19:23:19.342Z</time>
      </trkpt>
      <trkpt lat="48.90153" lon="2.45182">
        <ele>165</ele>
        <time>2015-04-13T19:23:20.355Z</time>
      </trkpt>
      <trkpt lat="48.90152" lon="2.45174">
        <ele>164.8</ele>
        <time>2015-04-13T19:23:21.365Z</time>
      </trkpt>
      <trkpt lat="48.9015" lon="2.45165">
        <ele>164.5</ele>
        <time>2015-04-13T19:23:22.389Z</time>
      </trkpt>
      <trkpt lat="48.90148" lon="2.45158">
        <ele>164.4</ele>
        <time>2015-04-13T19:23:23.389Z</time>
      </trkpt>
      <trkpt lat="48.90147" lon="2.45151">
        <ele>164.1</ele>
        <time>2015-04-13T19:23:24.398Z</time>
      </trkpt>
      <trkpt lat="48.90146" lon="2.45143">
        <ele>163.9</ele>
        <time>2015-04-13T19:23:25.408Z</time>
      </trkpt>
      <trkpt lat="48.90145" lon="2.45136">
        <ele>163.6</ele>
        <time>2015-04-13T19:23:26.423Z</time>
      </trkpt>
      <trkpt lat="48.90143" lon="2.45129">
        <ele>163.5</ele>
        <time>2015-04-13T19:23:27.330Z</time>
      </trkpt>
      <trkpt lat="48.90142" lon="2.45123">
        <ele>163.3</ele>
        <time>2015-04-13T19:23:28.345Z</time>
      </trkpt>
      <trkpt lat="48.90141" lon="2.45116">
        <ele>163.2</ele>
        <time>2015-04-13T19:23:29.352Z</time>
      </trkpt>
      <trkpt lat="48.9014" lon="2.45109">
        <ele>163</ele>
        <time>2015-04-13T19:23:30.364Z</time>
      </trkpt>
      <trkpt lat="48.90138" lon="2.45103">
        <ele>162.9</ele>
        <time>2015-04-13T19:23:31.374Z</time>
      </trkpt>
      <trkpt lat="48.90137" lon="2.45095">
        <ele>163</ele>
        <time>2015-04-13T19:23:32.388Z</time>
      </trkpt>
      <trkpt lat="48.90135" lon="2.45088">
        <ele>162.7</ele>
        <time>2015-04-13T19:23:33.400Z</time>
      </trkpt>
      <trkpt lat="48.90134" lon="2.45081">
        <ele>162.5</ele>
        <time>2015-04-13T19:23:34.409Z</time>
      </trkpt>
      <trkpt lat="48.90132" lon="2.45074">
        <ele>162.6</ele>
        <time>2015-04-13T19:23:35.418Z</time>
      </trkpt>
      <trkpt lat="48.9013" lon="2.45066">
        <ele>162.5</ele>
        <time>2015-04-13T19:23:36.337Z</time>
      </trkpt>
      <trkpt lat="48.90127" lon="2.45058">
        <ele>162.5</ele>
        <time>2015-04-13T19:23:37.355Z</time>
      </trkpt>
      <trkpt lat="48.90126" lon="2.4505">
        <ele>162.6</ele>
        <time>2015-04-13T19:23:38.360Z</time>
      </trkpt>
      <trkpt lat="48.90124" lon="2.45042">
        <ele>162.6</ele>
        <time>2015-04-13T19:23:39.376Z</time>
      </trkpt>
      <trkpt lat="48.90123" lon="2.45034">
        <ele>162.6</ele>
        <time>2015-04-13T19:23:40.417Z</time>
      </trkpt>
      <trkpt lat="48.90121" lon="2.45025">
        <ele>162.7</ele>
        <time>2015-04-13T19:23:41.337Z</time>
      </trkpt>
      <trkpt lat="48.90119" lon="2.45017">
        <ele>162.8</ele>
        <time>2015-04-13T19:23:42.332Z</time>
      </trkpt>
      <trkpt lat="48.90117" lon="2.45008">
        <ele>162.8</ele>
        <time>2015-04-13T19:23:43.357Z</time>
      </trkpt>
      <trkpt lat="48.90116" lon="2.45">
        <ele>162.9</ele>
        <time>2015-04-13T19:23:44.373Z</time>
      </trkpt>
      <trkpt lat="48.90114" lon="2.44991">
        <ele>162.8</ele>
        <time>2015-04-13T19:23:45.384Z</time>
      </trkpt>
      <trkpt lat="48.90113" lon="2.44983">
        <ele>162.8</ele>
        <time>2015-04-13T19:23:46.398Z</time>
      </trkpt>
      <trkpt lat="48.90111" lon="2.44974">
        <ele>162.6</ele>
        <time>2015-04-13T19:23:47.403Z</time>
      </trkpt>
      <trkpt lat="48.90109" lon="2.44965">
        <ele>162.5</ele>
        <time>2015-04-13T19:23:48.327Z</time>
      </trkpt>
      <trkpt lat="48.90107" lon="2.44957">
        <ele>162.5</ele>
        <time>2015-04-13T19:23:49.421Z</time>
      </trkpt>
      <trkpt lat="48.90105" lon="2.44949">
        <ele>162.5</ele>
        <time>2015-04-13T19:23:50.427Z</time>
      </trkpt>
      <trkpt lat="48.90103" lon="2.44941">
        <ele>162.5</ele>
        <time>2015-04-13T19:23:51.338Z</time>
      </trkpt>
      <trkpt lat="48.90101" lon="2.44933">
        <ele>162.6</ele>
        <time>2015-04-13T19:23:52.370Z</time>
      </trkpt>
      <trkpt lat="48.901" lon="2.44925">
        <ele>162.7</ele>
        <time>2015-04-13T19:23:53.382Z</time>
      </trkpt>
      <trkpt lat="48.90098" lon="2.44917">
        <ele>162.8</ele>
        <time>2015-04-13T19:23:54.392Z</time>
      </trkpt>
      <trkpt lat="48.90096" lon="2.44909">
        <ele>163</ele>
        <time>2015-04-13T19:23:55.404Z</time>
      </trkpt>
      <trkpt lat="48.90095" lon="2.44901">
        <ele>163.3</ele>
        <time>2015-04-13T19:23:56.415Z</time>
      </trkpt>
      <trkpt lat="48.90093" lon="2.44893">
        <ele>163.5</ele>
        <time>2015-04-13T19:23:57.321Z</time>
      </trkpt>
      <trkpt lat="48.90092" lon="2.44885">
        <ele>163.7</ele>
        <time>2015-04-13T19:23:58.334Z</time>
      </trkpt>
      <trkpt lat="48.9009" lon="2.44876">
        <ele>163.9</ele>
        <time>2015-04-13T19:23:59.385Z</time>
      </trkpt>
      <trkpt lat="48.90088" lon="2.44868">
        <ele>164</ele>
        <time>2015-04-13T19:24:00.298Z</time>
      </trkpt>
      <trkpt lat="48.90086" lon="2.4486">
        <ele>164.1</ele>
        <time>2015-04-13T19:24:01.335Z</time>
      </trkpt>
      <trkpt lat="48.90084" lon="2.44852">
        <ele>164.3</ele>
        <time>2015-04-13T19:24:02.401Z</time>
      </trkpt>
      <trkpt lat="48.90082" lon="2.44843">
        <ele>164.5</ele>
        <time>2015-04-13T19:24:03.399Z</time>
      </trkpt>
      <trkpt lat="48.90081" lon="2.44835">
        <ele>164.6</ele>
        <time>2015-04-13T19:24:04.319Z</time>
      </trkpt>
      <trkpt lat="48.90079" lon="2.44827">
        <ele>164.5</ele>
        <time>2015-04-13T19:24:05.318Z</time>
      </trkpt>
      <trkpt lat="48.90078" lon="2.44819">
        <ele>164.6</ele>
        <time>2015-04-13T19:24:06.346Z</time>
      </trkpt>
      <trkpt lat="48.90077" lon="2.44811">
        <ele>164.8</ele>
        <time>2015-04-13T19:24:07.358Z</time>
      </trkpt>
      <trkpt lat="48.90075" lon="2.44803">
        <ele>164.8</ele>
        <time>2015-04-13T19:24:08.374Z</time>
      </trkpt>
      <trkpt lat="48.90074" lon="2.44796">
        <ele>164.8</ele>
        <time>2015-04-13T19:24:09.388Z</time>
      </trkpt>
      <trkpt lat="48.90072" lon="2.44788">
        <ele>164.7</ele>
        <time>2015-04-13T19:24:10.400Z</time>
      </trkpt>
      <trkpt lat="48.90071" lon="2.44779">
        <ele>164.7</ele>
        <time>2015-04-13T19:24:11.403Z</time>
      </trkpt>
      <trkpt lat="48.90069" lon="2.44771">
        <ele>165</ele>
        <time>2015-04-13T19:24:12.319Z</time>
      </trkpt>
      <trkpt lat="48.90067" lon="2.44763">
        <ele>164.8</ele>
        <time>2015-04-13T19:24:13.363Z</time>
      </trkpt>
      <trkpt lat="48.90066" lon="2.44754">
        <ele>163.7</ele>
        <time>2015-04-13T19:24:14.358Z</time>
      </trkpt>
      <trkpt lat="48.90065" lon="2.44746">
        <ele>163.8</ele>
        <time>2015-04-13T19:24:15.373Z</time>
      </trkpt>
      <trkpt lat="48.90063" lon="2.44738">
        <ele>163.8</ele>
        <time>2015-04-13T19:24:16.373Z</time>
      </trkpt>
      <trkpt lat="48.90061" lon="2.44731">
        <ele>164.1</ele>
        <time>2015-04-13T19:24:17.386Z</time>
      </trkpt>
      <trkpt lat="48.90059" lon="2.44724">
        <ele>165.2</ele>
        <time>2015-04-13T19:24:18.407Z</time>
      </trkpt>
      <trkpt lat="48.90057" lon="2.44716">
        <ele>165.8</ele>
        <time>2015-04-13T19:24:19.399Z</time>
      </trkpt>
      <trkpt lat="48.90056" lon="2.44708">
        <ele>165.5</ele>
        <time>2015-04-13T19:24:20.417Z</time>
      </trkpt>
      <trkpt lat="48.90055" lon="2.44701">
        <ele>165.2</ele>
        <time>2015-04-13T19:24:21.318Z</time>
      </trkpt>
      <trkpt lat="48.90053" lon="2.44693">
        <ele>164.9</ele>
        <time>2015-04-13T19:24:22.327Z</time>
      </trkpt>
      <trkpt lat="48.90052" lon="2.44686">
        <ele>164.8</ele>
        <time>2015-04-13T19:24:23.332Z</time>
      </trkpt>
      <trkpt lat="48.9005" lon="2.44678">
        <ele>164.6</ele>
        <time>2015-04-13T19:24:24.343Z</time>
      </trkpt>
      <trkpt lat="48.90049" lon="2.4467">
        <ele>164.6</ele>
        <time>2015-04-13T19:24:25.360Z</time>
      </trkpt>
      <trkpt lat="48.90048" lon="2.44662">
        <ele>164.6</ele>
        <time>2015-04-13T19:24:26.395Z</time>
      </trkpt>
      <trkpt lat="48.90046" lon="2.44655">
        <ele>165.5</ele>
        <time>2015-04-13T19:24:27.372Z</time>
      </trkpt>
      <trkpt lat="48.90044" lon="2.44647">
        <ele>165.8</ele>
        <time>2015-04-13T19:24:28.390Z</time>
      </trkpt>
      <trkpt lat="48.90043" lon="2.4464">
        <ele>166</ele>
        <time>2015-04-13T19:24:29.400Z</time>
      </trkpt>
      <trkpt lat="48.90041" lon="2.44633">
        <ele>165.9</ele>
        <time>2015-04-13T19:24:30.417Z</time>
      </trkpt>
      <trkpt lat="48.90039" lon="2.44625">
        <ele>165.6</ele>
        <time>2015-04-13T19:24:31.427Z</time>
      </trkpt>
      <trkpt lat="48.90036" lon="2.44618">
        <ele>165.4</ele>
        <time>2015-04-13T19:24:32.446Z</time>
      </trkpt>
      <trkpt lat="48.90034" lon="2.44611">
        <ele>165.1</ele>
        <time>2015-04-13T19:24:33.344Z</time>
      </trkpt>
      <trkpt lat="48.90032" lon="2.44603">
        <ele>164.8</ele>
        <time>2015-04-13T19:24:34.369Z</time>
      </trkpt>
      <trkpt lat="48.9003" lon="2.44595">
        <ele>164.2</ele>
        <time>2015-04-13T19:24:35.374Z</time>
      </trkpt>
      <trkpt lat="48.90029" lon="2.44587">
        <ele>163.4</ele>
        <time>2015-04-13T19:24:36.384Z</time>
      </trkpt>
      <trkpt lat="48.90027" lon="2.44579">
        <ele>162.7</ele>
        <time>2015-04-13T19:24:37.402Z</time>
      </trkpt>
      <trkpt lat="48.90026" lon="2.4457">
        <ele>162</ele>
        <time>2015-04-13T19:24:38.421Z</time>
      </trkpt>
      <trkpt lat="48.90024" lon="2.44562">
        <ele>161.6</ele>
        <time>2015-04-13T19:24:39.369Z</time>
      </trkpt>
      <trkpt lat="48.90023" lon="2.44554">
        <ele>161.2</ele>
        <time>2015-04-13T19:24:40.432Z</time>
      </trkpt>
      <trkpt lat="48.90021" lon="2.44546">
        <ele>160.7</ele>
        <time>2015-04-13T19:24:41.351Z</time>
      </trkpt>
      <trkpt lat="48.9002" lon="2.44538">
        <ele>160.3</ele>
        <time>2015-04-13T19:24:42.346Z</time>
      </trkpt>
      <trkpt lat="48.90018" lon="2.4453">
        <ele>159.9</ele>
        <time>2015-04-13T19:24:43.395Z</time>
      </trkpt>
      <trkpt lat="48.90017" lon="2.44521">
        <ele>159.3</ele>
        <time>2015-04-13T19:24:44.408Z</time>
      </trkpt>
      <trkpt lat="48.90015" lon="2.44514">
        <ele>158.7</ele>
        <time>2015-04-13T19:24:45.418Z</time>
      </trkpt>
      <trkpt lat="48.90014" lon="2.44506">
        <ele>158.2</ele>
        <time>2015-04-13T19:24:46.417Z</time>
      </trkpt>
      <trkpt lat="48.90012" lon="2.44498">
        <ele>158</ele>
        <time>2015-04-13T19:24:47.314Z</time>
      </trkpt>
      <trkpt lat="48.90011" lon="2.4449">
        <ele>158.2</ele>
        <time>2015-04-13T19:24:48.357Z</time>
      </trkpt>
      <trkpt lat="48.90009" lon="2.44482">
        <ele>157.9</ele>
        <time>2015-04-13T19:24:49.363Z</time>
      </trkpt>
      <trkpt lat="48.90008" lon="2.44474">
        <ele>157.5</ele>
        <time>2015-04-13T19:24:50.375Z</time>
      </trkpt>
      <trkpt lat="48.90006" lon="2.44465">
        <ele>157.2</ele>
        <time>2015-04-13T19:24:51.381Z</time>
      </trkpt>
      <trkpt lat="48.90004" lon="2.44457">
        <ele>156.9</ele>
        <time>2015-04-13T19:24:52.393Z</time>
      </trkpt>
      <trkpt lat="48.90002" lon="2.44449">
        <ele>156.4</ele>
        <time>2015-04-13T19:24:53.403Z</time>
      </trkpt>
      <trkpt lat="48.9" lon="2.44441">
        <ele>156.1</ele>
        <time>2015-04-13T19:24:54.427Z</time>
      </trkpt>
      <trkpt lat="48.89998" lon="2.44433">
        <ele>155.7</ele>
        <time>2015-04-13T19:24:55.362Z</time>
      </trkpt>
      <trkpt lat="48.89997" lon="2.44425">
        <ele>155.7</ele>
        <time>2015-04-13T19:24:56.359Z</time>
      </trkpt>
      <trkpt lat="48.89995" lon="2.44418">
        <ele>155.5</ele>
        <time>2015-04-13T19:24:57.373Z</time>
      </trkpt>
      <trkpt lat="48.89994" lon="2.4441">
        <ele>155.2</ele>
        <time>2015-04-13T19:24:58.395Z</time>
      </trkpt>
      <trkpt lat="48.89992" lon="2.44402">
        <ele>155</ele>
        <time>2015-04-13T19:24:59.400Z</time>
      </trkpt>
      <trkpt lat="48.8999" lon="2.44395">
        <ele>154.7</ele>
        <time>2015-04-13T19:25:00.313Z</time>
      </trkpt>
      <trkpt lat="48.89989" lon="2.44387">
        <ele>154.6</ele>
        <time>2015-04-13T19:25:01.418Z</time>
      </trkpt>
      <trkpt lat="48.89987" lon="2.44379">
        <ele>154.5</ele>
        <time>2015-04-13T19:25:02.427Z</time>
      </trkpt>
      <trkpt lat="48.89985" lon="2.44371">
        <ele>154.5</ele>
        <time>2015-04-13T19:25:03.339Z</time>
      </trkpt>
      <trkpt lat="48.89984" lon="2.44363">
        <ele>154.5</ele>
        <time>2015-04-13T19:25:04.348Z</time>
      </trkpt>
      <trkpt lat="48.89982" lon="2.44354">
        <ele>154.1</ele>
        <time>2015-04-13T19:25:05.352Z</time>
      </trkpt>
      <trkpt lat="48.89981" lon="2.44346">
        <ele>153.8</ele>
        <time>2015-04-13T19:25:06.367Z</time>
      </trkpt>
      <trkpt lat="48.89979" lon="2.44337">
        <ele>153.6</ele>
        <time>2015-04-13T19:25:07.381Z</time>
      </trkpt>
      <trkpt lat="48.89977" lon="2.44329">
        <ele>153.5</ele>
        <time>2015-04-13T19:25:08.384Z</time>
      </trkpt>
      <trkpt lat="48.89976" lon="2.44321">
        <ele>153.1</ele>
        <time>2015-04-13T19:25:09.389Z</time>
      </trkpt>
      <trkpt lat="48.89974" lon="2.44313">
        <ele>152.9</ele>
        <time>2015-04-13T19:25:10.416Z</time>
      </trkpt>
      <trkpt lat="48.89972" lon="2.44305">
        <ele>152.8</ele>
        <time>2015-04-13T19:25:11.337Z</time>
      </trkpt>
      <trkpt lat="48.8997" lon="2.44297">
        <ele>152.7</ele>
        <time>2015-04-13T19:25:12.327Z</time>
      </trkpt>
      <trkpt lat="48.89969" lon="2.44289">
        <ele>152.7</ele>
        <time>2015-04-13T19:25:13.334Z</time>
      </trkpt>
      <trkpt lat="48.89967" lon="2.44281">
        <ele>152.7</ele>
        <time>2015-04-13T19:25:14.362Z</time>
      </trkpt>
      <trkpt lat="48.89966" lon="2.44274">
        <ele>152.8</ele>
        <time>2015-04-13T19:25:15.375Z</time>
      </trkpt>
      <trkpt lat="48.89964" lon="2.44266">
        <ele>152.4</ele>
        <time>2015-04-13T19:25:16.396Z</time>
      </trkpt>
      <trkpt lat="48.89962" lon="2.44258">
        <ele>152.2</ele>
        <time>2015-04-13T19:25:17.414Z</time>
      </trkpt>
      <trkpt lat="48.8996" lon="2.44251">
        <ele>152.2</ele>
        <time>2015-04-13T19:25:18.327Z</time>
      </trkpt>
      <trkpt lat="48.89959" lon="2.44244">
        <ele>152.1</ele>
        <time>2015-04-13T19:25:19.339Z</time>
      </trkpt>
      <trkpt lat="48.89958" lon="2.44237">
        <ele>152.2</ele>
        <time>2015-04-13T19:25:20.382Z</time>
      </trkpt>
      <trkpt lat="48.89957" lon="2.4423">
        <ele>152.1</ele>
        <time>2015-04-13T19:25:21.495Z</time>
      </trkpt>
      <trkpt lat="48.89956" lon="2.44223">
        <ele>151.9</ele>
        <time>2015-04-13T19:25:22.291Z</time>
      </trkpt>
      <trkpt lat="48.89955" lon="2.44217">
        <ele>151.7</ele>
        <time>2015-04-13T19:25:23.323Z</time>
      </trkpt>
      <trkpt lat="48.89953" lon="2.44204">
        <ele>151.4</ele>
        <time>2015-04-13T19:25:25.337Z</time>
      </trkpt>
      <trkpt lat="48.89952" lon="2.44197">
        <ele>151.4</ele>
        <time>2015-04-13T19:25:26.386Z</time>
      </trkpt>
      <trkpt lat="48.89949" lon="2.44184">
        <ele>151.4</ele>
        <time>2015-04-13T19:25:28.330Z</time>
      </trkpt>
      <trkpt lat="48.89947" lon="2.44178">
        <ele>151.4</ele>
        <time>2015-04-13T19:25:29.348Z</time>
      </trkpt>
      <trkpt lat="48.89946" lon="2.44165">
        <ele>151.4</ele>
        <time>2015-04-13T19:25:31.405Z</time>
      </trkpt>
      <trkpt lat="48.89945" lon="2.44158">
        <ele>151.3</ele>
        <time>2015-04-13T19:25:32.414Z</time>
      </trkpt>
      <trkpt lat="48.89942" lon="2.44145">
        <ele>150.8</ele>
        <time>2015-04-13T19:25:34.351Z</time>
      </trkpt>
      <trkpt lat="48.89941" lon="2.44139">
        <ele>150.5</ele>
        <time>2015-04-13T19:25:35.339Z</time>
      </trkpt>
      <trkpt lat="48.89939" lon="2.44126">
        <ele>150.1</ele>
        <time>2015-04-13T19:25:37.410Z</time>
      </trkpt>
      <trkpt lat="48.89938" lon="2.44119">
        <ele>149.8</ele>
        <time>2015-04-13T19:25:38.317Z</time>
      </trkpt>
      <trkpt lat="48.89936" lon="2.44112">
        <ele>149.5</ele>
        <time>2015-04-13T19:25:39.318Z</time>
      </trkpt>
      <trkpt lat="48.89935" lon="2.44105">
        <ele>149</ele>
        <time>2015-04-13T19:25:40.327Z</time>
      </trkpt>
      <trkpt lat="48.89934" lon="2.44098">
        <ele>148.8</ele>
        <time>2015-04-13T19:25:41.345Z</time>
      </trkpt>
      <trkpt lat="48.89933" lon="2.44092">
        <ele>148.4</ele>
        <time>2015-04-13T19:25:42.353Z</time>
      </trkpt>
      <trkpt lat="48.8993" lon="2.44079">
        <ele>147.9</ele>
        <time>2015-04-13T19:25:44.312Z</time>
      </trkpt>
      <trkpt lat="48.89929" lon="2.44072">
        <ele>147.8</ele>
        <time>2015-04-13T19:25:45.324Z</time>
      </trkpt>
      <trkpt lat="48.89927" lon="2.4406">
        <ele>147.6</ele>
        <time>2015-04-13T19:25:47.345Z</time>
      </trkpt>
      <trkpt lat="48.89925" lon="2.44053">
        <ele>147.2</ele>
        <time>2015-04-13T19:25:48.378Z</time>
      </trkpt>
      <trkpt lat="48.89924" lon="2.44046">
        <ele>146.9</ele>
        <time>2015-04-13T19:25:49.405Z</time>
      </trkpt>
      <trkpt lat="48.89922" lon="2.44039">
        <ele>146.6</ele>
        <time>2015-04-13T19:25:50.414Z</time>
      </trkpt>
      <trkpt lat="48.89921" lon="2.44033">
        <ele>147.1</ele>
        <time>2015-04-13T19:25:51.326Z</time>
      </trkpt>
      <trkpt lat="48.89919" lon="2.44026">
        <ele>147.6</ele>
        <time>2015-04-13T19:25:52.337Z</time>
      </trkpt>
      <trkpt lat="48.89915" lon="2.44014">
        <ele>149.2</ele>
        <time>2015-04-13T19:25:54.386Z</time>
      </trkpt>
      <trkpt lat="48.89913" lon="2.44007">
        <ele>149.6</ele>
        <time>2015-04-13T19:25:55.409Z</time>
      </trkpt>
      <trkpt lat="48.89912" lon="2.44">
        <ele>149.2</ele>
        <time>2015-04-13T19:25:56.353Z</time>
      </trkpt>
      <trkpt lat="48.8991" lon="2.43993">
        <ele>149</ele>
        <time>2015-04-13T19:25:57.347Z</time>
      </trkpt>
      <trkpt lat="48.89909" lon="2.43986">
        <ele>148.9</ele>
        <time>2015-04-13T19:25:58.381Z</time>
      </trkpt>
      <trkpt lat="48.89907" lon="2.43978">
        <ele>148.7</ele>
        <time>2015-04-13T19:25:59.397Z</time>
      </trkpt>
      <trkpt lat="48.89906" lon="2.43971">
        <ele>148.5</ele>
        <time>2015-04-13T19:26:00.297Z</time>
      </trkpt>
      <trkpt lat="48.89905" lon="2.43964">
        <ele>148.3</ele>
        <time>2015-04-13T19:26:01.333Z</time>
      </trkpt>
      <trkpt lat="48.89903" lon="2.43957">
        <ele>147.9</ele>
        <time>2015-04-13T19:26:02.370Z</time>
      </trkpt>
      <trkpt lat="48.89902" lon="2.4395">
        <ele>147.8</ele>
        <time>2015-04-13T19:26:03.385Z</time>
      </trkpt>
      <trkpt lat="48.899" lon="2.43942">
        <ele>147.6</ele>
        <time>2015-04-13T19:26:04.326Z</time>
      </trkpt>
      <trkpt lat="48.89899" lon="2.43935">
        <ele>147.4</ele>
        <time>2015-04-13T19:26:05.321Z</time>
      </trkpt>
      <trkpt lat="48.89897" lon="2.43928">
        <ele>147.4</ele>
        <time>2015-04-13T19:26:06.332Z</time>
      </trkpt>
      <trkpt lat="48.89896" lon="2.43921">
        <ele>147.3</ele>
        <time>2015-04-13T19:26:07.360Z</time>
      </trkpt>
      <trkpt lat="48.89895" lon="2.43913">
        <ele>147.3</ele>
        <time>2015-04-13T19:26:08.381Z</time>
      </trkpt>
      <trkpt lat="48.89893" lon="2.43906">
        <ele>147.2</ele>
        <time>2015-04-13T19:26:09.386Z</time>
      </trkpt>
      <trkpt lat="48.89892" lon="2.43899">
        <ele>147.2</ele>
        <time>2015-04-13T19:26:10.400Z</time>
      </trkpt>
      <trkpt lat="48.8989" lon="2.43891">
        <ele>147.2</ele>
        <time>2015-04-13T19:26:11.414Z</time>
      </trkpt>
      <trkpt lat="48.89889" lon="2.43884">
        <ele>147.1</ele>
        <time>2015-04-13T19:26:12.346Z</time>
      </trkpt>
      <trkpt lat="48.89888" lon="2.43876">
        <ele>146.9</ele>
        <time>2015-04-13T19:26:13.368Z</time>
      </trkpt>
      <trkpt lat="48.89886" lon="2.43868">
        <ele>146.6</ele>
        <time>2015-04-13T19:26:14.321Z</time>
      </trkpt>
      <trkpt lat="48.89885" lon="2.4386">
        <ele>146.3</ele>
        <time>2015-04-13T19:26:15.335Z</time>
      </trkpt>
      <trkpt lat="48.89883" lon="2.43852">
        <ele>146.2</ele>
        <time>2015-04-13T19:26:16.334Z</time>
      </trkpt>
      <trkpt lat="48.89882" lon="2.43844">
        <ele>146</ele>
        <time>2015-04-13T19:26:17.347Z</time>
      </trkpt>
      <trkpt lat="48.89881" lon="2.43836">
        <ele>145.8</ele>
        <time>2015-04-13T19:26:18.367Z</time>
      </trkpt>
      <trkpt lat="48.89879" lon="2.43828">
        <ele>145.8</ele>
        <time>2015-04-13T19:26:19.379Z</time>
      </trkpt>
      <trkpt lat="48.89878" lon="2.43821">
        <ele>145.5</ele>
        <time>2015-04-13T19:26:20.392Z</time>
      </trkpt>
      <trkpt lat="48.89876" lon="2.43813">
        <ele>145.2</ele>
        <time>2015-04-13T19:26:21.291Z</time>
      </trkpt>
      <trkpt lat="48.89874" lon="2.43806">
        <ele>144.9</ele>
        <time>2015-04-13T19:26:22.325Z</time>
      </trkpt>
      <trkpt lat="48.89873" lon="2.43798">
        <ele>144.7</ele>
        <time>2015-04-13T19:26:23.329Z</time>
      </trkpt>
      <trkpt lat="48.89871" lon="2.4379">
        <ele>144.4</ele>
        <time>2015-04-13T19:26:24.370Z</time>
      </trkpt>
      <trkpt lat="48.8987" lon="2.43783">
        <ele>144.2</ele>
        <time>2015-04-13T19:26:25.380Z</time>
      </trkpt>
      <trkpt lat="48.89869" lon="2.43776">
        <ele>144.2</ele>
        <time>2015-04-13T19:26:26.325Z</time>
      </trkpt>
      <trkpt lat="48.89868" lon="2.43768">
        <ele>144.1</ele>
        <time>2015-04-13T19:26:27.320Z</time>
      </trkpt>
      <trkpt lat="48.89867" lon="2.43761">
        <ele>143.9</ele>
        <time>2015-04-13T19:26:28.349Z</time>
      </trkpt>
      <trkpt lat="48.89866" lon="2.43755">
        <ele>143.9</ele>
        <time>2015-04-13T19:26:29.351Z</time>
      </trkpt>
      <trkpt lat="48.89863" lon="2.43742">
        <ele>143.5</ele>
        <time>2015-04-13T19:26:31.432Z</time>
      </trkpt>
      <trkpt lat="48.89862" lon="2.43737">
        <ele>143.2</ele>
        <time>2015-04-13T19:26:32.417Z</time>
      </trkpt>
      <trkpt lat="48.8986" lon="2.43728">
        <ele>142.5</ele>
        <time>2015-04-13T19:26:34.349Z</time>
      </trkpt>
      <trkpt lat="48.89859" lon="2.43723">
        <ele>141.7</ele>
        <time>2015-04-13T19:26:35.359Z</time>
      </trkpt>
      <trkpt lat="48.89857" lon="2.43711">
        <ele>141</ele>
        <time>2015-04-13T19:26:38.396Z</time>
      </trkpt>
      <trkpt lat="48.89856" lon="2.43708">
        <ele>140.6</ele>
        <time>2015-04-13T19:26:39.348Z</time>
      </trkpt>
      <trkpt lat="48.89852" lon="2.43696">
        <ele>139.7</ele>
        <time>2015-04-13T19:26:43.351Z</time>
      </trkpt>
      <trkpt lat="48.89851" lon="2.43694">
        <ele>139.3</ele>
        <time>2015-04-13T19:26:44.384Z</time>
      </trkpt>
      <trkpt lat="48.89849" lon="2.43682">
        <ele>138.8</ele>
        <time>2015-04-13T19:26:48.362Z</time>
      </trkpt>
      <trkpt lat="48.89849" lon="2.43679">
        <ele>138.9</ele>
        <time>2015-04-13T19:26:49.389Z</time>
      </trkpt>
      <trkpt lat="48.89848" lon="2.43669">
        <ele>139</ele>
        <time>2015-04-13T19:26:52.382Z</time>
      </trkpt>
      <trkpt lat="48.89847" lon="2.43664">
        <ele>138.8</ele>
        <time>2015-04-13T19:26:53.394Z</time>
      </trkpt>
      <trkpt lat="48.89846" lon="2.43653">
        <ele>138.5</ele>
        <time>2015-04-13T19:26:55.339Z</time>
      </trkpt>
      <trkpt lat="48.89845" lon="2.43648">
        <ele>138.4</ele>
        <time>2015-04-13T19:26:56.408Z</time>
      </trkpt>
      <trkpt lat="48.89843" lon="2.43636">
        <ele>138.1</ele>
        <time>2015-04-13T19:26:58.312Z</time>
      </trkpt>
      <trkpt lat="48.89841" lon="2.43631">
        <ele>138.1</ele>
        <time>2015-04-13T19:26:59.313Z</time>
      </trkpt>
      <trkpt lat="48.89839" lon="2.43621">
        <ele>137.9</ele>
        <time>2015-04-13T19:27:01.403Z</time>
      </trkpt>
      <trkpt lat="48.89838" lon="2.43617">
        <ele>137.8</ele>
        <time>2015-04-13T19:27:02.339Z</time>
      </trkpt>
      <trkpt lat="48.89836" lon="2.43604">
        <ele>137.4</ele>
        <time>2015-04-13T19:27:05.375Z</time>
      </trkpt>
      <trkpt lat="48.89836" lon="2.436">
        <ele>136.8</ele>
        <time>2015-04-13T19:27:06.386Z</time>
      </trkpt>
      <trkpt lat="48.89839" lon="2.43589">
        <ele>135.5</ele>
        <time>2015-04-13T19:27:10.348Z</time>
      </trkpt>
      <trkpt lat="48.89841" lon="2.43586">
        <ele>135.4</ele>
        <time>2015-04-13T19:27:11.359Z</time>
      </trkpt>
      <trkpt lat="48.89844" lon="2.43583">
        <ele>135.3</ele>
        <time>2015-04-13T19:27:13.321Z</time>
      </trkpt>
      <trkpt lat="48.89859" lon="2.43551">
        <ele>138.1</ele>
        <time>2015-04-13T19:27:27.462Z</time>
      </trkpt>
      <trkpt lat="48.89856" lon="2.43542">
        <ele>140</ele>
        <time>2015-04-13T19:27:30.314Z</time>
      </trkpt>
      <trkpt lat="48.89856" lon="2.43533">
        <ele>141.5</ele>
        <time>2015-04-13T19:27:31.349Z</time>
      </trkpt>
      <trkpt lat="48.89855" lon="2.43517">
        <ele>144.4</ele>
        <time>2015-04-13T19:27:32.394Z</time>
      </trkpt>
      <trkpt lat="48.8985" lon="2.435">
        <ele>145.3</ele>
        <time>2015-04-13T19:27:33.441Z</time>
      </trkpt>
      <trkpt lat="48.89845" lon="2.43486">
        <ele>145.7</ele>
        <time>2015-04-13T19:27:34.300Z</time>
      </trkpt>
      <trkpt lat="48.8984" lon="2.43475">
        <ele>148.6</ele>
        <time>2015-04-13T19:27:35.310Z</time>
      </trkpt>
      <trkpt lat="48.89836" lon="2.43465">
        <ele>151.4</ele>
        <time>2015-04-13T19:27:36.320Z</time>
      </trkpt>
      <trkpt lat="48.89831" lon="2.43455">
        <ele>153</ele>
        <time>2015-04-13T19:27:37.344Z</time>
      </trkpt>
      <trkpt lat="48.89824" lon="2.43444">
        <ele>151</ele>
        <time>2015-04-13T19:27:38.346Z</time>
      </trkpt>
      <trkpt lat="48.89819" lon="2.43435">
        <ele>150.2</ele>
        <time>2015-04-13T19:27:39.361Z</time>
      </trkpt>
      <trkpt lat="48.89814" lon="2.43426">
        <ele>149.1</ele>
        <time>2015-04-13T19:27:40.367Z</time>
      </trkpt>
      <trkpt lat="48.89809" lon="2.43419">
        <ele>151.3</ele>
        <time>2015-04-13T19:27:41.388Z</time>
      </trkpt>
      <trkpt lat="48.89807" lon="2.43411">
        <ele>151</ele>
        <time>2015-04-13T19:27:42.335Z</time>
      </trkpt>
      <trkpt lat="48.89804" lon="2.43403">
        <ele>150.6</ele>
        <time>2015-04-13T19:27:43.334Z</time>
      </trkpt>
      <trkpt lat="48.89801" lon="2.43395">
        <ele>149.7</ele>
        <time>2015-04-13T19:27:44.329Z</time>
      </trkpt>
      <trkpt lat="48.89799" lon="2.43387">
        <ele>148.6</ele>
        <time>2015-04-13T19:27:45.345Z</time>
      </trkpt>
      <trkpt lat="48.89797" lon="2.43379">
        <ele>148.7</ele>
        <time>2015-04-13T19:27:46.360Z</time>
      </trkpt>
      <trkpt lat="48.89794" lon="2.4337">
        <ele>148.3</ele>
        <time>2015-04-13T19:27:47.370Z</time>
      </trkpt>
      <trkpt lat="48.89792" lon="2.43362">
        <ele>146.1</ele>
        <time>2015-04-13T19:27:48.388Z</time>
      </trkpt>
      <trkpt lat="48.89789" lon="2.43354">
        <ele>145.1</ele>
        <time>2015-04-13T19:27:49.416Z</time>
      </trkpt>
      <trkpt lat="48.89787" lon="2.43346">
        <ele>143.9</ele>
        <time>2015-04-13T19:27:50.409Z</time>
      </trkpt>
      <trkpt lat="48.89786" lon="2.43339">
        <ele>144.4</ele>
        <time>2015-04-13T19:27:51.320Z</time>
      </trkpt>
      <trkpt lat="48.89784" lon="2.43332">
        <ele>145.1</ele>
        <time>2015-04-13T19:27:52.290Z</time>
      </trkpt>
      <trkpt lat="48.89783" lon="2.43325">
        <ele>145.4</ele>
        <time>2015-04-13T19:27:53.313Z</time>
      </trkpt>
      <trkpt lat="48.89781" lon="2.43318">
        <ele>145.5</ele>
        <time>2015-04-13T19:27:54.315Z</time>
      </trkpt>
      <trkpt lat="48.8978" lon="2.43311">
        <ele>146</ele>
        <time>2015-04-13T19:27:55.348Z</time>
      </trkpt>
      <trkpt lat="48.89779" lon="2.43304">
        <ele>146.1</ele>
        <time>2015-04-13T19:27:56.347Z</time>
      </trkpt>
      <trkpt lat="48.89776" lon="2.43292">
        <ele>145</ele>
        <time>2015-04-13T19:27:58.369Z</time>
      </trkpt>
      <trkpt lat="48.89774" lon="2.43285">
        <ele>144.3</ele>
        <time>2015-04-13T19:27:59.372Z</time>
      </trkpt>
      <trkpt lat="48.89772" lon="2.43273">
        <ele>143.7</ele>
        <time>2015-04-13T19:28:01.411Z</time>
      </trkpt>
      <trkpt lat="48.89771" lon="2.43266">
        <ele>143.2</ele>
        <time>2015-04-13T19:28:02.427Z</time>
      </trkpt>
      <trkpt lat="48.89768" lon="2.43254">
        <ele>142.3</ele>
        <time>2015-04-13T19:28:04.373Z</time>
      </trkpt>
      <trkpt lat="48.89767" lon="2.43248">
        <ele>141.8</ele>
        <time>2015-04-13T19:28:05.451Z</time>
      </trkpt>
      <trkpt lat="48.89765" lon="2.43235">
        <ele>142</ele>
        <time>2015-04-13T19:28:07.366Z</time>
      </trkpt>
      <trkpt lat="48.89763" lon="2.43229">
        <ele>142</ele>
        <time>2015-04-13T19:28:08.417Z</time>
      </trkpt>
      <trkpt lat="48.89761" lon="2.43217">
        <ele>141.2</ele>
        <time>2015-04-13T19:28:10.381Z</time>
      </trkpt>
      <trkpt lat="48.89759" lon="2.43211">
        <ele>141.2</ele>
        <time>2015-04-13T19:28:11.373Z</time>
      </trkpt>
      <trkpt lat="48.89757" lon="2.43198">
        <ele>141.4</ele>
        <time>2015-04-13T19:28:13.401Z</time>
      </trkpt>
      <trkpt lat="48.89756" lon="2.43192">
        <ele>141.2</ele>
        <time>2015-04-13T19:28:14.407Z</time>
      </trkpt>
      <trkpt lat="48.89754" lon="2.43186">
        <ele>140.7</ele>
        <time>2015-04-13T19:28:15.326Z</time>
      </trkpt>
      <trkpt lat="48.89753" lon="2.43179">
        <ele>140.3</ele>
        <time>2015-04-13T19:28:16.323Z</time>
      </trkpt>
      <trkpt lat="48.8975" lon="2.43166">
        <ele>140.6</ele>
        <time>2015-04-13T19:28:18.379Z</time>
      </trkpt>
      <trkpt lat="48.89749" lon="2.4316">
        <ele>141.6</ele>
        <time>2015-04-13T19:28:19.390Z</time>
      </trkpt>
      <trkpt lat="48.89745" lon="2.43148">
        <ele>143.4</ele>
        <time>2015-04-13T19:28:21.308Z</time>
      </trkpt>
      <trkpt lat="48.89744" lon="2.43141">
        <ele>144.4</ele>
        <time>2015-04-13T19:28:22.405Z</time>
      </trkpt>
      <trkpt lat="48.89742" lon="2.43134">
        <ele>145</ele>
        <time>2015-04-13T19:28:23.365Z</time>
      </trkpt>
      <trkpt lat="48.8974" lon="2.43128">
        <ele>146</ele>
        <time>2015-04-13T19:28:24.390Z</time>
      </trkpt>
      <trkpt lat="48.89737" lon="2.43115">
        <ele>147.4</ele>
        <time>2015-04-13T19:28:26.419Z</time>
      </trkpt>
      <trkpt lat="48.89736" lon="2.43109">
        <ele>147.9</ele>
        <time>2015-04-13T19:28:27.347Z</time>
      </trkpt>
      <trkpt lat="48.89732" lon="2.43098">
        <ele>150.2</ele>
        <time>2015-04-13T19:28:29.328Z</time>
      </trkpt>
      <trkpt lat="48.89731" lon="2.43092">
        <ele>150.6</ele>
        <time>2015-04-13T19:28:30.408Z</time>
      </trkpt>
      <trkpt lat="48.89728" lon="2.43079">
        <ele>151.2</ele>
        <time>2015-04-13T19:28:32.455Z</time>
      </trkpt>
      <trkpt lat="48.89727" lon="2.43073">
        <ele>151.8</ele>
        <time>2015-04-13T19:28:33.352Z</time>
      </trkpt>
      <trkpt lat="48.89724" lon="2.43061">
        <ele>152.5</ele>
        <time>2015-04-13T19:28:35.281Z</time>
      </trkpt>
      <trkpt lat="48.89722" lon="2.43055">
        <ele>152.7</ele>
        <time>2015-04-13T19:28:36.310Z</time>
      </trkpt>
      <trkpt lat="48.89719" lon="2.43042">
        <ele>152.8</ele>
        <time>2015-04-13T19:28:38.342Z</time>
      </trkpt>
      <trkpt lat="48.89718" lon="2.43036">
        <ele>152.9</ele>
        <time>2015-04-13T19:28:39.347Z</time>
      </trkpt>
      <trkpt lat="48.89716" lon="2.43023">
        <ele>153.2</ele>
        <time>2015-04-13T19:28:41.443Z</time>
      </trkpt>
      <trkpt lat="48.89714" lon="2.43016">
        <ele>153.1</ele>
        <time>2015-04-13T19:28:42.401Z</time>
      </trkpt>
      <trkpt lat="48.89712" lon="2.43003">
        <ele>153.3</ele>
        <time>2015-04-13T19:28:44.463Z</time>
      </trkpt>
      <trkpt lat="48.89711" lon="2.42996">
        <ele>153.3</ele>
        <time>2015-04-13T19:28:45.354Z</time>
      </trkpt>
      <trkpt lat="48.8971" lon="2.42989">
        <ele>153</ele>
        <time>2015-04-13T19:28:46.400Z</time>
      </trkpt>
      <trkpt lat="48.89709" lon="2.42981">
        <ele>152.8</ele>
        <time>2015-04-13T19:28:47.315Z</time>
      </trkpt>
      <trkpt lat="48.89707" lon="2.42975">
        <ele>152.9</ele>
        <time>2015-04-13T19:28:48.319Z</time>
      </trkpt>
      <trkpt lat="48.89706" lon="2.42967">
        <ele>152.5</ele>
        <time>2015-04-13T19:28:49.333Z</time>
      </trkpt>
      <trkpt lat="48.89705" lon="2.4296">
        <ele>152.1</ele>
        <time>2015-04-13T19:28:50.350Z</time>
      </trkpt>
      <trkpt lat="48.89704" lon="2.42953">
        <ele>152</ele>
        <time>2015-04-13T19:28:51.356Z</time>
      </trkpt>
      <trkpt lat="48.89703" lon="2.42946">
        <ele>151.8</ele>
        <time>2015-04-13T19:28:52.380Z</time>
      </trkpt>
      <trkpt lat="48.89702" lon="2.42939">
        <ele>151.6</ele>
        <time>2015-04-13T19:28:53.386Z</time>
      </trkpt>
      <trkpt lat="48.89699" lon="2.42926">
        <ele>151.1</ele>
        <time>2015-04-13T19:28:55.414Z</time>
      </trkpt>
      <trkpt lat="48.89698" lon="2.42919">
        <ele>150.8</ele>
        <time>2015-04-13T19:28:56.426Z</time>
      </trkpt>
      <trkpt lat="48.89697" lon="2.42912">
        <ele>150.4</ele>
        <time>2015-04-13T19:28:57.318Z</time>
      </trkpt>
      <trkpt lat="48.89695" lon="2.42905">
        <ele>150.3</ele>
        <time>2015-04-13T19:28:58.328Z</time>
      </trkpt>
      <trkpt lat="48.89695" lon="2.42899">
        <ele>150.3</ele>
        <time>2015-04-13T19:28:59.344Z</time>
      </trkpt>
      <trkpt lat="48.89694" lon="2.42892">
        <ele>150.3</ele>
        <time>2015-04-13T19:29:00.390Z</time>
      </trkpt>
      <trkpt lat="48.89693" lon="2.42885">
        <ele>150.3</ele>
        <time>2015-04-13T19:29:01.369Z</time>
      </trkpt>
      <trkpt lat="48.89692" lon="2.42878">
        <ele>150.1</ele>
        <time>2015-04-13T19:29:02.364Z</time>
      </trkpt>
      <trkpt lat="48.8969" lon="2.42871">
        <ele>150.1</ele>
        <time>2015-04-13T19:29:03.374Z</time>
      </trkpt>
      <trkpt lat="48.89689" lon="2.42864">
        <ele>150.2</ele>
        <time>2015-04-13T19:29:04.382Z</time>
      </trkpt>
      <trkpt lat="48.89687" lon="2.42857">
        <ele>150</ele>
        <time>2015-04-13T19:29:05.382Z</time>
      </trkpt>
      <trkpt lat="48.89686" lon="2.4285">
        <ele>149.7</ele>
        <time>2015-04-13T19:29:06.289Z</time>
      </trkpt>
      <trkpt lat="48.89685" lon="2.42843">
        <ele>149.5</ele>
        <time>2015-04-13T19:29:07.359Z</time>
      </trkpt>
      <trkpt lat="48.89683" lon="2.42836">
        <ele>149.2</ele>
        <time>2015-04-13T19:29:08.333Z</time>
      </trkpt>
      <trkpt lat="48.89682" lon="2.42829">
        <ele>148.9</ele>
        <time>2015-04-13T19:29:09.377Z</time>
      </trkpt>
      <trkpt lat="48.89681" lon="2.42822">
        <ele>148.9</ele>
        <time>2015-04-13T19:29:10.384Z</time>
      </trkpt>
      <trkpt lat="48.8968" lon="2.42815">
        <ele>148.8</ele>
        <time>2015-04-13T19:29:11.421Z</time>
      </trkpt>
      <trkpt lat="48.89679" lon="2.42808">
        <ele>148.8</ele>
        <time>2015-04-13T19:29:12.320Z</time>
      </trkpt>
      <trkpt lat="48.89678" lon="2.42801">
        <ele>148.7</ele>
        <time>2015-04-13T19:29:13.316Z</time>
      </trkpt>
      <trkpt lat="48.89678" lon="2.42794">
        <ele>148.7</ele>
        <time>2015-04-13T19:29:14.355Z</time>
      </trkpt>
      <trkpt lat="48.89678" lon="2.42781">
        <ele>148.6</ele>
        <time>2015-04-13T19:29:16.377Z</time>
      </trkpt>
      <trkpt lat="48.89677" lon="2.42774">
        <ele>148.5</ele>
        <time>2015-04-13T19:29:17.382Z</time>
      </trkpt>
      <trkpt lat="48.89677" lon="2.42766">
        <ele>147.9</ele>
        <time>2015-04-13T19:29:18.331Z</time>
      </trkpt>
      <trkpt lat="48.89676" lon="2.4276">
        <ele>147.6</ele>
        <time>2015-04-13T19:29:19.335Z</time>
      </trkpt>
      <trkpt lat="48.89673" lon="2.42748">
        <ele>147.3</ele>
        <time>2015-04-13T19:29:21.368Z</time>
      </trkpt>
      <trkpt lat="48.89671" lon="2.42741">
        <ele>147.2</ele>
        <time>2015-04-13T19:29:22.391Z</time>
      </trkpt>
      <trkpt lat="48.89668" lon="2.42729">
        <ele>147.2</ele>
        <time>2015-04-13T19:29:24.363Z</time>
      </trkpt>
      <trkpt lat="48.89667" lon="2.42723">
        <ele>147.3</ele>
        <time>2015-04-13T19:29:25.389Z</time>
      </trkpt>
      <trkpt lat="48.89665" lon="2.42711">
        <ele>147.4</ele>
        <time>2015-04-13T19:29:27.328Z</time>
      </trkpt>
      <trkpt lat="48.89664" lon="2.42706">
        <ele>148.1</ele>
        <time>2015-04-13T19:29:28.393Z</time>
      </trkpt>
      <trkpt lat="48.89661" lon="2.42695">
        <ele>148.8</ele>
        <time>2015-04-13T19:29:30.330Z</time>
      </trkpt>
      <trkpt lat="48.89661" lon="2.42689">
        <ele>148.8</ele>
        <time>2015-04-13T19:29:31.358Z</time>
      </trkpt>
      <trkpt lat="48.8966" lon="2.42678">
        <ele>148.9</ele>
        <time>2015-04-13T19:29:33.338Z</time>
      </trkpt>
      <trkpt lat="48.89659" lon="2.42672">
        <ele>148.8</ele>
        <time>2015-04-13T19:29:34.345Z</time>
      </trkpt>
      <trkpt lat="48.89658" lon="2.4266">
        <ele>148.8</ele>
        <time>2015-04-13T19:29:36.331Z</time>
      </trkpt>
      <trkpt lat="48.89657" lon="2.42654">
        <ele>149.1</ele>
        <time>2015-04-13T19:29:37.338Z</time>
      </trkpt>
      <trkpt lat="48.89653" lon="2.42644">
        <ele>150.7</ele>
        <time>2015-04-13T19:29:39.374Z</time>
      </trkpt>
      <trkpt lat="48.89651" lon="2.42638">
        <ele>151.7</ele>
        <time>2015-04-13T19:29:40.329Z</time>
      </trkpt>
      <trkpt lat="48.89648" lon="2.42633">
        <ele>153.3</ele>
        <time>2015-04-13T19:29:41.309Z</time>
      </trkpt>
      <trkpt lat="48.89646" lon="2.42626">
        <ele>154.5</ele>
        <time>2015-04-13T19:29:42.337Z</time>
      </trkpt>
      <trkpt lat="48.89645" lon="2.4262">
        <ele>154.6</ele>
        <time>2015-04-13T19:29:43.352Z</time>
      </trkpt>
      <trkpt lat="48.89644" lon="2.42613">
        <ele>154.7</ele>
        <time>2015-04-13T19:29:44.362Z</time>
      </trkpt>
      <trkpt lat="48.89644" lon="2.42601">
        <ele>155.2</ele>
        <time>2015-04-13T19:29:46.421Z</time>
      </trkpt>
      <trkpt lat="48.89644" lon="2.42595">
        <ele>155.5</ele>
        <time>2015-04-13T19:29:47.420Z</time>
      </trkpt>
      <trkpt lat="48.89643" lon="2.42585">
        <ele>155.8</ele>
        <time>2015-04-13T19:29:49.374Z</time>
      </trkpt>
      <trkpt lat="48.89643" lon="2.4258">
        <ele>156</ele>
        <time>2015-04-13T19:29:50.418Z</time>
      </trkpt>
      <trkpt lat="48.89642" lon="2.42571">
        <ele>156.5</ele>
        <time>2015-04-13T19:29:52.327Z</time>
      </trkpt>
      <trkpt lat="48.89644" lon="2.42566">
        <ele>155.7</ele>
        <time>2015-04-13T19:29:53.421Z</time>
      </trkpt>
      <trkpt lat="48.8965" lon="2.42557">
        <ele>154</ele>
        <time>2015-04-13T19:29:55.338Z</time>
      </trkpt>
      <trkpt lat="48.89654" lon="2.42554">
        <ele>152.6</ele>
        <time>2015-04-13T19:29:56.432Z</time>
      </trkpt>
      <trkpt lat="48.89659" lon="2.42548">
        <ele>151.2</ele>
        <time>2015-04-13T19:29:58.328Z</time>
      </trkpt>
      <trkpt lat="48.89662" lon="2.42545">
        <ele>150.7</ele>
        <time>2015-04-13T19:29:59.325Z</time>
      </trkpt>
      <trkpt lat="48.89668" lon="2.42538">
        <ele>148.9</ele>
        <time>2015-04-13T19:30:02.366Z</time>
      </trkpt>
      <trkpt lat="48.89671" lon="2.42537">
        <ele>147.3</ele>
        <time>2015-04-13T19:30:03.365Z</time>
      </trkpt>
      <trkpt lat="48.89672" lon="2.42535">
        <ele>144.9</ele>
        <time>2015-04-13T19:30:05.380Z</time>
      </trkpt>
      <trkpt lat="48.89671" lon="2.42535">
        <ele>143.8</ele>
        <time>2015-04-13T19:30:06.392Z</time>
      </trkpt>
      <trkpt lat="48.89671" lon="2.42535">
        <ele>143</ele>
        <time>2015-04-13T19:30:42.327Z</time>
      </trkpt>
      <trkpt lat="48.89668" lon="2.42533">
        <ele>135.2</ele>
        <time>2015-04-13T19:30:43.351Z</time>
      </trkpt>
      <trkpt lat="48.89671" lon="2.42522">
        <ele>133.4</ele>
        <time>2015-04-13T19:30:46.329Z</time>
      </trkpt>
      <trkpt lat="48.89671" lon="2.42517">
        <ele>132.9</ele>
        <time>2015-04-13T19:30:47.328Z</time>
      </trkpt>
      <trkpt lat="48.89673" lon="2.42506">
        <ele>131.8</ele>
        <time>2015-04-13T19:30:49.390Z</time>
      </trkpt>
      <trkpt lat="48.89674" lon="2.425">
        <ele>131.6</ele>
        <time>2015-04-13T19:30:50.391Z</time>
      </trkpt>
      <trkpt lat="48.89675" lon="2.42486">
        <ele>131.2</ele>
        <time>2015-04-13T19:30:52.315Z</time>
      </trkpt>
      <trkpt lat="48.89676" lon="2.42479">
        <ele>131.1</ele>
        <time>2015-04-13T19:30:53.334Z</time>
      </trkpt>
      <trkpt lat="48.89677" lon="2.42471">
        <ele>130.9</ele>
        <time>2015-04-13T19:30:54.305Z</time>
      </trkpt>
      <trkpt lat="48.89678" lon="2.42463">
        <ele>130.7</ele>
        <time>2015-04-13T19:30:55.332Z</time>
      </trkpt>
      <trkpt lat="48.89678" lon="2.42456">
        <ele>130.5</ele>
        <time>2015-04-13T19:30:56.381Z</time>
      </trkpt>
      <trkpt lat="48.89679" lon="2.42449">
        <ele>130.4</ele>
        <time>2015-04-13T19:30:57.372Z</time>
      </trkpt>
      <trkpt lat="48.89679" lon="2.42441">
        <ele>130.2</ele>
        <time>2015-04-13T19:30:58.378Z</time>
      </trkpt>
      <trkpt lat="48.89678" lon="2.42433">
        <ele>130.1</ele>
        <time>2015-04-13T19:30:59.384Z</time>
      </trkpt>
      <trkpt lat="48.89678" lon="2.42425">
        <ele>130.1</ele>
        <time>2015-04-13T19:31:00.558Z</time>
      </trkpt>
      <trkpt lat="48.89679" lon="2.42417">
        <ele>130</ele>
        <time>2015-04-13T19:31:01.408Z</time>
      </trkpt>
      <trkpt lat="48.8968" lon="2.4241">
        <ele>130</ele>
        <time>2015-04-13T19:31:02.418Z</time>
      </trkpt>
      <trkpt lat="48.8968" lon="2.42403">
        <ele>130</ele>
        <time>2015-04-13T19:31:03.324Z</time>
      </trkpt>
      <trkpt lat="48.8968" lon="2.42395">
        <ele>129.9</ele>
        <time>2015-04-13T19:31:04.328Z</time>
      </trkpt>
      <trkpt lat="48.8968" lon="2.42388">
        <ele>129.8</ele>
        <time>2015-04-13T19:31:05.328Z</time>
      </trkpt>
      <trkpt lat="48.8968" lon="2.42381">
        <ele>129.6</ele>
        <time>2015-04-13T19:31:06.347Z</time>
      </trkpt>
      <trkpt lat="48.89679" lon="2.42374">
        <ele>129.4</ele>
        <time>2015-04-13T19:31:07.344Z</time>
      </trkpt>
      <trkpt lat="48.89679" lon="2.42366">
        <ele>129.3</ele>
        <time>2015-04-13T19:31:08.359Z</time>
      </trkpt>
      <trkpt lat="48.89678" lon="2.42358">
        <ele>129.3</ele>
        <time>2015-04-13T19:31:09.366Z</time>
      </trkpt>
      <trkpt lat="48.89677" lon="2.4235">
        <ele>129.1</ele>
        <time>2015-04-13T19:31:10.374Z</time>
      </trkpt>
      <trkpt lat="48.89676" lon="2.42342">
        <ele>128.9</ele>
        <time>2015-04-13T19:31:11.378Z</time>
      </trkpt>
      <trkpt lat="48.89675" lon="2.42334">
        <ele>128.7</ele>
        <time>2015-04-13T19:31:12.390Z</time>
      </trkpt>
      <trkpt lat="48.89674" lon="2.42327">
        <ele>128.6</ele>
        <time>2015-04-13T19:31:13.394Z</time>
      </trkpt>
      <trkpt lat="48.89674" lon="2.42319">
        <ele>128.4</ele>
        <time>2015-04-13T19:31:14.414Z</time>
      </trkpt>
      <trkpt lat="48.89674" lon="2.42311">
        <ele>128.2</ele>
        <time>2015-04-13T19:31:15.324Z</time>
      </trkpt>
      <trkpt lat="48.89674" lon="2.42304">
        <ele>128</ele>
        <time>2015-04-13T19:31:16.327Z</time>
      </trkpt>
      <trkpt lat="48.89674" lon="2.42296">
        <ele>127.8</ele>
        <time>2015-04-13T19:31:17.338Z</time>
      </trkpt>
      <trkpt lat="48.89674" lon="2.42286">
        <ele>127.5</ele>
        <time>2015-04-13T19:31:18.355Z</time>
      </trkpt>
      <trkpt lat="48.89674" lon="2.42277">
        <ele>127.4</ele>
        <time>2015-04-13T19:31:19.366Z</time>
      </trkpt>
      <trkpt lat="48.89674" lon="2.42269">
        <ele>127.3</ele>
        <time>2015-04-13T19:31:20.383Z</time>
      </trkpt>
      <trkpt lat="48.89674" lon="2.42259">
        <ele>127.2</ele>
        <time>2015-04-13T19:31:21.390Z</time>
      </trkpt>
      <trkpt lat="48.89674" lon="2.4225">
        <ele>127</ele>
        <time>2015-04-13T19:31:22.396Z</time>
      </trkpt>
      <trkpt lat="48.89674" lon="2.4224">
        <ele>127.1</ele>
        <time>2015-04-13T19:31:23.409Z</time>
      </trkpt>
      <trkpt lat="48.89674" lon="2.4223">
        <ele>127.1</ele>
        <time>2015-04-13T19:31:24.320Z</time>
      </trkpt>
      <trkpt lat="48.89673" lon="2.42221">
        <ele>126.9</ele>
        <time>2015-04-13T19:31:25.337Z</time>
      </trkpt>
      <trkpt lat="48.89673" lon="2.42212">
        <ele>126.6</ele>
        <time>2015-04-13T19:31:26.347Z</time>
      </trkpt>
      <trkpt lat="48.89673" lon="2.42203">
        <ele>126.4</ele>
        <time>2015-04-13T19:31:27.342Z</time>
      </trkpt>
      <trkpt lat="48.89672" lon="2.42195">
        <ele>126.3</ele>
        <time>2015-04-13T19:31:28.355Z</time>
      </trkpt>
      <trkpt lat="48.89671" lon="2.42187">
        <ele>126.1</ele>
        <time>2015-04-13T19:31:29.370Z</time>
      </trkpt>
      <trkpt lat="48.8967" lon="2.42179">
        <ele>125.8</ele>
        <time>2015-04-13T19:31:30.398Z</time>
      </trkpt>
      <trkpt lat="48.89669" lon="2.42171">
        <ele>125.8</ele>
        <time>2015-04-13T19:31:31.315Z</time>
      </trkpt>
      <trkpt lat="48.89666" lon="2.42162">
        <ele>127</ele>
        <time>2015-04-13T19:31:32.356Z</time>
      </trkpt>
      <trkpt lat="48.89664" lon="2.42153">
        <ele>128.1</ele>
        <time>2015-04-13T19:31:33.355Z</time>
      </trkpt>
      <trkpt lat="48.89663" lon="2.42146">
        <ele>128.3</ele>
        <time>2015-04-13T19:31:34.366Z</time>
      </trkpt>
      <trkpt lat="48.89663" lon="2.42138">
        <ele>128.5</ele>
        <time>2015-04-13T19:31:35.368Z</time>
      </trkpt>
      <trkpt lat="48.89663" lon="2.42131">
        <ele>128.5</ele>
        <time>2015-04-13T19:31:36.400Z</time>
      </trkpt>
      <trkpt lat="48.89663" lon="2.42123">
        <ele>128.5</ele>
        <time>2015-04-13T19:31:37.397Z</time>
      </trkpt>
      <trkpt lat="48.89663" lon="2.42116">
        <ele>128.6</ele>
        <time>2015-04-13T19:31:38.410Z</time>
      </trkpt>
      <trkpt lat="48.89662" lon="2.42108">
        <ele>128.7</ele>
        <time>2015-04-13T19:31:39.360Z</time>
      </trkpt>
      <trkpt lat="48.89662" lon="2.42101">
        <ele>128.7</ele>
        <time>2015-04-13T19:31:40.369Z</time>
      </trkpt>
      <trkpt lat="48.89662" lon="2.42093">
        <ele>128.8</ele>
        <time>2015-04-13T19:31:41.369Z</time>
      </trkpt>
      <trkpt lat="48.89662" lon="2.42086">
        <ele>128.7</ele>
        <time>2015-04-13T19:31:42.405Z</time>
      </trkpt>
      <trkpt lat="48.89662" lon="2.42078">
        <ele>128.6</ele>
        <time>2015-04-13T19:31:43.410Z</time>
      </trkpt>
      <trkpt lat="48.89662" lon="2.42071">
        <ele>128.9</ele>
        <time>2015-04-13T19:31:44.420Z</time>
      </trkpt>
      <trkpt lat="48.89662" lon="2.42063">
        <ele>128.9</ele>
        <time>2015-04-13T19:31:45.350Z</time>
      </trkpt>
      <trkpt lat="48.89662" lon="2.42055">
        <ele>129.1</ele>
        <time>2015-04-13T19:31:46.319Z</time>
      </trkpt>
      <trkpt lat="48.89661" lon="2.42047">
        <ele>129.3</ele>
        <time>2015-04-13T19:31:47.324Z</time>
      </trkpt>
      <trkpt lat="48.8966" lon="2.4204">
        <ele>129.2</ele>
        <time>2015-04-13T19:31:48.340Z</time>
      </trkpt>
      <trkpt lat="48.8966" lon="2.42031">
        <ele>128.9</ele>
        <time>2015-04-13T19:31:49.369Z</time>
      </trkpt>
      <trkpt lat="48.8966" lon="2.42023">
        <ele>128.8</ele>
        <time>2015-04-13T19:31:50.425Z</time>
      </trkpt>
      <trkpt lat="48.8966" lon="2.42016">
        <ele>128.6</ele>
        <time>2015-04-13T19:31:51.317Z</time>
      </trkpt>
      <trkpt lat="48.89661" lon="2.42008">
        <ele>128.3</ele>
        <time>2015-04-13T19:31:52.342Z</time>
      </trkpt>
      <trkpt lat="48.89661" lon="2.42">
        <ele>128.1</ele>
        <time>2015-04-13T19:31:53.437Z</time>
      </trkpt>
      <trkpt lat="48.89661" lon="2.41991">
        <ele>128</ele>
        <time>2015-04-13T19:31:54.318Z</time>
      </trkpt>
      <trkpt lat="48.89661" lon="2.41984">
        <ele>127.8</ele>
        <time>2015-04-13T19:31:55.323Z</time>
      </trkpt>
      <trkpt lat="48.89661" lon="2.41976">
        <ele>127.7</ele>
        <time>2015-04-13T19:31:56.368Z</time>
      </trkpt>
      <trkpt lat="48.89661" lon="2.41968">
        <ele>127.7</ele>
        <time>2015-04-13T19:31:57.338Z</time>
      </trkpt>
      <trkpt lat="48.8966" lon="2.4196">
        <ele>127.7</ele>
        <time>2015-04-13T19:31:58.374Z</time>
      </trkpt>
      <trkpt lat="48.8966" lon="2.41952">
        <ele>127.5</ele>
        <time>2015-04-13T19:31:59.447Z</time>
      </trkpt>
      <trkpt lat="48.8966" lon="2.41945">
        <ele>127.3</ele>
        <time>2015-04-13T19:32:00.290Z</time>
      </trkpt>
      <trkpt lat="48.8966" lon="2.41937">
        <ele>127</ele>
        <time>2015-04-13T19:32:01.333Z</time>
      </trkpt>
      <trkpt lat="48.8966" lon="2.41929">
        <ele>127</ele>
        <time>2015-04-13T19:32:02.377Z</time>
      </trkpt>
      <trkpt lat="48.8966" lon="2.41921">
        <ele>126.9</ele>
        <time>2015-04-13T19:32:03.318Z</time>
      </trkpt>
      <trkpt lat="48.89658" lon="2.41913">
        <ele>126.4</ele>
        <time>2015-04-13T19:32:04.404Z</time>
      </trkpt>
      <trkpt lat="48.89659" lon="2.41906">
        <ele>126.2</ele>
        <time>2015-04-13T19:32:05.420Z</time>
      </trkpt>
      <trkpt lat="48.89659" lon="2.41898">
        <ele>126</ele>
        <time>2015-04-13T19:32:06.339Z</time>
      </trkpt>
      <trkpt lat="48.89659" lon="2.41891">
        <ele>125.8</ele>
        <time>2015-04-13T19:32:07.361Z</time>
      </trkpt>
      <trkpt lat="48.89658" lon="2.41883">
        <ele>125.6</ele>
        <time>2015-04-13T19:32:08.383Z</time>
      </trkpt>
      <trkpt lat="48.89658" lon="2.41875">
        <ele>125.4</ele>
        <time>2015-04-13T19:32:09.298Z</time>
      </trkpt>
      <trkpt lat="48.89658" lon="2.41868">
        <ele>125.2</ele>
        <time>2015-04-13T19:32:10.315Z</time>
      </trkpt>
      <trkpt lat="48.89658" lon="2.41861">
        <ele>125</ele>
        <time>2015-04-13T19:32:11.336Z</time>
      </trkpt>
      <trkpt lat="48.89658" lon="2.41854">
        <ele>124.8</ele>
        <time>2015-04-13T19:32:12.369Z</time>
      </trkpt>
      <trkpt lat="48.89658" lon="2.41847">
        <ele>124.7</ele>
        <time>2015-04-13T19:32:13.388Z</time>
      </trkpt>
      <trkpt lat="48.89658" lon="2.41836">
        <ele>124.4</ele>
        <time>2015-04-13T19:32:15.301Z</time>
      </trkpt>
      <trkpt lat="48.89658" lon="2.4183">
        <ele>124.3</ele>
        <time>2015-04-13T19:32:16.319Z</time>
      </trkpt>
      <trkpt lat="48.89656" lon="2.41819">
        <ele>123.7</ele>
        <time>2015-04-13T19:32:18.344Z</time>
      </trkpt>
      <trkpt lat="48.89656" lon="2.41814">
        <ele>123.8</ele>
        <time>2015-04-13T19:32:19.339Z</time>
      </trkpt>
      <trkpt lat="48.89654" lon="2.41804">
        <ele>123.7</ele>
        <time>2015-04-13T19:32:21.295Z</time>
      </trkpt>
      <trkpt lat="48.89654" lon="2.418">
        <ele>123.9</ele>
        <time>2015-04-13T19:32:22.294Z</time>
      </trkpt>
      <trkpt lat="48.89654" lon="2.41788">
        <ele>124.7</ele>
        <time>2015-04-13T19:32:25.343Z</time>
      </trkpt>
      <trkpt lat="48.89654" lon="2.41784">
        <ele>125</ele>
        <time>2015-04-13T19:32:26.355Z</time>
      </trkpt>
      <trkpt lat="48.89652" lon="2.41773">
        <ele>125.2</ele>
        <time>2015-04-13T19:32:29.268Z</time>
      </trkpt>
      <trkpt lat="48.89652" lon="2.41771">
        <ele>125.4</ele>
        <time>2015-04-13T19:32:30.291Z</time>
      </trkpt>
      <trkpt lat="48.89651" lon="2.4176">
        <ele>125.6</ele>
        <time>2015-04-13T19:32:33.319Z</time>
      </trkpt>
      <trkpt lat="48.89651" lon="2.41756">
        <ele>125.7</ele>
        <time>2015-04-13T19:32:34.360Z</time>
      </trkpt>
      <trkpt lat="48.89648" lon="2.41746">
        <ele>126.2</ele>
        <time>2015-04-13T19:32:37.310Z</time>
      </trkpt>
      <trkpt lat="48.89648" lon="2.41742">
        <ele>126.5</ele>
        <time>2015-04-13T19:32:38.327Z</time>
      </trkpt>
      <trkpt lat="48.89647" lon="2.41731">
        <ele>127.3</ele>
        <time>2015-04-13T19:32:41.359Z</time>
      </trkpt>
      <trkpt lat="48.89646" lon="2.41728">
        <ele>127.4</ele>
        <time>2015-04-13T19:32:42.385Z</time>
      </trkpt>
      <trkpt lat="48.89646" lon="2.41715">
        <ele>128.4</ele>
        <time>2015-04-13T19:32:45.334Z</time>
      </trkpt>
      <trkpt lat="48.89646" lon="2.4171">
        <ele>128.4</ele>
        <time>2015-04-13T19:32:46.347Z</time>
      </trkpt>
      <trkpt lat="48.89645" lon="2.41699">
        <ele>128.4</ele>
        <time>2015-04-13T19:32:49.443Z</time>
      </trkpt>
      <trkpt lat="48.89644" lon="2.41695">
        <ele>128.6</ele>
        <time>2015-04-13T19:32:50.373Z</time>
      </trkpt>
      <trkpt lat="48.89642" lon="2.41686">
        <ele>129.1</ele>
        <time>2015-04-13T19:32:52.325Z</time>
      </trkpt>
      <trkpt lat="48.89642" lon="2.41681">
        <ele>129.1</ele>
        <time>2015-04-13T19:32:53.369Z</time>
      </trkpt>
      <trkpt lat="48.89641" lon="2.41669">
        <ele>129.6</ele>
        <time>2015-04-13T19:32:55.311Z</time>
      </trkpt>
      <trkpt lat="48.8964" lon="2.41663">
        <ele>129.8</ele>
        <time>2015-04-13T19:32:56.346Z</time>
      </trkpt>
      <trkpt lat="48.89639" lon="2.4165">
        <ele>129.8</ele>
        <time>2015-04-13T19:32:58.289Z</time>
      </trkpt>
      <trkpt lat="48.89638" lon="2.41644">
        <ele>129.8</ele>
        <time>2015-04-13T19:32:59.317Z</time>
      </trkpt>
      <trkpt lat="48.89635" lon="2.41633">
        <ele>131.2</ele>
        <time>2015-04-13T19:33:01.311Z</time>
      </trkpt>
      <trkpt lat="48.89633" lon="2.41627">
        <ele>131.3</ele>
        <time>2015-04-13T19:33:02.353Z</time>
      </trkpt>
      <trkpt lat="48.89632" lon="2.41619">
        <ele>131.1</ele>
        <time>2015-04-13T19:33:03.266Z</time>
      </trkpt>
      <trkpt lat="48.89631" lon="2.41611">
        <ele>130.8</ele>
        <time>2015-04-13T19:33:04.331Z</time>
      </trkpt>
      <trkpt lat="48.8963" lon="2.41603">
        <ele>130.6</ele>
        <time>2015-04-13T19:33:05.350Z</time>
      </trkpt>
      <trkpt lat="48.89629" lon="2.41595">
        <ele>130.5</ele>
        <time>2015-04-13T19:33:06.426Z</time>
      </trkpt>
      <trkpt lat="48.89628" lon="2.41582">
        <ele>130.6</ele>
        <time>2015-04-13T19:33:08.360Z</time>
      </trkpt>
      <trkpt lat="48.89628" lon="2.41576">
        <ele>131.1</ele>
        <time>2015-04-13T19:33:09.421Z</time>
      </trkpt>
      <trkpt lat="48.89627" lon="2.41565">
        <ele>132.2</ele>
        <time>2015-04-13T19:33:11.301Z</time>
      </trkpt>
      <trkpt lat="48.89629" lon="2.41557">
        <ele>131</ele>
        <time>2015-04-13T19:33:12.313Z</time>
      </trkpt>
      <trkpt lat="48.89627" lon="2.41546">
        <ele>131.6</ele>
        <time>2015-04-13T19:33:14.358Z</time>
      </trkpt>
      <trkpt lat="48.89624" lon="2.41542">
        <ele>133.3</ele>
        <time>2015-04-13T19:33:15.382Z</time>
      </trkpt>
      <trkpt lat="48.89621" lon="2.41531">
        <ele>137.4</ele>
        <time>2015-04-13T19:33:22.392Z</time>
      </trkpt>
      <trkpt lat="48.89621" lon="2.41529">
        <ele>138.1</ele>
        <time>2015-04-13T19:33:23.420Z</time>
      </trkpt>
      <trkpt lat="48.89622" lon="2.41517">
        <ele>140.2</ele>
        <time>2015-04-13T19:33:29.396Z</time>
      </trkpt>
      <trkpt lat="48.89623" lon="2.41515">
        <ele>140.3</ele>
        <time>2015-04-13T19:33:30.381Z</time>
      </trkpt>
      <trkpt lat="48.8962" lon="2.41527">
        <ele>142.8</ele>
        <time>2015-04-13T19:33:40.307Z</time>
      </trkpt>
      <trkpt lat="48.89621" lon="2.41529">
        <ele>143.2</ele>
        <time>2015-04-13T19:33:41.348Z</time>
      </trkpt>
      <trkpt lat="48.89621" lon="2.41529">
        <ele>143.4</ele>
        <time>2015-04-13T19:33:42.343Z</time>
      </trkpt>
      <trkpt lat="48.89621" lon="2.41528">
        <ele>143.7</ele>
        <time>2015-04-13T19:33:43.357Z</time>
      </trkpt>
      <trkpt lat="48.89622" lon="2.41526">
        <ele>144</ele>
        <time>2015-04-13T19:34:10.331Z</time>
      </trkpt>
      <trkpt lat="48.89621" lon="2.41518">
        <ele>147.2</ele>
        <time>2015-04-13T19:34:11.332Z</time>
      </trkpt>
      <trkpt lat="48.89622" lon="2.41519">
        <ele>147.7</ele>
        <time>2015-04-13T19:34:12.377Z</time>
      </trkpt>
      <trkpt lat="48.89622" lon="2.41519">
        <ele>147.8</ele>
        <time>2015-04-13T19:34:13.384Z</time>
      </trkpt>
      <trkpt lat="48.89623" lon="2.4152">
        <ele>148.1</ele>
        <time>2015-04-13T19:34:14.404Z</time>
      </trkpt>
      <trkpt lat="48.89623" lon="2.41518">
        <ele>148.7</ele>
        <time>2015-04-13T19:34:17.318Z</time>
      </trkpt>
      <trkpt lat="48.89623" lon="2.41517">
        <ele>148.8</ele>
        <time>2015-04-13T19:34:18.318Z</time>
      </trkpt>
      <trkpt lat="48.89623" lon="2.41516">
        <ele>148.9</ele>
        <time>2015-04-13T19:34:31.381Z</time>
      </trkpt>
      <trkpt lat="48.89625" lon="2.41511">
        <ele>151.7</ele>
        <time>2015-04-13T19:34:32.394Z</time>
      </trkpt>
      <trkpt lat="48.89626" lon="2.41506">
        <ele>150.9</ele>
        <time>2015-04-13T19:34:42.324Z</time>
      </trkpt>
      <trkpt lat="48.89626" lon="2.41507">
        <ele>150.6</ele>
        <time>2015-04-13T19:34:43.387Z</time>
      </trkpt>
      <trkpt lat="48.89626" lon="2.41507">
        <ele>150.3</ele>
        <time>2015-04-13T19:34:52.366Z</time>
      </trkpt>
      <trkpt lat="48.89627" lon="2.41509">
        <ele>148.7</ele>
        <time>2015-04-13T19:34:53.419Z</time>
      </trkpt>
      <trkpt lat="48.89619" lon="2.41511">
        <ele>146.4</ele>
        <time>2015-04-13T19:34:59.386Z</time>
      </trkpt>
      <trkpt lat="48.89618" lon="2.41511">
        <ele>146</ele>
        <time>2015-04-13T19:35:00.332Z</time>
      </trkpt>
      <trkpt lat="48.89609" lon="2.41511">
        <ele>143.7</ele>
        <time>2015-04-13T19:35:04.378Z</time>
      </trkpt>
      <trkpt lat="48.89607" lon="2.41511">
        <ele>142.8</ele>
        <time>2015-04-13T19:35:05.339Z</time>
      </trkpt>
      <trkpt lat="48.896" lon="2.41511">
        <ele>141.1</ele>
        <time>2015-04-13T19:35:08.343Z</time>
      </trkpt>
      <trkpt lat="48.89598" lon="2.41511">
        <ele>140.7</ele>
        <time>2015-04-13T19:35:09.347Z</time>
      </trkpt>
      <trkpt lat="48.89589" lon="2.41509">
        <ele>140.6</ele>
        <time>2015-04-13T19:35:12.322Z</time>
      </trkpt>
      <trkpt lat="48.89587" lon="2.41508">
        <ele>140.7</ele>
        <time>2015-04-13T19:35:13.345Z</time>
      </trkpt>
      <trkpt lat="48.89581" lon="2.41506">
        <ele>140.5</ele>
        <time>2015-04-13T19:35:15.356Z</time>
      </trkpt>
      <trkpt lat="48.89577" lon="2.41507">
        <ele>139.8</ele>
        <time>2015-04-13T19:35:16.368Z</time>
      </trkpt>
      <trkpt lat="48.8957" lon="2.41507">
        <ele>138.5</ele>
        <time>2015-04-13T19:35:18.374Z</time>
      </trkpt>
      <trkpt lat="48.89568" lon="2.41508">
        <ele>138.1</ele>
        <time>2015-04-13T19:35:19.402Z</time>
      </trkpt>
      <trkpt lat="48.8956" lon="2.41506">
        <ele>137.6</ele>
        <time>2015-04-13T19:35:22.393Z</time>
      </trkpt>
      <trkpt lat="48.89557" lon="2.41505">
        <ele>137.4</ele>
        <time>2015-04-13T19:35:23.398Z</time>
      </trkpt>
      <trkpt lat="48.89551" lon="2.41508">
        <ele>136.7</ele>
        <time>2015-04-13T19:35:26.403Z</time>
      </trkpt>
      <trkpt lat="48.89548" lon="2.41508">
        <ele>136.1</ele>
        <time>2015-04-13T19:35:27.305Z</time>
      </trkpt>
      <trkpt lat="48.89542" lon="2.41505">
        <ele>135.6</ele>
        <time>2015-04-13T19:35:30.322Z</time>
      </trkpt>
      <trkpt lat="48.8954" lon="2.41501">
        <ele>135.6</ele>
        <time>2015-04-13T19:35:31.406Z</time>
      </trkpt>
      <trkpt lat="48.89537" lon="2.41491">
        <ele>135.3</ele>
        <time>2015-04-13T19:35:33.341Z</time>
      </trkpt>
      <trkpt lat="48.89536" lon="2.41486">
        <ele>135.2</ele>
        <time>2015-04-13T19:35:34.359Z</time>
      </trkpt>
      <trkpt lat="48.89535" lon="2.41474">
        <ele>135.1</ele>
        <time>2015-04-13T19:35:36.402Z</time>
      </trkpt>
      <trkpt lat="48.89534" lon="2.41467">
        <ele>134.9</ele>
        <time>2015-04-13T19:35:37.403Z</time>
      </trkpt>
      <trkpt lat="48.89533" lon="2.4146">
        <ele>134.7</ele>
        <time>2015-04-13T19:35:38.415Z</time>
      </trkpt>
      <trkpt lat="48.89532" lon="2.41454">
        <ele>134.9</ele>
        <time>2015-04-13T19:35:39.327Z</time>
      </trkpt>
      <trkpt lat="48.89531" lon="2.41446">
        <ele>135</ele>
        <time>2015-04-13T19:35:40.452Z</time>
      </trkpt>
      <trkpt lat="48.8953" lon="2.4144">
        <ele>135</ele>
        <time>2015-04-13T19:35:41.330Z</time>
      </trkpt>
      <trkpt lat="48.89527" lon="2.41427">
        <ele>134.9</ele>
        <time>2015-04-13T19:35:43.364Z</time>
      </trkpt>
      <trkpt lat="48.89526" lon="2.41421">
        <ele>135</ele>
        <time>2015-04-13T19:35:44.370Z</time>
      </trkpt>
      <trkpt lat="48.89524" lon="2.41409">
        <ele>135.1</ele>
        <time>2015-04-13T19:35:46.396Z</time>
      </trkpt>
      <trkpt lat="48.89524" lon="2.41402">
        <ele>135</ele>
        <time>2015-04-13T19:35:47.408Z</time>
      </trkpt>
      <trkpt lat="48.89523" lon="2.41395">
        <ele>135</ele>
        <time>2015-04-13T19:35:48.323Z</time>
      </trkpt>
      <trkpt lat="48.89522" lon="2.41388">
        <ele>135</ele>
        <time>2015-04-13T19:35:49.306Z</time>
      </trkpt>
      <trkpt lat="48.89521" lon="2.41375">
        <ele>135</ele>
        <time>2015-04-13T19:35:51.363Z</time>
      </trkpt>
      <trkpt lat="48.89519" lon="2.41368">
        <ele>135.5</ele>
        <time>2015-04-13T19:35:52.362Z</time>
      </trkpt>
      <trkpt lat="48.89518" lon="2.41361">
        <ele>136</ele>
        <time>2015-04-13T19:35:53.286Z</time>
      </trkpt>
      <trkpt lat="48.89517" lon="2.41354">
        <ele>136.5</ele>
        <time>2015-04-13T19:35:54.314Z</time>
      </trkpt>
      <trkpt lat="48.89516" lon="2.41347">
        <ele>137</ele>
        <time>2015-04-13T19:35:55.731Z</time>
      </trkpt>
      <trkpt lat="48.89513" lon="2.41339">
        <ele>137.9</ele>
        <time>2015-04-13T19:35:56.367Z</time>
      </trkpt>
      <trkpt lat="48.89513" lon="2.41332">
        <ele>138.2</ele>
        <time>2015-04-13T19:35:57.397Z</time>
      </trkpt>
      <trkpt lat="48.89513" lon="2.41324">
        <ele>138.4</ele>
        <time>2015-04-13T19:35:58.393Z</time>
      </trkpt>
      <trkpt lat="48.89513" lon="2.41316">
        <ele>138.5</ele>
        <time>2015-04-13T19:35:59.318Z</time>
      </trkpt>
      <trkpt lat="48.89515" lon="2.41307">
        <ele>137.6</ele>
        <time>2015-04-13T19:36:00.332Z</time>
      </trkpt>
      <trkpt lat="48.89515" lon="2.41297">
        <ele>136.4</ele>
        <time>2015-04-13T19:36:01.344Z</time>
      </trkpt>
      <trkpt lat="48.89515" lon="2.41288">
        <ele>135.2</ele>
        <time>2015-04-13T19:36:02.360Z</time>
      </trkpt>
      <trkpt lat="48.89516" lon="2.41279">
        <ele>134.5</ele>
        <time>2015-04-13T19:36:03.378Z</time>
      </trkpt>
      <trkpt lat="48.89516" lon="2.41269">
        <ele>133.7</ele>
        <time>2015-04-13T19:36:04.381Z</time>
      </trkpt>
      <trkpt lat="48.89515" lon="2.41261">
        <ele>133.6</ele>
        <time>2015-04-13T19:36:05.409Z</time>
      </trkpt>
      <trkpt lat="48.89515" lon="2.41253">
        <ele>133.6</ele>
        <time>2015-04-13T19:36:06.317Z</time>
      </trkpt>
      <trkpt lat="48.89514" lon="2.41244">
        <ele>133.6</ele>
        <time>2015-04-13T19:36:07.319Z</time>
      </trkpt>
      <trkpt lat="48.89514" lon="2.41236">
        <ele>133.4</ele>
        <time>2015-04-13T19:36:08.351Z</time>
      </trkpt>
      <trkpt lat="48.89514" lon="2.41228">
        <ele>133.1</ele>
        <time>2015-04-13T19:36:09.339Z</time>
      </trkpt>
      <trkpt lat="48.89514" lon="2.4122">
        <ele>132.8</ele>
        <time>2015-04-13T19:36:10.349Z</time>
      </trkpt>
      <trkpt lat="48.89515" lon="2.41212">
        <ele>132.3</ele>
        <time>2015-04-13T19:36:11.363Z</time>
      </trkpt>
      <trkpt lat="48.89515" lon="2.41204">
        <ele>132.1</ele>
        <time>2015-04-13T19:36:12.372Z</time>
      </trkpt>
      <trkpt lat="48.89514" lon="2.41195">
        <ele>131.5</ele>
        <time>2015-04-13T19:36:13.384Z</time>
      </trkpt>
      <trkpt lat="48.89515" lon="2.41187">
        <ele>131.4</ele>
        <time>2015-04-13T19:36:14.380Z</time>
      </trkpt>
      <trkpt lat="48.89516" lon="2.4118">
        <ele>131.4</ele>
        <time>2015-04-13T19:36:15.387Z</time>
      </trkpt>
      <trkpt lat="48.89516" lon="2.41172">
        <ele>131.5</ele>
        <time>2015-04-13T19:36:16.397Z</time>
      </trkpt>
      <trkpt lat="48.89518" lon="2.41164">
        <ele>131.5</ele>
        <time>2015-04-13T19:36:17.302Z</time>
      </trkpt>
      <trkpt lat="48.89519" lon="2.41156">
        <ele>131.4</ele>
        <time>2015-04-13T19:36:18.312Z</time>
      </trkpt>
      <trkpt lat="48.8952" lon="2.41148">
        <ele>131.4</ele>
        <time>2015-04-13T19:36:19.325Z</time>
      </trkpt>
      <trkpt lat="48.89521" lon="2.4114">
        <ele>131.3</ele>
        <time>2015-04-13T19:36:20.330Z</time>
      </trkpt>
      <trkpt lat="48.89522" lon="2.41132">
        <ele>131.2</ele>
        <time>2015-04-13T19:36:21.287Z</time>
      </trkpt>
      <trkpt lat="48.89522" lon="2.41124">
        <ele>131.3</ele>
        <time>2015-04-13T19:36:22.327Z</time>
      </trkpt>
      <trkpt lat="48.89523" lon="2.41116">
        <ele>131.4</ele>
        <time>2015-04-13T19:36:23.315Z</time>
      </trkpt>
      <trkpt lat="48.89523" lon="2.41109">
        <ele>131.4</ele>
        <time>2015-04-13T19:36:24.351Z</time>
      </trkpt>
      <trkpt lat="48.89524" lon="2.41102">
        <ele>131.5</ele>
        <time>2015-04-13T19:36:25.376Z</time>
      </trkpt>
      <trkpt lat="48.89524" lon="2.41095">
        <ele>131.5</ele>
        <time>2015-04-13T19:36:26.378Z</time>
      </trkpt>
      <trkpt lat="48.89525" lon="2.41086">
        <ele>131.1</ele>
        <time>2015-04-13T19:36:27.426Z</time>
      </trkpt>
      <trkpt lat="48.89525" lon="2.41079">
        <ele>131</ele>
        <time>2015-04-13T19:36:28.313Z</time>
      </trkpt>
      <trkpt lat="48.89526" lon="2.41072">
        <ele>131.1</ele>
        <time>2015-04-13T19:36:29.321Z</time>
      </trkpt>
      <trkpt lat="48.89526" lon="2.41065">
        <ele>131.1</ele>
        <time>2015-04-13T19:36:30.330Z</time>
      </trkpt>
      <trkpt lat="48.89526" lon="2.41057">
        <ele>131</ele>
        <time>2015-04-13T19:36:31.350Z</time>
      </trkpt>
      <trkpt lat="48.89526" lon="2.4105">
        <ele>130.9</ele>
        <time>2015-04-13T19:36:32.371Z</time>
      </trkpt>
      <trkpt lat="48.89526" lon="2.41042">
        <ele>130.8</ele>
        <time>2015-04-13T19:36:33.395Z</time>
      </trkpt>
      <trkpt lat="48.89526" lon="2.41035">
        <ele>130.8</ele>
        <time>2015-04-13T19:36:34.304Z</time>
      </trkpt>
      <trkpt lat="48.89525" lon="2.41027">
        <ele>130.5</ele>
        <time>2015-04-13T19:36:35.331Z</time>
      </trkpt>
      <trkpt lat="48.89524" lon="2.41021">
        <ele>130.5</ele>
        <time>2015-04-13T19:36:36.359Z</time>
      </trkpt>
      <trkpt lat="48.89524" lon="2.41008">
        <ele>130.5</ele>
        <time>2015-04-13T19:36:38.379Z</time>
      </trkpt>
      <trkpt lat="48.89524" lon="2.41003">
        <ele>130.5</ele>
        <time>2015-04-13T19:36:39.395Z</time>
      </trkpt>
      <trkpt lat="48.89524" lon="2.40992">
        <ele>131</ele>
        <time>2015-04-13T19:36:41.300Z</time>
      </trkpt>
      <trkpt lat="48.89524" lon="2.40987">
        <ele>130.7</ele>
        <time>2015-04-13T19:36:42.313Z</time>
      </trkpt>
      <trkpt lat="48.89524" lon="2.40977">
        <ele>130.5</ele>
        <time>2015-04-13T19:36:44.393Z</time>
      </trkpt>
      <trkpt lat="48.89523" lon="2.40973">
        <ele>130.5</ele>
        <time>2015-04-13T19:36:45.328Z</time>
      </trkpt>
      <trkpt lat="48.89521" lon="2.4096">
        <ele>130.7</ele>
        <time>2015-04-13T19:36:48.382Z</time>
      </trkpt>
      <trkpt lat="48.89521" lon="2.40954">
        <ele>130.8</ele>
        <time>2015-04-13T19:36:49.329Z</time>
      </trkpt>
      <trkpt lat="48.89521" lon="2.40943">
        <ele>130.9</ele>
        <time>2015-04-13T19:36:51.296Z</time>
      </trkpt>
      <trkpt lat="48.89522" lon="2.40938">
        <ele>130.9</ele>
        <time>2015-04-13T19:36:52.298Z</time>
      </trkpt>
      <trkpt lat="48.89522" lon="2.40928">
        <ele>130.7</ele>
        <time>2015-04-13T19:36:54.336Z</time>
      </trkpt>
      <trkpt lat="48.89522" lon="2.40923">
        <ele>130.7</ele>
        <time>2015-04-13T19:36:55.371Z</time>
      </trkpt>
      <trkpt lat="48.89523" lon="2.40913">
        <ele>130.6</ele>
        <time>2015-04-13T19:36:57.289Z</time>
      </trkpt>
      <trkpt lat="48.89523" lon="2.40908">
        <ele>130.5</ele>
        <time>2015-04-13T19:36:58.311Z</time>
      </trkpt>
      <trkpt lat="48.89524" lon="2.40895">
        <ele>130.2</ele>
        <time>2015-04-13T19:37:01.333Z</time>
      </trkpt>
      <trkpt lat="48.89525" lon="2.4089">
        <ele>130.2</ele>
        <time>2015-04-13T19:37:02.342Z</time>
      </trkpt>
      <trkpt lat="48.89527" lon="2.40879">
        <ele>130.2</ele>
        <time>2015-04-13T19:37:04.362Z</time>
      </trkpt>
      <trkpt lat="48.89524" lon="2.40873">
        <ele>130.6</ele>
        <time>2015-04-13T19:37:05.377Z</time>
      </trkpt>
      <trkpt lat="48.89524" lon="2.40861">
        <ele>130.3</ele>
        <time>2015-04-13T19:37:07.306Z</time>
      </trkpt>
      <trkpt lat="48.89524" lon="2.40855">
        <ele>130.3</ele>
        <time>2015-04-13T19:37:08.309Z</time>
      </trkpt>
      <trkpt lat="48.89523" lon="2.40843">
        <ele>130.3</ele>
        <time>2015-04-13T19:37:10.329Z</time>
      </trkpt>
      <trkpt lat="48.89524" lon="2.40837">
        <ele>130.3</ele>
        <time>2015-04-13T19:37:11.332Z</time>
      </trkpt>
      <trkpt lat="48.89526" lon="2.40825">
        <ele>129.9</ele>
        <time>2015-04-13T19:37:13.354Z</time>
      </trkpt>
      <trkpt lat="48.89527" lon="2.40819">
        <ele>129.9</ele>
        <time>2015-04-13T19:37:14.355Z</time>
      </trkpt>
      <trkpt lat="48.89528" lon="2.40808">
        <ele>129.8</ele>
        <time>2015-04-13T19:37:16.392Z</time>
      </trkpt>
      <trkpt lat="48.89529" lon="2.40803">
        <ele>129.4</ele>
        <time>2015-04-13T19:37:17.383Z</time>
      </trkpt>
      <trkpt lat="48.89532" lon="2.40791">
        <ele>129</ele>
        <time>2015-04-13T19:37:19.486Z</time>
      </trkpt>
      <trkpt lat="48.89533" lon="2.40785">
        <ele>128.8</ele>
        <time>2015-04-13T19:37:20.371Z</time>
      </trkpt>
      <trkpt lat="48.89536" lon="2.40775">
        <ele>128.6</ele>
        <time>2015-04-13T19:37:22.374Z</time>
      </trkpt>
      <trkpt lat="48.89538" lon="2.40771">
        <ele>128.5</ele>
        <time>2015-04-13T19:37:23.384Z</time>
      </trkpt>
      <trkpt lat="48.8954" lon="2.4076">
        <ele>128.3</ele>
        <time>2015-04-13T19:37:26.351Z</time>
      </trkpt>
      <trkpt lat="48.8954" lon="2.40756">
        <ele>128.3</ele>
        <time>2015-04-13T19:37:27.361Z</time>
      </trkpt>
      <trkpt lat="48.89541" lon="2.40744">
        <ele>126.9</ele>
        <time>2015-04-13T19:37:30.305Z</time>
      </trkpt>
      <trkpt lat="48.89543" lon="2.40739">
        <ele>126.4</ele>
        <time>2015-04-13T19:37:31.342Z</time>
      </trkpt>
      <trkpt lat="48.89547" lon="2.4073">
        <ele>125.7</ele>
        <time>2015-04-13T19:37:33.305Z</time>
      </trkpt>
      <trkpt lat="48.89549" lon="2.40727">
        <ele>125.6</ele>
        <time>2015-04-13T19:37:34.327Z</time>
      </trkpt>
      <trkpt lat="48.89549" lon="2.40713">
        <ele>124.3</ele>
        <time>2015-04-13T19:37:40.320Z</time>
      </trkpt>
      <trkpt lat="48.89548" lon="2.40712">
        <ele>122.9</ele>
        <time>2015-04-13T19:37:41.334Z</time>
      </trkpt>
      <trkpt lat="48.89548" lon="2.40712">
        <ele>122.5</ele>
        <time>2015-04-13T19:37:42.363Z</time>
      </trkpt>
      <trkpt lat="48.89548" lon="2.40711">
        <ele>122.3</ele>
        <time>2015-04-13T19:38:12.319Z</time>
      </trkpt>
      <trkpt lat="48.89546" lon="2.40706">
        <ele>119.8</ele>
        <time>2015-04-13T19:38:13.338Z</time>
      </trkpt>
      <trkpt lat="48.89547" lon="2.40694">
        <ele>120.1</ele>
        <time>2015-04-13T19:38:18.278Z</time>
      </trkpt>
      <trkpt lat="48.89547" lon="2.4069">
        <ele>120.1</ele>
        <time>2015-04-13T19:38:19.321Z</time>
      </trkpt>
      <trkpt lat="48.89548" lon="2.4068">
        <ele>119.8</ele>
        <time>2015-04-13T19:38:21.328Z</time>
      </trkpt>
      <trkpt lat="48.89549" lon="2.40675">
        <ele>119.7</ele>
        <time>2015-04-13T19:38:22.352Z</time>
      </trkpt>
      <trkpt lat="48.89551" lon="2.40664">
        <ele>119.5</ele>
        <time>2015-04-13T19:38:25.318Z</time>
      </trkpt>
      <trkpt lat="48.89551" lon="2.40661">
        <ele>119.4</ele>
        <time>2015-04-13T19:38:26.347Z</time>
      </trkpt>
      <trkpt lat="48.89554" lon="2.4065">
        <ele>119</ele>
        <time>2015-04-13T19:38:30.375Z</time>
      </trkpt>
      <trkpt lat="48.89556" lon="2.40646">
        <ele>119.1</ele>
        <time>2015-04-13T19:38:31.295Z</time>
      </trkpt>
      <trkpt lat="48.89557" lon="2.40636">
        <ele>119.4</ele>
        <time>2015-04-13T19:38:34.299Z</time>
      </trkpt>
      <trkpt lat="48.89557" lon="2.40633">
        <ele>119.4</ele>
        <time>2015-04-13T19:38:35.304Z</time>
      </trkpt>
      <trkpt lat="48.89551" lon="2.40625">
        <ele>118.8</ele>
        <time>2015-04-13T19:38:39.365Z</time>
      </trkpt>
      <trkpt lat="48.8955" lon="2.40624">
        <ele>118.6</ele>
        <time>2015-04-13T19:38:40.377Z</time>
      </trkpt>
      <trkpt lat="48.89543" lon="2.40617">
        <ele>118.6</ele>
        <time>2015-04-13T19:38:46.117Z</time>
      </trkpt>
      <trkpt lat="48.89541" lon="2.40616">
        <ele>118.8</ele>
        <time>2015-04-13T19:38:46.346Z</time>
      </trkpt>
      <trkpt lat="48.8954" lon="2.40606">
        <ele>118.9</ele>
        <time>2015-04-13T19:38:49.325Z</time>
      </trkpt>
      <trkpt lat="48.8954" lon="2.40601">
        <ele>118.9</ele>
        <time>2015-04-13T19:38:50.412Z</time>
      </trkpt>
      <trkpt lat="48.89543" lon="2.40589">
        <ele>119.3</ele>
        <time>2015-04-13T19:38:53.331Z</time>
      </trkpt>
      <trkpt lat="48.89543" lon="2.40584">
        <ele>119.7</ele>
        <time>2015-04-13T19:38:54.353Z</time>
      </trkpt>
      <trkpt lat="48.89544" lon="2.40572">
        <ele>119.6</ele>
        <time>2015-04-13T19:38:56.377Z</time>
      </trkpt>
      <trkpt lat="48.89544" lon="2.40565">
        <ele>119.5</ele>
        <time>2015-04-13T19:38:57.391Z</time>
      </trkpt>
      <trkpt lat="48.89545" lon="2.40558">
        <ele>119.6</ele>
        <time>2015-04-13T19:38:58.300Z</time>
      </trkpt>
      <trkpt lat="48.89546" lon="2.40551">
        <ele>119.6</ele>
        <time>2015-04-13T19:38:59.305Z</time>
      </trkpt>
      <trkpt lat="48.89546" lon="2.40544">
        <ele>119.4</ele>
        <time>2015-04-13T19:39:00.342Z</time>
      </trkpt>
      <trkpt lat="48.89547" lon="2.40537">
        <ele>119.3</ele>
        <time>2015-04-13T19:39:01.354Z</time>
      </trkpt>
      <trkpt lat="48.89548" lon="2.40527">
        <ele>117.5</ele>
        <time>2015-04-13T19:39:02.331Z</time>
      </trkpt>
      <trkpt lat="48.8955" lon="2.4052">
        <ele>117.2</ele>
        <time>2015-04-13T19:39:03.358Z</time>
      </trkpt>
      <trkpt lat="48.8955" lon="2.40511">
        <ele>116</ele>
        <time>2015-04-13T19:39:04.365Z</time>
      </trkpt>
      <trkpt lat="48.89551" lon="2.40504">
        <ele>116</ele>
        <time>2015-04-13T19:39:05.382Z</time>
      </trkpt>
      <trkpt lat="48.89552" lon="2.40498">
        <ele>115.9</ele>
        <time>2015-04-13T19:39:06.297Z</time>
      </trkpt>
      <trkpt lat="48.89554" lon="2.40491">
        <ele>115.8</ele>
        <time>2015-04-13T19:39:07.325Z</time>
      </trkpt>
      <trkpt lat="48.89556" lon="2.40478">
        <ele>115.3</ele>
        <time>2015-04-13T19:39:09.333Z</time>
      </trkpt>
      <trkpt lat="48.89557" lon="2.40471">
        <ele>115.1</ele>
        <time>2015-04-13T19:39:10.369Z</time>
      </trkpt>
      <trkpt lat="48.89557" lon="2.40465">
        <ele>115</ele>
        <time>2015-04-13T19:39:11.298Z</time>
      </trkpt>
      <trkpt lat="48.89558" lon="2.40458">
        <ele>114.7</ele>
        <time>2015-04-13T19:39:12.298Z</time>
      </trkpt>
      <trkpt lat="48.89559" lon="2.4045">
        <ele>114.6</ele>
        <time>2015-04-13T19:39:13.310Z</time>
      </trkpt>
      <trkpt lat="48.8956" lon="2.40442">
        <ele>114.5</ele>
        <time>2015-04-13T19:39:14.330Z</time>
      </trkpt>
      <trkpt lat="48.89561" lon="2.40434">
        <ele>114.4</ele>
        <time>2015-04-13T19:39:15.348Z</time>
      </trkpt>
      <trkpt lat="48.89562" lon="2.40427">
        <ele>114.5</ele>
        <time>2015-04-13T19:39:16.363Z</time>
      </trkpt>
      <trkpt lat="48.89563" lon="2.40419">
        <ele>114.4</ele>
        <time>2015-04-13T19:39:17.372Z</time>
      </trkpt>
      <trkpt lat="48.89563" lon="2.40411">
        <ele>114.1</ele>
        <time>2015-04-13T19:39:18.387Z</time>
      </trkpt>
      <trkpt lat="48.89564" lon="2.40403">
        <ele>114</ele>
        <time>2015-04-13T19:39:19.282Z</time>
      </trkpt>
      <trkpt lat="48.89565" lon="2.40395">
        <ele>113.8</ele>
        <time>2015-04-13T19:39:20.335Z</time>
      </trkpt>
      <trkpt lat="48.89565" lon="2.40387">
        <ele>113.6</ele>
        <time>2015-04-13T19:39:21.344Z</time>
      </trkpt>
      <trkpt lat="48.89566" lon="2.40379">
        <ele>113.7</ele>
        <time>2015-04-13T19:39:22.347Z</time>
      </trkpt>
      <trkpt lat="48.89567" lon="2.40372">
        <ele>113.7</ele>
        <time>2015-04-13T19:39:23.358Z</time>
      </trkpt>
      <trkpt lat="48.89567" lon="2.40364">
        <ele>113.6</ele>
        <time>2015-04-13T19:39:24.372Z</time>
      </trkpt>
      <trkpt lat="48.89568" lon="2.40356">
        <ele>113.5</ele>
        <time>2015-04-13T19:39:25.384Z</time>
      </trkpt>
      <trkpt lat="48.89569" lon="2.40348">
        <ele>113.6</ele>
        <time>2015-04-13T19:39:26.392Z</time>
      </trkpt>
      <trkpt lat="48.89569" lon="2.40341">
        <ele>113.6</ele>
        <time>2015-04-13T19:39:27.296Z</time>
      </trkpt>
      <trkpt lat="48.89569" lon="2.40334">
        <ele>113.4</ele>
        <time>2015-04-13T19:39:28.290Z</time>
      </trkpt>
      <trkpt lat="48.8957" lon="2.40327">
        <ele>113.2</ele>
        <time>2015-04-13T19:39:29.314Z</time>
      </trkpt>
      <trkpt lat="48.89571" lon="2.4032">
        <ele>113.1</ele>
        <time>2015-04-13T19:39:30.325Z</time>
      </trkpt>
      <trkpt lat="48.89572" lon="2.40308">
        <ele>112.9</ele>
        <time>2015-04-13T19:39:32.327Z</time>
      </trkpt>
      <trkpt lat="48.89572" lon="2.40303">
        <ele>112.8</ele>
        <time>2015-04-13T19:39:33.347Z</time>
      </trkpt>
      <trkpt lat="48.89571" lon="2.40293">
        <ele>112.1</ele>
        <time>2015-04-13T19:39:35.285Z</time>
      </trkpt>
      <trkpt lat="48.89571" lon="2.40288">
        <ele>112.5</ele>
        <time>2015-04-13T19:39:36.329Z</time>
      </trkpt>
      <trkpt lat="48.89572" lon="2.40274">
        <ele>112.4</ele>
        <time>2015-04-13T19:39:39.321Z</time>
      </trkpt>
      <trkpt lat="48.89572" lon="2.4027">
        <ele>111.7</ele>
        <time>2015-04-13T19:39:40.329Z</time>
      </trkpt>
      <trkpt lat="48.89573" lon="2.40259">
        <ele>111.3</ele>
        <time>2015-04-13T19:39:42.314Z</time>
      </trkpt>
      <trkpt lat="48.89574" lon="2.40254">
        <ele>111.2</ele>
        <time>2015-04-13T19:39:43.339Z</time>
      </trkpt>
      <trkpt lat="48.89577" lon="2.40242">
        <ele>111.1</ele>
        <time>2015-04-13T19:39:45.295Z</time>
      </trkpt>
      <trkpt lat="48.89579" lon="2.40236">
        <ele>111</ele>
        <time>2015-04-13T19:39:46.331Z</time>
      </trkpt>
      <trkpt lat="48.89581" lon="2.40229">
        <ele>111.1</ele>
        <time>2015-04-13T19:39:47.363Z</time>
      </trkpt>
      <trkpt lat="48.89583" lon="2.40223">
        <ele>111.1</ele>
        <time>2015-04-13T19:39:48.374Z</time>
      </trkpt>
      <trkpt lat="48.89585" lon="2.40216">
        <ele>111.1</ele>
        <time>2015-04-13T19:39:49.386Z</time>
      </trkpt>
      <trkpt lat="48.89586" lon="2.40209">
        <ele>111</ele>
        <time>2015-04-13T19:39:50.390Z</time>
      </trkpt>
      <trkpt lat="48.89588" lon="2.40202">
        <ele>111.1</ele>
        <time>2015-04-13T19:39:51.280Z</time>
      </trkpt>
      <trkpt lat="48.89588" lon="2.40195">
        <ele>110.9</ele>
        <time>2015-04-13T19:39:52.287Z</time>
      </trkpt>
      <trkpt lat="48.89589" lon="2.40189">
        <ele>110.9</ele>
        <time>2015-04-13T19:39:53.303Z</time>
      </trkpt>
      <trkpt lat="48.8959" lon="2.40182">
        <ele>110.9</ele>
        <time>2015-04-13T19:39:54.309Z</time>
      </trkpt>
      <trkpt lat="48.89592" lon="2.40168">
        <ele>111</ele>
        <time>2015-04-13T19:39:56.326Z</time>
      </trkpt>
      <trkpt lat="48.89596" lon="2.40158">
        <ele>111.1</ele>
        <time>2015-04-13T19:39:58.336Z</time>
      </trkpt>
      <trkpt lat="48.89603" lon="2.40152">
        <ele>111.2</ele>
        <time>2015-04-13T19:40:00.362Z</time>
      </trkpt>
      <trkpt lat="48.89604" lon="2.40148">
        <ele>111</ele>
        <time>2015-04-13T19:40:01.384Z</time>
      </trkpt>
      <trkpt lat="48.89602" lon="2.40135">
        <ele>110.3</ele>
        <time>2015-04-13T19:40:05.357Z</time>
      </trkpt>
      <trkpt lat="48.89601" lon="2.40133">
        <ele>110.5</ele>
        <time>2015-04-13T19:40:06.369Z</time>
      </trkpt>
      <trkpt lat="48.89596" lon="2.40123">
        <ele>110.7</ele>
        <time>2015-04-13T19:40:11.365Z</time>
      </trkpt>
      <trkpt lat="48.89595" lon="2.40121">
        <ele>110.6</ele>
        <time>2015-04-13T19:40:12.269Z</time>
      </trkpt>
      <trkpt lat="48.89595" lon="2.4012">
        <ele>110.6</ele>
        <time>2015-04-13T19:40:13.346Z</time>
      </trkpt>
      <trkpt lat="48.89594" lon="2.40119">
        <ele>110.6</ele>
        <time>2015-04-13T19:40:24.322Z</time>
      </trkpt>
      <trkpt lat="48.8959" lon="2.40115">
        <ele>111.5</ele>
        <time>2015-04-13T19:40:25.350Z</time>
      </trkpt>
      <trkpt lat="48.89591" lon="2.40118">
        <ele>111.6</ele>
        <time>2015-04-13T19:40:27.390Z</time>
      </trkpt>
      <trkpt lat="48.89591" lon="2.40118">
        <ele>111.5</ele>
        <time>2015-04-13T19:40:28.310Z</time>
      </trkpt>
      <trkpt lat="48.89592" lon="2.40117">
        <ele>111.4</ele>
        <time>2015-04-13T19:40:29.311Z</time>
      </trkpt>
      <trkpt lat="48.89592" lon="2.40116">
        <ele>111.9</ele>
        <time>2015-04-13T19:40:30.310Z</time>
      </trkpt>
      <trkpt lat="48.89601" lon="2.40114">
        <ele>115</ele>
        <time>2015-04-13T19:40:36.328Z</time>
      </trkpt>
      <trkpt lat="48.89602" lon="2.40114">
        <ele>116.1</ele>
        <time>2015-04-13T19:40:37.357Z</time>
      </trkpt>
      <trkpt lat="48.89604" lon="2.40102">
        <ele>119.4</ele>
        <time>2015-04-13T19:40:53.311Z</time>
      </trkpt>
      <trkpt lat="48.89605" lon="2.401">
        <ele>119.6</ele>
        <time>2015-04-13T19:40:54.308Z</time>
      </trkpt>
      <trkpt lat="48.89608" lon="2.40089">
        <ele>120.1</ele>
        <time>2015-04-13T19:40:58.370Z</time>
      </trkpt>
      <trkpt lat="48.89608" lon="2.40084">
        <ele>120.2</ele>
        <time>2015-04-13T19:40:59.314Z</time>
      </trkpt>
      <trkpt lat="48.89608" lon="2.40072">
        <ele>120.3</ele>
        <time>2015-04-13T19:41:01.362Z</time>
      </trkpt>
      <trkpt lat="48.89609" lon="2.40065">
        <ele>120.2</ele>
        <time>2015-04-13T19:41:02.376Z</time>
      </trkpt>
      <trkpt lat="48.89611" lon="2.40058">
        <ele>120.3</ele>
        <time>2015-04-13T19:41:03.395Z</time>
      </trkpt>
      <trkpt lat="48.89611" lon="2.40052">
        <ele>120.4</ele>
        <time>2015-04-13T19:41:04.346Z</time>
      </trkpt>
      <trkpt lat="48.89612" lon="2.40045">
        <ele>120.5</ele>
        <time>2015-04-13T19:41:05.341Z</time>
      </trkpt>
      <trkpt lat="48.89613" lon="2.40038">
        <ele>120.4</ele>
        <time>2015-04-13T19:41:06.395Z</time>
      </trkpt>
      <trkpt lat="48.89614" lon="2.4003">
        <ele>120.4</ele>
        <time>2015-04-13T19:41:07.402Z</time>
      </trkpt>
      <trkpt lat="48.89614" lon="2.40023">
        <ele>120.2</ele>
        <time>2015-04-13T19:41:08.401Z</time>
      </trkpt>
      <trkpt lat="48.89614" lon="2.40014">
        <ele>120.2</ele>
        <time>2015-04-13T19:41:09.313Z</time>
      </trkpt>
      <trkpt lat="48.89613" lon="2.40006">
        <ele>120.3</ele>
        <time>2015-04-13T19:41:10.336Z</time>
      </trkpt>
      <trkpt lat="48.89614" lon="2.39997">
        <ele>120.3</ele>
        <time>2015-04-13T19:41:11.381Z</time>
      </trkpt>
      <trkpt lat="48.89614" lon="2.39989">
        <ele>119.7</ele>
        <time>2015-04-13T19:41:12.398Z</time>
      </trkpt>
      <trkpt lat="48.89614" lon="2.39981">
        <ele>119.7</ele>
        <time>2015-04-13T19:41:13.409Z</time>
      </trkpt>
      <trkpt lat="48.89615" lon="2.39973">
        <ele>119.6</ele>
        <time>2015-04-13T19:41:14.429Z</time>
      </trkpt>
      <trkpt lat="48.89615" lon="2.39965">
        <ele>119.4</ele>
        <time>2015-04-13T19:41:15.319Z</time>
      </trkpt>
      <trkpt lat="48.89615" lon="2.39958">
        <ele>119.1</ele>
        <time>2015-04-13T19:41:16.325Z</time>
      </trkpt>
      <trkpt lat="48.89616" lon="2.3995">
        <ele>118.9</ele>
        <time>2015-04-13T19:41:17.337Z</time>
      </trkpt>
      <trkpt lat="48.89617" lon="2.39942">
        <ele>118.7</ele>
        <time>2015-04-13T19:41:18.344Z</time>
      </trkpt>
      <trkpt lat="48.89618" lon="2.39935">
        <ele>118.6</ele>
        <time>2015-04-13T19:41:19.348Z</time>
      </trkpt>
      <trkpt lat="48.89619" lon="2.39927">
        <ele>118.7</ele>
        <time>2015-04-13T19:41:20.363Z</time>
      </trkpt>
      <trkpt lat="48.8962" lon="2.39914">
        <ele>118.5</ele>
        <time>2015-04-13T19:41:22.384Z</time>
      </trkpt>
      <trkpt lat="48.89619" lon="2.39908">
        <ele>118.6</ele>
        <time>2015-04-13T19:41:23.401Z</time>
      </trkpt>
      <trkpt lat="48.89619" lon="2.39895">
        <ele>118.9</ele>
        <time>2015-04-13T19:41:25.342Z</time>
      </trkpt>
      <trkpt lat="48.89619" lon="2.3989">
        <ele>119.1</ele>
        <time>2015-04-13T19:41:26.367Z</time>
      </trkpt>
      <trkpt lat="48.89619" lon="2.39879">
        <ele>120</ele>
        <time>2015-04-13T19:41:28.312Z</time>
      </trkpt>
      <trkpt lat="48.89619" lon="2.39874">
        <ele>120.7</ele>
        <time>2015-04-13T19:41:29.339Z</time>
      </trkpt>
      <trkpt lat="48.89619" lon="2.39863">
        <ele>121.3</ele>
        <time>2015-04-13T19:41:31.376Z</time>
      </trkpt>
      <trkpt lat="48.89619" lon="2.39857">
        <ele>120.9</ele>
        <time>2015-04-13T19:41:32.397Z</time>
      </trkpt>
      <trkpt lat="48.89617" lon="2.39845">
        <ele>123.6</ele>
        <time>2015-04-13T19:41:35.340Z</time>
      </trkpt>
      <trkpt lat="48.89616" lon="2.3984">
        <ele>123.9</ele>
        <time>2015-04-13T19:41:36.400Z</time>
      </trkpt>
      <trkpt lat="48.89614" lon="2.39829">
        <ele>124.3</ele>
        <time>2015-04-13T19:41:38.389Z</time>
      </trkpt>
      <trkpt lat="48.89613" lon="2.39824">
        <ele>124.5</ele>
        <time>2015-04-13T19:41:39.383Z</time>
      </trkpt>
      <trkpt lat="48.89611" lon="2.39811">
        <ele>124.4</ele>
        <time>2015-04-13T19:41:41.332Z</time>
      </trkpt>
      <trkpt lat="48.89609" lon="2.39804">
        <ele>124.3</ele>
        <time>2015-04-13T19:41:42.320Z</time>
      </trkpt>
      <trkpt lat="48.89607" lon="2.39798">
        <ele>124.2</ele>
        <time>2015-04-13T19:41:43.356Z</time>
      </trkpt>
      <trkpt lat="48.89605" lon="2.39791">
        <ele>124</ele>
        <time>2015-04-13T19:41:44.408Z</time>
      </trkpt>
      <trkpt lat="48.89603" lon="2.39785">
        <ele>124.1</ele>
        <time>2015-04-13T19:41:45.383Z</time>
      </trkpt>
      <trkpt lat="48.896" lon="2.39779">
        <ele>124.2</ele>
        <time>2015-04-13T19:41:46.396Z</time>
      </trkpt>
      <trkpt lat="48.89597" lon="2.39772">
        <ele>124.2</ele>
        <time>2015-04-13T19:41:47.318Z</time>
      </trkpt>
      <trkpt lat="48.89594" lon="2.39765">
        <ele>124.2</ele>
        <time>2015-04-13T19:41:48.323Z</time>
      </trkpt>
      <trkpt lat="48.8959" lon="2.39759">
        <ele>124.8</ele>
        <time>2015-04-13T19:41:49.332Z</time>
      </trkpt>
      <trkpt lat="48.89586" lon="2.39752">
        <ele>125.1</ele>
        <time>2015-04-13T19:41:50.361Z</time>
      </trkpt>
      <trkpt lat="48.89585" lon="2.39739">
        <ele>124.8</ele>
        <time>2015-04-13T19:41:52.371Z</time>
      </trkpt>
      <trkpt lat="48.89587" lon="2.39735">
        <ele>125.9</ele>
        <time>2015-04-13T19:41:53.393Z</time>
      </trkpt>
      <trkpt lat="48.8959" lon="2.39725">
        <ele>127.9</ele>
        <time>2015-04-13T19:41:55.332Z</time>
      </trkpt>
      <trkpt lat="48.89591" lon="2.39719">
        <ele>129.2</ele>
        <time>2015-04-13T19:41:56.392Z</time>
      </trkpt>
      <trkpt lat="48.89593" lon="2.39709">
        <ele>131.4</ele>
        <time>2015-04-13T19:41:58.328Z</time>
      </trkpt>
      <trkpt lat="48.89593" lon="2.39703">
        <ele>131.7</ele>
        <time>2015-04-13T19:41:59.354Z</time>
      </trkpt>
      <trkpt lat="48.89595" lon="2.39697">
        <ele>132.2</ele>
        <time>2015-04-13T19:42:00.364Z</time>
      </trkpt>
      <trkpt lat="48.896" lon="2.39692">
        <ele>132.7</ele>
        <time>2015-04-13T19:42:01.376Z</time>
      </trkpt>
      <trkpt lat="48.89607" lon="2.39683">
        <ele>132.5</ele>
        <time>2015-04-13T19:42:03.395Z</time>
      </trkpt>
      <trkpt lat="48.89609" lon="2.39679">
        <ele>132.6</ele>
        <time>2015-04-13T19:42:04.491Z</time>
      </trkpt>
      <trkpt lat="48.8961" lon="2.39669">
        <ele>132.7</ele>
        <time>2015-04-13T19:42:07.458Z</time>
      </trkpt>
      <trkpt lat="48.8961" lon="2.39663">
        <ele>132.2</ele>
        <time>2015-04-13T19:42:08.424Z</time>
      </trkpt>
      <trkpt lat="48.8961" lon="2.39657">
        <ele>131.9</ele>
        <time>2015-04-13T19:42:09.391Z</time>
      </trkpt>
      <trkpt lat="48.89612" lon="2.39649">
        <ele>131.5</ele>
        <time>2015-04-13T19:42:10.400Z</time>
      </trkpt>
      <trkpt lat="48.89613" lon="2.39641">
        <ele>131.1</ele>
        <time>2015-04-13T19:42:11.441Z</time>
      </trkpt>
      <trkpt lat="48.89613" lon="2.39634">
        <ele>130.7</ele>
        <time>2015-04-13T19:42:12.361Z</time>
      </trkpt>
      <trkpt lat="48.89613" lon="2.39621">
        <ele>130.6</ele>
        <time>2015-04-13T19:42:14.385Z</time>
      </trkpt>
      <trkpt lat="48.89613" lon="2.39615">
        <ele>130.3</ele>
        <time>2015-04-13T19:42:15.394Z</time>
      </trkpt>
      <trkpt lat="48.89611" lon="2.39605">
        <ele>130.5</ele>
        <time>2015-04-13T19:42:17.449Z</time>
      </trkpt>
      <trkpt lat="48.8961" lon="2.396">
        <ele>130.4</ele>
        <time>2015-04-13T19:42:18.317Z</time>
      </trkpt>
      <trkpt lat="48.89607" lon="2.39588">
        <ele>129.8</ele>
        <time>2015-04-13T19:42:21.384Z</time>
      </trkpt>
      <trkpt lat="48.89606" lon="2.39584">
        <ele>129.2</ele>
        <time>2015-04-13T19:42:22.389Z</time>
      </trkpt>
      <trkpt lat="48.89606" lon="2.39575">
        <ele>128.1</ele>
        <time>2015-04-13T19:42:24.367Z</time>
      </trkpt>
      <trkpt lat="48.89606" lon="2.3957">
        <ele>127.7</ele>
        <time>2015-04-13T19:42:25.386Z</time>
      </trkpt>
      <trkpt lat="48.89606" lon="2.39558">
        <ele>126.2</ele>
        <time>2015-04-13T19:42:28.312Z</time>
      </trkpt>
      <trkpt lat="48.89607" lon="2.39554">
        <ele>125.8</ele>
        <time>2015-04-13T19:42:29.318Z</time>
      </trkpt>
      <trkpt lat="48.89606" lon="2.39545">
        <ele>124.9</ele>
        <time>2015-04-13T19:42:31.358Z</time>
      </trkpt>
      <trkpt lat="48.89605" lon="2.3954">
        <ele>124.7</ele>
        <time>2015-04-13T19:42:32.377Z</time>
      </trkpt>
      <trkpt lat="48.89603" lon="2.3953">
        <ele>124.3</ele>
        <time>2015-04-13T19:42:34.405Z</time>
      </trkpt>
      <trkpt lat="48.89601" lon="2.39525">
        <ele>124</ele>
        <time>2015-04-13T19:42:35.322Z</time>
      </trkpt>
      <trkpt lat="48.89599" lon="2.39514">
        <ele>123.7</ele>
        <time>2015-04-13T19:42:37.326Z</time>
      </trkpt>
      <trkpt lat="48.89597" lon="2.39509">
        <ele>123.5</ele>
        <time>2015-04-13T19:42:38.383Z</time>
      </trkpt>
      <trkpt lat="48.89594" lon="2.39498">
        <ele>123</ele>
        <time>2015-04-13T19:42:40.328Z</time>
      </trkpt>
      <trkpt lat="48.89592" lon="2.39492">
        <ele>123.2</ele>
        <time>2015-04-13T19:42:41.330Z</time>
      </trkpt>
      <trkpt lat="48.89588" lon="2.39484">
        <ele>123.4</ele>
        <time>2015-04-13T19:42:43.408Z</time>
      </trkpt>
      <trkpt lat="48.89586" lon="2.39481">
        <ele>123.6</ele>
        <time>2015-04-13T19:42:44.419Z</time>
      </trkpt>
      <trkpt lat="48.89581" lon="2.39475">
        <ele>123.8</ele>
        <time>2015-04-13T19:42:46.332Z</time>
      </trkpt>
      <trkpt lat="48.89578" lon="2.39473">
        <ele>124</ele>
        <time>2015-04-13T19:42:47.348Z</time>
      </trkpt>
      <trkpt lat="48.8957" lon="2.39468">
        <ele>124.3</ele>
        <time>2015-04-13T19:42:49.369Z</time>
      </trkpt>
      <trkpt lat="48.89567" lon="2.39464">
        <ele>124.4</ele>
        <time>2015-04-13T19:42:50.387Z</time>
      </trkpt>
      <trkpt lat="48.8956" lon="2.39456">
        <ele>124.5</ele>
        <time>2015-04-13T19:42:53.015Z</time>
      </trkpt>
      <trkpt lat="48.89557" lon="2.39453">
        <ele>124.6</ele>
        <time>2015-04-13T19:42:53.277Z</time>
      </trkpt>
      <trkpt lat="48.89551" lon="2.39445">
        <ele>124.5</ele>
        <time>2015-04-13T19:42:55.382Z</time>
      </trkpt>
      <trkpt lat="48.89549" lon="2.39441">
        <ele>125.1</ele>
        <time>2015-04-13T19:42:56.338Z</time>
      </trkpt>
      <trkpt lat="48.89546" lon="2.39433">
        <ele>125.3</ele>
        <time>2015-04-13T19:42:58.425Z</time>
      </trkpt>
      <trkpt lat="48.89544" lon="2.39428">
        <ele>125.4</ele>
        <time>2015-04-13T19:42:59.369Z</time>
      </trkpt>
      <trkpt lat="48.89542" lon="2.3942">
        <ele>125.6</ele>
        <time>2015-04-13T19:43:01.275Z</time>
      </trkpt>
      <trkpt lat="48.89542" lon="2.3941">
        <ele>125.6</ele>
        <time>2015-04-13T19:43:04.357Z</time>
      </trkpt>
      <trkpt lat="48.89549" lon="2.39398">
        <ele>124.2</ele>
        <time>2015-04-13T19:43:05.299Z</time>
      </trkpt>
      <trkpt lat="48.89555" lon="2.3939">
        <ele>123.4</ele>
        <time>2015-04-13T19:43:06.308Z</time>
      </trkpt>
      <trkpt lat="48.8956" lon="2.39385">
        <ele>122.9</ele>
        <time>2015-04-13T19:43:07.305Z</time>
      </trkpt>
      <trkpt lat="48.89563" lon="2.3938">
        <ele>122.7</ele>
        <time>2015-04-13T19:43:08.702Z</time>
      </trkpt>
      <trkpt lat="48.89567" lon="2.39376">
        <ele>122.5</ele>
        <time>2015-04-13T19:43:09.300Z</time>
      </trkpt>
      <trkpt lat="48.89573" lon="2.39371">
        <ele>123.1</ele>
        <time>2015-04-13T19:43:11.311Z</time>
      </trkpt>
      <trkpt lat="48.89574" lon="2.39367">
        <ele>123.9</ele>
        <time>2015-04-13T19:43:12.343Z</time>
      </trkpt>
      <trkpt lat="48.89578" lon="2.39357">
        <ele>124.6</ele>
        <time>2015-04-13T19:43:15.322Z</time>
      </trkpt>
      <trkpt lat="48.89576" lon="2.39354">
        <ele>124.3</ele>
        <time>2015-04-13T19:43:16.334Z</time>
      </trkpt>
      <trkpt lat="48.89569" lon="2.39348">
        <ele>121.4</ele>
        <time>2015-04-13T19:43:19.333Z</time>
      </trkpt>
      <trkpt lat="48.89567" lon="2.39345">
        <ele>120.9</ele>
        <time>2015-04-13T19:43:20.407Z</time>
      </trkpt>
      <trkpt lat="48.89561" lon="2.39336">
        <ele>121.1</ele>
        <time>2015-04-13T19:43:22.317Z</time>
      </trkpt>
      <trkpt lat="48.89559" lon="2.39332">
        <ele>121</ele>
        <time>2015-04-13T19:43:23.362Z</time>
      </trkpt>
      <trkpt lat="48.89553" lon="2.39322">
        <ele>120.8</ele>
        <time>2015-04-13T19:43:26.368Z</time>
      </trkpt>
      <trkpt lat="48.89552" lon="2.39319">
        <ele>120.6</ele>
        <time>2015-04-13T19:43:27.333Z</time>
      </trkpt>
      <trkpt lat="48.89547" lon="2.39309">
        <ele>119.2</ele>
        <time>2015-04-13T19:43:31.367Z</time>
      </trkpt>
      <trkpt lat="48.89546" lon="2.39307">
        <ele>118.8</ele>
        <time>2015-04-13T19:43:32.381Z</time>
      </trkpt>
      <trkpt lat="48.89542" lon="2.39297">
        <ele>118.4</ele>
        <time>2015-04-13T19:43:36.363Z</time>
      </trkpt>
      <trkpt lat="48.8954" lon="2.39295">
        <ele>118.2</ele>
        <time>2015-04-13T19:43:37.374Z</time>
      </trkpt>
      <trkpt lat="48.89536" lon="2.39285">
        <ele>117.6</ele>
        <time>2015-04-13T19:43:40.330Z</time>
      </trkpt>
      <trkpt lat="48.89535" lon="2.39282">
        <ele>117.2</ele>
        <time>2015-04-13T19:43:41.347Z</time>
      </trkpt>
      <trkpt lat="48.8953" lon="2.3927">
        <ele>116.5</ele>
        <time>2015-04-13T19:43:44.343Z</time>
      </trkpt>
      <trkpt lat="48.89528" lon="2.39267">
        <ele>116.4</ele>
        <time>2015-04-13T19:43:45.349Z</time>
      </trkpt>
      <trkpt lat="48.89525" lon="2.39259">
        <ele>115.9</ele>
        <time>2015-04-13T19:43:47.272Z</time>
      </trkpt>
      <trkpt lat="48.89523" lon="2.39254">
        <ele>115.6</ele>
        <time>2015-04-13T19:43:48.300Z</time>
      </trkpt>
      <trkpt lat="48.8952" lon="2.39245">
        <ele>115.2</ele>
        <time>2015-04-13T19:43:50.335Z</time>
      </trkpt>
      <trkpt lat="48.89518" lon="2.39241">
        <ele>114.8</ele>
        <time>2015-04-13T19:43:51.331Z</time>
      </trkpt>
      <trkpt lat="48.89515" lon="2.39232">
        <ele>114.7</ele>
        <time>2015-04-13T19:43:53.351Z</time>
      </trkpt>
      <trkpt lat="48.89513" lon="2.39228">
        <ele>114.4</ele>
        <time>2015-04-13T19:43:54.428Z</time>
      </trkpt>
      <trkpt lat="48.89508" lon="2.39218">
        <ele>114</ele>
        <time>2015-04-13T19:43:57.347Z</time>
      </trkpt>
      <trkpt lat="48.89506" lon="2.39215">
        <ele>113.9</ele>
        <time>2015-04-13T19:43:58.357Z</time>
      </trkpt>
      <trkpt lat="48.89498" lon="2.39214">
        <ele>112</ele>
        <time>2015-04-13T19:44:02.452Z</time>
      </trkpt>
      <trkpt lat="48.89496" lon="2.39215">
        <ele>111.4</ele>
        <time>2015-04-13T19:44:03.323Z</time>
      </trkpt>
      <trkpt lat="48.89488" lon="2.39211">
        <ele>110.1</ele>
        <time>2015-04-13T19:44:07.337Z</time>
      </trkpt>
      <trkpt lat="48.89486" lon="2.39208">
        <ele>110</ele>
        <time>2015-04-13T19:44:08.415Z</time>
      </trkpt>
      <trkpt lat="48.8948" lon="2.39198">
        <ele>109.8</ele>
        <time>2015-04-13T19:44:11.309Z</time>
      </trkpt>
      <trkpt lat="48.89478" lon="2.39196">
        <ele>110</ele>
        <time>2015-04-13T19:44:12.309Z</time>
      </trkpt>
      <trkpt lat="48.89472" lon="2.39188">
        <ele>110.3</ele>
        <time>2015-04-13T19:44:15.345Z</time>
      </trkpt>
      <trkpt lat="48.89471" lon="2.39187">
        <ele>110.8</ele>
        <time>2015-04-13T19:44:16.278Z</time>
      </trkpt>
      <trkpt lat="48.89465" lon="2.39178">
        <ele>110.2</ele>
        <time>2015-04-13T19:44:21.300Z</time>
      </trkpt>
      <trkpt lat="48.89464" lon="2.39176">
        <ele>110.4</ele>
        <time>2015-04-13T19:44:22.294Z</time>
      </trkpt>
      <trkpt lat="48.89457" lon="2.39171">
        <ele>111.7</ele>
        <time>2015-04-13T19:44:26.386Z</time>
      </trkpt>
      <trkpt lat="48.89456" lon="2.39169">
        <ele>111.7</ele>
        <time>2015-04-13T19:44:27.392Z</time>
      </trkpt>
      <trkpt lat="48.89455" lon="2.39167">
        <ele>111.2</ele>
        <time>2015-04-13T19:44:30.328Z</time>
      </trkpt>
      <trkpt lat="48.89454" lon="2.39167">
        <ele>111.5</ele>
        <time>2015-04-13T19:44:31.374Z</time>
      </trkpt>
      <trkpt lat="48.89454" lon="2.39167">
        <ele>111.9</ele>
        <time>2015-04-13T19:44:45.305Z</time>
      </trkpt>
      <trkpt lat="48.8946" lon="2.39157">
        <ele>113.6</ele>
        <time>2015-04-13T19:44:46.324Z</time>
      </trkpt>
      <trkpt lat="48.89468" lon="2.39163">
        <ele>113</ele>
        <time>2015-04-13T19:44:53.331Z</time>
      </trkpt>
      <trkpt lat="48.89469" lon="2.39165">
        <ele>112.9</ele>
        <time>2015-04-13T19:44:54.291Z</time>
      </trkpt>
      <trkpt lat="48.89476" lon="2.39168">
        <ele>112.3</ele>
        <time>2015-04-13T19:45:01.334Z</time>
      </trkpt>
      <trkpt lat="48.89478" lon="2.39166">
        <ele>112.2</ele>
        <time>2015-04-13T19:45:02.377Z</time>
      </trkpt>
      <trkpt lat="48.89484" lon="2.39161">
        <ele>111.1</ele>
        <time>2015-04-13T19:45:05.365Z</time>
      </trkpt>
      <trkpt lat="48.89486" lon="2.39158">
        <ele>110.6</ele>
        <time>2015-04-13T19:45:06.399Z</time>
      </trkpt>
      <trkpt lat="48.89489" lon="2.39147">
        <ele>109.6</ele>
        <time>2015-04-13T19:45:12.300Z</time>
      </trkpt>
      <trkpt lat="48.89489" lon="2.39145">
        <ele>109.5</ele>
        <time>2015-04-13T19:45:13.325Z</time>
      </trkpt>
      <trkpt lat="48.89492" lon="2.39137">
        <ele>109</ele>
        <time>2015-04-13T19:45:16.349Z</time>
      </trkpt>
      <trkpt lat="48.89495" lon="2.39133">
        <ele>108.7</ele>
        <time>2015-04-13T19:45:17.370Z</time>
      </trkpt>
      <trkpt lat="48.89499" lon="2.39127">
        <ele>108.2</ele>
        <time>2015-04-13T19:45:19.342Z</time>
      </trkpt>
      <trkpt lat="48.89502" lon="2.39123">
        <ele>107.9</ele>
        <time>2015-04-13T19:45:20.326Z</time>
      </trkpt>
      <trkpt lat="48.89509" lon="2.39115">
        <ele>107.9</ele>
        <time>2015-04-13T19:45:23.355Z</time>
      </trkpt>
      <trkpt lat="48.8951" lon="2.39113">
        <ele>108.2</ele>
        <time>2015-04-13T19:45:24.373Z</time>
      </trkpt>
      <trkpt lat="48.89518" lon="2.39119">
        <ele>109.8</ele>
        <time>2015-04-13T19:45:30.285Z</time>
      </trkpt>
      <trkpt lat="48.89519" lon="2.39122">
        <ele>110</ele>
        <time>2015-04-13T19:45:31.334Z</time>
      </trkpt>
      <trkpt lat="48.89524" lon="2.3913">
        <ele>110.5</ele>
        <time>2015-04-13T19:45:35.349Z</time>
      </trkpt>
      <trkpt lat="48.89526" lon="2.39132">
        <ele>110.6</ele>
        <time>2015-04-13T19:45:36.356Z</time>
      </trkpt>
      <trkpt lat="48.89519" lon="2.39138">
        <ele>110.3</ele>
        <time>2015-04-13T19:45:47.342Z</time>
      </trkpt>
      <trkpt lat="48.89517" lon="2.39137">
        <ele>110.2</ele>
        <time>2015-04-13T19:45:48.369Z</time>
      </trkpt>
      <trkpt lat="48.89509" lon="2.39138">
        <ele>109.5</ele>
        <time>2015-04-13T19:45:53.308Z</time>
      </trkpt>
      <trkpt lat="48.89507" lon="2.39139">
        <ele>108.8</ele>
        <time>2015-04-13T19:45:54.324Z</time>
      </trkpt>
      <trkpt lat="48.895" lon="2.39141">
        <ele>107.6</ele>
        <time>2015-04-13T19:45:57.399Z</time>
      </trkpt>
      <trkpt lat="48.89498" lon="2.39142">
        <ele>107.6</ele>
        <time>2015-04-13T19:45:58.446Z</time>
      </trkpt>
      <trkpt lat="48.8949" lon="2.39148">
        <ele>106.6</ele>
        <time>2015-04-13T19:46:01.328Z</time>
      </trkpt>
      <trkpt lat="48.89488" lon="2.3915">
        <ele>106.6</ele>
        <time>2015-04-13T19:46:02.371Z</time>
      </trkpt>
      <trkpt lat="48.89482" lon="2.39154">
        <ele>106.5</ele>
        <time>2015-04-13T19:46:04.389Z</time>
      </trkpt>
      <trkpt lat="48.89479" lon="2.39157">
        <ele>106.7</ele>
        <time>2015-04-13T19:46:05.331Z</time>
      </trkpt>
      <trkpt lat="48.89471" lon="2.39164">
        <ele>106.9</ele>
        <time>2015-04-13T19:46:09.329Z</time>
      </trkpt>
      <trkpt lat="48.89469" lon="2.39165">
        <ele>106.9</ele>
        <time>2015-04-13T19:46:10.344Z</time>
      </trkpt>
      <trkpt lat="48.89462" lon="2.39167">
        <ele>105.2</ele>
        <time>2015-04-13T19:46:18.363Z</time>
      </trkpt>
      <trkpt lat="48.89462" lon="2.39167">
        <ele>105</ele>
        <time>2015-04-13T19:46:19.376Z</time>
      </trkpt>
      <trkpt lat="48.89463" lon="2.39166">
        <ele>104.6</ele>
        <time>2015-04-13T19:46:21.386Z</time>
      </trkpt>
      <trkpt lat="48.89462" lon="2.39167">
        <ele>104.4</ele>
        <time>2015-04-13T19:46:22.389Z</time>
      </trkpt>
      <trkpt lat="48.89454" lon="2.39172">
        <ele>105.3</ele>
        <time>2015-04-13T19:46:31.318Z</time>
      </trkpt>
      <trkpt lat="48.89453" lon="2.39174">
        <ele>105.2</ele>
        <time>2015-04-13T19:46:32.433Z</time>
      </trkpt>
      <trkpt lat="48.89446" lon="2.39181">
        <ele>104.6</ele>
        <time>2015-04-13T19:46:38.395Z</time>
      </trkpt>
      <trkpt lat="48.89445" lon="2.39182">
        <ele>104.6</ele>
        <time>2015-04-13T19:46:39.322Z</time>
      </trkpt>
      <trkpt lat="48.8944" lon="2.39191">
        <ele>104.4</ele>
        <time>2015-04-13T19:46:47.316Z</time>
      </trkpt>
      <trkpt lat="48.89439" lon="2.39192">
        <ele>104.7</ele>
        <time>2015-04-13T19:46:48.323Z</time>
      </trkpt>
      <trkpt lat="48.89435" lon="2.39195">
        <ele>104.6</ele>
        <time>2015-04-13T19:46:54.322Z</time>
      </trkpt>
      <trkpt lat="48.89435" lon="2.39196">
        <ele>103.9</ele>
        <time>2015-04-13T19:46:55.341Z</time>
      </trkpt>
      <trkpt lat="48.89435" lon="2.39195">
        <ele>103.8</ele>
        <time>2015-04-13T19:46:59.297Z</time>
      </trkpt>
      <trkpt lat="48.89433" lon="2.39194">
        <ele>103.5</ele>
        <time>2015-04-13T19:47:00.295Z</time>
      </trkpt>
      <trkpt lat="48.89433" lon="2.39194">
        <ele>103.7</ele>
        <time>2015-04-13T19:47:01.318Z</time>
      </trkpt>
      <trkpt lat="48.89432" lon="2.39194">
        <ele>103.8</ele>
        <time>2015-04-13T19:47:02.342Z</time>
      </trkpt>
      <trkpt lat="48.89432" lon="2.39194">
        <ele>103.7</ele>
        <time>2015-04-13T19:47:45.364Z</time>
      </trkpt>
      <trkpt lat="48.89429" lon="2.39186">
        <ele>102.2</ele>
        <time>2015-04-13T19:47:46.310Z</time>
      </trkpt>
      <trkpt lat="48.89433" lon="2.39176">
        <ele>102.5</ele>
        <time>2015-04-13T19:47:55.703Z</time>
      </trkpt>
      <trkpt lat="48.89434" lon="2.39176">
        <ele>102.3</ele>
        <time>2015-04-13T19:47:56.340Z</time>
      </trkpt>
      <trkpt lat="48.89435" lon="2.39177">
        <ele>102.4</ele>
        <time>2015-04-13T19:49:18.277Z</time>
      </trkpt>
      <trkpt lat="48.89432" lon="2.39172">
        <ele>99.6</ele>
        <time>2015-04-13T19:49:19.291Z</time>
      </trkpt>
      <trkpt lat="48.89426" lon="2.39163">
        <ele>99.3</ele>
        <time>2015-04-13T19:49:25.435Z</time>
      </trkpt>
      <trkpt lat="48.89425" lon="2.39162">
        <ele>99.3</ele>
        <time>2015-04-13T19:49:26.409Z</time>
      </trkpt>
      <trkpt lat="48.89419" lon="2.39153">
        <ele>99.1</ele>
        <time>2015-04-13T19:49:30.448Z</time>
      </trkpt>
      <trkpt lat="48.89417" lon="2.39151">
        <ele>99.2</ele>
        <time>2015-04-13T19:49:31.349Z</time>
      </trkpt>
      <trkpt lat="48.89413" lon="2.39143">
        <ele>98.8</ele>
        <time>2015-04-13T19:49:34.381Z</time>
      </trkpt>
      <trkpt lat="48.89411" lon="2.3914">
        <ele>98.9</ele>
        <time>2015-04-13T19:49:35.392Z</time>
      </trkpt>
      <trkpt lat="48.89407" lon="2.39131">
        <ele>98.9</ele>
        <time>2015-04-13T19:49:38.360Z</time>
      </trkpt>
      <trkpt lat="48.89405" lon="2.39127">
        <ele>98.7</ele>
        <time>2015-04-13T19:49:39.373Z</time>
      </trkpt>
      <trkpt lat="48.894" lon="2.39117">
        <ele>98.8</ele>
        <time>2015-04-13T19:49:42.399Z</time>
      </trkpt>
      <trkpt lat="48.89399" lon="2.39113">
        <ele>99.2</ele>
        <time>2015-04-13T19:49:43.298Z</time>
      </trkpt>
      <trkpt lat="48.89395" lon="2.39106">
        <ele>99.5</ele>
        <time>2015-04-13T19:49:45.537Z</time>
      </trkpt>
      <trkpt lat="48.89393" lon="2.39102">
        <ele>99.4</ele>
        <time>2015-04-13T19:49:46.337Z</time>
      </trkpt>
      <trkpt lat="48.89389" lon="2.39094">
        <ele>99.1</ele>
        <time>2015-04-13T19:49:48.388Z</time>
      </trkpt>
      <trkpt lat="48.89387" lon="2.39091">
        <ele>99.3</ele>
        <time>2015-04-13T19:49:49.284Z</time>
      </trkpt>
      <trkpt lat="48.89382" lon="2.39081">
        <ele>99.6</ele>
        <time>2015-04-13T19:49:52.302Z</time>
      </trkpt>
      <trkpt lat="48.89381" lon="2.39078">
        <ele>99.6</ele>
        <time>2015-04-13T19:49:53.307Z</time>
      </trkpt>
      <trkpt lat="48.89375" lon="2.39069">
        <ele>99.8</ele>
        <time>2015-04-13T19:50:00.648Z</time>
      </trkpt>
      <trkpt lat="48.89374" lon="2.39067">
        <ele>99.9</ele>
        <time>2015-04-13T19:50:01.375Z</time>
      </trkpt>
      <trkpt lat="48.89374" lon="2.39065">
        <ele>99.9</ele>
        <time>2015-04-13T19:50:03.303Z</time>
      </trkpt>
      <trkpt lat="48.89374" lon="2.39065">
        <ele>99.9</ele>
        <time>2015-04-13T19:50:04.301Z</time>
      </trkpt>
      <trkpt lat="48.89373" lon="2.39064">
        <ele>99.8</ele>
        <time>2015-04-13T19:50:05.317Z</time>
      </trkpt>
      <trkpt lat="48.8937" lon="2.39056">
        <ele>100.3</ele>
        <time>2015-04-13T19:50:15.177Z</time>
      </trkpt>
      <trkpt lat="48.8937" lon="2.39056">
        <ele>100.3</ele>
        <time>2015-04-13T19:50:15.269Z</time>
      </trkpt>
      <trkpt lat="48.89371" lon="2.39056">
        <ele>100.1</ele>
        <time>2015-04-13T19:50:17.307Z</time>
      </trkpt>
      <trkpt lat="48.8937" lon="2.39055">
        <ele>100.2</ele>
        <time>2015-04-13T19:50:18.297Z</time>
      </trkpt>
      <trkpt lat="48.89364" lon="2.39045">
        <ele>100.8</ele>
        <time>2015-04-13T19:50:26.353Z</time>
      </trkpt>
      <trkpt lat="48.89363" lon="2.39044">
        <ele>100.8</ele>
        <time>2015-04-13T19:50:27.346Z</time>
      </trkpt>
      <trkpt lat="48.89359" lon="2.39033">
        <ele>101.1</ele>
        <time>2015-04-13T19:50:34.306Z</time>
      </trkpt>
      <trkpt lat="48.89358" lon="2.39031">
        <ele>101.3</ele>
        <time>2015-04-13T19:50:35.360Z</time>
      </trkpt>
      <trkpt lat="48.89353" lon="2.39022">
        <ele>101</ele>
        <time>2015-04-13T19:50:39.280Z</time>
      </trkpt>
      <trkpt lat="48.89352" lon="2.3902">
        <ele>100.8</ele>
        <time>2015-04-13T19:50:40.307Z</time>
      </trkpt>
      <trkpt lat="48.89347" lon="2.3901">
        <ele>100.9</ele>
        <time>2015-04-13T19:50:43.402Z</time>
      </trkpt>
      <trkpt lat="48.89345" lon="2.39008">
        <ele>101</ele>
        <time>2015-04-13T19:50:44.409Z</time>
      </trkpt>
      <trkpt lat="48.8934" lon="2.38998">
        <ele>100.8</ele>
        <time>2015-04-13T19:50:47.354Z</time>
      </trkpt>
      <trkpt lat="48.89338" lon="2.38994">
        <ele>100.8</ele>
        <time>2015-04-13T19:50:48.267Z</time>
      </trkpt>
      <trkpt lat="48.89334" lon="2.38987">
        <ele>100.8</ele>
        <time>2015-04-13T19:50:50.364Z</time>
      </trkpt>
      <trkpt lat="48.89332" lon="2.38982">
        <ele>100.7</ele>
        <time>2015-04-13T19:50:51.301Z</time>
      </trkpt>
      <trkpt lat="48.89327" lon="2.38974">
        <ele>100.6</ele>
        <time>2015-04-13T19:50:53.332Z</time>
      </trkpt>
      <trkpt lat="48.89325" lon="2.3897">
        <ele>100.5</ele>
        <time>2015-04-13T19:50:54.347Z</time>
      </trkpt>
      <trkpt lat="48.89321" lon="2.3896">
        <ele>100.5</ele>
        <time>2015-04-13T19:50:56.316Z</time>
      </trkpt>
      <trkpt lat="48.89318" lon="2.38956">
        <ele>100.7</ele>
        <time>2015-04-13T19:50:57.329Z</time>
      </trkpt>
      <trkpt lat="48.89315" lon="2.38946">
        <ele>100.8</ele>
        <time>2015-04-13T19:50:59.350Z</time>
      </trkpt>
      <trkpt lat="48.89312" lon="2.38941">
        <ele>100.7</ele>
        <time>2015-04-13T19:51:00.372Z</time>
      </trkpt>
      <trkpt lat="48.89307" lon="2.38933">
        <ele>100.6</ele>
        <time>2015-04-13T19:51:02.413Z</time>
      </trkpt>
      <trkpt lat="48.89305" lon="2.38928">
        <ele>100.4</ele>
        <time>2015-04-13T19:51:03.286Z</time>
      </trkpt>
      <trkpt lat="48.89301" lon="2.38919">
        <ele>100.4</ele>
        <time>2015-04-13T19:51:05.324Z</time>
      </trkpt>
      <trkpt lat="48.89299" lon="2.38915">
        <ele>100.4</ele>
        <time>2015-04-13T19:51:06.355Z</time>
      </trkpt>
      <trkpt lat="48.89294" lon="2.38906">
        <ele>100.5</ele>
        <time>2015-04-13T19:51:08.381Z</time>
      </trkpt>
      <trkpt lat="48.89292" lon="2.38902">
        <ele>100.4</ele>
        <time>2015-04-13T19:51:09.319Z</time>
      </trkpt>
      <trkpt lat="48.89288" lon="2.38893">
        <ele>99.9</ele>
        <time>2015-04-13T19:51:11.307Z</time>
      </trkpt>
      <trkpt lat="48.89286" lon="2.38889">
        <ele>100.1</ele>
        <time>2015-04-13T19:51:12.426Z</time>
      </trkpt>
      <trkpt lat="48.89282" lon="2.3888">
        <ele>100.1</ele>
        <time>2015-04-13T19:51:14.337Z</time>
      </trkpt>
      <trkpt lat="48.8928" lon="2.38875">
        <ele>100</ele>
        <time>2015-04-13T19:51:15.355Z</time>
      </trkpt>
      <trkpt lat="48.89275" lon="2.38868">
        <ele>100.2</ele>
        <time>2015-04-13T19:51:17.296Z</time>
      </trkpt>
      <trkpt lat="48.89273" lon="2.38864">
        <ele>100.2</ele>
        <time>2015-04-13T19:51:18.329Z</time>
      </trkpt>
      <trkpt lat="48.89268" lon="2.38854">
        <ele>100.2</ele>
        <time>2015-04-13T19:51:21.274Z</time>
      </trkpt>
      <trkpt lat="48.89267" lon="2.38851">
        <ele>100.3</ele>
        <time>2015-04-13T19:51:22.349Z</time>
      </trkpt>
      <trkpt lat="48.89262" lon="2.38842">
        <ele>99.2</ele>
        <time>2015-04-13T19:51:29.316Z</time>
      </trkpt>
      <trkpt lat="48.89262" lon="2.38841">
        <ele>98.9</ele>
        <time>2015-04-13T19:51:30.331Z</time>
      </trkpt>
      <trkpt lat="48.89262" lon="2.3884">
        <ele>98.8</ele>
        <time>2015-04-13T19:51:31.371Z</time>
      </trkpt>
      <trkpt lat="48.89261" lon="2.38829">
        <ele>98.7</ele>
        <time>2015-04-13T19:51:34.312Z</time>
      </trkpt>
      <trkpt lat="48.89257" lon="2.38825">
        <ele>98.6</ele>
        <time>2015-04-13T19:51:35.329Z</time>
      </trkpt>
      <trkpt lat="48.89254" lon="2.38821">
        <ele>98.4</ele>
        <time>2015-04-13T19:51:36.329Z</time>
      </trkpt>
      <trkpt lat="48.89251" lon="2.38815">
        <ele>97.9</ele>
        <time>2015-04-13T19:51:37.350Z</time>
      </trkpt>
      <trkpt lat="48.89247" lon="2.38809">
        <ele>97.5</ele>
        <time>2015-04-13T19:51:38.362Z</time>
      </trkpt>
      <trkpt lat="48.89243" lon="2.38803">
        <ele>97.3</ele>
        <time>2015-04-13T19:51:39.371Z</time>
      </trkpt>
      <trkpt lat="48.89239" lon="2.38797">
        <ele>97.1</ele>
        <time>2015-04-13T19:51:40.384Z</time>
      </trkpt>
      <trkpt lat="48.89236" lon="2.38792">
        <ele>96.8</ele>
        <time>2015-04-13T19:51:41.392Z</time>
      </trkpt>
      <trkpt lat="48.89231" lon="2.38782">
        <ele>96.9</ele>
        <time>2015-04-13T19:51:43.306Z</time>
      </trkpt>
      <trkpt lat="48.89228" lon="2.38777">
        <ele>96.9</ele>
        <time>2015-04-13T19:51:44.384Z</time>
      </trkpt>
      <trkpt lat="48.89225" lon="2.38771">
        <ele>97.9</ele>
        <time>2015-04-13T19:51:45.307Z</time>
      </trkpt>
      <trkpt lat="48.89221" lon="2.38766">
        <ele>98.6</ele>
        <time>2015-04-13T19:51:46.285Z</time>
      </trkpt>
      <trkpt lat="48.89218" lon="2.3876">
        <ele>98.8</ele>
        <time>2015-04-13T19:51:47.301Z</time>
      </trkpt>
      <trkpt lat="48.89215" lon="2.38755">
        <ele>98.7</ele>
        <time>2015-04-13T19:51:48.294Z</time>
      </trkpt>
      <trkpt lat="48.89212" lon="2.38749">
        <ele>98.8</ele>
        <time>2015-04-13T19:51:49.313Z</time>
      </trkpt>
      <trkpt lat="48.89209" lon="2.38744">
        <ele>98.6</ele>
        <time>2015-04-13T19:51:50.411Z</time>
      </trkpt>
      <trkpt lat="48.89205" lon="2.38732">
        <ele>98.1</ele>
        <time>2015-04-13T19:51:52.304Z</time>
      </trkpt>
      <trkpt lat="48.89203" lon="2.38727">
        <ele>98.1</ele>
        <time>2015-04-13T19:51:53.355Z</time>
      </trkpt>
      <trkpt lat="48.89198" lon="2.38717">
        <ele>98.4</ele>
        <time>2015-04-13T19:51:55.302Z</time>
      </trkpt>
      <trkpt lat="48.89196" lon="2.38714">
        <ele>98.5</ele>
        <time>2015-04-13T19:51:56.324Z</time>
      </trkpt>
      <trkpt lat="48.89192" lon="2.38702">
        <ele>98.5</ele>
        <time>2015-04-13T19:52:04.366Z</time>
      </trkpt>
      <trkpt lat="48.89192" lon="2.387">
        <ele>98.5</ele>
        <time>2015-04-13T19:52:05.289Z</time>
      </trkpt>
      <trkpt lat="48.89187" lon="2.38692">
        <ele>98.1</ele>
        <time>2015-04-13T19:52:09.333Z</time>
      </trkpt>
      <trkpt lat="48.89186" lon="2.3869">
        <ele>98</ele>
        <time>2015-04-13T19:52:10.345Z</time>
      </trkpt>
      <trkpt lat="48.89178" lon="2.38683">
        <ele>98.8</ele>
        <time>2015-04-13T19:52:14.404Z</time>
      </trkpt>
      <trkpt lat="48.89176" lon="2.38681">
        <ele>98.9</ele>
        <time>2015-04-13T19:52:15.277Z</time>
      </trkpt>
      <trkpt lat="48.89169" lon="2.38674">
        <ele>99.2</ele>
        <time>2015-04-13T19:52:19.350Z</time>
      </trkpt>
      <trkpt lat="48.89168" lon="2.38671">
        <ele>99.2</ele>
        <time>2015-04-13T19:52:20.390Z</time>
      </trkpt>
      <trkpt lat="48.89164" lon="2.38662">
        <ele>99</ele>
        <time>2015-04-13T19:52:22.292Z</time>
      </trkpt>
      <trkpt lat="48.89162" lon="2.38659">
        <ele>99.2</ele>
        <time>2015-04-13T19:52:23.321Z</time>
      </trkpt>
      <trkpt lat="48.89156" lon="2.38649">
        <ele>99.2</ele>
        <time>2015-04-13T19:52:26.399Z</time>
      </trkpt>
      <trkpt lat="48.89154" lon="2.38646">
        <ele>99.2</ele>
        <time>2015-04-13T19:52:27.401Z</time>
      </trkpt>
      <trkpt lat="48.8915" lon="2.38639">
        <ele>99.5</ele>
        <time>2015-04-13T19:52:30.244Z</time>
      </trkpt>
      <trkpt lat="48.89148" lon="2.38635">
        <ele>99.7</ele>
        <time>2015-04-13T19:52:30.336Z</time>
      </trkpt>
      <trkpt lat="48.89143" lon="2.38626">
        <ele>100.1</ele>
        <time>2015-04-13T19:52:32.415Z</time>
      </trkpt>
      <trkpt lat="48.8914" lon="2.38622">
        <ele>100.2</ele>
        <time>2015-04-13T19:52:33.326Z</time>
      </trkpt>
      <trkpt lat="48.89135" lon="2.38613">
        <ele>100.4</ele>
        <time>2015-04-13T19:52:35.397Z</time>
      </trkpt>
      <trkpt lat="48.89132" lon="2.38608">
        <ele>100.5</ele>
        <time>2015-04-13T19:52:36.292Z</time>
      </trkpt>
      <trkpt lat="48.89127" lon="2.38599">
        <ele>100.6</ele>
        <time>2015-04-13T19:52:38.406Z</time>
      </trkpt>
      <trkpt lat="48.89124" lon="2.38595">
        <ele>100.7</ele>
        <time>2015-04-13T19:52:39.311Z</time>
      </trkpt>
      <trkpt lat="48.89117" lon="2.38586">
        <ele>100.7</ele>
        <time>2015-04-13T19:52:42.336Z</time>
      </trkpt>
      <trkpt lat="48.89117" lon="2.38584">
        <ele>100.7</ele>
        <time>2015-04-13T19:52:43.379Z</time>
      </trkpt>
      <trkpt lat="48.89117" lon="2.38583">
        <ele>99.3</ele>
        <time>2015-04-13T19:52:44.326Z</time>
      </trkpt>
      <trkpt lat="48.89119" lon="2.3858">
        <ele>100.4</ele>
        <time>2015-04-13T19:52:45.342Z</time>
      </trkpt>
      <trkpt lat="48.8912" lon="2.38577">
        <ele>101</ele>
        <time>2015-04-13T19:54:25.284Z</time>
      </trkpt>
      <trkpt lat="48.89124" lon="2.38579">
        <ele>105.2</ele>
        <time>2015-04-13T19:54:26.331Z</time>
      </trkpt>
      <trkpt lat="48.89124" lon="2.38578">
        <ele>105.2</ele>
        <time>2015-04-13T19:54:27.330Z</time>
      </trkpt>
      <trkpt lat="48.89124" lon="2.38578">
        <ele>105.3</ele>
        <time>2015-04-13T19:54:28.350Z</time>
      </trkpt>
      <trkpt lat="48.89124" lon="2.38578">
        <ele>105.4</ele>
        <time>2015-04-13T19:54:33.286Z</time>
      </trkpt>
      <trkpt lat="48.89124" lon="2.38578">
        <ele>105.6</ele>
        <time>2015-04-13T19:54:34.300Z</time>
      </trkpt>
      <trkpt lat="48.89125" lon="2.38579">
        <ele>105.6</ele>
        <time>2015-04-13T19:54:35.524Z</time>
      </trkpt>
      <trkpt lat="48.89125" lon="2.38579">
        <ele>105.5</ele>
        <time>2015-04-13T19:54:36.330Z</time>
      </trkpt>
      <trkpt lat="48.89123" lon="2.38577">
        <ele>104.7</ele>
        <time>2015-04-13T19:54:37.350Z</time>
      </trkpt>
      <trkpt lat="48.89118" lon="2.38571">
        <ele>103.3</ele>
        <time>2015-04-13T19:54:39.265Z</time>
      </trkpt>
      <trkpt lat="48.89115" lon="2.38568">
        <ele>103.1</ele>
        <time>2015-04-13T19:54:40.282Z</time>
      </trkpt>
      <trkpt lat="48.89109" lon="2.38559">
        <ele>102.5</ele>
        <time>2015-04-13T19:54:42.331Z</time>
      </trkpt>
      <trkpt lat="48.89107" lon="2.38554">
        <ele>102.3</ele>
        <time>2015-04-13T19:54:43.451Z</time>
      </trkpt>
      <trkpt lat="48.89101" lon="2.38544">
        <ele>102</ele>
        <time>2015-04-13T19:54:45.705Z</time>
      </trkpt>
      <trkpt lat="48.89098" lon="2.38539">
        <ele>101.8</ele>
        <time>2015-04-13T19:54:46.310Z</time>
      </trkpt>
      <trkpt lat="48.89095" lon="2.38533">
        <ele>102.5</ele>
        <time>2015-04-13T19:54:47.309Z</time>
      </trkpt>
      <trkpt lat="48.89093" lon="2.38527">
        <ele>102.7</ele>
        <time>2015-04-13T19:54:48.314Z</time>
      </trkpt>
      <trkpt lat="48.8909" lon="2.38522">
        <ele>102.6</ele>
        <time>2015-04-13T19:54:49.340Z</time>
      </trkpt>
      <trkpt lat="48.89087" lon="2.38517">
        <ele>102.5</ele>
        <time>2015-04-13T19:54:50.340Z</time>
      </trkpt>
      <trkpt lat="48.89084" lon="2.38512">
        <ele>102.1</ele>
        <time>2015-04-13T19:54:51.374Z</time>
      </trkpt>
      <trkpt lat="48.8908" lon="2.38508">
        <ele>101.5</ele>
        <time>2015-04-13T19:54:52.380Z</time>
      </trkpt>
      <trkpt lat="48.89077" lon="2.38503">
        <ele>101.4</ele>
        <time>2015-04-13T19:54:53.301Z</time>
      </trkpt>
      <trkpt lat="48.89074" lon="2.38497">
        <ele>101.4</ele>
        <time>2015-04-13T19:54:54.300Z</time>
      </trkpt>
      <trkpt lat="48.89069" lon="2.38487">
        <ele>101</ele>
        <time>2015-04-13T19:54:56.352Z</time>
      </trkpt>
      <trkpt lat="48.89067" lon="2.38482">
        <ele>100.9</ele>
        <time>2015-04-13T19:54:57.357Z</time>
      </trkpt>
      <trkpt lat="48.89062" lon="2.38473">
        <ele>100.4</ele>
        <time>2015-04-13T19:54:59.401Z</time>
      </trkpt>
      <trkpt lat="48.89059" lon="2.38468">
        <ele>100.2</ele>
        <time>2015-04-13T19:55:00.491Z</time>
      </trkpt>
      <trkpt lat="48.89053" lon="2.38461">
        <ele>100.2</ele>
        <time>2015-04-13T19:55:02.399Z</time>
      </trkpt>
      <trkpt lat="48.8905" lon="2.38458">
        <ele>100.2</ele>
        <time>2015-04-13T19:55:03.263Z</time>
      </trkpt>
      <trkpt lat="48.89045" lon="2.38451">
        <ele>100.4</ele>
        <time>2015-04-13T19:55:05.368Z</time>
      </trkpt>
      <trkpt lat="48.89043" lon="2.38447">
        <ele>100.4</ele>
        <time>2015-04-13T19:55:06.391Z</time>
      </trkpt>
      <trkpt lat="48.8904" lon="2.38438">
        <ele>100.4</ele>
        <time>2015-04-13T19:55:08.329Z</time>
      </trkpt>
      <trkpt lat="48.89038" lon="2.38434">
        <ele>100.5</ele>
        <time>2015-04-13T19:55:09.341Z</time>
      </trkpt>
      <trkpt lat="48.89034" lon="2.38426">
        <ele>100.4</ele>
        <time>2015-04-13T19:55:11.393Z</time>
      </trkpt>
      <trkpt lat="48.89031" lon="2.38422">
        <ele>100.1</ele>
        <time>2015-04-13T19:55:12.328Z</time>
      </trkpt>
      <trkpt lat="48.89026" lon="2.38413">
        <ele>99.6</ele>
        <time>2015-04-13T19:55:14.328Z</time>
      </trkpt>
      <trkpt lat="48.89024" lon="2.38408">
        <ele>99.4</ele>
        <time>2015-04-13T19:55:15.351Z</time>
      </trkpt>
      <trkpt lat="48.89019" lon="2.38399">
        <ele>99.2</ele>
        <time>2015-04-13T19:55:17.315Z</time>
      </trkpt>
      <trkpt lat="48.89017" lon="2.38395">
        <ele>99.1</ele>
        <time>2015-04-13T19:55:18.312Z</time>
      </trkpt>
      <trkpt lat="48.89013" lon="2.38384">
        <ele>99</ele>
        <time>2015-04-13T19:55:20.368Z</time>
      </trkpt>
      <trkpt lat="48.89011" lon="2.38379">
        <ele>98.9</ele>
        <time>2015-04-13T19:55:21.266Z</time>
      </trkpt>
      <trkpt lat="48.89008" lon="2.38369">
        <ele>98.8</ele>
        <time>2015-04-13T19:55:23.304Z</time>
      </trkpt>
      <trkpt lat="48.89006" lon="2.38364">
        <ele>98.8</ele>
        <time>2015-04-13T19:55:24.320Z</time>
      </trkpt>
      <trkpt lat="48.89002" lon="2.38354">
        <ele>98.9</ele>
        <time>2015-04-13T19:55:26.395Z</time>
      </trkpt>
      <trkpt lat="48.89001" lon="2.38348">
        <ele>99</ele>
        <time>2015-04-13T19:55:27.278Z</time>
      </trkpt>
      <trkpt lat="48.88996" lon="2.38339">
        <ele>99.2</ele>
        <time>2015-04-13T19:55:29.352Z</time>
      </trkpt>
      <trkpt lat="48.88994" lon="2.38335">
        <ele>99</ele>
        <time>2015-04-13T19:55:30.351Z</time>
      </trkpt>
      <trkpt lat="48.88988" lon="2.38325">
        <ele>99.1</ele>
        <time>2015-04-13T19:55:33.323Z</time>
      </trkpt>
      <trkpt lat="48.88987" lon="2.38322">
        <ele>99.5</ele>
        <time>2015-04-13T19:55:34.341Z</time>
      </trkpt>
      <trkpt lat="48.88984" lon="2.38312">
        <ele>100.1</ele>
        <time>2015-04-13T19:55:37.318Z</time>
      </trkpt>
      <trkpt lat="48.88982" lon="2.38309">
        <ele>100.1</ele>
        <time>2015-04-13T19:55:38.332Z</time>
      </trkpt>
      <trkpt lat="48.88978" lon="2.38301">
        <ele>100.5</ele>
        <time>2015-04-13T19:55:40.255Z</time>
      </trkpt>
      <trkpt lat="48.88976" lon="2.38295">
        <ele>100.6</ele>
        <time>2015-04-13T19:55:41.309Z</time>
      </trkpt>
      <trkpt lat="48.88974" lon="2.38288">
        <ele>100.6</ele>
        <time>2015-04-13T19:55:42.341Z</time>
      </trkpt>
      <trkpt lat="48.88972" lon="2.38281">
        <ele>100.8</ele>
        <time>2015-04-13T19:55:43.389Z</time>
      </trkpt>
      <trkpt lat="48.8897" lon="2.38275">
        <ele>100.7</ele>
        <time>2015-04-13T19:55:44.332Z</time>
      </trkpt>
      <trkpt lat="48.88968" lon="2.38269">
        <ele>100.4</ele>
        <time>2015-04-13T19:55:45.351Z</time>
      </trkpt>
      <trkpt lat="48.88962" lon="2.38259">
        <ele>100.8</ele>
        <time>2015-04-13T19:55:47.296Z</time>
      </trkpt>
      <trkpt lat="48.88959" lon="2.38254">
        <ele>101.1</ele>
        <time>2015-04-13T19:55:48.309Z</time>
      </trkpt>
      <trkpt lat="48.88954" lon="2.38244">
        <ele>101.7</ele>
        <time>2015-04-13T19:55:50.311Z</time>
      </trkpt>
      <trkpt lat="48.88951" lon="2.38239">
        <ele>101.9</ele>
        <time>2015-04-13T19:55:51.326Z</time>
      </trkpt>
      <trkpt lat="48.88947" lon="2.38229">
        <ele>101.9</ele>
        <time>2015-04-13T19:55:53.359Z</time>
      </trkpt>
      <trkpt lat="48.88945" lon="2.38223">
        <ele>102.1</ele>
        <time>2015-04-13T19:55:54.365Z</time>
      </trkpt>
      <trkpt lat="48.8894" lon="2.38213">
        <ele>102.2</ele>
        <time>2015-04-13T19:55:56.327Z</time>
      </trkpt>
      <trkpt lat="48.88937" lon="2.38208">
        <ele>102.2</ele>
        <time>2015-04-13T19:55:57.342Z</time>
      </trkpt>
      <trkpt lat="48.88933" lon="2.38198">
        <ele>102.4</ele>
        <time>2015-04-13T19:55:59.282Z</time>
      </trkpt>
      <trkpt lat="48.8893" lon="2.38193">
        <ele>102.3</ele>
        <time>2015-04-13T19:56:00.291Z</time>
      </trkpt>
      <trkpt lat="48.88925" lon="2.38183">
        <ele>102.1</ele>
        <time>2015-04-13T19:56:02.317Z</time>
      </trkpt>
      <trkpt lat="48.88922" lon="2.38179">
        <ele>102</ele>
        <time>2015-04-13T19:56:03.322Z</time>
      </trkpt>
      <trkpt lat="48.88916" lon="2.38168">
        <ele>102.3</ele>
        <time>2015-04-13T19:56:05.362Z</time>
      </trkpt>
      <trkpt lat="48.88914" lon="2.38162">
        <ele>101.7</ele>
        <time>2015-04-13T19:56:06.294Z</time>
      </trkpt>
      <trkpt lat="48.88913" lon="2.38154">
        <ele>99.4</ele>
        <time>2015-04-13T19:56:07.303Z</time>
      </trkpt>
      <trkpt lat="48.8891" lon="2.38149">
        <ele>98.9</ele>
        <time>2015-04-13T19:56:08.334Z</time>
      </trkpt>
      <trkpt lat="48.88904" lon="2.38138">
        <ele>98.7</ele>
        <time>2015-04-13T19:56:10.373Z</time>
      </trkpt>
      <trkpt lat="48.88901" lon="2.38132">
        <ele>98.9</ele>
        <time>2015-04-13T19:56:11.305Z</time>
      </trkpt>
      <trkpt lat="48.88896" lon="2.38122">
        <ele>99.1</ele>
        <time>2015-04-13T19:56:13.379Z</time>
      </trkpt>
      <trkpt lat="48.88894" lon="2.38116">
        <ele>99.2</ele>
        <time>2015-04-13T19:56:14.361Z</time>
      </trkpt>
      <trkpt lat="48.88888" lon="2.38105">
        <ele>99.4</ele>
        <time>2015-04-13T19:56:16.285Z</time>
      </trkpt>
      <trkpt lat="48.88886" lon="2.381">
        <ele>99.5</ele>
        <time>2015-04-13T19:56:17.313Z</time>
      </trkpt>
      <trkpt lat="48.8888" lon="2.3809">
        <ele>99.2</ele>
        <time>2015-04-13T19:56:19.353Z</time>
      </trkpt>
      <trkpt lat="48.88877" lon="2.38085">
        <ele>99.1</ele>
        <time>2015-04-13T19:56:20.372Z</time>
      </trkpt>
      <trkpt lat="48.88872" lon="2.38076">
        <ele>98.8</ele>
        <time>2015-04-13T19:56:22.297Z</time>
      </trkpt>
      <trkpt lat="48.88868" lon="2.38072">
        <ele>98.7</ele>
        <time>2015-04-13T19:56:23.308Z</time>
      </trkpt>
      <trkpt lat="48.88863" lon="2.38063">
        <ele>98.5</ele>
        <time>2015-04-13T19:56:25.337Z</time>
      </trkpt>
      <trkpt lat="48.8886" lon="2.38058">
        <ele>98.5</ele>
        <time>2015-04-13T19:56:26.407Z</time>
      </trkpt>
      <trkpt lat="48.88854" lon="2.38047">
        <ele>98.4</ele>
        <time>2015-04-13T19:56:28.287Z</time>
      </trkpt>
      <trkpt lat="48.88852" lon="2.38041">
        <ele>98.4</ele>
        <time>2015-04-13T19:56:29.311Z</time>
      </trkpt>
      <trkpt lat="48.88846" lon="2.38032">
        <ele>98.5</ele>
        <time>2015-04-13T19:56:31.360Z</time>
      </trkpt>
      <trkpt lat="48.88844" lon="2.38027">
        <ele>98.5</ele>
        <time>2015-04-13T19:56:32.385Z</time>
      </trkpt>
      <trkpt lat="48.88838" lon="2.38018">
        <ele>98.1</ele>
        <time>2015-04-13T19:56:34.284Z</time>
      </trkpt>
      <trkpt lat="48.88835" lon="2.38014">
        <ele>97.9</ele>
        <time>2015-04-13T19:56:35.310Z</time>
      </trkpt>
      <trkpt lat="48.88831" lon="2.38006">
        <ele>97.7</ele>
        <time>2015-04-13T19:56:37.293Z</time>
      </trkpt>
      <trkpt lat="48.88829" lon="2.38001">
        <ele>97.6</ele>
        <time>2015-04-13T19:56:38.390Z</time>
      </trkpt>
      <trkpt lat="48.88825" lon="2.37993">
        <ele>97</ele>
        <time>2015-04-13T19:56:40.288Z</time>
      </trkpt>
      <trkpt lat="48.88823" lon="2.37989">
        <ele>96.8</ele>
        <time>2015-04-13T19:56:41.338Z</time>
      </trkpt>
      <trkpt lat="48.88817" lon="2.3798">
        <ele>95.7</ele>
        <time>2015-04-13T19:56:44.383Z</time>
      </trkpt>
      <trkpt lat="48.88816" lon="2.37978">
        <ele>95.6</ele>
        <time>2015-04-13T19:56:45.284Z</time>
      </trkpt>
      <trkpt lat="48.88814" lon="2.37974">
        <ele>95.7</ele>
        <time>2015-04-13T19:56:48.346Z</time>
      </trkpt>
      <trkpt lat="48.88815" lon="2.37973">
        <ele>95.7</ele>
        <time>2015-04-13T19:56:49.371Z</time>
      </trkpt>
      <trkpt lat="48.88815" lon="2.37973">
        <ele>95.7</ele>
        <time>2015-04-13T19:57:15.246Z</time>
      </trkpt>
      <trkpt lat="48.88817" lon="2.3797">
        <ele>98.6</ele>
        <time>2015-04-13T19:57:16.304Z</time>
      </trkpt>
      <trkpt lat="48.88809" lon="2.37977">
        <ele>97.8</ele>
        <time>2015-04-13T19:57:22.338Z</time>
      </trkpt>
      <trkpt lat="48.88808" lon="2.37979">
        <ele>98.1</ele>
        <time>2015-04-13T19:57:23.394Z</time>
      </trkpt>
      <trkpt lat="48.88802" lon="2.37986">
        <ele>98.2</ele>
        <time>2015-04-13T19:57:26.299Z</time>
      </trkpt>
      <trkpt lat="48.88801" lon="2.37988">
        <ele>98.3</ele>
        <time>2015-04-13T19:57:27.313Z</time>
      </trkpt>
      <trkpt lat="48.88797" lon="2.38">
        <ele>99</ele>
        <time>2015-04-13T19:57:33.362Z</time>
      </trkpt>
      <trkpt lat="48.88796" lon="2.38001">
        <ele>99.1</ele>
        <time>2015-04-13T19:57:34.272Z</time>
      </trkpt>
      <trkpt lat="48.88789" lon="2.38006">
        <ele>100.4</ele>
        <time>2015-04-13T19:57:39.379Z</time>
      </trkpt>
      <trkpt lat="48.88788" lon="2.38007">
        <ele>100.6</ele>
        <time>2015-04-13T19:57:40.272Z</time>
      </trkpt>
      <trkpt lat="48.88782" lon="2.38014">
        <ele>101.4</ele>
        <time>2015-04-13T19:57:43.338Z</time>
      </trkpt>
      <trkpt lat="48.88778" lon="2.38017">
        <ele>102.3</ele>
        <time>2015-04-13T19:57:44.352Z</time>
      </trkpt>
      <trkpt lat="48.8877" lon="2.38019">
        <ele>102.7</ele>
        <time>2015-04-13T19:57:46.263Z</time>
      </trkpt>
      <trkpt lat="48.88766" lon="2.38021">
        <ele>103.1</ele>
        <time>2015-04-13T19:57:47.290Z</time>
      </trkpt>
      <trkpt lat="48.8876" lon="2.38028">
        <ele>103.4</ele>
        <time>2015-04-13T19:57:49.367Z</time>
      </trkpt>
      <trkpt lat="48.88757" lon="2.38032">
        <ele>103.6</ele>
        <time>2015-04-13T19:57:50.451Z</time>
      </trkpt>
      <trkpt lat="48.88754" lon="2.38036">
        <ele>103.7</ele>
        <time>2015-04-13T19:57:51.268Z</time>
      </trkpt>
      <trkpt lat="48.88749" lon="2.38041">
        <ele>103.8</ele>
        <time>2015-04-13T19:57:52.278Z</time>
      </trkpt>
      <trkpt lat="48.88743" lon="2.38048">
        <ele>104</ele>
        <time>2015-04-13T19:57:54.317Z</time>
      </trkpt>
      <trkpt lat="48.88741" lon="2.38051">
        <ele>104.1</ele>
        <time>2015-04-13T19:57:55.370Z</time>
      </trkpt>
      <trkpt lat="48.88737" lon="2.38058">
        <ele>104.1</ele>
        <time>2015-04-13T19:57:57.262Z</time>
      </trkpt>
      <trkpt lat="48.88735" lon="2.38061">
        <ele>104.2</ele>
        <time>2015-04-13T19:57:58.282Z</time>
      </trkpt>
      <trkpt lat="48.88729" lon="2.38069">
        <ele>104.3</ele>
        <time>2015-04-13T19:58:00.324Z</time>
      </trkpt>
      <trkpt lat="48.88726" lon="2.38072">
        <ele>104.6</ele>
        <time>2015-04-13T19:58:01.414Z</time>
      </trkpt>
      <trkpt lat="48.88719" lon="2.3808">
        <ele>105</ele>
        <time>2015-04-13T19:58:03.312Z</time>
      </trkpt>
      <trkpt lat="48.88715" lon="2.38084">
        <ele>105.1</ele>
        <time>2015-04-13T19:58:04.323Z</time>
      </trkpt>
      <trkpt lat="48.88614" lon="2.38212">
        <ele>106</ele>
        <time>2015-04-13T19:58:31.229Z</time>
      </trkpt>
      <trkpt lat="48.88608" lon="2.38219">
        <ele>108.4</ele>
        <time>2015-04-13T19:58:33.299Z</time>
      </trkpt>
      <trkpt lat="48.88605" lon="2.38223">
        <ele>110.1</ele>
        <time>2015-04-13T19:58:34.306Z</time>
      </trkpt>
      <trkpt lat="48.88599" lon="2.38233">
        <ele>114.3</ele>
        <time>2015-04-13T19:58:37.288Z</time>
      </trkpt>
      <trkpt lat="48.88596" lon="2.38237">
        <ele>115.6</ele>
        <time>2015-04-13T19:58:38.296Z</time>
      </trkpt>
      <trkpt lat="48.88591" lon="2.38245">
        <ele>115.9</ele>
        <time>2015-04-13T19:58:40.337Z</time>
      </trkpt>
      <trkpt lat="48.88588" lon="2.38248">
        <ele>115.9</ele>
        <time>2015-04-13T19:58:41.326Z</time>
      </trkpt>
      <trkpt lat="48.88583" lon="2.38254">
        <ele>116.4</ele>
        <time>2015-04-13T19:58:43.342Z</time>
      </trkpt>
      <trkpt lat="48.8858" lon="2.38257">
        <ele>117</ele>
        <time>2015-04-13T19:58:44.362Z</time>
      </trkpt>
      <trkpt lat="48.88574" lon="2.38262">
        <ele>118.3</ele>
        <time>2015-04-13T19:58:46.454Z</time>
      </trkpt>
      <trkpt lat="48.88571" lon="2.38264">
        <ele>117.8</ele>
        <time>2015-04-13T19:58:47.333Z</time>
      </trkpt>
      <trkpt lat="48.88564" lon="2.38269">
        <ele>115.7</ele>
        <time>2015-04-13T19:58:49.340Z</time>
      </trkpt>
      <trkpt lat="48.88561" lon="2.38273">
        <ele>114.8</ele>
        <time>2015-04-13T19:58:50.357Z</time>
      </trkpt>
      <trkpt lat="48.88555" lon="2.38279">
        <ele>105.5</ele>
        <time>2015-04-13T19:58:51.491Z</time>
      </trkpt>
      <trkpt lat="48.88551" lon="2.38285">
        <ele>101.2</ele>
        <time>2015-04-13T19:58:52.276Z</time>
      </trkpt>
      <trkpt lat="48.88546" lon="2.38291">
        <ele>99.6</ele>
        <time>2015-04-13T19:58:53.292Z</time>
      </trkpt>
      <trkpt lat="48.88542" lon="2.38297">
        <ele>100</ele>
        <time>2015-04-13T19:58:54.302Z</time>
      </trkpt>
      <trkpt lat="48.88535" lon="2.38305">
        <ele>102.2</ele>
        <time>2015-04-13T19:58:55.317Z</time>
      </trkpt>
      <trkpt lat="48.88533" lon="2.38309">
        <ele>102.6</ele>
        <time>2015-04-13T19:58:56.330Z</time>
      </trkpt>
      <trkpt lat="48.88528" lon="2.38317">
        <ele>103.2</ele>
        <time>2015-04-13T19:58:58.262Z</time>
      </trkpt>
      <trkpt lat="48.88525" lon="2.3832">
        <ele>104.1</ele>
        <time>2015-04-13T19:58:59.274Z</time>
      </trkpt>
      <trkpt lat="48.88518" lon="2.38327">
        <ele>105.2</ele>
        <time>2015-04-13T19:59:01.342Z</time>
      </trkpt>
      <trkpt lat="48.88515" lon="2.38332">
        <ele>107.3</ele>
        <time>2015-04-13T19:59:02.341Z</time>
      </trkpt>
      <trkpt lat="48.88508" lon="2.3834">
        <ele>109.5</ele>
        <time>2015-04-13T19:59:04.357Z</time>
      </trkpt>
      <trkpt lat="48.88505" lon="2.38343">
        <ele>110</ele>
        <time>2015-04-13T19:59:05.281Z</time>
      </trkpt>
      <trkpt lat="48.88498" lon="2.38347">
        <ele>110.7</ele>
        <time>2015-04-13T19:59:07.298Z</time>
      </trkpt>
      <trkpt lat="48.88495" lon="2.38349">
        <ele>111.3</ele>
        <time>2015-04-13T19:59:08.311Z</time>
      </trkpt>
      <trkpt lat="48.8849" lon="2.38353">
        <ele>112.5</ele>
        <time>2015-04-13T19:59:11.300Z</time>
      </trkpt>
      <trkpt lat="48.88487" lon="2.38355">
        <ele>113.9</ele>
        <time>2015-04-13T19:59:12.385Z</time>
      </trkpt>
      <trkpt lat="48.8848" lon="2.3836">
        <ele>115.2</ele>
        <time>2015-04-13T19:59:15.169Z</time>
      </trkpt>
      <trkpt lat="48.88476" lon="2.38364">
        <ele>115.6</ele>
        <time>2015-04-13T19:59:15.234Z</time>
      </trkpt>
      <trkpt lat="48.88471" lon="2.3837">
        <ele>116.8</ele>
        <time>2015-04-13T19:59:17.310Z</time>
      </trkpt>
      <trkpt lat="48.88469" lon="2.38372">
        <ele>117.2</ele>
        <time>2015-04-13T19:59:18.327Z</time>
      </trkpt>
      <trkpt lat="48.88463" lon="2.38376">
        <ele>117.9</ele>
        <time>2015-04-13T19:59:20.345Z</time>
      </trkpt>
      <trkpt lat="48.8846" lon="2.38378">
        <ele>118.5</ele>
        <time>2015-04-13T19:59:21.253Z</time>
      </trkpt>
      <trkpt lat="48.88454" lon="2.38384">
        <ele>119.3</ele>
        <time>2015-04-13T19:59:23.297Z</time>
      </trkpt>
      <trkpt lat="48.88451" lon="2.38385">
        <ele>119.6</ele>
        <time>2015-04-13T19:59:24.436Z</time>
      </trkpt>
      <trkpt lat="48.88444" lon="2.3839">
        <ele>120.1</ele>
        <time>2015-04-13T19:59:26.290Z</time>
      </trkpt>
      <trkpt lat="48.88442" lon="2.38393">
        <ele>120.5</ele>
        <time>2015-04-13T19:59:27.346Z</time>
      </trkpt>
      <trkpt lat="48.88437" lon="2.38403">
        <ele>121.6</ele>
        <time>2015-04-13T19:59:30.413Z</time>
      </trkpt>
      <trkpt lat="48.88433" lon="2.38404">
        <ele>123.3</ele>
        <time>2015-04-13T19:59:31.296Z</time>
      </trkpt>
      <trkpt lat="48.88429" lon="2.38409">
        <ele>123.9</ele>
        <time>2015-04-13T19:59:33.337Z</time>
      </trkpt>
      <trkpt lat="48.88426" lon="2.38412">
        <ele>124.4</ele>
        <time>2015-04-13T19:59:34.350Z</time>
      </trkpt>
      <trkpt lat="48.88421" lon="2.38417">
        <ele>124.9</ele>
        <time>2015-04-13T19:59:35.436Z</time>
      </trkpt>
      <trkpt lat="48.88417" lon="2.38423">
        <ele>125.3</ele>
        <time>2015-04-13T19:59:36.262Z</time>
      </trkpt>
      <trkpt lat="48.88413" lon="2.38429">
        <ele>125.4</ele>
        <time>2015-04-13T19:59:37.319Z</time>
      </trkpt>
      <trkpt lat="48.8841" lon="2.38435">
        <ele>125.5</ele>
        <time>2015-04-13T19:59:38.331Z</time>
      </trkpt>
      <trkpt lat="48.88402" lon="2.38441">
        <ele>126.3</ele>
        <time>2015-04-13T19:59:40.560Z</time>
      </trkpt>
      <trkpt lat="48.88399" lon="2.38443">
        <ele>126.6</ele>
        <time>2015-04-13T19:59:41.319Z</time>
      </trkpt>
      <trkpt lat="48.88392" lon="2.38449">
        <ele>127.6</ele>
        <time>2015-04-13T19:59:44.328Z</time>
      </trkpt>
      <trkpt lat="48.8839" lon="2.38452">
        <ele>127.9</ele>
        <time>2015-04-13T19:59:45.328Z</time>
      </trkpt>
      <trkpt lat="48.88385" lon="2.38457">
        <ele>127.7</ele>
        <time>2015-04-13T19:59:47.278Z</time>
      </trkpt>
      <trkpt lat="48.88382" lon="2.3846">
        <ele>127.8</ele>
        <time>2015-04-13T19:59:48.267Z</time>
      </trkpt>
      <trkpt lat="48.88377" lon="2.38466">
        <ele>127.6</ele>
        <time>2015-04-13T19:59:50.853Z</time>
      </trkpt>
      <trkpt lat="48.88374" lon="2.38469">
        <ele>127.6</ele>
        <time>2015-04-13T19:59:51.300Z</time>
      </trkpt>
      <trkpt lat="48.88369" lon="2.38474">
        <ele>127.3</ele>
        <time>2015-04-13T19:59:53.329Z</time>
      </trkpt>
      <trkpt lat="48.88365" lon="2.38477">
        <ele>127.3</ele>
        <time>2015-04-13T19:59:54.346Z</time>
      </trkpt>
      <trkpt lat="48.88359" lon="2.38483">
        <ele>127.6</ele>
        <time>2015-04-13T19:59:56.253Z</time>
      </trkpt>
      <trkpt lat="48.88354" lon="2.38486">
        <ele>128</ele>
        <time>2015-04-13T19:59:57.273Z</time>
      </trkpt>
      <trkpt lat="48.8835" lon="2.3849">
        <ele>128.3</ele>
        <time>2015-04-13T19:59:58.317Z</time>
      </trkpt>
      <trkpt lat="48.88333" lon="2.38514">
        <ele>129.7</ele>
        <time>2015-04-13T20:00:02.304Z</time>
      </trkpt>
      <trkpt lat="48.88325" lon="2.38517">
        <ele>129.1</ele>
        <time>2015-04-13T20:00:05.318Z</time>
      </trkpt>
      <trkpt lat="48.88324" lon="2.38518">
        <ele>129.1</ele>
        <time>2015-04-13T20:00:06.321Z</time>
      </trkpt>
      <trkpt lat="48.88317" lon="2.38524">
        <ele>129.4</ele>
        <time>2015-04-13T20:00:16.302Z</time>
      </trkpt>
      <trkpt lat="48.88316" lon="2.38525">
        <ele>129.3</ele>
        <time>2015-04-13T20:00:17.284Z</time>
      </trkpt>
      <trkpt lat="48.88312" lon="2.38533">
        <ele>131.7</ele>
        <time>2015-04-13T20:00:28.263Z</time>
      </trkpt>
      <trkpt lat="48.88311" lon="2.38534">
        <ele>131.7</ele>
        <time>2015-04-13T20:00:29.277Z</time>
      </trkpt>
      <trkpt lat="48.88311" lon="2.38535">
        <ele>131.9</ele>
        <time>2015-04-13T20:00:31.308Z</time>
      </trkpt>
      <trkpt lat="48.8831" lon="2.38537">
        <ele>132</ele>
        <time>2015-04-13T20:00:32.322Z</time>
      </trkpt>
      <trkpt lat="48.88307" lon="2.38541">
        <ele>132.3</ele>
        <time>2015-04-13T20:00:35.475Z</time>
      </trkpt>
      <trkpt lat="48.88307" lon="2.38543">
        <ele>132.4</ele>
        <time>2015-04-13T20:00:36.364Z</time>
      </trkpt>
      <trkpt lat="48.88306" lon="2.38546">
        <ele>132.8</ele>
        <time>2015-04-13T20:00:38.398Z</time>
      </trkpt>
      <trkpt lat="48.88306" lon="2.38547">
        <ele>133</ele>
        <time>2015-04-13T20:00:39.269Z</time>
      </trkpt>
      <trkpt lat="48.88305" lon="2.38548">
        <ele>133.1</ele>
        <time>2015-04-13T20:00:41.293Z</time>
      </trkpt>
      <trkpt lat="48.88305" lon="2.38548">
        <ele>133.1</ele>
        <time>2015-04-13T20:00:42.319Z</time>
      </trkpt>
      <trkpt lat="48.88305" lon="2.38548">
        <ele>133.2</ele>
        <time>2015-04-13T20:00:45.632Z</time>
      </trkpt>
      <trkpt lat="48.88307" lon="2.38549">
        <ele>132.3</ele>
        <time>2015-04-13T20:00:46.374Z</time>
      </trkpt>
      <trkpt lat="48.88309" lon="2.38551">
        <ele>130.3</ele>
        <time>2015-04-13T20:00:49.338Z</time>
      </trkpt>
      <trkpt lat="48.88311" lon="2.38551">
        <ele>129.7</ele>
        <time>2015-04-13T20:00:50.353Z</time>
      </trkpt>
      <trkpt lat="48.88311" lon="2.38551">
        <ele>129.3</ele>
        <time>2015-04-13T20:00:52.288Z</time>
      </trkpt>
      <trkpt lat="48.88312" lon="2.38549">
        <ele>128.9</ele>
        <time>2015-04-13T20:00:53.268Z</time>
      </trkpt>
      <trkpt lat="48.88315" lon="2.38546">
        <ele>132.5</ele>
        <time>2015-04-13T20:01:00.939Z</time>
      </trkpt>
      <trkpt lat="48.88315" lon="2.38547">
        <ele>133.3</ele>
        <time>2015-04-13T20:01:01.330Z</time>
      </trkpt>
      <trkpt lat="48.88315" lon="2.38548">
        <ele>133.9</ele>
        <time>2015-04-13T20:01:03.247Z</time>
      </trkpt>
      <trkpt lat="48.88314" lon="2.3855">
        <ele>134.9</ele>
        <time>2015-04-13T20:01:04.288Z</time>
      </trkpt>
      <trkpt lat="48.88312" lon="2.38553">
        <ele>136.1</ele>
        <time>2015-04-13T20:01:07.319Z</time>
      </trkpt>
      <trkpt lat="48.88312" lon="2.38554">
        <ele>136.7</ele>
        <time>2015-04-13T20:01:08.342Z</time>
      </trkpt>
      <trkpt lat="48.88313" lon="2.38555">
        <ele>137.3</ele>
        <time>2015-04-13T20:01:12.289Z</time>
      </trkpt>
      <trkpt lat="48.88311" lon="2.3856">
        <ele>138.7</ele>
        <time>2015-04-13T20:01:13.286Z</time>
      </trkpt>
      <trkpt lat="48.88308" lon="2.38566">
        <ele>139.7</ele>
        <time>2015-04-13T20:01:16.332Z</time>
      </trkpt>
      <trkpt lat="48.88308" lon="2.38566">
        <ele>140</ele>
        <time>2015-04-13T20:01:17.342Z</time>
      </trkpt>
      <trkpt lat="48.88309" lon="2.38566">
        <ele>140.4</ele>
        <time>2015-04-13T20:01:18.257Z</time>
      </trkpt>
      <trkpt lat="48.88309" lon="2.38566">
        <ele>140.7</ele>
        <time>2015-04-13T20:01:19.370Z</time>
      </trkpt>
      <trkpt lat="48.88309" lon="2.38566">
        <ele>141.1</ele>
        <time>2015-04-13T20:01:20.425Z</time>
      </trkpt>
      <trkpt lat="48.8831" lon="2.38574">
        <ele>148.7</ele>
        <time>2015-04-13T20:01:42.289Z</time>
      </trkpt>
      <trkpt lat="48.8831" lon="2.38576">
        <ele>149.6</ele>
        <time>2015-04-13T20:01:43.318Z</time>
      </trkpt>
      <trkpt lat="48.88308" lon="2.38577">
        <ele>150.6</ele>
        <time>2015-04-13T20:01:44.345Z</time>
      </trkpt>
      <trkpt lat="48.88301" lon="2.38583">
        <ele>153.6</ele>
        <time>2015-04-13T20:01:47.288Z</time>
      </trkpt>
      <trkpt lat="48.88299" lon="2.38585">
        <ele>154.5</ele>
        <time>2015-04-13T20:01:48.311Z</time>
      </trkpt>
      <trkpt lat="48.88292" lon="2.3859">
        <ele>156.3</ele>
        <time>2015-04-13T20:01:50.663Z</time>
      </trkpt>
      <trkpt lat="48.88289" lon="2.38593">
        <ele>156.8</ele>
        <time>2015-04-13T20:01:51.340Z</time>
      </trkpt>
      <trkpt lat="48.88283" lon="2.38597">
        <ele>156.9</ele>
        <time>2015-04-13T20:01:53.367Z</time>
      </trkpt>
      <trkpt lat="48.88106" lon="2.38792">
        <ele>136.4</ele>
        <time>2015-04-13T20:02:30.271Z</time>
      </trkpt>
      <trkpt lat="48.88101" lon="2.38797">
        <ele>136.5</ele>
        <time>2015-04-13T20:02:31.287Z</time>
      </trkpt>
      <trkpt lat="48.88095" lon="2.38801">
        <ele>136.6</ele>
        <time>2015-04-13T20:02:32.334Z</time>
      </trkpt>
      <trkpt lat="48.8809" lon="2.38804">
        <ele>136.7</ele>
        <time>2015-04-13T20:02:33.341Z</time>
      </trkpt>
      <trkpt lat="48.87981" lon="2.38935">
        <ele>135.7</ele>
        <time>2015-04-13T20:03:09.354Z</time>
      </trkpt>
      <trkpt lat="48.87975" lon="2.3894">
        <ele>136.4</ele>
        <time>2015-04-13T20:03:12.298Z</time>
      </trkpt>
      <trkpt lat="48.87973" lon="2.38942">
        <ele>136.5</ele>
        <time>2015-04-13T20:03:13.321Z</time>
      </trkpt>
      <trkpt lat="48.87975" lon="2.38939">
        <ele>140.6</ele>
        <time>2015-04-13T20:04:32.370Z</time>
      </trkpt>
      <trkpt lat="48.87976" lon="2.3894">
        <ele>140.6</ele>
        <time>2015-04-13T20:04:33.281Z</time>
      </trkpt>
      <trkpt lat="48.87976" lon="2.3894">
        <ele>140.8</ele>
        <time>2015-04-13T20:04:34.294Z</time>
      </trkpt>
      <trkpt lat="48.87971" lon="2.38938">
        <ele>143.1</ele>
        <time>2015-04-13T20:05:31.315Z</time>
      </trkpt>
      <trkpt lat="48.87971" lon="2.38938">
        <ele>143.1</ele>
        <time>2015-04-13T20:05:32.332Z</time>
      </trkpt>
      <trkpt lat="48.87972" lon="2.38937">
        <ele>143.1</ele>
        <time>2015-04-13T20:05:33.346Z</time>
      </trkpt>
      <trkpt lat="48.87972" lon="2.38937">
        <ele>143.1</ele>
        <time>2015-04-13T20:05:34.288Z</time>
      </trkpt>
      <trkpt lat="48.87972" lon="2.38936">
        <ele>143.1</ele>
        <time>2015-04-13T20:05:35.313Z</time>
      </trkpt>
      <trkpt lat="48.87972" lon="2.38936">
        <ele>143.3</ele>
        <time>2015-04-13T20:06:00.286Z</time>
      </trkpt>
      <trkpt lat="48.87975" lon="2.38935">
        <ele>145.7</ele>
        <time>2015-04-13T20:06:01.300Z</time>
      </trkpt>
      <trkpt lat="48.87975" lon="2.38933">
        <ele>145.2</ele>
        <time>2015-04-13T20:06:06.357Z</time>
      </trkpt>
      <trkpt lat="48.87975" lon="2.38933">
        <ele>145.2</ele>
        <time>2015-04-13T20:06:07.370Z</time>
      </trkpt>
      <trkpt lat="48.87975" lon="2.38933">
        <ele>145.1</ele>
        <time>2015-04-13T20:06:16.362Z</time>
      </trkpt>
      <trkpt lat="48.87973" lon="2.38937">
        <ele>144.8</ele>
        <time>2015-04-13T20:06:17.260Z</time>
      </trkpt>
      <trkpt lat="48.87972" lon="2.38938">
        <ele>144.7</ele>
        <time>2015-04-13T20:06:19.274Z</time>
      </trkpt>
      <trkpt lat="48.87971" lon="2.38939">
        <ele>144.6</ele>
        <time>2015-04-13T20:06:20.315Z</time>
      </trkpt>
      <trkpt lat="48.87971" lon="2.38941">
        <ele>144.5</ele>
        <time>2015-04-13T20:06:30.231Z</time>
      </trkpt>
      <trkpt lat="48.87969" lon="2.38941">
        <ele>144.6</ele>
        <time>2015-04-13T20:06:31.248Z</time>
      </trkpt>
      <trkpt lat="48.87971" lon="2.38947">
        <ele>145.8</ele>
        <time>2015-04-13T20:06:55.228Z</time>
      </trkpt>
      <trkpt lat="48.87972" lon="2.38947">
        <ele>145.9</ele>
        <time>2015-04-13T20:06:56.263Z</time>
      </trkpt>
      <trkpt lat="48.87972" lon="2.38947">
        <ele>146</ele>
        <time>2015-04-13T20:06:57.277Z</time>
      </trkpt>
      <trkpt lat="48.87972" lon="2.38947">
        <ele>146.1</ele>
        <time>2015-04-13T20:06:58.304Z</time>
      </trkpt>
      <trkpt lat="48.87977" lon="2.38942">
        <ele>146.2</ele>
        <time>2015-04-13T20:08:14.380Z</time>
      </trkpt>
      <trkpt lat="48.87977" lon="2.38941">
        <ele>146.3</ele>
        <time>2015-04-13T20:08:15.238Z</time>
      </trkpt>
      <trkpt lat="48.87978" lon="2.38941">
        <ele>146.3</ele>
        <time>2015-04-13T20:09:12.283Z</time>
      </trkpt>
      <trkpt lat="48.87966" lon="2.38952">
        <ele>149.3</ele>
        <time>2015-04-13T20:09:13.290Z</time>
      </trkpt>
      <trkpt lat="48.87967" lon="2.3895">
        <ele>149.4</ele>
        <time>2015-04-13T20:09:14.329Z</time>
      </trkpt>
      <trkpt lat="48.87967" lon="2.38948">
        <ele>149.5</ele>
        <time>2015-04-13T20:09:15.338Z</time>
      </trkpt>
      <trkpt lat="48.87967" lon="2.38948">
        <ele>149.6</ele>
        <time>2015-04-13T20:09:33.367Z</time>
      </trkpt>
      <trkpt lat="48.87968" lon="2.38946">
        <ele>149.8</ele>
        <time>2015-04-13T20:09:34.379Z</time>
      </trkpt>
      <trkpt lat="48.87968" lon="2.38945">
        <ele>149.8</ele>
        <time>2015-04-13T20:09:35.311Z</time>
      </trkpt>
      <trkpt lat="48.87968" lon="2.38945">
        <ele>149.8</ele>
        <time>2015-04-13T20:09:36.348Z</time>
      </trkpt>
      <trkpt lat="48.87968" lon="2.38945">
        <ele>149.8</ele>
        <time>2015-04-13T20:10:10.435Z</time>
      </trkpt>
      <trkpt lat="48.87967" lon="2.38944">
        <ele>151.1</ele>
        <time>2015-04-13T20:10:10.461Z</time>
      </trkpt>
      <trkpt lat="48.87971" lon="2.38926">
        <ele>152.4</ele>
        <time>2015-04-13T20:10:22.250Z</time>
      </trkpt>
      <trkpt lat="48.87972" lon="2.38919">
        <ele>152.5</ele>
        <time>2015-04-13T20:10:24.313Z</time>
      </trkpt>
      <trkpt lat="48.87973" lon="2.38875">
        <ele>151.2</ele>
        <time>2015-04-13T20:10:32.308Z</time>
      </trkpt>
      <trkpt lat="48.87965" lon="2.38866">
        <ele>148.9</ele>
        <time>2015-04-13T20:10:33.372Z</time>
      </trkpt>
      <trkpt lat="48.87962" lon="2.38859">
        <ele>147.9</ele>
        <time>2015-04-13T20:10:34.259Z</time>
      </trkpt>
      <trkpt lat="48.87961" lon="2.38854">
        <ele>148</ele>
        <time>2015-04-13T20:10:35.307Z</time>
      </trkpt>
      <trkpt lat="48.87964" lon="2.38843">
        <ele>148.4</ele>
        <time>2015-04-13T20:10:37.324Z</time>
      </trkpt>
      <trkpt lat="48.87965" lon="2.38838">
        <ele>148.8</ele>
        <time>2015-04-13T20:10:38.341Z</time>
      </trkpt>
      <trkpt lat="48.8797" lon="2.38828">
        <ele>149.1</ele>
        <time>2015-04-13T20:10:40.277Z</time>
      </trkpt>
      <trkpt lat="48.87971" lon="2.38823">
        <ele>149.3</ele>
        <time>2015-04-13T20:10:41.295Z</time>
      </trkpt>
      <trkpt lat="48.87973" lon="2.38811">
        <ele>149.6</ele>
        <time>2015-04-13T20:10:43.341Z</time>
      </trkpt>
      <trkpt lat="48.87974" lon="2.38804">
        <ele>149.8</ele>
        <time>2015-04-13T20:10:44.360Z</time>
      </trkpt>
      <trkpt lat="48.87974" lon="2.38797">
        <ele>150</ele>
        <time>2015-04-13T20:10:45.287Z</time>
      </trkpt>
      <trkpt lat="48.87975" lon="2.38789">
        <ele>150.2</ele>
        <time>2015-04-13T20:10:46.297Z</time>
      </trkpt>
      <trkpt lat="48.87976" lon="2.38781">
        <ele>150.3</ele>
        <time>2015-04-13T20:10:47.408Z</time>
      </trkpt>
      <trkpt lat="48.87976" lon="2.38774">
        <ele>150.4</ele>
        <time>2015-04-13T20:10:48.329Z</time>
      </trkpt>
      <trkpt lat="48.87976" lon="2.38762">
        <ele>150.6</ele>
        <time>2015-04-13T20:10:50.348Z</time>
      </trkpt>
      <trkpt lat="48.87976" lon="2.38756">
        <ele>150.7</ele>
        <time>2015-04-13T20:10:51.359Z</time>
      </trkpt>
      <trkpt lat="48.87975" lon="2.38748">
        <ele>150.9</ele>
        <time>2015-04-13T20:10:52.440Z</time>
      </trkpt>
      <trkpt lat="48.87975" lon="2.38741">
        <ele>151</ele>
        <time>2015-04-13T20:10:53.254Z</time>
      </trkpt>
      <trkpt lat="48.87973" lon="2.3871">
        <ele>150.9</ele>
        <time>2015-04-13T20:10:57.309Z</time>
      </trkpt>
      <trkpt lat="48.87972" lon="2.38695">
        <ele>151</ele>
        <time>2015-04-13T20:10:59.335Z</time>
      </trkpt>
      <trkpt lat="48.87972" lon="2.38687">
        <ele>151</ele>
        <time>2015-04-13T20:11:00.407Z</time>
      </trkpt>
      <trkpt lat="48.87972" lon="2.3868">
        <ele>151</ele>
        <time>2015-04-13T20:11:01.242Z</time>
      </trkpt>
      <trkpt lat="48.87972" lon="2.38672">
        <ele>151</ele>
        <time>2015-04-13T20:11:02.307Z</time>
      </trkpt>
      <trkpt lat="48.87971" lon="2.38665">
        <ele>151.2</ele>
        <time>2015-04-13T20:11:03.314Z</time>
      </trkpt>
      <trkpt lat="48.87973" lon="2.38655">
        <ele>151.4</ele>
        <time>2015-04-13T20:11:05.324Z</time>
      </trkpt>
      <trkpt lat="48.87975" lon="2.3865">
        <ele>151.5</ele>
        <time>2015-04-13T20:11:06.330Z</time>
      </trkpt>
      <trkpt lat="48.87973" lon="2.38639">
        <ele>151</ele>
        <time>2015-04-13T20:11:08.359Z</time>
      </trkpt>
      <trkpt lat="48.87965" lon="2.3863">
        <ele>149.3</ele>
        <time>2015-04-13T20:11:09.276Z</time>
      </trkpt>
      <trkpt lat="48.8796" lon="2.38624">
        <ele>148.7</ele>
        <time>2015-04-13T20:11:10.317Z</time>
      </trkpt>
      <trkpt lat="48.87958" lon="2.38617">
        <ele>148.8</ele>
        <time>2015-04-13T20:11:11.335Z</time>
      </trkpt>
      <trkpt lat="48.87959" lon="2.38604">
        <ele>149</ele>
        <time>2015-04-13T20:11:13.397Z</time>
      </trkpt>
      <trkpt lat="48.87961" lon="2.38597">
        <ele>149.2</ele>
        <time>2015-04-13T20:11:14.396Z</time>
      </trkpt>
      <trkpt lat="48.87964" lon="2.38586">
        <ele>149.4</ele>
        <time>2015-04-13T20:11:15.283Z</time>
      </trkpt>
      <trkpt lat="48.87968" lon="2.3858">
        <ele>149.5</ele>
        <time>2015-04-13T20:11:16.273Z</time>
      </trkpt>
      <trkpt lat="48.87971" lon="2.38574">
        <ele>149.6</ele>
        <time>2015-04-13T20:11:17.723Z</time>
      </trkpt>
      <trkpt lat="48.87972" lon="2.38568">
        <ele>149.7</ele>
        <time>2015-04-13T20:11:18.312Z</time>
      </trkpt>
      <trkpt lat="48.87972" lon="2.38556">
        <ele>150.1</ele>
        <time>2015-04-13T20:11:20.345Z</time>
      </trkpt>
      <trkpt lat="48.87972" lon="2.38549">
        <ele>150.2</ele>
        <time>2015-04-13T20:11:21.244Z</time>
      </trkpt>
      <trkpt lat="48.87971" lon="2.38537">
        <ele>150.4</ele>
        <time>2015-04-13T20:11:23.310Z</time>
      </trkpt>
      <trkpt lat="48.8797" lon="2.3853">
        <ele>150.5</ele>
        <time>2015-04-13T20:11:24.342Z</time>
      </trkpt>
      <trkpt lat="48.87968" lon="2.38522">
        <ele>150.7</ele>
        <time>2015-04-13T20:11:25.371Z</time>
      </trkpt>
      <trkpt lat="48.87968" lon="2.38514">
        <ele>150.7</ele>
        <time>2015-04-13T20:11:26.378Z</time>
      </trkpt>
      <trkpt lat="48.87967" lon="2.38506">
        <ele>150.8</ele>
        <time>2015-04-13T20:11:27.318Z</time>
      </trkpt>
      <trkpt lat="48.87965" lon="2.38499">
        <ele>150.8</ele>
        <time>2015-04-13T20:11:28.299Z</time>
      </trkpt>
      <trkpt lat="48.87962" lon="2.38492">
        <ele>151</ele>
        <time>2015-04-13T20:11:29.360Z</time>
      </trkpt>
      <trkpt lat="48.87957" lon="2.38484">
        <ele>151.2</ele>
        <time>2015-04-13T20:11:30.312Z</time>
      </trkpt>
      <trkpt lat="48.87946" lon="2.38471">
        <ele>148.7</ele>
        <time>2015-04-13T20:11:31.333Z</time>
      </trkpt>
      <trkpt lat="48.87942" lon="2.38461">
        <ele>148.6</ele>
        <time>2015-04-13T20:11:32.340Z</time>
      </trkpt>
      <trkpt lat="48.8794" lon="2.38452">
        <ele>148.6</ele>
        <time>2015-04-13T20:11:33.412Z</time>
      </trkpt>
      <trkpt lat="48.87938" lon="2.38439">
        <ele>149</ele>
        <time>2015-04-13T20:11:34.279Z</time>
      </trkpt>
      <trkpt lat="48.87934" lon="2.38427">
        <ele>149.3</ele>
        <time>2015-04-13T20:11:35.279Z</time>
      </trkpt>
      <trkpt lat="48.87934" lon="2.3842">
        <ele>149.5</ele>
        <time>2015-04-13T20:11:36.289Z</time>
      </trkpt>
      <trkpt lat="48.87933" lon="2.38413">
        <ele>149.6</ele>
        <time>2015-04-13T20:11:37.301Z</time>
      </trkpt>
      <trkpt lat="48.87933" lon="2.38407">
        <ele>149.8</ele>
        <time>2015-04-13T20:11:38.316Z</time>
      </trkpt>
      <trkpt lat="48.87931" lon="2.38399">
        <ele>149.9</ele>
        <time>2015-04-13T20:11:39.326Z</time>
      </trkpt>
      <trkpt lat="48.8793" lon="2.38392">
        <ele>150</ele>
        <time>2015-04-13T20:11:40.330Z</time>
      </trkpt>
      <trkpt lat="48.87928" lon="2.38386">
        <ele>150.1</ele>
        <time>2015-04-13T20:11:41.331Z</time>
      </trkpt>
      <trkpt lat="48.87926" lon="2.38373">
        <ele>150.3</ele>
        <time>2015-04-13T20:11:43.287Z</time>
      </trkpt>
      <trkpt lat="48.87925" lon="2.38366">
        <ele>150.4</ele>
        <time>2015-04-13T20:11:44.356Z</time>
      </trkpt>
      <trkpt lat="48.87921" lon="2.38332">
        <ele>150.7</ele>
        <time>2015-04-13T20:11:49.301Z</time>
      </trkpt>
      <trkpt lat="48.87918" lon="2.38324">
        <ele>150.9</ele>
        <time>2015-04-13T20:11:50.339Z</time>
      </trkpt>
      <trkpt lat="48.87914" lon="2.38318">
        <ele>151.5</ele>
        <time>2015-04-13T20:11:51.411Z</time>
      </trkpt>
      <trkpt lat="48.87914" lon="2.38318">
        <ele>151.5</ele>
        <time>2015-04-13T20:11:51.597Z</time>
      </trkpt>
      <trkpt lat="48.87877" lon="2.38253">
        <ele>149.3</ele>
        <time>2015-04-13T20:12:00.250Z</time>
      </trkpt>
      <trkpt lat="48.87871" lon="2.38246">
        <ele>148.3</ele>
        <time>2015-04-13T20:12:01.552Z</time>
      </trkpt>
      <trkpt lat="48.87865" lon="2.38238">
        <ele>147.5</ele>
        <time>2015-04-13T20:12:02.325Z</time>
      </trkpt>
      <trkpt lat="48.87861" lon="2.38231">
        <ele>147</ele>
        <time>2015-04-13T20:12:03.338Z</time>
      </trkpt>
      <trkpt lat="48.87856" lon="2.38225">
        <ele>146.4</ele>
        <time>2015-04-13T20:12:04.350Z</time>
      </trkpt>
      <trkpt lat="48.87849" lon="2.38219">
        <ele>144.8</ele>
        <time>2015-04-13T20:12:05.263Z</time>
      </trkpt>
      <trkpt lat="48.87844" lon="2.38213">
        <ele>144.2</ele>
        <time>2015-04-13T20:12:06.262Z</time>
      </trkpt>
      <trkpt lat="48.87841" lon="2.38206">
        <ele>144.1</ele>
        <time>2015-04-13T20:12:07.289Z</time>
      </trkpt>
      <trkpt lat="48.87836" lon="2.38199">
        <ele>144.3</ele>
        <time>2015-04-13T20:12:08.334Z</time>
      </trkpt>
      <trkpt lat="48.87832" lon="2.38192">
        <ele>144.2</ele>
        <time>2015-04-13T20:12:09.441Z</time>
      </trkpt>
      <trkpt lat="48.87828" lon="2.38186">
        <ele>143.7</ele>
        <time>2015-04-13T20:12:10.323Z</time>
      </trkpt>
      <trkpt lat="48.87823" lon="2.3818">
        <ele>143.4</ele>
        <time>2015-04-13T20:12:11.340Z</time>
      </trkpt>
      <trkpt lat="48.87819" lon="2.38174">
        <ele>143.4</ele>
        <time>2015-04-13T20:12:12.232Z</time>
      </trkpt>
      <trkpt lat="48.87814" lon="2.38167">
        <ele>143.3</ele>
        <time>2015-04-13T20:12:13.321Z</time>
      </trkpt>
      <trkpt lat="48.8781" lon="2.38162">
        <ele>143.1</ele>
        <time>2015-04-13T20:12:14.359Z</time>
      </trkpt>
      <trkpt lat="48.87804" lon="2.38157">
        <ele>143</ele>
        <time>2015-04-13T20:12:15.251Z</time>
      </trkpt>
      <trkpt lat="48.87799" lon="2.38152">
        <ele>142.8</ele>
        <time>2015-04-13T20:12:16.264Z</time>
      </trkpt>
      <trkpt lat="48.87795" lon="2.38147">
        <ele>142.6</ele>
        <time>2015-04-13T20:12:17.272Z</time>
      </trkpt>
      <trkpt lat="48.8779" lon="2.38143">
        <ele>142.4</ele>
        <time>2015-04-13T20:12:18.288Z</time>
      </trkpt>
      <trkpt lat="48.87786" lon="2.38139">
        <ele>142.1</ele>
        <time>2015-04-13T20:12:19.303Z</time>
      </trkpt>
      <trkpt lat="48.87781" lon="2.38137">
        <ele>141.9</ele>
        <time>2015-04-13T20:12:20.325Z</time>
      </trkpt>
      <trkpt lat="48.87774" lon="2.38138">
        <ele>141.5</ele>
        <time>2015-04-13T20:12:23.278Z</time>
      </trkpt>
      <trkpt lat="48.87766" lon="2.38139">
        <ele>139</ele>
        <time>2015-04-13T20:12:24.264Z</time>
      </trkpt>
      <trkpt lat="48.87746" lon="2.3813">
        <ele>138.8</ele>
        <time>2015-04-13T20:12:28.266Z</time>
      </trkpt>
      <trkpt lat="48.87631" lon="2.38134">
        <ele>140.7</ele>
        <time>2015-04-13T20:12:52.264Z</time>
      </trkpt>
      <trkpt lat="48.87624" lon="2.38137">
        <ele>141</ele>
        <time>2015-04-13T20:12:54.309Z</time>
      </trkpt>
      <trkpt lat="48.8762" lon="2.3814">
        <ele>141.2</ele>
        <time>2015-04-13T20:12:55.302Z</time>
      </trkpt>
      <trkpt lat="48.87614" lon="2.38145">
        <ele>141.5</ele>
        <time>2015-04-13T20:12:56.407Z</time>
      </trkpt>
      <trkpt lat="48.8761" lon="2.38152">
        <ele>142.1</ele>
        <time>2015-04-13T20:13:00.294Z</time>
      </trkpt>
      <trkpt lat="48.87601" lon="2.38147">
        <ele>142.4</ele>
        <time>2015-04-13T20:13:10.351Z</time>
      </trkpt>
      <trkpt lat="48.876" lon="2.38146">
        <ele>142.5</ele>
        <time>2015-04-13T20:13:11.271Z</time>
      </trkpt>
      <trkpt lat="48.87599" lon="2.38145">
        <ele>142.5</ele>
        <time>2015-04-13T20:13:12.307Z</time>
      </trkpt>
      <trkpt lat="48.87599" lon="2.38145">
        <ele>142.6</ele>
        <time>2015-04-13T20:13:13.228Z</time>
      </trkpt>
      <trkpt lat="48.87596" lon="2.38153">
        <ele>142.7</ele>
        <time>2015-04-13T20:13:17.308Z</time>
      </trkpt>
      <trkpt lat="48.87593" lon="2.38157">
        <ele>142.7</ele>
        <time>2015-04-13T20:13:18.223Z</time>
      </trkpt>
      <trkpt lat="48.87587" lon="2.38165">
        <ele>143</ele>
        <time>2015-04-13T20:13:20.278Z</time>
      </trkpt>
      <trkpt lat="48.87584" lon="2.3817">
        <ele>143.3</ele>
        <time>2015-04-13T20:13:21.310Z</time>
      </trkpt>
      <trkpt lat="48.8758" lon="2.38179">
        <ele>143.5</ele>
        <time>2015-04-13T20:13:23.253Z</time>
      </trkpt>
      <trkpt lat="48.87578" lon="2.38183">
        <ele>143.6</ele>
        <time>2015-04-13T20:13:24.288Z</time>
      </trkpt>
      <trkpt lat="48.87572" lon="2.38188">
        <ele>143.5</ele>
        <time>2015-04-13T20:13:26.339Z</time>
      </trkpt>
      <trkpt lat="48.87569" lon="2.3819">
        <ele>143.6</ele>
        <time>2015-04-13T20:13:27.339Z</time>
      </trkpt>
      <trkpt lat="48.87562" lon="2.38196">
        <ele>143.8</ele>
        <time>2015-04-13T20:13:32.339Z</time>
      </trkpt>
      <trkpt lat="48.87561" lon="2.38196">
        <ele>144</ele>
        <time>2015-04-13T20:13:33.250Z</time>
      </trkpt>
      <trkpt lat="48.87561" lon="2.38196">
        <ele>144.1</ele>
        <time>2015-04-13T20:13:34.250Z</time>
      </trkpt>
      <trkpt lat="48.8756" lon="2.38196">
        <ele>144.1</ele>
        <time>2015-04-13T20:13:35.317Z</time>
      </trkpt>
      <trkpt lat="48.87557" lon="2.38196">
        <ele>144.3</ele>
        <time>2015-04-13T20:13:41.246Z</time>
      </trkpt>
      <trkpt lat="48.87557" lon="2.38196">
        <ele>144.4</ele>
        <time>2015-04-13T20:13:42.248Z</time>
      </trkpt>
      <trkpt lat="48.87556" lon="2.38196">
        <ele>144.4</ele>
        <time>2015-04-13T20:13:46.326Z</time>
      </trkpt>
      <trkpt lat="48.87553" lon="2.38195">
        <ele>144.7</ele>
        <time>2015-04-13T20:13:47.243Z</time>
      </trkpt>
      <trkpt lat="48.87548" lon="2.38191">
        <ele>144</ele>
        <time>2015-04-13T20:13:49.250Z</time>
      </trkpt>
      <trkpt lat="48.87511" lon="2.38156">
        <ele>142.4</ele>
        <time>2015-04-13T20:13:58.303Z</time>
      </trkpt>
      <trkpt lat="48.87506" lon="2.38152">
        <ele>142.5</ele>
        <time>2015-04-13T20:13:59.312Z</time>
      </trkpt>
      <trkpt lat="48.87503" lon="2.38149">
        <ele>142.4</ele>
        <time>2015-04-13T20:14:00.217Z</time>
      </trkpt>
      <trkpt lat="48.87496" lon="2.38143">
        <ele>142.5</ele>
        <time>2015-04-13T20:14:02.284Z</time>
      </trkpt>
      <trkpt lat="48.87492" lon="2.3814">
        <ele>142.5</ele>
        <time>2015-04-13T20:14:03.301Z</time>
      </trkpt>
      <trkpt lat="48.87488" lon="2.38137">
        <ele>142.4</ele>
        <time>2015-04-13T20:14:04.318Z</time>
      </trkpt>
      <trkpt lat="48.87484" lon="2.38133">
        <ele>142.2</ele>
        <time>2015-04-13T20:14:05.283Z</time>
      </trkpt>
      <trkpt lat="48.87478" lon="2.38127">
        <ele>142</ele>
        <time>2015-04-13T20:14:07.328Z</time>
      </trkpt>
      <trkpt lat="48.87475" lon="2.38124">
        <ele>142</ele>
        <time>2015-04-13T20:14:08.332Z</time>
      </trkpt>
      <trkpt lat="48.87468" lon="2.38117">
        <ele>142.1</ele>
        <time>2015-04-13T20:14:13.302Z</time>
      </trkpt>
      <trkpt lat="48.87467" lon="2.38118">
        <ele>142.3</ele>
        <time>2015-04-13T20:14:14.327Z</time>
      </trkpt>
      <trkpt lat="48.87464" lon="2.3813">
        <ele>141</ele>
        <time>2015-04-13T20:14:20.341Z</time>
      </trkpt>
      <trkpt lat="48.87464" lon="2.38129">
        <ele>140.9</ele>
        <time>2015-04-13T20:14:21.292Z</time>
      </trkpt>
      <trkpt lat="48.87465" lon="2.38127">
        <ele>140.9</ele>
        <time>2015-04-13T20:14:22.260Z</time>
      </trkpt>
      <trkpt lat="48.87469" lon="2.38117">
        <ele>140.6</ele>
        <time>2015-04-13T20:14:29.263Z</time>
      </trkpt>
      <trkpt lat="48.8747" lon="2.38115">
        <ele>140.2</ele>
        <time>2015-04-13T20:14:30.269Z</time>
      </trkpt>
      <trkpt lat="48.87474" lon="2.38105">
        <ele>140.1</ele>
        <time>2015-04-13T20:14:35.276Z</time>
      </trkpt>
      <trkpt lat="48.87475" lon="2.38101">
        <ele>139.7</ele>
        <time>2015-04-13T20:14:36.295Z</time>
      </trkpt>
      <trkpt lat="48.87476" lon="2.38097">
        <ele>139.6</ele>
        <time>2015-04-13T20:14:37.307Z</time>
      </trkpt>
      <trkpt lat="48.87479" lon="2.38086">
        <ele>139.2</ele>
        <time>2015-04-13T20:14:40.336Z</time>
      </trkpt>
      <trkpt lat="48.8748" lon="2.38077">
        <ele>138.8</ele>
        <time>2015-04-13T20:14:43.299Z</time>
      </trkpt>
      <trkpt lat="48.87481" lon="2.38073">
        <ele>138.6</ele>
        <time>2015-04-13T20:14:44.316Z</time>
      </trkpt>
      <trkpt lat="48.87482" lon="2.38062">
        <ele>137.3</ele>
        <time>2015-04-13T20:14:46.332Z</time>
      </trkpt>
      <trkpt lat="48.87479" lon="2.37916">
        <ele>139.4</ele>
        <time>2015-04-13T20:15:17.308Z</time>
      </trkpt>
      <trkpt lat="48.87481" lon="2.37914">
        <ele>139.6</ele>
        <time>2015-04-13T20:15:31.243Z</time>
      </trkpt>
      <trkpt lat="48.87481" lon="2.37914">
        <ele>139.6</ele>
        <time>2015-04-13T20:15:32.289Z</time>
      </trkpt>
      <trkpt lat="48.87481" lon="2.37915">
        <ele>139.6</ele>
        <time>2015-04-13T20:15:45.273Z</time>
      </trkpt>
      <trkpt lat="48.87474" lon="2.37911">
        <ele>140</ele>
        <time>2015-04-13T20:15:46.285Z</time>
      </trkpt>
      <trkpt lat="48.87467" lon="2.37906">
        <ele>138.1</ele>
        <time>2015-04-13T20:15:47.307Z</time>
      </trkpt>
      <trkpt lat="48.87462" lon="2.37901">
        <ele>136.8</ele>
        <time>2015-04-13T20:15:48.313Z</time>
      </trkpt>
      <trkpt lat="48.87457" lon="2.37897">
        <ele>135.7</ele>
        <time>2015-04-13T20:15:49.322Z</time>
      </trkpt>
      <trkpt lat="48.87453" lon="2.37893">
        <ele>135.6</ele>
        <time>2015-04-13T20:15:50.329Z</time>
      </trkpt>
      <trkpt lat="48.87451" lon="2.37888">
        <ele>135.7</ele>
        <time>2015-04-13T20:15:51.244Z</time>
      </trkpt>
      <trkpt lat="48.87445" lon="2.37865">
        <ele>135.6</ele>
        <time>2015-04-13T20:15:55.315Z</time>
      </trkpt>
      <trkpt lat="48.87445" lon="2.37855">
        <ele>135.3</ele>
        <time>2015-04-13T20:15:56.342Z</time>
      </trkpt>
      <trkpt lat="48.87442" lon="2.37846">
        <ele>135.4</ele>
        <time>2015-04-13T20:15:57.260Z</time>
      </trkpt>
      <trkpt lat="48.87421" lon="2.37787">
        <ele>134.1</ele>
        <time>2015-04-13T20:16:03.302Z</time>
      </trkpt>
      <trkpt lat="48.87418" lon="2.37781">
        <ele>134.1</ele>
        <time>2015-04-13T20:16:04.261Z</time>
      </trkpt>
      <trkpt lat="48.87398" lon="2.37759">
        <ele>135.2</ele>
        <time>2015-04-13T20:16:11.241Z</time>
      </trkpt>
      <trkpt lat="48.87393" lon="2.37758">
        <ele>135.5</ele>
        <time>2015-04-13T20:16:13.270Z</time>
      </trkpt>
      <trkpt lat="48.87204" lon="2.37725">
        <ele>120.9</ele>
        <time>2015-04-13T20:17:28.231Z</time>
      </trkpt>
      <trkpt lat="48.87208" lon="2.37717">
        <ele>121.9</ele>
        <time>2015-04-13T20:17:35.341Z</time>
      </trkpt>
      <trkpt lat="48.87208" lon="2.37713">
        <ele>120</ele>
        <time>2015-04-13T20:17:36.376Z</time>
      </trkpt>
      <trkpt lat="48.87208" lon="2.37712">
        <ele>120.1</ele>
        <time>2015-04-13T20:17:37.322Z</time>
      </trkpt>
      <trkpt lat="48.87209" lon="2.37709">
        <ele>120.4</ele>
        <time>2015-04-13T20:17:38.329Z</time>
      </trkpt>
      <trkpt lat="48.87211" lon="2.37707">
        <ele>120.7</ele>
        <time>2015-04-13T20:17:40.342Z</time>
      </trkpt>
      <trkpt lat="48.87212" lon="2.37704">
        <ele>120.8</ele>
        <time>2015-04-13T20:17:41.243Z</time>
      </trkpt>
      <trkpt lat="48.87213" lon="2.37702">
        <ele>120.8</ele>
        <time>2015-04-13T20:17:43.346Z</time>
      </trkpt>
      <trkpt lat="48.87214" lon="2.37701">
        <ele>120.9</ele>
        <time>2015-04-13T20:17:44.348Z</time>
      </trkpt>
      <trkpt lat="48.87214" lon="2.37699">
        <ele>121.4</ele>
        <time>2015-04-13T20:18:13.277Z</time>
      </trkpt>
      <trkpt lat="48.87213" lon="2.37695">
        <ele>123.3</ele>
        <time>2015-04-13T20:18:14.299Z</time>
      </trkpt>
      <trkpt lat="48.87206" lon="2.37689">
        <ele>123.4</ele>
        <time>2015-04-13T20:18:18.330Z</time>
      </trkpt>
      <trkpt lat="48.87204" lon="2.37688">
        <ele>123.2</ele>
        <time>2015-04-13T20:18:19.346Z</time>
      </trkpt>
      <trkpt lat="48.87198" lon="2.37678">
        <ele>126.7</ele>
        <time>2015-04-13T20:18:25.277Z</time>
      </trkpt>
      <trkpt lat="48.87198" lon="2.37677">
        <ele>126.5</ele>
        <time>2015-04-13T20:18:26.302Z</time>
      </trkpt>
      <trkpt lat="48.87195" lon="2.37666">
        <ele>126.6</ele>
        <time>2015-04-13T20:18:31.265Z</time>
      </trkpt>
      <trkpt lat="48.87195" lon="2.37663">
        <ele>126.8</ele>
        <time>2015-04-13T20:18:32.340Z</time>
      </trkpt>
      <trkpt lat="48.87191" lon="2.37652">
        <ele>126.9</ele>
        <time>2015-04-13T20:18:36.297Z</time>
      </trkpt>
      <trkpt lat="48.87189" lon="2.37649">
        <ele>126.5</ele>
        <time>2015-04-13T20:18:37.320Z</time>
      </trkpt>
      <trkpt lat="48.87184" lon="2.37644">
        <ele>125.3</ele>
        <time>2015-04-13T20:18:38.339Z</time>
      </trkpt>
      <trkpt lat="48.8718" lon="2.37639">
        <ele>124.7</ele>
        <time>2015-04-13T20:18:39.274Z</time>
      </trkpt>
      <trkpt lat="48.87176" lon="2.37629">
        <ele>124.2</ele>
        <time>2015-04-13T20:18:42.293Z</time>
      </trkpt>
      <trkpt lat="48.87176" lon="2.37626">
        <ele>124.1</ele>
        <time>2015-04-13T20:18:43.299Z</time>
      </trkpt>
      <trkpt lat="48.87174" lon="2.37615">
        <ele>124.2</ele>
        <time>2015-04-13T20:18:49.286Z</time>
      </trkpt>
      <trkpt lat="48.87173" lon="2.37612">
        <ele>124.1</ele>
        <time>2015-04-13T20:18:50.305Z</time>
      </trkpt>
      <trkpt lat="48.8717" lon="2.37603">
        <ele>124</ele>
        <time>2015-04-13T20:18:52.248Z</time>
      </trkpt>
      <trkpt lat="48.87168" lon="2.37599">
        <ele>124</ele>
        <time>2015-04-13T20:18:53.263Z</time>
      </trkpt>
      <trkpt lat="48.87163" lon="2.37589">
        <ele>124</ele>
        <time>2015-04-13T20:18:56.308Z</time>
      </trkpt>
      <trkpt lat="48.87162" lon="2.37585">
        <ele>124.1</ele>
        <time>2015-04-13T20:18:57.223Z</time>
      </trkpt>
      <trkpt lat="48.87159" lon="2.37577">
        <ele>124.3</ele>
        <time>2015-04-13T20:18:59.324Z</time>
      </trkpt>
      <trkpt lat="48.87158" lon="2.37573">
        <ele>124</ele>
        <time>2015-04-13T20:19:00.219Z</time>
      </trkpt>
      <trkpt lat="48.87154" lon="2.37563">
        <ele>123.7</ele>
        <time>2015-04-13T20:19:02.310Z</time>
      </trkpt>
      <trkpt lat="48.87153" lon="2.37557">
        <ele>123.7</ele>
        <time>2015-04-13T20:19:03.351Z</time>
      </trkpt>
      <trkpt lat="48.8715" lon="2.37546">
        <ele>123.7</ele>
        <time>2015-04-13T20:19:05.264Z</time>
      </trkpt>
      <trkpt lat="48.87148" lon="2.37541">
        <ele>123.6</ele>
        <time>2015-04-13T20:19:06.273Z</time>
      </trkpt>
      <trkpt lat="48.87146" lon="2.37532">
        <ele>123.2</ele>
        <time>2015-04-13T20:19:08.285Z</time>
      </trkpt>
      <trkpt lat="48.87145" lon="2.37526">
        <ele>123</ele>
        <time>2015-04-13T20:19:09.292Z</time>
      </trkpt>
      <trkpt lat="48.87139" lon="2.37518">
        <ele>121.6</ele>
        <time>2015-04-13T20:19:10.310Z</time>
      </trkpt>
      <trkpt lat="48.87134" lon="2.37512">
        <ele>120.8</ele>
        <time>2015-04-13T20:19:11.316Z</time>
      </trkpt>
      <trkpt lat="48.87131" lon="2.37506">
        <ele>119.7</ele>
        <time>2015-04-13T20:19:12.325Z</time>
      </trkpt>
      <trkpt lat="48.87127" lon="2.375">
        <ele>118.5</ele>
        <time>2015-04-13T20:19:13.337Z</time>
      </trkpt>
      <trkpt lat="48.87124" lon="2.37493">
        <ele>117.7</ele>
        <time>2015-04-13T20:19:14.349Z</time>
      </trkpt>
      <trkpt lat="48.87122" lon="2.37488">
        <ele>117.4</ele>
        <time>2015-04-13T20:19:15.262Z</time>
      </trkpt>
      <trkpt lat="48.87119" lon="2.37478">
        <ele>117.3</ele>
        <time>2015-04-13T20:19:17.251Z</time>
      </trkpt>
      <trkpt lat="48.87119" lon="2.37474">
        <ele>117.4</ele>
        <time>2015-04-13T20:19:18.259Z</time>
      </trkpt>
      <trkpt lat="48.87114" lon="2.37463">
        <ele>117.1</ele>
        <time>2015-04-13T20:19:21.210Z</time>
      </trkpt>
      <trkpt lat="48.87112" lon="2.37458">
        <ele>116.8</ele>
        <time>2015-04-13T20:19:22.217Z</time>
      </trkpt>
      <trkpt lat="48.87108" lon="2.37453">
        <ele>115.9</ele>
        <time>2015-04-13T20:19:23.248Z</time>
      </trkpt>
      <trkpt lat="48.87105" lon="2.37447">
        <ele>114.9</ele>
        <time>2015-04-13T20:19:24.252Z</time>
      </trkpt>
      <trkpt lat="48.871" lon="2.37437">
        <ele>113.7</ele>
        <time>2015-04-13T20:19:26.299Z</time>
      </trkpt>
      <trkpt lat="48.87098" lon="2.37432">
        <ele>113.2</ele>
        <time>2015-04-13T20:19:27.403Z</time>
      </trkpt>
      <trkpt lat="48.87092" lon="2.37422">
        <ele>111.8</ele>
        <time>2015-04-13T20:19:30.265Z</time>
      </trkpt>
      <trkpt lat="48.87091" lon="2.3742">
        <ele>111.4</ele>
        <time>2015-04-13T20:19:31.286Z</time>
      </trkpt>
      <trkpt lat="48.87089" lon="2.37417">
        <ele>111</ele>
        <time>2015-04-13T20:19:32.346Z</time>
      </trkpt>
      <trkpt lat="48.87085" lon="2.37408">
        <ele>110.5</ele>
        <time>2015-04-13T20:19:36.253Z</time>
      </trkpt>
      <trkpt lat="48.87083" lon="2.37398">
        <ele>110.5</ele>
        <time>2015-04-13T20:19:39.309Z</time>
      </trkpt>
      <trkpt lat="48.87082" lon="2.37393">
        <ele>110.2</ele>
        <time>2015-04-13T20:19:40.315Z</time>
      </trkpt>
      <trkpt lat="48.87081" lon="2.37384">
        <ele>110.2</ele>
        <time>2015-04-13T20:19:42.240Z</time>
      </trkpt>
      <trkpt lat="48.8708" lon="2.3738">
        <ele>110.3</ele>
        <time>2015-04-13T20:19:43.250Z</time>
      </trkpt>
      <trkpt lat="48.87078" lon="2.37368">
        <ele>110.6</ele>
        <time>2015-04-13T20:19:46.269Z</time>
      </trkpt>
      <trkpt lat="48.87077" lon="2.37362">
        <ele>110.6</ele>
        <time>2015-04-13T20:19:47.279Z</time>
      </trkpt>
      <trkpt lat="48.87075" lon="2.37351">
        <ele>110.6</ele>
        <time>2015-04-13T20:19:49.457Z</time>
      </trkpt>
      <trkpt lat="48.87074" lon="2.37345">
        <ele>110.7</ele>
        <time>2015-04-13T20:19:50.279Z</time>
      </trkpt>
      <trkpt lat="48.87069" lon="2.37339">
        <ele>109.4</ele>
        <time>2015-04-13T20:19:51.273Z</time>
      </trkpt>
      <trkpt lat="48.87064" lon="2.37333">
        <ele>107.3</ele>
        <time>2015-04-13T20:19:52.283Z</time>
      </trkpt>
      <trkpt lat="48.8706" lon="2.37328">
        <ele>107</ele>
        <time>2015-04-13T20:19:53.297Z</time>
      </trkpt>
      <trkpt lat="48.87057" lon="2.37323">
        <ele>106.8</ele>
        <time>2015-04-13T20:19:54.311Z</time>
      </trkpt>
      <trkpt lat="48.87052" lon="2.37313">
        <ele>106.5</ele>
        <time>2015-04-13T20:19:56.264Z</time>
      </trkpt>
      <trkpt lat="48.87037" lon="2.37274">
        <ele>106.8</ele>
        <time>2015-04-13T20:20:04.392Z</time>
      </trkpt>
      <trkpt lat="48.87035" lon="2.37261">
        <ele>106.9</ele>
        <time>2015-04-13T20:20:06.262Z</time>
      </trkpt>
      <trkpt lat="48.87033" lon="2.37255">
        <ele>106.9</ele>
        <time>2015-04-13T20:20:07.260Z</time>
      </trkpt>
      <trkpt lat="48.87032" lon="2.37248">
        <ele>107.2</ele>
        <time>2015-04-13T20:20:08.265Z</time>
      </trkpt>
      <trkpt lat="48.8703" lon="2.37241">
        <ele>107.4</ele>
        <time>2015-04-13T20:20:09.225Z</time>
      </trkpt>
      <trkpt lat="48.87028" lon="2.37229">
        <ele>107.7</ele>
        <time>2015-04-13T20:20:11.240Z</time>
      </trkpt>
      <trkpt lat="48.87027" lon="2.37223">
        <ele>107.6</ele>
        <time>2015-04-13T20:20:12.264Z</time>
      </trkpt>
      <trkpt lat="48.87024" lon="2.37213">
        <ele>108.1</ele>
        <time>2015-04-13T20:20:14.316Z</time>
      </trkpt>
      <trkpt lat="48.87023" lon="2.37207">
        <ele>108.3</ele>
        <time>2015-04-13T20:20:15.335Z</time>
      </trkpt>
      <trkpt lat="48.87019" lon="2.37196">
        <ele>108.8</ele>
        <time>2015-04-13T20:20:17.256Z</time>
      </trkpt>
      <trkpt lat="48.87017" lon="2.37191">
        <ele>109</ele>
        <time>2015-04-13T20:20:18.268Z</time>
      </trkpt>
      <trkpt lat="48.87014" lon="2.37182">
        <ele>109</ele>
        <time>2015-04-13T20:20:20.293Z</time>
      </trkpt>
      <trkpt lat="48.87013" lon="2.37176">
        <ele>109.3</ele>
        <time>2015-04-13T20:20:21.210Z</time>
      </trkpt>
      <trkpt lat="48.87011" lon="2.37165">
        <ele>109</ele>
        <time>2015-04-13T20:20:23.239Z</time>
      </trkpt>
      <trkpt lat="48.8701" lon="2.3716">
        <ele>108.5</ele>
        <time>2015-04-13T20:20:24.401Z</time>
      </trkpt>
      <trkpt lat="48.87005" lon="2.3715">
        <ele>107.1</ele>
        <time>2015-04-13T20:20:26.287Z</time>
      </trkpt>
      <trkpt lat="48.87004" lon="2.37147">
        <ele>107.2</ele>
        <time>2015-04-13T20:20:27.312Z</time>
      </trkpt>
      <trkpt lat="48.87001" lon="2.37137">
        <ele>108</ele>
        <time>2015-04-13T20:20:30.278Z</time>
      </trkpt>
      <trkpt lat="48.87" lon="2.37134">
        <ele>108.2</ele>
        <time>2015-04-13T20:20:31.294Z</time>
      </trkpt>
      <trkpt lat="48.87" lon="2.3713">
        <ele>109.5</ele>
        <time>2015-04-13T20:20:35.260Z</time>
      </trkpt>
      <trkpt lat="48.86999" lon="2.37129">
        <ele>109.6</ele>
        <time>2015-04-13T20:20:36.262Z</time>
      </trkpt>
      <trkpt lat="48.86999" lon="2.37127">
        <ele>110.7</ele>
        <time>2015-04-13T20:20:45.319Z</time>
      </trkpt>
      <trkpt lat="48.87001" lon="2.37116">
        <ele>118.8</ele>
        <time>2015-04-13T20:20:46.342Z</time>
      </trkpt>
      <trkpt lat="48.87009" lon="2.37115">
        <ele>121.9</ele>
        <time>2015-04-13T20:20:54.252Z</time>
      </trkpt>
      <trkpt lat="48.87008" lon="2.37116">
        <ele>122.2</ele>
        <time>2015-04-13T20:20:55.255Z</time>
      </trkpt>
      <trkpt lat="48.87008" lon="2.37115">
        <ele>122.5</ele>
        <time>2015-04-13T20:20:59.407Z</time>
      </trkpt>
      <trkpt lat="48.87007" lon="2.37117">
        <ele>122.9</ele>
        <time>2015-04-13T20:21:00.276Z</time>
      </trkpt>
      <trkpt lat="48.87002" lon="2.37108">
        <ele>123.8</ele>
        <time>2015-04-13T20:21:11.349Z</time>
      </trkpt>
      <trkpt lat="48.87001" lon="2.37103">
        <ele>124</ele>
        <time>2015-04-13T20:21:12.259Z</time>
      </trkpt>
      <trkpt lat="48.86999" lon="2.37094">
        <ele>124</ele>
        <time>2015-04-13T20:21:14.316Z</time>
      </trkpt>
      <trkpt lat="48.86998" lon="2.37089">
        <ele>123.9</ele>
        <time>2015-04-13T20:21:15.245Z</time>
      </trkpt>
      <trkpt lat="48.86995" lon="2.37082">
        <ele>123.3</ele>
        <time>2015-04-13T20:21:16.260Z</time>
      </trkpt>
      <trkpt lat="48.86993" lon="2.37076">
        <ele>123.2</ele>
        <time>2015-04-13T20:21:17.267Z</time>
      </trkpt>
      <trkpt lat="48.8699" lon="2.37066">
        <ele>123.1</ele>
        <time>2015-04-13T20:21:19.317Z</time>
      </trkpt>
      <trkpt lat="48.86987" lon="2.3706">
        <ele>123</ele>
        <time>2015-04-13T20:21:20.338Z</time>
      </trkpt>
      <trkpt lat="48.86985" lon="2.37049">
        <ele>122.9</ele>
        <time>2015-04-13T20:21:22.313Z</time>
      </trkpt>
      <trkpt lat="48.86984" lon="2.37045">
        <ele>123</ele>
        <time>2015-04-13T20:21:23.330Z</time>
      </trkpt>
      <trkpt lat="48.86982" lon="2.37035">
        <ele>123</ele>
        <time>2015-04-13T20:21:25.235Z</time>
      </trkpt>
      <trkpt lat="48.86981" lon="2.37031">
        <ele>122.8</ele>
        <time>2015-04-13T20:21:26.300Z</time>
      </trkpt>
      <trkpt lat="48.86978" lon="2.37018">
        <ele>122.3</ele>
        <time>2015-04-13T20:21:29.301Z</time>
      </trkpt>
      <trkpt lat="48.86976" lon="2.37015">
        <ele>122</ele>
        <time>2015-04-13T20:21:30.320Z</time>
      </trkpt>
      <trkpt lat="48.86972" lon="2.37004">
        <ele>121.7</ele>
        <time>2015-04-13T20:21:33.298Z</time>
      </trkpt>
      <trkpt lat="48.86971" lon="2.37">
        <ele>121.6</ele>
        <time>2015-04-13T20:21:34.303Z</time>
      </trkpt>
      <trkpt lat="48.86968" lon="2.36989">
        <ele>120.8</ele>
        <time>2015-04-13T20:21:37.233Z</time>
      </trkpt>
      <trkpt lat="48.86967" lon="2.36985">
        <ele>120.3</ele>
        <time>2015-04-13T20:21:38.275Z</time>
      </trkpt>
      <trkpt lat="48.86964" lon="2.36976">
        <ele>119.5</ele>
        <time>2015-04-13T20:21:40.302Z</time>
      </trkpt>
      <trkpt lat="48.86963" lon="2.36971">
        <ele>119.3</ele>
        <time>2015-04-13T20:21:41.329Z</time>
      </trkpt>
      <trkpt lat="48.86959" lon="2.3696">
        <ele>119.4</ele>
        <time>2015-04-13T20:21:43.249Z</time>
      </trkpt>
      <trkpt lat="48.86958" lon="2.36954">
        <ele>119.4</ele>
        <time>2015-04-13T20:21:44.344Z</time>
      </trkpt>
      <trkpt lat="48.86955" lon="2.36943">
        <ele>119.4</ele>
        <time>2015-04-13T20:21:46.880Z</time>
      </trkpt>
      <trkpt lat="48.86953" lon="2.36938">
        <ele>119.4</ele>
        <time>2015-04-13T20:21:47.261Z</time>
      </trkpt>
      <trkpt lat="48.8695" lon="2.3693">
        <ele>119.3</ele>
        <time>2015-04-13T20:21:49.296Z</time>
      </trkpt>
      <trkpt lat="48.86949" lon="2.36924">
        <ele>119.1</ele>
        <time>2015-04-13T20:21:50.411Z</time>
      </trkpt>
      <trkpt lat="48.86945" lon="2.36914">
        <ele>118.9</ele>
        <time>2015-04-13T20:21:52.263Z</time>
      </trkpt>
      <trkpt lat="48.86943" lon="2.3691">
        <ele>118.9</ele>
        <time>2015-04-13T20:21:53.300Z</time>
      </trkpt>
      <trkpt lat="48.86938" lon="2.36901">
        <ele>118.7</ele>
        <time>2015-04-13T20:21:55.432Z</time>
      </trkpt>
      <trkpt lat="48.86937" lon="2.36898">
        <ele>118.6</ele>
        <time>2015-04-13T20:21:56.339Z</time>
      </trkpt>
      <trkpt lat="48.86933" lon="2.36887">
        <ele>118.3</ele>
        <time>2015-04-13T20:21:59.260Z</time>
      </trkpt>
      <trkpt lat="48.86932" lon="2.36883">
        <ele>118.2</ele>
        <time>2015-04-13T20:22:00.266Z</time>
      </trkpt>
      <trkpt lat="48.86929" lon="2.36872">
        <ele>118.2</ele>
        <time>2015-04-13T20:22:02.362Z</time>
      </trkpt>
      <trkpt lat="48.86928" lon="2.36867">
        <ele>118.1</ele>
        <time>2015-04-13T20:22:03.216Z</time>
      </trkpt>
      <trkpt lat="48.86926" lon="2.36858">
        <ele>117.7</ele>
        <time>2015-04-13T20:22:05.256Z</time>
      </trkpt>
      <trkpt lat="48.8692" lon="2.36851">
        <ele>115.5</ele>
        <time>2015-04-13T20:22:06.295Z</time>
      </trkpt>
      <trkpt lat="48.86912" lon="2.36844">
        <ele>113.4</ele>
        <time>2015-04-13T20:22:07.199Z</time>
      </trkpt>
      <trkpt lat="48.86905" lon="2.36836">
        <ele>111.8</ele>
        <time>2015-04-13T20:22:08.224Z</time>
      </trkpt>
      <trkpt lat="48.869" lon="2.36829">
        <ele>110.4</ele>
        <time>2015-04-13T20:22:09.246Z</time>
      </trkpt>
      <trkpt lat="48.86895" lon="2.36823">
        <ele>108.9</ele>
        <time>2015-04-13T20:22:10.254Z</time>
      </trkpt>
      <trkpt lat="48.86891" lon="2.36818">
        <ele>107.5</ele>
        <time>2015-04-13T20:22:11.282Z</time>
      </trkpt>
      <trkpt lat="48.86887" lon="2.36813">
        <ele>106.5</ele>
        <time>2015-04-13T20:22:12.207Z</time>
      </trkpt>
      <trkpt lat="48.86883" lon="2.36804">
        <ele>105.1</ele>
        <time>2015-04-13T20:22:14.225Z</time>
      </trkpt>
      <trkpt lat="48.86881" lon="2.36799">
        <ele>104.6</ele>
        <time>2015-04-13T20:22:15.228Z</time>
      </trkpt>
      <trkpt lat="48.86878" lon="2.36788">
        <ele>103.5</ele>
        <time>2015-04-13T20:22:17.258Z</time>
      </trkpt>
      <trkpt lat="48.86878" lon="2.36783">
        <ele>103.2</ele>
        <time>2015-04-13T20:22:18.263Z</time>
      </trkpt>
      <trkpt lat="48.8688" lon="2.3677">
        <ele>100</ele>
        <time>2015-04-13T20:22:37.281Z</time>
      </trkpt>
      <trkpt lat="48.8688" lon="2.3677">
        <ele>100.1</ele>
        <time>2015-04-13T20:22:38.306Z</time>
      </trkpt>
      <trkpt lat="48.8688" lon="2.36769">
        <ele>100.1</ele>
        <time>2015-04-13T20:22:39.324Z</time>
      </trkpt>
      <trkpt lat="48.86881" lon="2.36769">
        <ele>100</ele>
        <time>2015-04-13T20:22:41.246Z</time>
      </trkpt>
      <trkpt lat="48.8688" lon="2.36769">
        <ele>99.2</ele>
        <time>2015-04-13T20:22:42.242Z</time>
      </trkpt>
      <trkpt lat="48.86879" lon="2.3677">
        <ele>98.2</ele>
        <time>2015-04-13T20:22:54.352Z</time>
      </trkpt>
      <trkpt lat="48.86877" lon="2.36768">
        <ele>95.9</ele>
        <time>2015-04-13T20:22:55.294Z</time>
      </trkpt>
      <trkpt lat="48.86875" lon="2.36757">
        <ele>94.2</ele>
        <time>2015-04-13T20:23:00.252Z</time>
      </trkpt>
      <trkpt lat="48.86874" lon="2.36754">
        <ele>94.4</ele>
        <time>2015-04-13T20:23:01.367Z</time>
      </trkpt>
      <trkpt lat="48.86868" lon="2.36745">
        <ele>94.5</ele>
        <time>2015-04-13T20:23:05.212Z</time>
      </trkpt>
      <trkpt lat="48.86867" lon="2.36743">
        <ele>94.5</ele>
        <time>2015-04-13T20:23:06.246Z</time>
      </trkpt>
      <trkpt lat="48.86863" lon="2.36732">
        <ele>94.8</ele>
        <time>2015-04-13T20:23:10.323Z</time>
      </trkpt>
      <trkpt lat="48.86863" lon="2.36728">
        <ele>94.6</ele>
        <time>2015-04-13T20:23:11.313Z</time>
      </trkpt>
      <trkpt lat="48.86864" lon="2.36715">
        <ele>95.1</ele>
        <time>2015-04-13T20:23:15.257Z</time>
      </trkpt>
      <trkpt lat="48.86863" lon="2.36711">
        <ele>95.3</ele>
        <time>2015-04-13T20:23:16.264Z</time>
      </trkpt>
      <trkpt lat="48.8686" lon="2.367">
        <ele>95.7</ele>
        <time>2015-04-13T20:23:18.276Z</time>
      </trkpt>
      <trkpt lat="48.86858" lon="2.36694">
        <ele>95.9</ele>
        <time>2015-04-13T20:23:19.295Z</time>
      </trkpt>
      <trkpt lat="48.86856" lon="2.36681">
        <ele>96.4</ele>
        <time>2015-04-13T20:23:21.350Z</time>
      </trkpt>
      <trkpt lat="48.86855" lon="2.36676">
        <ele>96.5</ele>
        <time>2015-04-13T20:23:22.224Z</time>
      </trkpt>
      <trkpt lat="48.86851" lon="2.36665">
        <ele>96.8</ele>
        <time>2015-04-13T20:23:24.242Z</time>
      </trkpt>
      <trkpt lat="48.8685" lon="2.36659">
        <ele>96.9</ele>
        <time>2015-04-13T20:23:25.260Z</time>
      </trkpt>
      <trkpt lat="48.86848" lon="2.36653">
        <ele>97.1</ele>
        <time>2015-04-13T20:23:26.368Z</time>
      </trkpt>
      <trkpt lat="48.86847" lon="2.36646">
        <ele>97.3</ele>
        <time>2015-04-13T20:23:27.331Z</time>
      </trkpt>
      <trkpt lat="48.86844" lon="2.3664">
        <ele>97.4</ele>
        <time>2015-04-13T20:23:28.227Z</time>
      </trkpt>
      <trkpt lat="48.86842" lon="2.36634">
        <ele>97.4</ele>
        <time>2015-04-13T20:23:29.241Z</time>
      </trkpt>
      <trkpt lat="48.8684" lon="2.36627">
        <ele>97.4</ele>
        <time>2015-04-13T20:23:30.252Z</time>
      </trkpt>
      <trkpt lat="48.86838" lon="2.3662">
        <ele>97.4</ele>
        <time>2015-04-13T20:23:31.306Z</time>
      </trkpt>
      <trkpt lat="48.86836" lon="2.36613">
        <ele>97.5</ele>
        <time>2015-04-13T20:23:32.354Z</time>
      </trkpt>
      <trkpt lat="48.86834" lon="2.36607">
        <ele>97.5</ele>
        <time>2015-04-13T20:23:33.268Z</time>
      </trkpt>
      <trkpt lat="48.86832" lon="2.366">
        <ele>97.7</ele>
        <time>2015-04-13T20:23:34.289Z</time>
      </trkpt>
      <trkpt lat="48.8683" lon="2.36594">
        <ele>97.8</ele>
        <time>2015-04-13T20:23:35.294Z</time>
      </trkpt>
      <trkpt lat="48.86828" lon="2.36588">
        <ele>97.8</ele>
        <time>2015-04-13T20:23:36.258Z</time>
      </trkpt>
      <trkpt lat="48.86826" lon="2.36581">
        <ele>97.8</ele>
        <time>2015-04-13T20:23:37.214Z</time>
      </trkpt>
      <trkpt lat="48.86823" lon="2.3657">
        <ele>97.7</ele>
        <time>2015-04-13T20:23:39.289Z</time>
      </trkpt>
      <trkpt lat="48.86821" lon="2.36564">
        <ele>97.7</ele>
        <time>2015-04-13T20:23:40.301Z</time>
      </trkpt>
      <trkpt lat="48.86819" lon="2.36557">
        <ele>97.8</ele>
        <time>2015-04-13T20:23:41.309Z</time>
      </trkpt>
      <trkpt lat="48.86817" lon="2.36551">
        <ele>97.9</ele>
        <time>2015-04-13T20:23:42.312Z</time>
      </trkpt>
      <trkpt lat="48.86813" lon="2.3654">
        <ele>98.4</ele>
        <time>2015-04-13T20:23:44.290Z</time>
      </trkpt>
      <trkpt lat="48.8681" lon="2.36534">
        <ele>98.4</ele>
        <time>2015-04-13T20:23:45.288Z</time>
      </trkpt>
      <trkpt lat="48.86807" lon="2.36529">
        <ele>98.5</ele>
        <time>2015-04-13T20:23:46.305Z</time>
      </trkpt>
      <trkpt lat="48.86803" lon="2.36524">
        <ele>98.8</ele>
        <time>2015-04-13T20:23:47.345Z</time>
      </trkpt>
      <trkpt lat="48.86797" lon="2.36518">
        <ele>98.1</ele>
        <time>2015-04-13T20:23:48.262Z</time>
      </trkpt>
      <trkpt lat="48.86792" lon="2.36511">
        <ele>97.3</ele>
        <time>2015-04-13T20:23:49.272Z</time>
      </trkpt>
      <trkpt lat="48.86785" lon="2.36503">
        <ele>95.6</ele>
        <time>2015-04-13T20:23:50.270Z</time>
      </trkpt>
      <trkpt lat="48.86781" lon="2.36497">
        <ele>95</ele>
        <time>2015-04-13T20:23:51.224Z</time>
      </trkpt>
      <trkpt lat="48.86777" lon="2.36491">
        <ele>94.5</ele>
        <time>2015-04-13T20:23:52.225Z</time>
      </trkpt>
      <trkpt lat="48.86773" lon="2.36486">
        <ele>94.3</ele>
        <time>2015-04-13T20:23:53.235Z</time>
      </trkpt>
      <trkpt lat="48.86767" lon="2.36477">
        <ele>93.6</ele>
        <time>2015-04-13T20:23:55.287Z</time>
      </trkpt>
      <trkpt lat="48.86765" lon="2.36471">
        <ele>93.3</ele>
        <time>2015-04-13T20:23:56.296Z</time>
      </trkpt>
      <trkpt lat="48.86763" lon="2.3646">
        <ele>92.9</ele>
        <time>2015-04-13T20:23:58.325Z</time>
      </trkpt>
      <trkpt lat="48.86764" lon="2.36453">
        <ele>92.6</ele>
        <time>2015-04-13T20:23:59.299Z</time>
      </trkpt>
      <trkpt lat="48.86766" lon="2.36441">
        <ele>92.4</ele>
        <time>2015-04-13T20:24:01.320Z</time>
      </trkpt>
      <trkpt lat="48.86766" lon="2.36436">
        <ele>92.4</ele>
        <time>2015-04-13T20:24:02.390Z</time>
      </trkpt>
      <trkpt lat="48.86763" lon="2.36423">
        <ele>92</ele>
        <time>2015-04-13T20:24:05.231Z</time>
      </trkpt>
      <trkpt lat="48.86762" lon="2.36419">
        <ele>92</ele>
        <time>2015-04-13T20:24:06.299Z</time>
      </trkpt>
      <trkpt lat="48.86761" lon="2.36405">
        <ele>92.3</ele>
        <time>2015-04-13T20:24:09.371Z</time>
      </trkpt>
      <trkpt lat="48.8676" lon="2.364">
        <ele>92.4</ele>
        <time>2015-04-13T20:24:10.247Z</time>
      </trkpt>
      <trkpt lat="48.86758" lon="2.36392">
        <ele>92.1</ele>
        <time>2015-04-13T20:24:12.260Z</time>
      </trkpt>
      <trkpt lat="48.86756" lon="2.36388">
        <ele>92.1</ele>
        <time>2015-04-13T20:24:13.278Z</time>
      </trkpt>
      <trkpt lat="48.86753" lon="2.3638">
        <ele>92</ele>
        <time>2015-04-13T20:24:15.321Z</time>
      </trkpt>
      <trkpt lat="48.86751" lon="2.36375">
        <ele>92.1</ele>
        <time>2015-04-13T20:24:16.334Z</time>
      </trkpt>
      <trkpt lat="48.86746" lon="2.36366">
        <ele>92</ele>
        <time>2015-04-13T20:24:19.302Z</time>
      </trkpt>
      <trkpt lat="48.86745" lon="2.36363">
        <ele>92.1</ele>
        <time>2015-04-13T20:24:20.313Z</time>
      </trkpt>
      <trkpt lat="48.86742" lon="2.36354">
        <ele>92.2</ele>
        <time>2015-04-13T20:24:23.301Z</time>
      </trkpt>
      <trkpt lat="48.86741" lon="2.36351">
        <ele>91.9</ele>
        <time>2015-04-13T20:24:24.310Z</time>
      </trkpt>
      <trkpt lat="48.86735" lon="2.36343">
        <ele>91.8</ele>
        <time>2015-04-13T20:24:27.292Z</time>
      </trkpt>
      <trkpt lat="48.86733" lon="2.3634">
        <ele>91.8</ele>
        <time>2015-04-13T20:24:28.312Z</time>
      </trkpt>
      <trkpt lat="48.86727" lon="2.36333">
        <ele>91.5</ele>
        <time>2015-04-13T20:24:30.332Z</time>
      </trkpt>
      <trkpt lat="48.86724" lon="2.36328">
        <ele>91.2</ele>
        <time>2015-04-13T20:24:31.331Z</time>
      </trkpt>
      <trkpt lat="48.86718" lon="2.36319">
        <ele>91.4</ele>
        <time>2015-04-13T20:24:33.253Z</time>
      </trkpt>
      <trkpt lat="48.86715" lon="2.36313">
        <ele>91.4</ele>
        <time>2015-04-13T20:24:34.253Z</time>
      </trkpt>
      <trkpt lat="48.86712" lon="2.36307">
        <ele>91.2</ele>
        <time>2015-04-13T20:24:35.261Z</time>
      </trkpt>
      <trkpt lat="48.86709" lon="2.36301">
        <ele>91.1</ele>
        <time>2015-04-13T20:24:36.271Z</time>
      </trkpt>
      <trkpt lat="48.86706" lon="2.36296">
        <ele>91</ele>
        <time>2015-04-13T20:24:37.309Z</time>
      </trkpt>
      <trkpt lat="48.86702" lon="2.36289">
        <ele>90.6</ele>
        <time>2015-04-13T20:24:38.320Z</time>
      </trkpt>
      <trkpt lat="48.86698" lon="2.36283">
        <ele>90.6</ele>
        <time>2015-04-13T20:24:39.328Z</time>
      </trkpt>
      <trkpt lat="48.86694" lon="2.36277">
        <ele>90.7</ele>
        <time>2015-04-13T20:24:40.333Z</time>
      </trkpt>
      <trkpt lat="48.8669" lon="2.36269">
        <ele>91.2</ele>
        <time>2015-04-13T20:24:41.246Z</time>
      </trkpt>
      <trkpt lat="48.86686" lon="2.36262">
        <ele>91.1</ele>
        <time>2015-04-13T20:24:42.252Z</time>
      </trkpt>
      <trkpt lat="48.86683" lon="2.36257">
        <ele>91.2</ele>
        <time>2015-04-13T20:24:43.269Z</time>
      </trkpt>
      <trkpt lat="48.86679" lon="2.3625">
        <ele>91.2</ele>
        <time>2015-04-13T20:24:44.282Z</time>
      </trkpt>
      <trkpt lat="48.86676" lon="2.36244">
        <ele>91.3</ele>
        <time>2015-04-13T20:24:45.280Z</time>
      </trkpt>
      <trkpt lat="48.86673" lon="2.36238">
        <ele>91.6</ele>
        <time>2015-04-13T20:24:46.287Z</time>
      </trkpt>
      <trkpt lat="48.8667" lon="2.36233">
        <ele>91.5</ele>
        <time>2015-04-13T20:24:47.303Z</time>
      </trkpt>
      <trkpt lat="48.86667" lon="2.36227">
        <ele>91.5</ele>
        <time>2015-04-13T20:24:48.306Z</time>
      </trkpt>
      <trkpt lat="48.86665" lon="2.36221">
        <ele>91.2</ele>
        <time>2015-04-13T20:24:49.319Z</time>
      </trkpt>
      <trkpt lat="48.86663" lon="2.36214">
        <ele>91</ele>
        <time>2015-04-13T20:24:50.329Z</time>
      </trkpt>
      <trkpt lat="48.86659" lon="2.36205">
        <ele>90.7</ele>
        <time>2015-04-13T20:24:52.272Z</time>
      </trkpt>
      <trkpt lat="48.86656" lon="2.362">
        <ele>90.5</ele>
        <time>2015-04-13T20:24:53.306Z</time>
      </trkpt>
      <trkpt lat="48.86653" lon="2.36195">
        <ele>90.7</ele>
        <time>2015-04-13T20:24:54.296Z</time>
      </trkpt>
      <trkpt lat="48.8665" lon="2.36189">
        <ele>90.9</ele>
        <time>2015-04-13T20:24:55.287Z</time>
      </trkpt>
      <trkpt lat="48.86647" lon="2.36183">
        <ele>91.3</ele>
        <time>2015-04-13T20:24:56.295Z</time>
      </trkpt>
      <trkpt lat="48.86645" lon="2.36178">
        <ele>91.6</ele>
        <time>2015-04-13T20:24:57.304Z</time>
      </trkpt>
      <trkpt lat="48.86642" lon="2.3617">
        <ele>93.6</ele>
        <time>2015-04-13T20:24:58.334Z</time>
      </trkpt>
      <trkpt lat="48.8664" lon="2.36164">
        <ele>94.4</ele>
        <time>2015-04-13T20:24:59.239Z</time>
      </trkpt>
      <trkpt lat="48.86639" lon="2.36157">
        <ele>94.3</ele>
        <time>2015-04-13T20:25:00.244Z</time>
      </trkpt>
      <trkpt lat="48.86638" lon="2.36148">
        <ele>94</ele>
        <time>2015-04-13T20:25:01.252Z</time>
      </trkpt>
      <trkpt lat="48.86638" lon="2.36139">
        <ele>94</ele>
        <time>2015-04-13T20:25:02.275Z</time>
      </trkpt>
      <trkpt lat="48.86637" lon="2.3613">
        <ele>93.9</ele>
        <time>2015-04-13T20:25:03.283Z</time>
      </trkpt>
      <trkpt lat="48.86637" lon="2.3612">
        <ele>93.8</ele>
        <time>2015-04-13T20:25:04.230Z</time>
      </trkpt>
      <trkpt lat="48.86636" lon="2.36111">
        <ele>93.5</ele>
        <time>2015-04-13T20:25:05.236Z</time>
      </trkpt>
      <trkpt lat="48.86635" lon="2.36103">
        <ele>93.4</ele>
        <time>2015-04-13T20:25:06.234Z</time>
      </trkpt>
      <trkpt lat="48.86634" lon="2.36093">
        <ele>93.4</ele>
        <time>2015-04-13T20:25:07.247Z</time>
      </trkpt>
      <trkpt lat="48.86632" lon="2.36084">
        <ele>93.3</ele>
        <time>2015-04-13T20:25:08.272Z</time>
      </trkpt>
      <trkpt lat="48.8663" lon="2.36075">
        <ele>93</ele>
        <time>2015-04-13T20:25:09.268Z</time>
      </trkpt>
      <trkpt lat="48.86628" lon="2.36065">
        <ele>92.8</ele>
        <time>2015-04-13T20:25:10.286Z</time>
      </trkpt>
      <trkpt lat="48.86626" lon="2.36056">
        <ele>92.6</ele>
        <time>2015-04-13T20:25:11.296Z</time>
      </trkpt>
      <trkpt lat="48.86623" lon="2.36048">
        <ele>92.6</ele>
        <time>2015-04-13T20:25:12.312Z</time>
      </trkpt>
      <trkpt lat="48.86621" lon="2.3604">
        <ele>92.3</ele>
        <time>2015-04-13T20:25:13.317Z</time>
      </trkpt>
      <trkpt lat="48.86619" lon="2.36031">
        <ele>92</ele>
        <time>2015-04-13T20:25:14.324Z</time>
      </trkpt>
      <trkpt lat="48.86617" lon="2.36021">
        <ele>91.7</ele>
        <time>2015-04-13T20:25:15.230Z</time>
      </trkpt>
      <trkpt lat="48.86615" lon="2.36011">
        <ele>91.6</ele>
        <time>2015-04-13T20:25:16.263Z</time>
      </trkpt>
      <trkpt lat="48.86613" lon="2.36001">
        <ele>91.2</ele>
        <time>2015-04-13T20:25:17.251Z</time>
      </trkpt>
      <trkpt lat="48.86611" lon="2.35991">
        <ele>91.2</ele>
        <time>2015-04-13T20:25:18.273Z</time>
      </trkpt>
      <trkpt lat="48.8661" lon="2.35981">
        <ele>91.3</ele>
        <time>2015-04-13T20:25:19.281Z</time>
      </trkpt>
      <trkpt lat="48.86608" lon="2.35972">
        <ele>91.1</ele>
        <time>2015-04-13T20:25:20.305Z</time>
      </trkpt>
      <trkpt lat="48.86607" lon="2.35961">
        <ele>91</ele>
        <time>2015-04-13T20:25:21.311Z</time>
      </trkpt>
      <trkpt lat="48.86605" lon="2.3595">
        <ele>91</ele>
        <time>2015-04-13T20:25:22.325Z</time>
      </trkpt>
      <trkpt lat="48.86604" lon="2.3594">
        <ele>91</ele>
        <time>2015-04-13T20:25:23.222Z</time>
      </trkpt>
      <trkpt lat="48.86603" lon="2.3593">
        <ele>90.8</ele>
        <time>2015-04-13T20:25:24.225Z</time>
      </trkpt>
      <trkpt lat="48.86602" lon="2.3592">
        <ele>90.6</ele>
        <time>2015-04-13T20:25:25.235Z</time>
      </trkpt>
      <trkpt lat="48.86601" lon="2.35911">
        <ele>90.4</ele>
        <time>2015-04-13T20:25:26.248Z</time>
      </trkpt>
      <trkpt lat="48.86601" lon="2.35902">
        <ele>90.4</ele>
        <time>2015-04-13T20:25:27.253Z</time>
      </trkpt>
      <trkpt lat="48.86599" lon="2.35892">
        <ele>90.5</ele>
        <time>2015-04-13T20:25:28.259Z</time>
      </trkpt>
      <trkpt lat="48.86597" lon="2.35883">
        <ele>90.5</ele>
        <time>2015-04-13T20:25:29.264Z</time>
      </trkpt>
      <trkpt lat="48.86596" lon="2.35873">
        <ele>90.7</ele>
        <time>2015-04-13T20:25:30.281Z</time>
      </trkpt>
      <trkpt lat="48.86594" lon="2.35862">
        <ele>90.5</ele>
        <time>2015-04-13T20:25:31.290Z</time>
      </trkpt>
      <trkpt lat="48.86592" lon="2.35853">
        <ele>90.6</ele>
        <time>2015-04-13T20:25:32.297Z</time>
      </trkpt>
      <trkpt lat="48.86591" lon="2.35844">
        <ele>90.8</ele>
        <time>2015-04-13T20:25:33.223Z</time>
      </trkpt>
      <trkpt lat="48.8659" lon="2.35826">
        <ele>91.1</ele>
        <time>2015-04-13T20:25:35.228Z</time>
      </trkpt>
      <trkpt lat="48.8659" lon="2.35816">
        <ele>91.4</ele>
        <time>2015-04-13T20:25:36.252Z</time>
      </trkpt>
      <trkpt lat="48.8659" lon="2.35808">
        <ele>91.3</ele>
        <time>2015-04-13T20:25:37.274Z</time>
      </trkpt>
      <trkpt lat="48.86589" lon="2.358">
        <ele>91.5</ele>
        <time>2015-04-13T20:25:38.304Z</time>
      </trkpt>
      <trkpt lat="48.86588" lon="2.35792">
        <ele>91.6</ele>
        <time>2015-04-13T20:25:39.312Z</time>
      </trkpt>
      <trkpt lat="48.86581" lon="2.3578">
        <ele>90.4</ele>
        <time>2015-04-13T20:25:40.208Z</time>
      </trkpt>
      <trkpt lat="48.86576" lon="2.35769">
        <ele>89.9</ele>
        <time>2015-04-13T20:25:41.239Z</time>
      </trkpt>
      <trkpt lat="48.86574" lon="2.35759">
        <ele>90</ele>
        <time>2015-04-13T20:25:42.273Z</time>
      </trkpt>
      <trkpt lat="48.86572" lon="2.3575">
        <ele>90.1</ele>
        <time>2015-04-13T20:25:43.292Z</time>
      </trkpt>
      <trkpt lat="48.8657" lon="2.35739">
        <ele>90.3</ele>
        <time>2015-04-13T20:25:44.305Z</time>
      </trkpt>
      <trkpt lat="48.8657" lon="2.35728">
        <ele>90.3</ele>
        <time>2015-04-13T20:25:45.305Z</time>
      </trkpt>
      <trkpt lat="48.86569" lon="2.35719">
        <ele>90.6</ele>
        <time>2015-04-13T20:25:46.271Z</time>
      </trkpt>
      <trkpt lat="48.86569" lon="2.35711">
        <ele>90.8</ele>
        <time>2015-04-13T20:25:47.291Z</time>
      </trkpt>
      <trkpt lat="48.86562" lon="2.357">
        <ele>88.7</ele>
        <time>2015-04-13T20:25:48.233Z</time>
      </trkpt>
      <trkpt lat="48.86556" lon="2.35689">
        <ele>87.8</ele>
        <time>2015-04-13T20:25:49.235Z</time>
      </trkpt>
      <trkpt lat="48.86553" lon="2.35679">
        <ele>87.9</ele>
        <time>2015-04-13T20:25:50.359Z</time>
      </trkpt>
      <trkpt lat="48.86551" lon="2.35669">
        <ele>88.4</ele>
        <time>2015-04-13T20:25:51.251Z</time>
      </trkpt>
      <trkpt lat="48.86551" lon="2.3566">
        <ele>88.8</ele>
        <time>2015-04-13T20:25:52.277Z</time>
      </trkpt>
      <trkpt lat="48.86551" lon="2.35651">
        <ele>89.3</ele>
        <time>2015-04-13T20:25:53.324Z</time>
      </trkpt>
      <trkpt lat="48.86551" lon="2.35643">
        <ele>89.8</ele>
        <time>2015-04-13T20:25:54.313Z</time>
      </trkpt>
      <trkpt lat="48.86548" lon="2.35633">
        <ele>90.9</ele>
        <time>2015-04-13T20:25:55.208Z</time>
      </trkpt>
      <trkpt lat="48.86547" lon="2.35625">
        <ele>91.1</ele>
        <time>2015-04-13T20:25:56.243Z</time>
      </trkpt>
      <trkpt lat="48.86546" lon="2.35618">
        <ele>91.4</ele>
        <time>2015-04-13T20:25:57.265Z</time>
      </trkpt>
      <trkpt lat="48.86539" lon="2.3561">
        <ele>90.5</ele>
        <time>2015-04-13T20:25:58.268Z</time>
      </trkpt>
      <trkpt lat="48.86534" lon="2.35605">
        <ele>90.2</ele>
        <time>2015-04-13T20:25:59.229Z</time>
      </trkpt>
      <trkpt lat="48.8653" lon="2.35598">
        <ele>89.7</ele>
        <time>2015-04-13T20:26:00.236Z</time>
      </trkpt>
      <trkpt lat="48.86525" lon="2.35592">
        <ele>89</ele>
        <time>2015-04-13T20:26:01.256Z</time>
      </trkpt>
      <trkpt lat="48.86521" lon="2.35587">
        <ele>88.6</ele>
        <time>2015-04-13T20:26:02.280Z</time>
      </trkpt>
      <trkpt lat="48.86517" lon="2.35584">
        <ele>88.5</ele>
        <time>2015-04-13T20:26:03.298Z</time>
      </trkpt>
      <trkpt lat="48.86513" lon="2.3558">
        <ele>88.3</ele>
        <time>2015-04-13T20:26:04.340Z</time>
      </trkpt>
      <trkpt lat="48.86508" lon="2.35576">
        <ele>88</ele>
        <time>2015-04-13T20:26:05.279Z</time>
      </trkpt>
      <trkpt lat="48.86504" lon="2.35573">
        <ele>88</ele>
        <time>2015-04-13T20:26:06.199Z</time>
      </trkpt>
      <trkpt lat="48.865" lon="2.3557">
        <ele>88</ele>
        <time>2015-04-13T20:26:07.224Z</time>
      </trkpt>
      <trkpt lat="48.86496" lon="2.35567">
        <ele>87.8</ele>
        <time>2015-04-13T20:26:08.258Z</time>
      </trkpt>
      <trkpt lat="48.86491" lon="2.35564">
        <ele>87.8</ele>
        <time>2015-04-13T20:26:09.269Z</time>
      </trkpt>
      <trkpt lat="48.86487" lon="2.35561">
        <ele>87.7</ele>
        <time>2015-04-13T20:26:10.302Z</time>
      </trkpt>
      <trkpt lat="48.86479" lon="2.35556">
        <ele>87.8</ele>
        <time>2015-04-13T20:26:12.240Z</time>
      </trkpt>
      <trkpt lat="48.86475" lon="2.35553">
        <ele>87.7</ele>
        <time>2015-04-13T20:26:13.260Z</time>
      </trkpt>
      <trkpt lat="48.86471" lon="2.35549">
        <ele>87.7</ele>
        <time>2015-04-13T20:26:14.261Z</time>
      </trkpt>
      <trkpt lat="48.86466" lon="2.35545">
        <ele>87.5</ele>
        <time>2015-04-13T20:26:15.273Z</time>
      </trkpt>
      <trkpt lat="48.86462" lon="2.35543">
        <ele>87.4</ele>
        <time>2015-04-13T20:26:16.305Z</time>
      </trkpt>
      <trkpt lat="48.86458" lon="2.3554">
        <ele>87.3</ele>
        <time>2015-04-13T20:26:17.317Z</time>
      </trkpt>
      <trkpt lat="48.86453" lon="2.35537">
        <ele>87.1</ele>
        <time>2015-04-13T20:26:18.226Z</time>
      </trkpt>
      <trkpt lat="48.86448" lon="2.35533">
        <ele>87.1</ele>
        <time>2015-04-13T20:26:19.263Z</time>
      </trkpt>
      <trkpt lat="48.86442" lon="2.3553">
        <ele>87</ele>
        <time>2015-04-13T20:26:20.297Z</time>
      </trkpt>
      <trkpt lat="48.86438" lon="2.35527">
        <ele>87</ele>
        <time>2015-04-13T20:26:21.314Z</time>
      </trkpt>
      <trkpt lat="48.86432" lon="2.35524">
        <ele>87.2</ele>
        <time>2015-04-13T20:26:22.228Z</time>
      </trkpt>
      <trkpt lat="48.86427" lon="2.35522">
        <ele>87.3</ele>
        <time>2015-04-13T20:26:23.237Z</time>
      </trkpt>
      <trkpt lat="48.86423" lon="2.35519">
        <ele>87.5</ele>
        <time>2015-04-13T20:26:24.246Z</time>
      </trkpt>
      <trkpt lat="48.86418" lon="2.35516">
        <ele>87.6</ele>
        <time>2015-04-13T20:26:25.252Z</time>
      </trkpt>
      <trkpt lat="48.86414" lon="2.35512">
        <ele>87.6</ele>
        <time>2015-04-13T20:26:26.267Z</time>
      </trkpt>
      <trkpt lat="48.86409" lon="2.35509">
        <ele>87.7</ele>
        <time>2015-04-13T20:26:27.278Z</time>
      </trkpt>
      <trkpt lat="48.86404" lon="2.35506">
        <ele>87.6</ele>
        <time>2015-04-13T20:26:28.222Z</time>
      </trkpt>
      <trkpt lat="48.86399" lon="2.35504">
        <ele>87.6</ele>
        <time>2015-04-13T20:26:29.217Z</time>
      </trkpt>
      <trkpt lat="48.86394" lon="2.35501">
        <ele>87.7</ele>
        <time>2015-04-13T20:26:30.215Z</time>
      </trkpt>
      <trkpt lat="48.86388" lon="2.35498">
        <ele>87.8</ele>
        <time>2015-04-13T20:26:31.230Z</time>
      </trkpt>
      <trkpt lat="48.86383" lon="2.35495">
        <ele>87.8</ele>
        <time>2015-04-13T20:26:32.267Z</time>
      </trkpt>
      <trkpt lat="48.86377" lon="2.35492">
        <ele>87.8</ele>
        <time>2015-04-13T20:26:33.274Z</time>
      </trkpt>
      <trkpt lat="48.86372" lon="2.35489">
        <ele>87.9</ele>
        <time>2015-04-13T20:26:34.282Z</time>
      </trkpt>
      <trkpt lat="48.86367" lon="2.35487">
        <ele>88</ele>
        <time>2015-04-13T20:26:35.241Z</time>
      </trkpt>
      <trkpt lat="48.86362" lon="2.35484">
        <ele>88</ele>
        <time>2015-04-13T20:26:36.258Z</time>
      </trkpt>
      <trkpt lat="48.86358" lon="2.3548">
        <ele>88</ele>
        <time>2015-04-13T20:26:37.274Z</time>
      </trkpt>
      <trkpt lat="48.86353" lon="2.35478">
        <ele>88</ele>
        <time>2015-04-13T20:26:38.273Z</time>
      </trkpt>
      <trkpt lat="48.86349" lon="2.35476">
        <ele>88</ele>
        <time>2015-04-13T20:26:39.275Z</time>
      </trkpt>
      <trkpt lat="48.86344" lon="2.35473">
        <ele>88.1</ele>
        <time>2015-04-13T20:26:40.295Z</time>
      </trkpt>
      <trkpt lat="48.8634" lon="2.3547">
        <ele>88.1</ele>
        <time>2015-04-13T20:26:41.301Z</time>
      </trkpt>
      <trkpt lat="48.86336" lon="2.35465">
        <ele>88.1</ele>
        <time>2015-04-13T20:26:42.212Z</time>
      </trkpt>
      <trkpt lat="48.86331" lon="2.35461">
        <ele>88.2</ele>
        <time>2015-04-13T20:26:43.230Z</time>
      </trkpt>
      <trkpt lat="48.86326" lon="2.35458">
        <ele>88.7</ele>
        <time>2015-04-13T20:26:44.243Z</time>
      </trkpt>
      <trkpt lat="48.86321" lon="2.35456">
        <ele>88.8</ele>
        <time>2015-04-13T20:26:45.260Z</time>
      </trkpt>
      <trkpt lat="48.86317" lon="2.35454">
        <ele>89</ele>
        <time>2015-04-13T20:26:46.269Z</time>
      </trkpt>
      <trkpt lat="48.86313" lon="2.35452">
        <ele>89.2</ele>
        <time>2015-04-13T20:26:47.272Z</time>
      </trkpt>
      <trkpt lat="48.86309" lon="2.35449">
        <ele>89.2</ele>
        <time>2015-04-13T20:26:48.285Z</time>
      </trkpt>
      <trkpt lat="48.86304" lon="2.35446">
        <ele>89.3</ele>
        <time>2015-04-13T20:26:49.293Z</time>
      </trkpt>
      <trkpt lat="48.86299" lon="2.35444">
        <ele>89.3</ele>
        <time>2015-04-13T20:26:50.309Z</time>
      </trkpt>
      <trkpt lat="48.86294" lon="2.35443">
        <ele>89.3</ele>
        <time>2015-04-13T20:26:51.222Z</time>
      </trkpt>
      <trkpt lat="48.8629" lon="2.35441">
        <ele>89.4</ele>
        <time>2015-04-13T20:26:52.291Z</time>
      </trkpt>
      <trkpt lat="48.86286" lon="2.35439">
        <ele>89.4</ele>
        <time>2015-04-13T20:26:53.309Z</time>
      </trkpt>
      <trkpt lat="48.86277" lon="2.35438">
        <ele>89.6</ele>
        <time>2015-04-13T20:26:55.247Z</time>
      </trkpt>
      <trkpt lat="48.86273" lon="2.35437">
        <ele>89.6</ele>
        <time>2015-04-13T20:26:56.372Z</time>
      </trkpt>
      <trkpt lat="48.86266" lon="2.35435">
        <ele>89.8</ele>
        <time>2015-04-13T20:26:58.243Z</time>
      </trkpt>
      <trkpt lat="48.86263" lon="2.35432">
        <ele>90</ele>
        <time>2015-04-13T20:26:59.265Z</time>
      </trkpt>
      <trkpt lat="48.86257" lon="2.35428">
        <ele>90</ele>
        <time>2015-04-13T20:27:01.227Z</time>
      </trkpt>
      <trkpt lat="48.86253" lon="2.35428">
        <ele>90.3</ele>
        <time>2015-04-13T20:27:02.270Z</time>
      </trkpt>
      <trkpt lat="48.86249" lon="2.35426">
        <ele>90.5</ele>
        <time>2015-04-13T20:27:03.213Z</time>
      </trkpt>
      <trkpt lat="48.86242" lon="2.35421">
        <ele>90.4</ele>
        <time>2015-04-13T20:27:05.283Z</time>
      </trkpt>
      <trkpt lat="48.86234" lon="2.35416">
        <ele>90.4</ele>
        <time>2015-04-13T20:27:07.243Z</time>
      </trkpt>
      <trkpt lat="48.86229" lon="2.35414">
        <ele>90.5</ele>
        <time>2015-04-13T20:27:08.284Z</time>
      </trkpt>
      <trkpt lat="48.86225" lon="2.35411">
        <ele>90.7</ele>
        <time>2015-04-13T20:27:09.296Z</time>
      </trkpt>
      <trkpt lat="48.8622" lon="2.35408">
        <ele>90.7</ele>
        <time>2015-04-13T20:27:10.306Z</time>
      </trkpt>
      <trkpt lat="48.86214" lon="2.35405">
        <ele>90.8</ele>
        <time>2015-04-13T20:27:11.219Z</time>
      </trkpt>
      <trkpt lat="48.86209" lon="2.35402">
        <ele>90.8</ele>
        <time>2015-04-13T20:27:12.220Z</time>
      </trkpt>
      <trkpt lat="48.86203" lon="2.35399">
        <ele>90.9</ele>
        <time>2015-04-13T20:27:13.255Z</time>
      </trkpt>
      <trkpt lat="48.86197" lon="2.35396">
        <ele>90.9</ele>
        <time>2015-04-13T20:27:14.284Z</time>
      </trkpt>
      <trkpt lat="48.86191" lon="2.35392">
        <ele>91.1</ele>
        <time>2015-04-13T20:27:15.312Z</time>
      </trkpt>
      <trkpt lat="48.86186" lon="2.35389">
        <ele>91.2</ele>
        <time>2015-04-13T20:27:16.310Z</time>
      </trkpt>
      <trkpt lat="48.86181" lon="2.35385">
        <ele>91.3</ele>
        <time>2015-04-13T20:27:17.312Z</time>
      </trkpt>
      <trkpt lat="48.86177" lon="2.35382">
        <ele>91.3</ele>
        <time>2015-04-13T20:27:18.262Z</time>
      </trkpt>
      <trkpt lat="48.86172" lon="2.35378">
        <ele>91.4</ele>
        <time>2015-04-13T20:27:19.280Z</time>
      </trkpt>
      <trkpt lat="48.86168" lon="2.35375">
        <ele>91.5</ele>
        <time>2015-04-13T20:27:20.292Z</time>
      </trkpt>
      <trkpt lat="48.86163" lon="2.35371">
        <ele>91.7</ele>
        <time>2015-04-13T20:27:21.303Z</time>
      </trkpt>
      <trkpt lat="48.86158" lon="2.35368">
        <ele>91.8</ele>
        <time>2015-04-13T20:27:22.307Z</time>
      </trkpt>
      <trkpt lat="48.86154" lon="2.35365">
        <ele>92</ele>
        <time>2015-04-13T20:27:23.315Z</time>
      </trkpt>
      <trkpt lat="48.86149" lon="2.35362">
        <ele>92.3</ele>
        <time>2015-04-13T20:27:24.222Z</time>
      </trkpt>
      <trkpt lat="48.86143" lon="2.35359">
        <ele>92.5</ele>
        <time>2015-04-13T20:27:25.263Z</time>
      </trkpt>
      <trkpt lat="48.86138" lon="2.35357">
        <ele>92.9</ele>
        <time>2015-04-13T20:27:26.279Z</time>
      </trkpt>
      <trkpt lat="48.86134" lon="2.35356">
        <ele>93.2</ele>
        <time>2015-04-13T20:27:27.299Z</time>
      </trkpt>
      <trkpt lat="48.86129" lon="2.35352">
        <ele>93.6</ele>
        <time>2015-04-13T20:27:28.337Z</time>
      </trkpt>
      <trkpt lat="48.86124" lon="2.35348">
        <ele>94.5</ele>
        <time>2015-04-13T20:27:29.209Z</time>
      </trkpt>
      <trkpt lat="48.86118" lon="2.35343">
        <ele>95.3</ele>
        <time>2015-04-13T20:27:30.213Z</time>
      </trkpt>
      <trkpt lat="48.86112" lon="2.35339">
        <ele>95.8</ele>
        <time>2015-04-13T20:27:31.562Z</time>
      </trkpt>
      <trkpt lat="48.86107" lon="2.35334">
        <ele>96.7</ele>
        <time>2015-04-13T20:27:32.231Z</time>
      </trkpt>
      <trkpt lat="48.86101" lon="2.35329">
        <ele>97.9</ele>
        <time>2015-04-13T20:27:33.250Z</time>
      </trkpt>
      <trkpt lat="48.86095" lon="2.35325">
        <ele>98.1</ele>
        <time>2015-04-13T20:27:34.290Z</time>
      </trkpt>
      <trkpt lat="48.86088" lon="2.35322">
        <ele>98.6</ele>
        <time>2015-04-13T20:27:35.233Z</time>
      </trkpt>
      <trkpt lat="48.86082" lon="2.35319">
        <ele>99.2</ele>
        <time>2015-04-13T20:27:36.321Z</time>
      </trkpt>
      <trkpt lat="48.86076" lon="2.35315">
        <ele>99.9</ele>
        <time>2015-04-13T20:27:37.245Z</time>
      </trkpt>
      <trkpt lat="48.8607" lon="2.35313">
        <ele>100.1</ele>
        <time>2015-04-13T20:27:38.266Z</time>
      </trkpt>
      <trkpt lat="48.86063" lon="2.35313">
        <ele>100.5</ele>
        <time>2015-04-13T20:27:39.279Z</time>
      </trkpt>
      <trkpt lat="48.86057" lon="2.35312">
        <ele>101</ele>
        <time>2015-04-13T20:27:40.308Z</time>
      </trkpt>
      <trkpt lat="48.86051" lon="2.35311">
        <ele>101.5</ele>
        <time>2015-04-13T20:27:41.317Z</time>
      </trkpt>
      <trkpt lat="48.86044" lon="2.3531">
        <ele>102.5</ele>
        <time>2015-04-13T20:27:42.318Z</time>
      </trkpt>
      <trkpt lat="48.86038" lon="2.35307">
        <ele>103.5</ele>
        <time>2015-04-13T20:27:43.261Z</time>
      </trkpt>
      <trkpt lat="48.86031" lon="2.35304">
        <ele>105</ele>
        <time>2015-04-13T20:27:44.373Z</time>
      </trkpt>
      <trkpt lat="48.86025" lon="2.35299">
        <ele>106.1</ele>
        <time>2015-04-13T20:27:45.328Z</time>
      </trkpt>
      <trkpt lat="48.86019" lon="2.35295">
        <ele>107</ele>
        <time>2015-04-13T20:27:46.240Z</time>
      </trkpt>
      <trkpt lat="48.86012" lon="2.35291">
        <ele>107.8</ele>
        <time>2015-04-13T20:27:47.256Z</time>
      </trkpt>
      <trkpt lat="48.86004" lon="2.35286">
        <ele>108.8</ele>
        <time>2015-04-13T20:27:48.273Z</time>
      </trkpt>
      <trkpt lat="48.85997" lon="2.35282">
        <ele>109.6</ele>
        <time>2015-04-13T20:27:49.319Z</time>
      </trkpt>
      <trkpt lat="48.8599" lon="2.35277">
        <ele>110.1</ele>
        <time>2015-04-13T20:27:50.328Z</time>
      </trkpt>
      <trkpt lat="48.85984" lon="2.35275">
        <ele>110.2</ele>
        <time>2015-04-13T20:27:51.230Z</time>
      </trkpt>
      <trkpt lat="48.85978" lon="2.35272">
        <ele>110.3</ele>
        <time>2015-04-13T20:27:52.232Z</time>
      </trkpt>
      <trkpt lat="48.85972" lon="2.35269">
        <ele>110.6</ele>
        <time>2015-04-13T20:27:53.436Z</time>
      </trkpt>
      <trkpt lat="48.85967" lon="2.35266">
        <ele>110.8</ele>
        <time>2015-04-13T20:27:54.245Z</time>
      </trkpt>
      <trkpt lat="48.85961" lon="2.35264">
        <ele>110.9</ele>
        <time>2015-04-13T20:27:55.262Z</time>
      </trkpt>
      <trkpt lat="48.85956" lon="2.35261">
        <ele>111.2</ele>
        <time>2015-04-13T20:27:56.265Z</time>
      </trkpt>
      <trkpt lat="48.85951" lon="2.35258">
        <ele>111.3</ele>
        <time>2015-04-13T20:27:57.213Z</time>
      </trkpt>
      <trkpt lat="48.85945" lon="2.35256">
        <ele>111.4</ele>
        <time>2015-04-13T20:27:58.230Z</time>
      </trkpt>
      <trkpt lat="48.8594" lon="2.35254">
        <ele>111.7</ele>
        <time>2015-04-13T20:27:59.248Z</time>
      </trkpt>
      <trkpt lat="48.85934" lon="2.35251">
        <ele>111.8</ele>
        <time>2015-04-13T20:28:00.262Z</time>
      </trkpt>
      <trkpt lat="48.85927" lon="2.35251">
        <ele>112.2</ele>
        <time>2015-04-13T20:28:01.291Z</time>
      </trkpt>
      <trkpt lat="48.85922" lon="2.35248">
        <ele>112.2</ele>
        <time>2015-04-13T20:28:02.291Z</time>
      </trkpt>
      <trkpt lat="48.85916" lon="2.35245">
        <ele>112</ele>
        <time>2015-04-13T20:28:03.296Z</time>
      </trkpt>
      <trkpt lat="48.8591" lon="2.35241">
        <ele>111.8</ele>
        <time>2015-04-13T20:28:04.323Z</time>
      </trkpt>
      <trkpt lat="48.85904" lon="2.35238">
        <ele>111.7</ele>
        <time>2015-04-13T20:28:05.232Z</time>
      </trkpt>
      <trkpt lat="48.85899" lon="2.35234">
        <ele>111.8</ele>
        <time>2015-04-13T20:28:06.312Z</time>
      </trkpt>
      <trkpt lat="48.85893" lon="2.3523">
        <ele>111.8</ele>
        <time>2015-04-13T20:28:07.234Z</time>
      </trkpt>
      <trkpt lat="48.85888" lon="2.35225">
        <ele>111.8</ele>
        <time>2015-04-13T20:28:08.297Z</time>
      </trkpt>
      <trkpt lat="48.85882" lon="2.35221">
        <ele>111.8</ele>
        <time>2015-04-13T20:28:09.217Z</time>
      </trkpt>
      <trkpt lat="48.85876" lon="2.35218">
        <ele>111.7</ele>
        <time>2015-04-13T20:28:10.220Z</time>
      </trkpt>
      <trkpt lat="48.85871" lon="2.35214">
        <ele>111.7</ele>
        <time>2015-04-13T20:28:11.228Z</time>
      </trkpt>
      <trkpt lat="48.85866" lon="2.3521">
        <ele>111.7</ele>
        <time>2015-04-13T20:28:12.241Z</time>
      </trkpt>
      <trkpt lat="48.8586" lon="2.35207">
        <ele>111.8</ele>
        <time>2015-04-13T20:28:13.251Z</time>
      </trkpt>
      <trkpt lat="48.85856" lon="2.35203">
        <ele>111.7</ele>
        <time>2015-04-13T20:28:14.254Z</time>
      </trkpt>
      <trkpt lat="48.85851" lon="2.352">
        <ele>111.6</ele>
        <time>2015-04-13T20:28:15.276Z</time>
      </trkpt>
      <trkpt lat="48.85846" lon="2.35197">
        <ele>111.7</ele>
        <time>2015-04-13T20:28:16.296Z</time>
      </trkpt>
      <trkpt lat="48.85841" lon="2.35195">
        <ele>111.7</ele>
        <time>2015-04-13T20:28:17.219Z</time>
      </trkpt>
      <trkpt lat="48.85836" lon="2.35192">
        <ele>111.6</ele>
        <time>2015-04-13T20:28:18.214Z</time>
      </trkpt>
      <trkpt lat="48.85831" lon="2.3519">
        <ele>111.5</ele>
        <time>2015-04-13T20:28:19.215Z</time>
      </trkpt>
      <trkpt lat="48.85825" lon="2.35187">
        <ele>111.6</ele>
        <time>2015-04-13T20:28:20.267Z</time>
      </trkpt>
      <trkpt lat="48.8582" lon="2.35184">
        <ele>111.3</ele>
        <time>2015-04-13T20:28:21.269Z</time>
      </trkpt>
      <trkpt lat="48.85816" lon="2.3518">
        <ele>111.2</ele>
        <time>2015-04-13T20:28:22.282Z</time>
      </trkpt>
      <trkpt lat="48.85811" lon="2.35175">
        <ele>111.1</ele>
        <time>2015-04-13T20:28:23.326Z</time>
      </trkpt>
      <trkpt lat="48.85806" lon="2.35171">
        <ele>111</ele>
        <time>2015-04-13T20:28:24.220Z</time>
      </trkpt>
      <trkpt lat="48.85754" lon="2.35144">
        <ele>110.9</ele>
        <time>2015-04-13T20:28:34.235Z</time>
      </trkpt>
      <trkpt lat="48.85749" lon="2.35143">
        <ele>110.8</ele>
        <time>2015-04-13T20:28:35.220Z</time>
      </trkpt>
      <trkpt lat="48.85744" lon="2.35141">
        <ele>110.8</ele>
        <time>2015-04-13T20:28:36.213Z</time>
      </trkpt>
      <trkpt lat="48.85737" lon="2.35135">
        <ele>110.8</ele>
        <time>2015-04-13T20:28:38.257Z</time>
      </trkpt>
      <trkpt lat="48.85737" lon="2.35126">
        <ele>110.7</ele>
        <time>2015-04-13T20:28:39.269Z</time>
      </trkpt>
      <trkpt lat="48.85739" lon="2.35118">
        <ele>110.4</ele>
        <time>2015-04-13T20:28:40.268Z</time>
      </trkpt>
      <trkpt lat="48.85743" lon="2.3511">
        <ele>110.2</ele>
        <time>2015-04-13T20:28:41.290Z</time>
      </trkpt>
      <trkpt lat="48.85749" lon="2.35102">
        <ele>109.9</ele>
        <time>2015-04-13T20:28:42.303Z</time>
      </trkpt>
      <trkpt lat="48.85752" lon="2.35094">
        <ele>109.4</ele>
        <time>2015-04-13T20:28:43.309Z</time>
      </trkpt>
      <trkpt lat="48.85755" lon="2.35086">
        <ele>109.3</ele>
        <time>2015-04-13T20:28:44.316Z</time>
      </trkpt>
      <trkpt lat="48.85759" lon="2.35076">
        <ele>108.7</ele>
        <time>2015-04-13T20:28:45.225Z</time>
      </trkpt>
      <trkpt lat="48.85761" lon="2.35066">
        <ele>108.4</ele>
        <time>2015-04-13T20:28:46.230Z</time>
      </trkpt>
      <trkpt lat="48.85765" lon="2.35058">
        <ele>108.2</ele>
        <time>2015-04-13T20:28:47.237Z</time>
      </trkpt>
      <trkpt lat="48.85768" lon="2.35046">
        <ele>108.1</ele>
        <time>2015-04-13T20:28:48.246Z</time>
      </trkpt>
      <trkpt lat="48.85771" lon="2.35037">
        <ele>107.9</ele>
        <time>2015-04-13T20:28:49.250Z</time>
      </trkpt>
      <trkpt lat="48.85774" lon="2.35029">
        <ele>107.8</ele>
        <time>2015-04-13T20:28:50.279Z</time>
      </trkpt>
      <trkpt lat="48.85775" lon="2.3502">
        <ele>108.1</ele>
        <time>2015-04-13T20:28:51.297Z</time>
      </trkpt>
      <trkpt lat="48.85778" lon="2.35012">
        <ele>108.4</ele>
        <time>2015-04-13T20:28:52.308Z</time>
      </trkpt>
      <trkpt lat="48.85781" lon="2.35007">
        <ele>108.5</ele>
        <time>2015-04-13T20:28:53.315Z</time>
      </trkpt>
      <trkpt lat="48.85786" lon="2.34997">
        <ele>108.3</ele>
        <time>2015-04-13T20:28:55.227Z</time>
      </trkpt>
      <trkpt lat="48.85789" lon="2.34993">
        <ele>108.2</ele>
        <time>2015-04-13T20:28:56.249Z</time>
      </trkpt>
      <trkpt lat="48.85793" lon="2.34986">
        <ele>107.7</ele>
        <time>2015-04-13T20:28:58.298Z</time>
      </trkpt>
      <trkpt lat="48.85795" lon="2.34982">
        <ele>107.6</ele>
        <time>2015-04-13T20:28:59.297Z</time>
      </trkpt>
      <trkpt lat="48.85797" lon="2.34971">
        <ele>107.4</ele>
        <time>2015-04-13T20:29:01.202Z</time>
      </trkpt>
      <trkpt lat="48.85799" lon="2.34965">
        <ele>107.1</ele>
        <time>2015-04-13T20:29:02.287Z</time>
      </trkpt>
      <trkpt lat="48.85802" lon="2.34953">
        <ele>106.2</ele>
        <time>2015-04-13T20:29:04.232Z</time>
      </trkpt>
      <trkpt lat="48.85805" lon="2.34946">
        <ele>106</ele>
        <time>2015-04-13T20:29:05.219Z</time>
      </trkpt>
      <trkpt lat="48.85807" lon="2.34939">
        <ele>105.7</ele>
        <time>2015-04-13T20:29:06.202Z</time>
      </trkpt>
      <trkpt lat="48.85809" lon="2.34932">
        <ele>105.6</ele>
        <time>2015-04-13T20:29:07.218Z</time>
      </trkpt>
      <trkpt lat="48.85812" lon="2.34923">
        <ele>105.4</ele>
        <time>2015-04-13T20:29:08.292Z</time>
      </trkpt>
      <trkpt lat="48.85814" lon="2.34915">
        <ele>105.2</ele>
        <time>2015-04-13T20:29:09.346Z</time>
      </trkpt>
      <trkpt lat="48.85816" lon="2.34907">
        <ele>105.1</ele>
        <time>2015-04-13T20:29:10.284Z</time>
      </trkpt>
      <trkpt lat="48.85819" lon="2.349">
        <ele>105</ele>
        <time>2015-04-13T20:29:11.278Z</time>
      </trkpt>
      <trkpt lat="48.85821" lon="2.34892">
        <ele>104.7</ele>
        <time>2015-04-13T20:29:12.333Z</time>
      </trkpt>
      <trkpt lat="48.85823" lon="2.34884">
        <ele>104.6</ele>
        <time>2015-04-13T20:29:13.346Z</time>
      </trkpt>
      <trkpt lat="48.85825" lon="2.34876">
        <ele>104.5</ele>
        <time>2015-04-13T20:29:14.352Z</time>
      </trkpt>
      <trkpt lat="48.85827" lon="2.34869">
        <ele>104.7</ele>
        <time>2015-04-13T20:29:15.257Z</time>
      </trkpt>
      <trkpt lat="48.85829" lon="2.34862">
        <ele>104.8</ele>
        <time>2015-04-13T20:29:16.358Z</time>
      </trkpt>
      <trkpt lat="48.85832" lon="2.34854">
        <ele>104.7</ele>
        <time>2015-04-13T20:29:17.316Z</time>
      </trkpt>
      <trkpt lat="48.85834" lon="2.34847">
        <ele>104.4</ele>
        <time>2015-04-13T20:29:18.343Z</time>
      </trkpt>
      <trkpt lat="48.85836" lon="2.34839">
        <ele>104.3</ele>
        <time>2015-04-13T20:29:19.252Z</time>
      </trkpt>
      <trkpt lat="48.85839" lon="2.34832">
        <ele>104.3</ele>
        <time>2015-04-13T20:29:20.398Z</time>
      </trkpt>
      <trkpt lat="48.85841" lon="2.34825">
        <ele>104.3</ele>
        <time>2015-04-13T20:29:21.227Z</time>
      </trkpt>
      <trkpt lat="48.85843" lon="2.34818">
        <ele>104.3</ele>
        <time>2015-04-13T20:29:22.270Z</time>
      </trkpt>
      <trkpt lat="48.85846" lon="2.34811">
        <ele>104.2</ele>
        <time>2015-04-13T20:29:23.290Z</time>
      </trkpt>
      <trkpt lat="48.85848" lon="2.34802">
        <ele>104.5</ele>
        <time>2015-04-13T20:29:24.321Z</time>
      </trkpt>
      <trkpt lat="48.8585" lon="2.34794">
        <ele>104.8</ele>
        <time>2015-04-13T20:29:25.251Z</time>
      </trkpt>
      <trkpt lat="48.85853" lon="2.34787">
        <ele>104.9</ele>
        <time>2015-04-13T20:29:26.352Z</time>
      </trkpt>
      <trkpt lat="48.85856" lon="2.3478">
        <ele>104.3</ele>
        <time>2015-04-13T20:29:27.265Z</time>
      </trkpt>
      <trkpt lat="48.85859" lon="2.34774">
        <ele>103.8</ele>
        <time>2015-04-13T20:29:28.329Z</time>
      </trkpt>
      <trkpt lat="48.85861" lon="2.34767">
        <ele>103.7</ele>
        <time>2015-04-13T20:29:29.256Z</time>
      </trkpt>
      <trkpt lat="48.85863" lon="2.3476">
        <ele>103.7</ele>
        <time>2015-04-13T20:29:30.272Z</time>
      </trkpt>
      <trkpt lat="48.85866" lon="2.34753">
        <ele>103.5</ele>
        <time>2015-04-13T20:29:31.272Z</time>
      </trkpt>
      <trkpt lat="48.85868" lon="2.34746">
        <ele>103.8</ele>
        <time>2015-04-13T20:29:32.288Z</time>
      </trkpt>
      <trkpt lat="48.8587" lon="2.34738">
        <ele>104.2</ele>
        <time>2015-04-13T20:29:33.298Z</time>
      </trkpt>
      <trkpt lat="48.85873" lon="2.34733">
        <ele>104.7</ele>
        <time>2015-04-13T20:29:34.316Z</time>
      </trkpt>
      <trkpt lat="48.85877" lon="2.34728">
        <ele>105.1</ele>
        <time>2015-04-13T20:29:35.322Z</time>
      </trkpt>
      <trkpt lat="48.85883" lon="2.3472">
        <ele>105.8</ele>
        <time>2015-04-13T20:29:37.242Z</time>
      </trkpt>
      <trkpt lat="48.85886" lon="2.34717">
        <ele>105.9</ele>
        <time>2015-04-13T20:29:38.278Z</time>
      </trkpt>
      <trkpt lat="48.85893" lon="2.3471">
        <ele>105.9</ele>
        <time>2015-04-13T20:29:40.320Z</time>
      </trkpt>
      <trkpt lat="48.85897" lon="2.34707">
        <ele>105.7</ele>
        <time>2015-04-13T20:29:41.331Z</time>
      </trkpt>
      <trkpt lat="48.85903" lon="2.34701">
        <ele>105.2</ele>
        <time>2015-04-13T20:29:43.337Z</time>
      </trkpt>
      <trkpt lat="48.85906" lon="2.34698">
        <ele>105.1</ele>
        <time>2015-04-13T20:29:44.361Z</time>
      </trkpt>
      <trkpt lat="48.85912" lon="2.34691">
        <ele>104.8</ele>
        <time>2015-04-13T20:29:46.303Z</time>
      </trkpt>
      <trkpt lat="48.85915" lon="2.34688">
        <ele>104.8</ele>
        <time>2015-04-13T20:29:47.308Z</time>
      </trkpt>
      <trkpt lat="48.85922" lon="2.34683">
        <ele>105</ele>
        <time>2015-04-13T20:29:49.213Z</time>
      </trkpt>
      <trkpt lat="48.85926" lon="2.34682">
        <ele>105</ele>
        <time>2015-04-13T20:29:50.308Z</time>
      </trkpt>
      <trkpt lat="48.85933" lon="2.34688">
        <ele>105.1</ele>
        <time>2015-04-13T20:29:58.241Z</time>
      </trkpt>
      <trkpt lat="48.85934" lon="2.34689">
        <ele>105.2</ele>
        <time>2015-04-13T20:29:59.250Z</time>
      </trkpt>
      <trkpt lat="48.85934" lon="2.34689">
        <ele>105.3</ele>
        <time>2015-04-13T20:30:00.298Z</time>
      </trkpt>
      <trkpt lat="48.85934" lon="2.3469">
        <ele>105.5</ele>
        <time>2015-04-13T20:30:01.320Z</time>
      </trkpt>
      <trkpt lat="48.85936" lon="2.34691">
        <ele>105.6</ele>
        <time>2015-04-13T20:30:06.246Z</time>
      </trkpt>
      <trkpt lat="48.85939" lon="2.34692">
        <ele>106.3</ele>
        <time>2015-04-13T20:30:07.303Z</time>
      </trkpt>
      <trkpt lat="48.85941" lon="2.34692">
        <ele>106.8</ele>
        <time>2015-04-13T20:30:11.230Z</time>
      </trkpt>
      <trkpt lat="48.85942" lon="2.34693">
        <ele>106.9</ele>
        <time>2015-04-13T20:30:12.253Z</time>
      </trkpt>
      <trkpt lat="48.85942" lon="2.34695">
        <ele>107.1</ele>
        <time>2015-04-13T20:30:14.278Z</time>
      </trkpt>
      <trkpt lat="48.85943" lon="2.34697">
        <ele>107.2</ele>
        <time>2015-04-13T20:30:15.283Z</time>
      </trkpt>
      <trkpt lat="48.85944" lon="2.34701">
        <ele>108.5</ele>
        <time>2015-04-13T20:30:27.270Z</time>
      </trkpt>
      <trkpt lat="48.85944" lon="2.34702">
        <ele>108.8</ele>
        <time>2015-04-13T20:30:28.318Z</time>
      </trkpt>
      <trkpt lat="48.85944" lon="2.34703">
        <ele>109</ele>
        <time>2015-04-13T20:30:53.258Z</time>
      </trkpt>
      <trkpt lat="48.85948" lon="2.34717">
        <ele>109</ele>
        <time>2015-04-13T20:30:54.235Z</time>
      </trkpt>
      <trkpt lat="48.85948" lon="2.34718">
        <ele>108.9</ele>
        <time>2015-04-13T20:30:55.297Z</time>
      </trkpt>
      <trkpt lat="48.85948" lon="2.34718">
        <ele>108.8</ele>
        <time>2015-04-13T20:30:56.292Z</time>
      </trkpt>
      <trkpt lat="48.85948" lon="2.34717">
        <ele>110.9</ele>
        <time>2015-04-13T20:31:14.313Z</time>
      </trkpt>
      <trkpt lat="48.85948" lon="2.34717">
        <ele>110.9</ele>
        <time>2015-04-13T20:31:15.225Z</time>
      </trkpt>
      <trkpt lat="48.85948" lon="2.34717">
        <ele>111</ele>
        <time>2015-04-13T20:31:21.250Z</time>
      </trkpt>
      <trkpt lat="48.85949" lon="2.34723">
        <ele>111.2</ele>
        <time>2015-04-13T20:31:22.280Z</time>
      </trkpt>
      <trkpt lat="48.85953" lon="2.34725">
        <ele>115.7</ele>
        <time>2015-04-13T20:31:51.254Z</time>
      </trkpt>
      <trkpt lat="48.85953" lon="2.34725">
        <ele>115.9</ele>
        <time>2015-04-13T20:31:52.277Z</time>
      </trkpt>
      <trkpt lat="48.85953" lon="2.34726">
        <ele>116.3</ele>
        <time>2015-04-13T20:31:53.311Z</time>
      </trkpt>
      <trkpt lat="48.85953" lon="2.34726">
        <ele>116.5</ele>
        <time>2015-04-13T20:31:54.214Z</time>
      </trkpt>
      <trkpt lat="48.85953" lon="2.34726">
        <ele>116.6</ele>
        <time>2015-04-13T20:31:55.235Z</time>
      </trkpt>
      <trkpt lat="48.85954" lon="2.34726">
        <ele>116.9</ele>
        <time>2015-04-13T20:31:58.219Z</time>
      </trkpt>
      <trkpt lat="48.85954" lon="2.34726">
        <ele>117.1</ele>
        <time>2015-04-13T20:31:59.217Z</time>
      </trkpt>
      <trkpt lat="48.85959" lon="2.3472">
        <ele>118.4</ele>
        <time>2015-04-13T20:32:11.227Z</time>
      </trkpt>
      <trkpt lat="48.85953" lon="2.34704">
        <ele>115.9</ele>
        <time>2015-04-13T20:32:26.242Z</time>
      </trkpt>
      <trkpt lat="48.85946" lon="2.34703">
        <ele>115.1</ele>
        <time>2015-04-13T20:33:34.209Z</time>
      </trkpt>
      <trkpt lat="48.85946" lon="2.34703">
        <ele>115.1</ele>
        <time>2015-04-13T20:33:35.240Z</time>
      </trkpt>
      <trkpt lat="48.85948" lon="2.34707">
        <ele>114.9</ele>
        <time>2015-04-13T20:33:48.266Z</time>
      </trkpt>
      <trkpt lat="48.85949" lon="2.34708">
        <ele>115.8</ele>
        <time>2015-04-13T20:33:53.243Z</time>
      </trkpt>
      <trkpt lat="48.85951" lon="2.34707">
        <ele>116.4</ele>
        <time>2015-04-13T20:33:56.228Z</time>
      </trkpt>
      <trkpt lat="48.8595" lon="2.34708">
        <ele>116.6</ele>
        <time>2015-04-13T20:33:57.297Z</time>
      </trkpt>
      <trkpt lat="48.8595" lon="2.3471">
        <ele>116.9</ele>
        <time>2015-04-13T20:34:24.243Z</time>
      </trkpt>
      <trkpt lat="48.85957" lon="2.3472">
        <ele>119</ele>
        <time>2015-04-13T20:34:37.275Z</time>
      </trkpt>
      <trkpt lat="48.85957" lon="2.3471">
        <ele>119.9</ele>
        <time>2015-04-13T20:35:09.275Z</time>
      </trkpt>
      <trkpt lat="48.85956" lon="2.3471">
        <ele>120.1</ele>
        <time>2015-04-13T20:35:10.327Z</time>
      </trkpt>
      <trkpt lat="48.85957" lon="2.34711">
        <ele>120.3</ele>
        <time>2015-04-13T20:36:17.275Z</time>
      </trkpt>
      <trkpt lat="48.8595" lon="2.34704">
        <ele>120.8</ele>
        <time>2015-04-13T20:36:18.286Z</time>
      </trkpt>
      <trkpt lat="48.85953" lon="2.34708">
        <ele>120.8</ele>
        <time>2015-04-13T20:36:29.218Z</time>
      </trkpt>
      <trkpt lat="48.85953" lon="2.34708">
        <ele>120.9</ele>
        <time>2015-04-13T20:36:30.219Z</time>
      </trkpt>
      <trkpt lat="48.85953" lon="2.34709">
        <ele>121.2</ele>
        <time>2015-04-13T20:36:34.214Z</time>
      </trkpt>
      <trkpt lat="48.85954" lon="2.3471">
        <ele>121.3</ele>
        <time>2015-04-13T20:36:35.212Z</time>
      </trkpt>
      <trkpt lat="48.85953" lon="2.3471">
        <ele>121.3</ele>
        <time>2015-04-13T20:36:36.209Z</time>
      </trkpt>
      <trkpt lat="48.85953" lon="2.3471">
        <ele>121.3</ele>
        <time>2015-04-13T20:36:39.235Z</time>
      </trkpt>
      <trkpt lat="48.85954" lon="2.34712">
        <ele>121.5</ele>
        <time>2015-04-13T20:36:40.261Z</time>
      </trkpt>
      <trkpt lat="48.85947" lon="2.34703">
        <ele>123.9</ele>
        <time>2015-04-13T20:37:18.255Z</time>
      </trkpt>
      <trkpt lat="48.85947" lon="2.34702">
        <ele>124.1</ele>
        <time>2015-04-13T20:37:19.264Z</time>
      </trkpt>
      <trkpt lat="48.85945" lon="2.347">
        <ele>124.8</ele>
        <time>2015-04-13T20:37:25.233Z</time>
      </trkpt>
      <trkpt lat="48.85945" lon="2.347">
        <ele>124.9</ele>
        <time>2015-04-13T20:37:26.246Z</time>
      </trkpt>
      <trkpt lat="48.85945" lon="2.34701">
        <ele>125</ele>
        <time>2015-04-13T20:37:27.229Z</time>
      </trkpt>
      <trkpt lat="48.85939" lon="2.34708">
        <ele>124.3</ele>
        <time>2015-04-13T20:37:30.252Z</time>
      </trkpt>
      <trkpt lat="48.85935" lon="2.3471">
        <ele>123.9</ele>
        <time>2015-04-13T20:37:31.265Z</time>
      </trkpt>
      <trkpt lat="48.85928" lon="2.34711">
        <ele>123.2</ele>
        <time>2015-04-13T20:37:32.266Z</time>
      </trkpt>
      <trkpt lat="48.85922" lon="2.34713">
        <ele>122.6</ele>
        <time>2015-04-13T20:37:33.312Z</time>
      </trkpt>
      <trkpt lat="48.85918" lon="2.34715">
        <ele>122.2</ele>
        <time>2015-04-13T20:37:34.322Z</time>
      </trkpt>
      <trkpt lat="48.85914" lon="2.34718">
        <ele>121.8</ele>
        <time>2015-04-13T20:37:35.249Z</time>
      </trkpt>
      <trkpt lat="48.85908" lon="2.34721">
        <ele>121</ele>
        <time>2015-04-13T20:37:36.248Z</time>
      </trkpt>
      <trkpt lat="48.85905" lon="2.34723">
        <ele>120.6</ele>
        <time>2015-04-13T20:37:37.216Z</time>
      </trkpt>
      <trkpt lat="48.85898" lon="2.34726">
        <ele>119.7</ele>
        <time>2015-04-13T20:37:39.273Z</time>
      </trkpt>
      <trkpt lat="48.85895" lon="2.34729">
        <ele>118.6</ele>
        <time>2015-04-13T20:37:40.303Z</time>
      </trkpt>
      <trkpt lat="48.85888" lon="2.34731">
        <ele>118.3</ele>
        <time>2015-04-13T20:37:42.288Z</time>
      </trkpt>
      <trkpt lat="48.85884" lon="2.34731">
        <ele>118.3</ele>
        <time>2015-04-13T20:37:43.297Z</time>
      </trkpt>
      <trkpt lat="48.85878" lon="2.34733">
        <ele>117.5</ele>
        <time>2015-04-13T20:37:47.270Z</time>
      </trkpt>
      <trkpt lat="48.85877" lon="2.34734">
        <ele>117.3</ele>
        <time>2015-04-13T20:37:48.224Z</time>
      </trkpt>
      <trkpt lat="48.85876" lon="2.34734">
        <ele>117.6</ele>
        <time>2015-04-13T20:37:51.244Z</time>
      </trkpt>
      <trkpt lat="48.85873" lon="2.34734">
        <ele>118.4</ele>
        <time>2015-04-13T20:37:52.273Z</time>
      </trkpt>
      <trkpt lat="48.85865" lon="2.34734">
        <ele>118.7</ele>
        <time>2015-04-13T20:37:55.311Z</time>
      </trkpt>
      <trkpt lat="48.85862" lon="2.34735">
        <ele>118.8</ele>
        <time>2015-04-13T20:37:56.317Z</time>
      </trkpt>
      <trkpt lat="48.85854" lon="2.34734">
        <ele>118.9</ele>
        <time>2015-04-13T20:37:58.273Z</time>
      </trkpt>
      <trkpt lat="48.85852" lon="2.34732">
        <ele>118.7</ele>
        <time>2015-04-13T20:37:59.292Z</time>
      </trkpt>
      <trkpt lat="48.85845" lon="2.34735">
        <ele>115.5</ele>
        <time>2015-04-13T20:38:02.266Z</time>
      </trkpt>
      <trkpt lat="48.85842" lon="2.34734">
        <ele>115.2</ele>
        <time>2015-04-13T20:38:03.269Z</time>
      </trkpt>
      <trkpt lat="48.85836" lon="2.34732">
        <ele>114.5</ele>
        <time>2015-04-13T20:38:05.293Z</time>
      </trkpt>
      <trkpt lat="48.85832" lon="2.34732">
        <ele>114.4</ele>
        <time>2015-04-13T20:38:06.297Z</time>
      </trkpt>
      <trkpt lat="48.85825" lon="2.3473">
        <ele>114.1</ele>
        <time>2015-04-13T20:38:08.273Z</time>
      </trkpt>
      <trkpt lat="48.85821" lon="2.34728">
        <ele>113.8</ele>
        <time>2015-04-13T20:38:09.264Z</time>
      </trkpt>
      <trkpt lat="48.85814" lon="2.34723">
        <ele>113.8</ele>
        <time>2015-04-13T20:38:11.316Z</time>
      </trkpt>
      <trkpt lat="48.85811" lon="2.34721">
        <ele>113.7</ele>
        <time>2015-04-13T20:38:12.305Z</time>
      </trkpt>
      <trkpt lat="48.85807" lon="2.34721">
        <ele>114</ele>
        <time>2015-04-13T20:38:13.240Z</time>
      </trkpt>
      <trkpt lat="48.85802" lon="2.34725">
        <ele>114.6</ele>
        <time>2015-04-13T20:38:14.264Z</time>
      </trkpt>
      <trkpt lat="48.85797" lon="2.34726">
        <ele>114.8</ele>
        <time>2015-04-13T20:38:15.268Z</time>
      </trkpt>
      <trkpt lat="48.85792" lon="2.34726">
        <ele>114.9</ele>
        <time>2015-04-13T20:38:16.276Z</time>
      </trkpt>
      <trkpt lat="48.85785" lon="2.34722">
        <ele>114.8</ele>
        <time>2015-04-13T20:38:18.312Z</time>
      </trkpt>
      <trkpt lat="48.85781" lon="2.3472">
        <ele>114.6</ele>
        <time>2015-04-13T20:38:19.325Z</time>
      </trkpt>
      <trkpt lat="48.85775" lon="2.34716">
        <ele>114.1</ele>
        <time>2015-04-13T20:38:21.285Z</time>
      </trkpt>
      <trkpt lat="48.85772" lon="2.34713">
        <ele>114</ele>
        <time>2015-04-13T20:38:22.297Z</time>
      </trkpt>
      <trkpt lat="48.85766" lon="2.3471">
        <ele>113.5</ele>
        <time>2015-04-13T20:38:24.234Z</time>
      </trkpt>
      <trkpt lat="48.85763" lon="2.3471">
        <ele>112.4</ele>
        <time>2015-04-13T20:38:25.256Z</time>
      </trkpt>
      <trkpt lat="48.85756" lon="2.34709">
        <ele>110.5</ele>
        <time>2015-04-13T20:38:27.283Z</time>
      </trkpt>
      <trkpt lat="48.85753" lon="2.34707">
        <ele>110</ele>
        <time>2015-04-13T20:38:28.303Z</time>
      </trkpt>
      <trkpt lat="48.85745" lon="2.34703">
        <ele>109.5</ele>
        <time>2015-04-13T20:38:30.234Z</time>
      </trkpt>
      <trkpt lat="48.85742" lon="2.34701">
        <ele>109.1</ele>
        <time>2015-04-13T20:38:31.290Z</time>
      </trkpt>
      <trkpt lat="48.85735" lon="2.34696">
        <ele>108.2</ele>
        <time>2015-04-13T20:38:33.235Z</time>
      </trkpt>
      <trkpt lat="48.85733" lon="2.34695">
        <ele>107.8</ele>
        <time>2015-04-13T20:38:34.211Z</time>
      </trkpt>
      <trkpt lat="48.85725" lon="2.3469">
        <ele>106.9</ele>
        <time>2015-04-13T20:38:40.234Z</time>
      </trkpt>
      <trkpt lat="48.85724" lon="2.34689">
        <ele>106.8</ele>
        <time>2015-04-13T20:38:41.238Z</time>
      </trkpt>
      <trkpt lat="48.85724" lon="2.34689">
        <ele>106.7</ele>
        <time>2015-04-13T20:38:42.246Z</time>
      </trkpt>
      <trkpt lat="48.85724" lon="2.34689">
        <ele>106.5</ele>
        <time>2015-04-13T20:38:43.258Z</time>
      </trkpt>
      <trkpt lat="48.85724" lon="2.34692">
        <ele>105.7</ele>
        <time>2015-04-13T20:38:47.273Z</time>
      </trkpt>
      <trkpt lat="48.85726" lon="2.34692">
        <ele>104.7</ele>
        <time>2015-04-13T20:38:48.473Z</time>
      </trkpt>
      <trkpt lat="48.85727" lon="2.34692">
        <ele>104</ele>
        <time>2015-04-13T20:38:55.321Z</time>
      </trkpt>
      <trkpt lat="48.85728" lon="2.34691">
        <ele>101.8</ele>
        <time>2015-04-13T20:38:56.329Z</time>
      </trkpt>
      <trkpt lat="48.8572" lon="2.34688">
        <ele>98.3</ele>
        <time>2015-04-13T20:39:02.337Z</time>
      </trkpt>
      <trkpt lat="48.85718" lon="2.34689">
        <ele>97.9</ele>
        <time>2015-04-13T20:39:03.228Z</time>
      </trkpt>
      <trkpt lat="48.85711" lon="2.34691">
        <ele>95.8</ele>
        <time>2015-04-13T20:39:07.240Z</time>
      </trkpt>
      <trkpt lat="48.85709" lon="2.3469">
        <ele>95.2</ele>
        <time>2015-04-13T20:39:08.292Z</time>
      </trkpt>
      <trkpt lat="48.85701" lon="2.34687">
        <ele>95.1</ele>
        <time>2015-04-13T20:39:11.215Z</time>
      </trkpt>
      <trkpt lat="48.85699" lon="2.34685">
        <ele>94.6</ele>
        <time>2015-04-13T20:39:12.219Z</time>
      </trkpt>
      <trkpt lat="48.85692" lon="2.3468">
        <ele>92.9</ele>
        <time>2015-04-13T20:39:15.297Z</time>
      </trkpt>
      <trkpt lat="48.8569" lon="2.34678">
        <ele>92.4</ele>
        <time>2015-04-13T20:39:16.305Z</time>
      </trkpt>
      <trkpt lat="48.85682" lon="2.34672">
        <ele>91.6</ele>
        <time>2015-04-13T20:39:19.233Z</time>
      </trkpt>
      <trkpt lat="48.85679" lon="2.34671">
        <ele>91.4</ele>
        <time>2015-04-13T20:39:20.254Z</time>
      </trkpt>
      <trkpt lat="48.85679" lon="2.34671">
        <ele>91.4</ele>
        <time>2015-04-13T20:39:20.705Z</time>
      </trkpt>
    </trkseg>
  </trk>
</gpx>